<?xml version='1.0' encoding='UTF-8'?><gpx version="1.1" creator="JPX - https://github.com/jenetics/jpx" xmlns="http://www.topografix.com/GPX/1/1"><trk><trkseg><trkpt lat="45.889645" lon="8.632755"><ele>250.0</ele><time>2026-04-12T06:27:07.303Z</time></trkpt><trkpt lat="45.88983" lon="8.6326883"><ele>250.0</ele><time>2026-04-12T06:27:08.303Z</time></trkpt><trkpt lat="45.889965" lon="8.6326383"><ele>250.0</ele><time>2026-04-12T06:27:09.803Z</time></trkpt><trkpt lat="45.890035" lon="8.6325783"><ele>250.0</ele><time>2026-04-12T06:31:47.803Z</time></trkpt><trkpt lat="45.8900717" lon="8.63248"><ele>250.4</ele><time>2026-04-12T06:31:51.803Z</time></trkpt><trkpt lat="45.89015" lon="8.6323917"><ele>250.8</ele><time>2026-04-12T06:31:53.802Z</time></trkpt><trkpt lat="45.8902133" lon="8.6323"><ele>251.2</ele><time>2026-04-12T06:31:54.803Z</time></trkpt><trkpt lat="45.89029" lon="8.6321567"><ele>251.6</ele><time>2026-04-12T06:31:55.803Z</time></trkpt><trkpt lat="45.8903633" lon="8.6320267"><ele>252.0</ele><time>2026-04-12T06:31:56.802Z</time></trkpt><trkpt lat="45.8904367" lon="8.6318983"><ele>252.8</ele><time>2026-04-12T06:31:57.803Z</time></trkpt><trkpt lat="45.8905233" lon="8.63178"><ele>253.6</ele><time>2026-04-12T06:31:58.803Z</time></trkpt><trkpt lat="45.8906067" lon="8.63167"><ele>254.40000000000003</ele><time>2026-04-12T06:31:59.803Z</time></trkpt><trkpt lat="45.8906783" lon="8.631585"><ele>255.20000000000002</ele><time>2026-04-12T06:32:00.803Z</time></trkpt><trkpt lat="45.89074" lon="8.6315117"><ele>256.0</ele><time>2026-04-12T06:32:01.803Z</time></trkpt><trkpt lat="45.8907917" lon="8.6314483"><ele>255.99999999999997</ele><time>2026-04-12T06:32:02.803Z</time></trkpt><trkpt lat="45.8908417" lon="8.63139"><ele>256.0</ele><time>2026-04-12T06:32:03.803Z</time></trkpt><trkpt lat="45.8909033" lon="8.6313017"><ele>256.0</ele><time>2026-04-12T06:32:05.803Z</time></trkpt><trkpt lat="45.890925" lon="8.631175"><ele>256.0</ele><time>2026-04-12T06:32:09.803Z</time></trkpt><trkpt lat="45.8909333" lon="8.63108"><ele>255.99999999999997</ele><time>2026-04-12T06:32:10.803Z</time></trkpt><trkpt lat="45.8909417" lon="8.63097"><ele>256.0</ele><time>2026-04-12T06:32:11.802Z</time></trkpt><trkpt lat="45.89096" lon="8.6308367"><ele>259.0</ele><time>2026-04-12T06:32:12.803Z</time></trkpt><trkpt lat="45.8909567" lon="8.63066"><ele>262.0</ele><time>2026-04-12T06:32:13.803Z</time></trkpt><trkpt lat="45.890955" lon="8.6305117"><ele>265.0</ele><time>2026-04-12T06:32:14.803Z</time></trkpt><trkpt lat="45.8909567" lon="8.6303783"><ele>268.0</ele><time>2026-04-12T06:32:15.803Z</time></trkpt><trkpt lat="45.8909667" lon="8.63028"><ele>271.0</ele><time>2026-04-12T06:32:16.803Z</time></trkpt><trkpt lat="45.8910367" lon="8.6301783"><ele>271.8</ele><time>2026-04-12T06:32:18.803Z</time></trkpt><trkpt lat="45.8910967" lon="8.63015"><ele>272.6</ele><time>2026-04-12T06:32:19.802Z</time></trkpt><trkpt lat="45.8911783" lon="8.6301333"><ele>273.4</ele><time>2026-04-12T06:32:20.803Z</time></trkpt><trkpt lat="45.89128" lon="8.6301033"><ele>274.2</ele><time>2026-04-12T06:32:21.802Z</time></trkpt><trkpt lat="45.891395" lon="8.6300817"><ele>275.0</ele><time>2026-04-12T06:32:22.803Z</time></trkpt><trkpt lat="45.891505" lon="8.6300533"><ele>275.0</ele><time>2026-04-12T06:32:23.803Z</time></trkpt><trkpt lat="45.8916017" lon="8.6300367"><ele>275.0</ele><time>2026-04-12T06:32:24.803Z</time></trkpt><trkpt lat="45.891685" lon="8.6300283"><ele>275.0</ele><time>2026-04-12T06:32:25.803Z</time></trkpt><trkpt lat="45.8917583" lon="8.63002"><ele>275.0</ele><time>2026-04-12T06:32:26.803Z</time></trkpt><trkpt lat="45.8918567" lon="8.6300017"><ele>275.0</ele><time>2026-04-12T06:32:28.803Z</time></trkpt><trkpt lat="45.89193" lon="8.6299983"><ele>275.0</ele><time>2026-04-12T06:32:30.803Z</time></trkpt><trkpt lat="45.89205" lon="8.63003"><ele>277.33333333333337</ele><time>2026-04-12T06:32:32.803Z</time></trkpt><trkpt lat="45.8921467" lon="8.6301133"><ele>279.6666666666667</ele><time>2026-04-12T06:32:34.803Z</time></trkpt><trkpt lat="45.8921883" lon="8.6302033"><ele>282.0</ele><time>2026-04-12T06:32:35.803Z</time></trkpt><trkpt lat="45.8922217" lon="8.63031"><ele>284.3333333333333</ele><time>2026-04-12T06:32:36.803Z</time></trkpt><trkpt lat="45.89225" lon="8.6304217"><ele>286.66666666666663</ele><time>2026-04-12T06:32:37.803Z</time></trkpt><trkpt lat="45.892265" lon="8.6305433"><ele>289.0</ele><time>2026-04-12T06:32:38.803Z</time></trkpt><trkpt lat="45.89229" lon="8.630655"><ele>289.0</ele><time>2026-04-12T06:32:39.803Z</time></trkpt><trkpt lat="45.892315" lon="8.6307683"><ele>289.0</ele><time>2026-04-12T06:32:40.803Z</time></trkpt><trkpt lat="45.8923433" lon="8.6308817"><ele>289.0</ele><time>2026-04-12T06:32:41.803Z</time></trkpt><trkpt lat="45.89237" lon="8.631"><ele>289.0</ele><time>2026-04-12T06:32:42.803Z</time></trkpt><trkpt lat="45.8923933" lon="8.6311383"><ele>289.0</ele><time>2026-04-12T06:32:43.803Z</time></trkpt><trkpt lat="45.8924167" lon="8.631285"><ele>288.4</ele><time>2026-04-12T06:32:44.803Z</time></trkpt><trkpt lat="45.89245" lon="8.63143"><ele>287.79999999999995</ele><time>2026-04-12T06:32:45.803Z</time></trkpt><trkpt lat="45.89249" lon="8.6315617"><ele>287.20000000000005</ele><time>2026-04-12T06:32:46.803Z</time></trkpt><trkpt lat="45.89254" lon="8.63169"><ele>286.6</ele><time>2026-04-12T06:32:47.803Z</time></trkpt><trkpt lat="45.8925983" lon="8.6318083"><ele>286.0</ele><time>2026-04-12T06:32:48.803Z</time></trkpt><trkpt lat="45.89265" lon="8.6319167"><ele>287.8333333333333</ele><time>2026-04-12T06:32:49.803Z</time></trkpt><trkpt lat="45.8926917" lon="8.6320183"><ele>289.66666666666663</ele><time>2026-04-12T06:32:50.803Z</time></trkpt><trkpt lat="45.89273" lon="8.6321117"><ele>291.5</ele><time>2026-04-12T06:32:51.803Z</time></trkpt><trkpt lat="45.8927717" lon="8.632195"><ele>293.3333333333333</ele><time>2026-04-12T06:32:52.803Z</time></trkpt><trkpt lat="45.89281" lon="8.6322817"><ele>295.1666666666667</ele><time>2026-04-12T06:32:53.803Z</time></trkpt><trkpt lat="45.8928583" lon="8.6323683"><ele>297.0</ele><time>2026-04-12T06:32:54.803Z</time></trkpt><trkpt lat="45.892915" lon="8.6324667"><ele>297.0</ele><time>2026-04-12T06:32:55.803Z</time></trkpt><trkpt lat="45.8929867" lon="8.6325667"><ele>297.0</ele><time>2026-04-12T06:32:56.803Z</time></trkpt><trkpt lat="45.8930617" lon="8.6326617"><ele>297.0</ele><time>2026-04-12T06:32:57.803Z</time></trkpt><trkpt lat="45.893145" lon="8.6327417"><ele>297.0</ele><time>2026-04-12T06:32:58.803Z</time></trkpt><trkpt lat="45.8932317" lon="8.6328067"><ele>297.0</ele><time>2026-04-12T06:32:59.802Z</time></trkpt><trkpt lat="45.8933183" lon="8.6328683"><ele>298.1666666666667</ele><time>2026-04-12T06:33:00.803Z</time></trkpt><trkpt lat="45.893395" lon="8.63293"><ele>299.3333333333333</ele><time>2026-04-12T06:33:01.802Z</time></trkpt><trkpt lat="45.893465" lon="8.632995"><ele>300.5</ele><time>2026-04-12T06:33:02.803Z</time></trkpt><trkpt lat="45.8935283" lon="8.6330817"><ele>301.66666666666663</ele><time>2026-04-12T06:33:03.803Z</time></trkpt><trkpt lat="45.893575" lon="8.6331783"><ele>302.8333333333333</ele><time>2026-04-12T06:33:04.803Z</time></trkpt><trkpt lat="45.8936117" lon="8.6332667"><ele>304.0</ele><time>2026-04-12T06:33:05.803Z</time></trkpt><trkpt lat="45.8936533" lon="8.63334"><ele>304.0</ele><time>2026-04-12T06:33:06.803Z</time></trkpt><trkpt lat="45.8936983" lon="8.6334117"><ele>304.0</ele><time>2026-04-12T06:33:07.803Z</time></trkpt><trkpt lat="45.8937633" lon="8.633555"><ele>304.0</ele><time>2026-04-12T06:33:09.803Z</time></trkpt><trkpt lat="45.8938283" lon="8.63372"><ele>304.0</ele><time>2026-04-12T06:33:11.803Z</time></trkpt><trkpt lat="45.8938617" lon="8.63381"><ele>304.0</ele><time>2026-04-12T06:33:12.803Z</time></trkpt><trkpt lat="45.893905" lon="8.6339017"><ele>301.0</ele><time>2026-04-12T06:33:13.803Z</time></trkpt><trkpt lat="45.893955" lon="8.6340017"><ele>298.0</ele><time>2026-04-12T06:33:14.802Z</time></trkpt><trkpt lat="45.89401" lon="8.63409"><ele>295.0</ele><time>2026-04-12T06:33:15.803Z</time></trkpt><trkpt lat="45.8940783" lon="8.6341583"><ele>292.0</ele><time>2026-04-12T06:33:16.803Z</time></trkpt><trkpt lat="45.8941433" lon="8.6342067"><ele>289.0</ele><time>2026-04-12T06:33:17.803Z</time></trkpt><trkpt lat="45.894205" lon="8.63424"><ele>286.0</ele><time>2026-04-12T06:33:18.803Z</time></trkpt><trkpt lat="45.894275" lon="8.6342617"><ele>285.4285714285714</ele><time>2026-04-12T06:33:19.803Z</time></trkpt><trkpt lat="45.8943483" lon="8.6342833"><ele>284.85714285714283</ele><time>2026-04-12T06:33:20.803Z</time></trkpt><trkpt lat="45.8944167" lon="8.6343"><ele>284.2857142857143</ele><time>2026-04-12T06:33:21.802Z</time></trkpt><trkpt lat="45.8944833" lon="8.6343117"><ele>283.71428571428567</ele><time>2026-04-12T06:33:22.803Z</time></trkpt><trkpt lat="45.89455" lon="8.6343167"><ele>283.1428571428571</ele><time>2026-04-12T06:33:23.803Z</time></trkpt><trkpt lat="45.8946233" lon="8.63432"><ele>282.57142857142856</ele><time>2026-04-12T06:33:24.803Z</time></trkpt><trkpt lat="45.8946867" lon="8.6343017"><ele>282.0</ele><time>2026-04-12T06:33:25.803Z</time></trkpt><trkpt lat="45.8947533" lon="8.6342733"><ele>282.0</ele><time>2026-04-12T06:33:26.803Z</time></trkpt><trkpt lat="45.894885" lon="8.6341867"><ele>282.0</ele><time>2026-04-12T06:33:28.803Z</time></trkpt><trkpt lat="45.8949533" lon="8.63413"><ele>282.0</ele><time>2026-04-12T06:33:29.803Z</time></trkpt><trkpt lat="45.8950233" lon="8.6340783"><ele>282.0</ele><time>2026-04-12T06:33:30.803Z</time></trkpt><trkpt lat="45.8950817" lon="8.6340267"><ele>282.0</ele><time>2026-04-12T06:33:31.803Z</time></trkpt><trkpt lat="45.89517" lon="8.633935"><ele>279.0</ele><time>2026-04-12T06:33:33.803Z</time></trkpt><trkpt lat="45.8952233" lon="8.6337783"><ele>276.0</ele><time>2026-04-12T06:33:35.803Z</time></trkpt><trkpt lat="45.895235" lon="8.6336617"><ele>273.0</ele><time>2026-04-12T06:33:36.803Z</time></trkpt><trkpt lat="45.8952433" lon="8.6335317"><ele>270.0</ele><time>2026-04-12T06:33:37.802Z</time></trkpt><trkpt lat="45.89525" lon="8.6333967"><ele>267.0</ele><time>2026-04-12T06:33:38.803Z</time></trkpt><trkpt lat="45.895265" lon="8.6332333"><ele>267.0</ele><time>2026-04-12T06:33:39.803Z</time></trkpt><trkpt lat="45.895285" lon="8.633085"><ele>267.0</ele><time>2026-04-12T06:33:40.803Z</time></trkpt><trkpt lat="45.8953017" lon="8.6329533"><ele>267.0</ele><time>2026-04-12T06:33:41.802Z</time></trkpt><trkpt lat="45.895315" lon="8.6328217"><ele>267.0</ele><time>2026-04-12T06:33:42.803Z</time></trkpt><trkpt lat="45.89532" lon="8.6327033"><ele>267.0</ele><time>2026-04-12T06:33:43.803Z</time></trkpt><trkpt lat="45.8953283" lon="8.6325967"><ele>267.0</ele><time>2026-04-12T06:33:44.803Z</time></trkpt><trkpt lat="45.89534" lon="8.6324433"><ele>267.6666666666667</ele><time>2026-04-12T06:33:46.803Z</time></trkpt><trkpt lat="45.895345" lon="8.6322733"><ele>268.3333333333333</ele><time>2026-04-12T06:33:48.803Z</time></trkpt><trkpt lat="45.8953567" lon="8.63211"><ele>269.0</ele><time>2026-04-12T06:33:50.803Z</time></trkpt><trkpt lat="45.8953717" lon="8.63202"><ele>269.66666666666663</ele><time>2026-04-12T06:33:51.803Z</time></trkpt><trkpt lat="45.8953867" lon="8.6319217"><ele>270.3333333333333</ele><time>2026-04-12T06:33:52.803Z</time></trkpt><trkpt lat="45.8953967" lon="8.6318317"><ele>271.0</ele><time>2026-04-12T06:33:53.803Z</time></trkpt><trkpt lat="45.8953967" lon="8.63173"><ele>272.0</ele><time>2026-04-12T06:33:54.803Z</time></trkpt><trkpt lat="45.8953817" lon="8.6315583"><ele>273.0</ele><time>2026-04-12T06:33:56.803Z</time></trkpt><trkpt lat="45.8953833" lon="8.6314067"><ele>274.0</ele><time>2026-04-12T06:33:58.803Z</time></trkpt><trkpt lat="45.895405" lon="8.63125"><ele>275.0</ele><time>2026-04-12T06:34:00.803Z</time></trkpt><trkpt lat="45.8954183" lon="8.6311583"><ele>276.0</ele><time>2026-04-12T06:34:01.803Z</time></trkpt><trkpt lat="45.8954317" lon="8.6310533"><ele>277.8333333333333</ele><time>2026-04-12T06:34:02.802Z</time></trkpt><trkpt lat="45.8954467" lon="8.6309367"><ele>279.6666666666667</ele><time>2026-04-12T06:34:03.803Z</time></trkpt><trkpt lat="45.8954733" lon="8.630815"><ele>281.5</ele><time>2026-04-12T06:34:04.803Z</time></trkpt><trkpt lat="45.8954933" lon="8.6307033"><ele>283.33333333333337</ele><time>2026-04-12T06:34:05.803Z</time></trkpt><trkpt lat="45.8955117" lon="8.630585"><ele>285.1666666666667</ele><time>2026-04-12T06:34:06.803Z</time></trkpt><trkpt lat="45.8955217" lon="8.630455"><ele>287.0</ele><time>2026-04-12T06:34:07.803Z</time></trkpt><trkpt lat="45.8955433" lon="8.6303017"><ele>288.4</ele><time>2026-04-12T06:34:08.803Z</time></trkpt><trkpt lat="45.8955583" lon="8.63015"><ele>289.79999999999995</ele><time>2026-04-12T06:34:09.803Z</time></trkpt><trkpt lat="45.89557" lon="8.629995"><ele>291.2</ele><time>2026-04-12T06:34:10.803Z</time></trkpt><trkpt lat="45.8955833" lon="8.6298467"><ele>292.59999999999997</ele><time>2026-04-12T06:34:11.803Z</time></trkpt><trkpt lat="45.8955867" lon="8.629695"><ele>294.0</ele><time>2026-04-12T06:34:12.803Z</time></trkpt><trkpt lat="45.8955817" lon="8.6295383"><ele>295.0</ele><time>2026-04-12T06:34:13.803Z</time></trkpt><trkpt lat="45.89558" lon="8.62939"><ele>296.0</ele><time>2026-04-12T06:34:14.803Z</time></trkpt><trkpt lat="45.8955817" lon="8.6292433"><ele>297.0</ele><time>2026-04-12T06:34:15.803Z</time></trkpt><trkpt lat="45.8955917" lon="8.6290967"><ele>298.0</ele><time>2026-04-12T06:34:16.803Z</time></trkpt><trkpt lat="45.8956067" lon="8.6289267"><ele>299.0</ele><time>2026-04-12T06:34:17.803Z</time></trkpt><trkpt lat="45.895625" lon="8.628765"><ele>300.1666666666667</ele><time>2026-04-12T06:34:18.803Z</time></trkpt><trkpt lat="45.8956333" lon="8.6286183"><ele>301.33333333333337</ele><time>2026-04-12T06:34:19.803Z</time></trkpt><trkpt lat="45.8956467" lon="8.6284967"><ele>302.5</ele><time>2026-04-12T06:34:20.803Z</time></trkpt><trkpt lat="45.8956567" lon="8.628385"><ele>303.6666666666667</ele><time>2026-04-12T06:34:21.802Z</time></trkpt><trkpt lat="45.89567" lon="8.6282933"><ele>304.8333333333333</ele><time>2026-04-12T06:34:22.803Z</time></trkpt><trkpt lat="45.895695" lon="8.6281933"><ele>306.0</ele><time>2026-04-12T06:34:24.804Z</time></trkpt><trkpt lat="45.8957083" lon="8.6280967"><ele>306.0</ele><time>2026-04-12T06:34:29.804Z</time></trkpt><trkpt lat="45.8957233" lon="8.6279367"><ele>306.0</ele><time>2026-04-12T06:34:31.804Z</time></trkpt><trkpt lat="45.895745" lon="8.6278033"><ele>306.0</ele><time>2026-04-12T06:34:32.803Z</time></trkpt><trkpt lat="45.8957817" lon="8.6276567"><ele>306.0</ele><time>2026-04-12T06:34:33.804Z</time></trkpt><trkpt lat="45.895815" lon="8.6274917"><ele>306.0</ele><time>2026-04-12T06:34:34.803Z</time></trkpt><trkpt lat="45.89585" lon="8.6273183"><ele>308.5</ele><time>2026-04-12T06:34:35.804Z</time></trkpt><trkpt lat="45.8958617" lon="8.6271233"><ele>311.0</ele><time>2026-04-12T06:34:36.804Z</time></trkpt><trkpt lat="45.8958783" lon="8.62693"><ele>313.5</ele><time>2026-04-12T06:34:37.804Z</time></trkpt><trkpt lat="45.8958917" lon="8.6267633"><ele>316.0</ele><time>2026-04-12T06:34:38.804Z</time></trkpt><trkpt lat="45.8959133" lon="8.626595"><ele>307.40000000000003</ele><time>2026-04-12T06:34:39.804Z</time></trkpt><trkpt lat="45.8959233" lon="8.62644"><ele>298.8</ele><time>2026-04-12T06:34:40.804Z</time></trkpt><trkpt lat="45.8959317" lon="8.6262733"><ele>290.20000000000005</ele><time>2026-04-12T06:34:41.804Z</time></trkpt><trkpt lat="45.8959417" lon="8.62612"><ele>281.6</ele><time>2026-04-12T06:34:42.804Z</time></trkpt><trkpt lat="45.89595" lon="8.6259817"><ele>273.0</ele><time>2026-04-12T06:34:43.804Z</time></trkpt><trkpt lat="45.8959633" lon="8.6258533"><ele>273.0</ele><time>2026-04-12T06:34:44.804Z</time></trkpt><trkpt lat="45.8959633" lon="8.6257283"><ele>273.0</ele><time>2026-04-12T06:34:45.804Z</time></trkpt><trkpt lat="45.8959667" lon="8.6255767"><ele>273.0</ele><time>2026-04-12T06:34:46.803Z</time></trkpt><trkpt lat="45.895975" lon="8.625425"><ele>273.0</ele><time>2026-04-12T06:34:47.804Z</time></trkpt><trkpt lat="45.8959867" lon="8.625265"><ele>273.0</ele><time>2026-04-12T06:34:48.804Z</time></trkpt><trkpt lat="45.8959917" lon="8.625095"><ele>274.75</ele><time>2026-04-12T06:34:49.804Z</time></trkpt><trkpt lat="45.8959917" lon="8.6249183"><ele>276.5</ele><time>2026-04-12T06:34:50.804Z</time></trkpt><trkpt lat="45.895995" lon="8.62475"><ele>278.25</ele><time>2026-04-12T06:34:51.804Z</time></trkpt><trkpt lat="45.8959983" lon="8.6245883"><ele>280.0</ele><time>2026-04-12T06:34:52.804Z</time></trkpt><trkpt lat="45.89599" lon="8.6244333"><ele>280.4</ele><time>2026-04-12T06:34:53.804Z</time></trkpt><trkpt lat="45.895975" lon="8.6242717"><ele>280.8</ele><time>2026-04-12T06:34:54.804Z</time></trkpt><trkpt lat="45.8959583" lon="8.62412"><ele>281.2</ele><time>2026-04-12T06:34:55.804Z</time></trkpt><trkpt lat="45.8959533" lon="8.6239817"><ele>281.6</ele><time>2026-04-12T06:34:56.803Z</time></trkpt><trkpt lat="45.8959533" lon="8.62385"><ele>282.0</ele><time>2026-04-12T06:34:57.804Z</time></trkpt><trkpt lat="45.8959483" lon="8.6237083"><ele>281.0</ele><time>2026-04-12T06:34:58.804Z</time></trkpt><trkpt lat="45.8959433" lon="8.6235767"><ele>280.0</ele><time>2026-04-12T06:34:59.804Z</time></trkpt><trkpt lat="45.8959283" lon="8.6234467"><ele>279.0</ele><time>2026-04-12T06:35:00.804Z</time></trkpt><trkpt lat="45.8959133" lon="8.6233467"><ele>278.0</ele><time>2026-04-12T06:35:01.804Z</time></trkpt><trkpt lat="45.8958683" lon="8.623195"><ele>277.0</ele><time>2026-04-12T06:35:03.804Z</time></trkpt><trkpt lat="45.8957933" lon="8.62308"><ele>284.5</ele><time>2026-04-12T06:35:05.804Z</time></trkpt><trkpt lat="45.8956783" lon="8.62304"><ele>292.0</ele><time>2026-04-12T06:35:07.804Z</time></trkpt><trkpt lat="45.895615" lon="8.623055"><ele>299.5</ele><time>2026-04-12T06:35:08.804Z</time></trkpt><trkpt lat="45.8955417" lon="8.623065"><ele>307.0</ele><time>2026-04-12T06:35:09.804Z</time></trkpt><trkpt lat="45.8954383" lon="8.6230383"><ele>314.5</ele><time>2026-04-12T06:35:11.804Z</time></trkpt><trkpt lat="45.89537" lon="8.6230233"><ele>322.0</ele><time>2026-04-12T06:35:14.804Z</time></trkpt><trkpt lat="45.8954217" lon="8.6229633"><ele>322.0</ele><time>2026-04-12T06:35:28.804Z</time></trkpt><trkpt lat="45.8954917" lon="8.6229533"><ele>322.0</ele><time>2026-04-12T06:35:31.804Z</time></trkpt><trkpt lat="45.8955717" lon="8.6229417"><ele>322.0</ele><time>2026-04-12T06:35:34.804Z</time></trkpt><trkpt lat="45.895655" lon="8.6229567"><ele>322.0</ele><time>2026-04-12T06:35:37.803Z</time></trkpt><trkpt lat="45.89572" lon="8.6229983"><ele>322.0</ele><time>2026-04-12T06:35:39.804Z</time></trkpt><trkpt lat="45.8958167" lon="8.6230583"><ele>322.0</ele><time>2026-04-12T06:35:41.804Z</time></trkpt><trkpt lat="45.8959083" lon="8.623145"><ele>315.3333333333333</ele><time>2026-04-12T06:35:43.804Z</time></trkpt><trkpt lat="45.895975" lon="8.623225"><ele>308.66666666666663</ele><time>2026-04-12T06:35:45.804Z</time></trkpt><trkpt lat="45.8960333" lon="8.6233467"><ele>302.0</ele><time>2026-04-12T06:35:47.804Z</time></trkpt><trkpt lat="45.8960783" lon="8.6234483"><ele>295.3333333333333</ele><time>2026-04-12T06:35:49.804Z</time></trkpt><trkpt lat="45.8961183" lon="8.623545"><ele>288.6666666666667</ele><time>2026-04-12T06:35:51.804Z</time></trkpt><trkpt lat="45.89617" lon="8.62363"><ele>282.0</ele><time>2026-04-12T06:35:53.804Z</time></trkpt><trkpt lat="45.8961967" lon="8.62376"><ele>282.0</ele><time>2026-04-12T06:35:56.804Z</time></trkpt><trkpt lat="45.8962183" lon="8.6238583"><ele>282.0</ele><time>2026-04-12T06:35:58.804Z</time></trkpt><trkpt lat="45.896235" lon="8.6239533"><ele>282.0</ele><time>2026-04-12T06:36:00.804Z</time></trkpt><trkpt lat="45.8962183" lon="8.62408"><ele>282.0</ele><time>2026-04-12T06:36:02.804Z</time></trkpt><trkpt lat="45.8962283" lon="8.624215"><ele>282.0</ele><time>2026-04-12T06:36:04.804Z</time></trkpt><trkpt lat="45.89625" lon="8.62434"><ele>282.0</ele><time>2026-04-12T06:36:06.804Z</time></trkpt><trkpt lat="45.8962767" lon="8.6244367"><ele>281.7142857142857</ele><time>2026-04-12T06:36:08.804Z</time></trkpt><trkpt lat="45.896305" lon="8.62454"><ele>281.42857142857144</ele><time>2026-04-12T06:36:10.804Z</time></trkpt><trkpt lat="45.8963267" lon="8.624635"><ele>281.1428571428571</ele><time>2026-04-12T06:36:12.803Z</time></trkpt><trkpt lat="45.8963233" lon="8.624735"><ele>280.8571428571429</ele><time>2026-04-12T06:36:14.804Z</time></trkpt><trkpt lat="45.8963283" lon="8.6248517"><ele>280.57142857142856</ele><time>2026-04-12T06:36:17.803Z</time></trkpt><trkpt lat="45.89636" lon="8.62496"><ele>280.2857142857143</ele><time>2026-04-12T06:36:20.804Z</time></trkpt><trkpt lat="45.8963833" lon="8.6250483"><ele>280.0</ele><time>2026-04-12T06:36:22.804Z</time></trkpt><trkpt lat="45.8964117" lon="8.62515"><ele>280.0</ele><time>2026-04-12T06:36:24.804Z</time></trkpt><trkpt lat="45.8964117" lon="8.6252467"><ele>280.0</ele><time>2026-04-12T06:36:26.804Z</time></trkpt><trkpt lat="45.8964083" lon="8.6253617"><ele>280.0</ele><time>2026-04-12T06:36:28.804Z</time></trkpt><trkpt lat="45.8963917" lon="8.6254567"><ele>280.0</ele><time>2026-04-12T06:36:30.804Z</time></trkpt><trkpt lat="45.8963733" lon="8.6255617"><ele>280.0</ele><time>2026-04-12T06:36:32.804Z</time></trkpt><trkpt lat="45.8963917" lon="8.6256917"><ele>280.0</ele><time>2026-04-12T06:36:34.803Z</time></trkpt><trkpt lat="45.8964083" lon="8.625835"><ele>278.8333333333333</ele><time>2026-04-12T06:36:36.803Z</time></trkpt><trkpt lat="45.8964317" lon="8.625965"><ele>277.66666666666663</ele><time>2026-04-12T06:36:38.804Z</time></trkpt><trkpt lat="45.8964583" lon="8.6260533"><ele>276.5</ele><time>2026-04-12T06:36:39.804Z</time></trkpt><trkpt lat="45.8964717" lon="8.62615"><ele>275.3333333333333</ele><time>2026-04-12T06:36:40.804Z</time></trkpt><trkpt lat="45.89648" lon="8.62627"><ele>274.1666666666667</ele><time>2026-04-12T06:36:41.804Z</time></trkpt><trkpt lat="45.8965017" lon="8.6264133"><ele>273.0</ele><time>2026-04-12T06:36:42.804Z</time></trkpt><trkpt lat="45.896505" lon="8.6265617"><ele>272.0</ele><time>2026-04-12T06:36:43.804Z</time></trkpt><trkpt lat="45.8965017" lon="8.6267183"><ele>271.0</ele><time>2026-04-12T06:36:44.804Z</time></trkpt><trkpt lat="45.8965" lon="8.626865"><ele>270.0</ele><time>2026-04-12T06:36:45.804Z</time></trkpt><trkpt lat="45.8965133" lon="8.6270033"><ele>269.0</ele><time>2026-04-12T06:36:46.804Z</time></trkpt><trkpt lat="45.89652" lon="8.6271283"><ele>268.0</ele><time>2026-04-12T06:36:47.804Z</time></trkpt><trkpt lat="45.89651" lon="8.6272533"><ele>267.66666666666663</ele><time>2026-04-12T06:36:48.804Z</time></trkpt><trkpt lat="45.8965" lon="8.6273817"><ele>267.3333333333333</ele><time>2026-04-12T06:36:49.804Z</time></trkpt><trkpt lat="45.89649" lon="8.6275033"><ele>267.0</ele><time>2026-04-12T06:36:50.804Z</time></trkpt><trkpt lat="45.8964767" lon="8.62761"><ele>266.6666666666667</ele><time>2026-04-12T06:36:51.804Z</time></trkpt><trkpt lat="45.8964683" lon="8.62771"><ele>266.33333333333337</ele><time>2026-04-12T06:36:52.804Z</time></trkpt><trkpt lat="45.8964683" lon="8.6278067"><ele>266.0</ele><time>2026-04-12T06:36:53.804Z</time></trkpt><trkpt lat="45.8964767" lon="8.6279"><ele>265.0</ele><time>2026-04-12T06:36:54.804Z</time></trkpt><trkpt lat="45.89651" lon="8.6280583"><ele>264.0</ele><time>2026-04-12T06:36:56.804Z</time></trkpt><trkpt lat="45.8965217" lon="8.6282183"><ele>263.0</ele><time>2026-04-12T06:36:58.804Z</time></trkpt><trkpt lat="45.8964983" lon="8.628375"><ele>262.0</ele><time>2026-04-12T06:37:00.804Z</time></trkpt><trkpt lat="45.896465" lon="8.62847"><ele>261.0</ele><time>2026-04-12T06:37:01.804Z</time></trkpt><trkpt lat="45.89644" lon="8.6285867"><ele>260.1666666666667</ele><time>2026-04-12T06:37:02.804Z</time></trkpt><trkpt lat="45.896425" lon="8.6287033"><ele>259.3333333333333</ele><time>2026-04-12T06:37:03.804Z</time></trkpt><trkpt lat="45.89642" lon="8.6288217"><ele>258.5</ele><time>2026-04-12T06:37:04.804Z</time></trkpt><trkpt lat="45.8964233" lon="8.628955"><ele>257.66666666666663</ele><time>2026-04-12T06:37:05.804Z</time></trkpt><trkpt lat="45.896425" lon="8.6290883"><ele>256.8333333333333</ele><time>2026-04-12T06:37:06.804Z</time></trkpt><trkpt lat="45.8964333" lon="8.6292217"><ele>256.0</ele><time>2026-04-12T06:37:07.804Z</time></trkpt><trkpt lat="45.896435" lon="8.629345"><ele>255.99999999999997</ele><time>2026-04-12T06:37:08.803Z</time></trkpt><trkpt lat="45.8964333" lon="8.6294583"><ele>256.0</ele><time>2026-04-12T06:37:09.804Z</time></trkpt><trkpt lat="45.8964233" lon="8.6295683"><ele>256.0</ele><time>2026-04-12T06:37:10.803Z</time></trkpt><trkpt lat="45.8964133" lon="8.6296783"><ele>256.0</ele><time>2026-04-12T06:37:11.804Z</time></trkpt><trkpt lat="45.8963983" lon="8.6297917"><ele>255.99999999999997</ele><time>2026-04-12T06:37:12.804Z</time></trkpt><trkpt lat="45.8963917" lon="8.6299067"><ele>256.0</ele><time>2026-04-12T06:37:13.804Z</time></trkpt><trkpt lat="45.89639" lon="8.6300283"><ele>255.0</ele><time>2026-04-12T06:37:14.803Z</time></trkpt><trkpt lat="45.8963933" lon="8.6301533"><ele>254.00000000000003</ele><time>2026-04-12T06:37:15.804Z</time></trkpt><trkpt lat="45.89639" lon="8.6302917"><ele>253.00000000000003</ele><time>2026-04-12T06:37:16.804Z</time></trkpt><trkpt lat="45.8963833" lon="8.630455"><ele>252.0</ele><time>2026-04-12T06:37:17.804Z</time></trkpt><trkpt lat="45.8963767" lon="8.6306283"><ele>251.0</ele><time>2026-04-12T06:37:18.804Z</time></trkpt><trkpt lat="45.8963767" lon="8.630785"><ele>250.57142857142856</ele><time>2026-04-12T06:37:19.804Z</time></trkpt><trkpt lat="45.8963767" lon="8.6309117"><ele>250.14285714285714</ele><time>2026-04-12T06:37:20.803Z</time></trkpt><trkpt lat="45.89637" lon="8.6310167"><ele>249.71428571428572</ele><time>2026-04-12T06:37:21.804Z</time></trkpt><trkpt lat="45.89636" lon="8.6311083"><ele>249.28571428571428</ele><time>2026-04-12T06:37:22.804Z</time></trkpt><trkpt lat="45.8963367" lon="8.63122"><ele>248.8571428571429</ele><time>2026-04-12T06:37:24.803Z</time></trkpt><trkpt lat="45.89631" lon="8.6313117"><ele>248.42857142857144</ele><time>2026-04-12T06:37:31.804Z</time></trkpt><trkpt lat="45.8962767" lon="8.6314"><ele>248.0</ele><time>2026-04-12T06:37:33.804Z</time></trkpt><trkpt lat="45.8962333" lon="8.631535"><ele>247.00000000000003</ele><time>2026-04-12T06:37:35.804Z</time></trkpt><trkpt lat="45.8961983" lon="8.63164"><ele>246.0</ele><time>2026-04-12T06:37:36.804Z</time></trkpt><trkpt lat="45.896175" lon="8.631755"><ele>245.0</ele><time>2026-04-12T06:37:37.804Z</time></trkpt><trkpt lat="45.896155" lon="8.6318683"><ele>244.0</ele><time>2026-04-12T06:37:38.803Z</time></trkpt><trkpt lat="45.8961333" lon="8.6319683"><ele>243.00000000000003</ele><time>2026-04-12T06:37:39.804Z</time></trkpt><trkpt lat="45.8961183" lon="8.6320633"><ele>242.0</ele><time>2026-04-12T06:37:40.804Z</time></trkpt><trkpt lat="45.8960933" lon="8.63215"><ele>239.83333333333334</ele><time>2026-04-12T06:37:41.804Z</time></trkpt><trkpt lat="45.8960667" lon="8.6322417"><ele>237.66666666666669</ele><time>2026-04-12T06:37:42.804Z</time></trkpt><trkpt lat="45.89605" lon="8.63235"><ele>235.5</ele><time>2026-04-12T06:37:43.804Z</time></trkpt><trkpt lat="45.89604" lon="8.6324767"><ele>233.33333333333331</ele><time>2026-04-12T06:37:44.804Z</time></trkpt><trkpt lat="45.8960217" lon="8.6325767"><ele>231.16666666666666</ele><time>2026-04-12T06:37:45.804Z</time></trkpt><trkpt lat="45.8959833" lon="8.6327283"><ele>229.0</ele><time>2026-04-12T06:37:47.803Z</time></trkpt><trkpt lat="45.895945" lon="8.63288"><ele>236.6</ele><time>2026-04-12T06:37:49.804Z</time></trkpt><trkpt lat="45.8959133" lon="8.6330283"><ele>244.2</ele><time>2026-04-12T06:37:51.804Z</time></trkpt><trkpt lat="45.89588" lon="8.6331417"><ele>251.79999999999998</ele><time>2026-04-12T06:37:53.804Z</time></trkpt><trkpt lat="45.89581" lon="8.63324"><ele>259.4</ele><time>2026-04-12T06:37:55.803Z</time></trkpt><trkpt lat="45.8957617" lon="8.63338"><ele>267.0</ele><time>2026-04-12T06:37:57.803Z</time></trkpt><trkpt lat="45.8957317" lon="8.6335067"><ele>267.0</ele><time>2026-04-12T06:37:59.804Z</time></trkpt><trkpt lat="45.89572" lon="8.6336217"><ele>267.0</ele><time>2026-04-12T06:38:01.804Z</time></trkpt><trkpt lat="45.8957017" lon="8.63372"><ele>267.0</ele><time>2026-04-12T06:38:04.804Z</time></trkpt><trkpt lat="45.895625" lon="8.6337983"><ele>267.0</ele><time>2026-04-12T06:38:07.804Z</time></trkpt><trkpt lat="45.8955367" lon="8.6338667"><ele>267.0</ele><time>2026-04-12T06:38:10.804Z</time></trkpt><trkpt lat="45.8954467" lon="8.6338767"><ele>267.0</ele><time>2026-04-12T06:38:12.804Z</time></trkpt><trkpt lat="45.8953733" lon="8.6338833"><ele>265.8333333333333</ele><time>2026-04-12T06:38:13.804Z</time></trkpt><trkpt lat="45.895295" lon="8.6338983"><ele>264.6666666666667</ele><time>2026-04-12T06:38:14.804Z</time></trkpt><trkpt lat="45.8952283" lon="8.6339367"><ele>263.5</ele><time>2026-04-12T06:38:16.804Z</time></trkpt><trkpt lat="45.89517" lon="8.63403"><ele>262.33333333333337</ele><time>2026-04-12T06:38:24.804Z</time></trkpt><trkpt lat="45.8951183" lon="8.634085"><ele>261.1666666666667</ele><time>2026-04-12T06:38:26.804Z</time></trkpt><trkpt lat="45.8950183" lon="8.6341583"><ele>260.0</ele><time>2026-04-12T06:38:28.804Z</time></trkpt><trkpt lat="45.8949533" lon="8.6341967"><ele>263.6666666666667</ele><time>2026-04-12T06:38:29.804Z</time></trkpt><trkpt lat="45.8948667" lon="8.6342267"><ele>267.33333333333337</ele><time>2026-04-12T06:38:30.804Z</time></trkpt><trkpt lat="45.894785" lon="8.634255"><ele>271.0</ele><time>2026-04-12T06:38:31.804Z</time></trkpt><trkpt lat="45.8947033" lon="8.63428"><ele>274.6666666666667</ele><time>2026-04-12T06:38:32.803Z</time></trkpt><trkpt lat="45.8946133" lon="8.6342867"><ele>278.3333333333333</ele><time>2026-04-12T06:38:33.804Z</time></trkpt><trkpt lat="45.8945183" lon="8.6342817"><ele>282.0</ele><time>2026-04-12T06:38:34.804Z</time></trkpt><trkpt lat="45.8944167" lon="8.6342667"><ele>282.0</ele><time>2026-04-12T06:38:35.804Z</time></trkpt><trkpt lat="45.8943333" lon="8.634255"><ele>282.0</ele><time>2026-04-12T06:38:36.804Z</time></trkpt><trkpt lat="45.89426" lon="8.634235"><ele>282.0</ele><time>2026-04-12T06:38:37.804Z</time></trkpt><trkpt lat="45.894185" lon="8.6342067"><ele>282.0</ele><time>2026-04-12T06:38:38.804Z</time></trkpt><trkpt lat="45.8941133" lon="8.6341567"><ele>282.0</ele><time>2026-04-12T06:38:39.804Z</time></trkpt><trkpt lat="45.8940383" lon="8.6340867"><ele>282.0</ele><time>2026-04-12T06:38:40.804Z</time></trkpt><trkpt lat="45.8939617" lon="8.6340017"><ele>282.6666666666667</ele><time>2026-04-12T06:38:41.804Z</time></trkpt><trkpt lat="45.8939" lon="8.6339067"><ele>283.3333333333333</ele><time>2026-04-12T06:38:42.804Z</time></trkpt><trkpt lat="45.8938517" lon="8.633815"><ele>284.0</ele><time>2026-04-12T06:38:43.804Z</time></trkpt><trkpt lat="45.8938083" lon="8.6337217"><ele>284.66666666666663</ele><time>2026-04-12T06:38:44.804Z</time></trkpt><trkpt lat="45.8937717" lon="8.6336267"><ele>285.3333333333333</ele><time>2026-04-12T06:38:45.804Z</time></trkpt><trkpt lat="45.8937317" lon="8.6335333"><ele>286.0</ele><time>2026-04-12T06:38:46.804Z</time></trkpt><trkpt lat="45.8936867" lon="8.6334433"><ele>285.66666666666663</ele><time>2026-04-12T06:38:47.804Z</time></trkpt><trkpt lat="45.8936467" lon="8.63337"><ele>285.3333333333333</ele><time>2026-04-12T06:38:48.804Z</time></trkpt><trkpt lat="45.893565" lon="8.6332367"><ele>285.0</ele><time>2026-04-12T06:38:50.804Z</time></trkpt><trkpt lat="45.8935283" lon="8.6331567"><ele>284.6666666666667</ele><time>2026-04-12T06:38:51.804Z</time></trkpt><trkpt lat="45.8934967" lon="8.6330683"><ele>284.33333333333337</ele><time>2026-04-12T06:38:52.804Z</time></trkpt><trkpt lat="45.8934517" lon="8.6329883"><ele>284.0</ele><time>2026-04-12T06:38:53.804Z</time></trkpt><trkpt lat="45.893395" lon="8.632925"><ele>284.0</ele><time>2026-04-12T06:38:54.803Z</time></trkpt><trkpt lat="45.893325" lon="8.6328667"><ele>284.0</ele><time>2026-04-12T06:38:55.804Z</time></trkpt><trkpt lat="45.8932567" lon="8.63282"><ele>284.0</ele><time>2026-04-12T06:38:56.804Z</time></trkpt><trkpt lat="45.8931917" lon="8.63277"><ele>284.0</ele><time>2026-04-12T06:38:57.804Z</time></trkpt><trkpt lat="45.89314" lon="8.6327183"><ele>284.0</ele><time>2026-04-12T06:38:58.804Z</time></trkpt><trkpt lat="45.8930867" lon="8.632665"><ele>284.0</ele><time>2026-04-12T06:38:59.804Z</time></trkpt><trkpt lat="45.89301" lon="8.632575"><ele>284.0</ele><time>2026-04-12T06:39:01.804Z</time></trkpt><trkpt lat="45.89295" lon="8.6325117"><ele>284.0</ele><time>2026-04-12T06:39:04.804Z</time></trkpt><trkpt lat="45.8929517" lon="8.6326533"><ele>284.0</ele><time>2026-04-12T06:39:08.804Z</time></trkpt><trkpt lat="45.892995" lon="8.63281"><ele>284.0</ele><time>2026-04-12T06:39:10.804Z</time></trkpt><trkpt lat="45.89305" lon="8.63296"><ele>284.0</ele><time>2026-04-12T06:39:12.804Z</time></trkpt><trkpt lat="45.8930683" lon="8.6330467"><ele>284.0</ele><time>2026-04-12T06:39:13.804Z</time></trkpt><trkpt lat="45.8931067" lon="8.633135"><ele>284.0</ele><time>2026-04-12T06:39:14.804Z</time></trkpt><trkpt lat="45.8931483" lon="8.6332183"><ele>284.0</ele><time>2026-04-12T06:39:15.804Z</time></trkpt><trkpt lat="45.8931917" lon="8.6332933"><ele>284.0</ele><time>2026-04-12T06:39:16.804Z</time></trkpt><trkpt lat="45.8932367" lon="8.63337"><ele>284.0</ele><time>2026-04-12T06:39:17.804Z</time></trkpt><trkpt lat="45.8932833" lon="8.63345"><ele>284.0</ele><time>2026-04-12T06:39:18.804Z</time></trkpt><trkpt lat="45.893325" lon="8.6335417"><ele>284.0</ele><time>2026-04-12T06:39:19.804Z</time></trkpt><trkpt lat="45.8933533" lon="8.6336317"><ele>284.4</ele><time>2026-04-12T06:39:20.804Z</time></trkpt><trkpt lat="45.8933917" lon="8.6337983"><ele>284.79999999999995</ele><time>2026-04-12T06:39:22.804Z</time></trkpt><trkpt lat="45.8934233" lon="8.6339567"><ele>285.20000000000005</ele><time>2026-04-12T06:39:24.804Z</time></trkpt><trkpt lat="45.8934717" lon="8.63408"><ele>285.6</ele><time>2026-04-12T06:39:26.803Z</time></trkpt><trkpt lat="45.89354" lon="8.6341917"><ele>286.0</ele><time>2026-04-12T06:39:28.804Z</time></trkpt><trkpt lat="45.8936083" lon="8.634295"><ele>286.0</ele><time>2026-04-12T06:39:30.803Z</time></trkpt><trkpt lat="45.8936633" lon="8.63441"><ele>286.0</ele><time>2026-04-12T06:39:32.804Z</time></trkpt><trkpt lat="45.8937233" lon="8.6345217"><ele>286.0</ele><time>2026-04-12T06:39:34.804Z</time></trkpt><trkpt lat="45.8937733" lon="8.6346267"><ele>286.0</ele><time>2026-04-12T06:39:36.804Z</time></trkpt><trkpt lat="45.8937983" lon="8.6347433"><ele>286.0</ele><time>2026-04-12T06:39:38.804Z</time></trkpt><trkpt lat="45.8937483" lon="8.6348533"><ele>282.6</ele><time>2026-04-12T06:39:40.804Z</time></trkpt><trkpt lat="45.8936767" lon="8.6349867"><ele>279.20000000000005</ele><time>2026-04-12T06:39:42.803Z</time></trkpt><trkpt lat="45.8935983" lon="8.6351133"><ele>275.79999999999995</ele><time>2026-04-12T06:39:44.804Z</time></trkpt><trkpt lat="45.893545" lon="8.6352467"><ele>272.4</ele><time>2026-04-12T06:39:46.804Z</time></trkpt><trkpt lat="45.8935033" lon="8.6353733"><ele>269.0</ele><time>2026-04-12T06:39:48.803Z</time></trkpt><trkpt lat="45.8934667" lon="8.63549"><ele>266.83333333333337</ele><time>2026-04-12T06:39:50.804Z</time></trkpt><trkpt lat="45.89343" lon="8.6355783"><ele>264.6666666666667</ele><time>2026-04-12T06:39:52.804Z</time></trkpt><trkpt lat="45.8933667" lon="8.6355933"><ele>262.5</ele><time>2026-04-12T06:39:54.804Z</time></trkpt><trkpt lat="45.8932617" lon="8.635545"><ele>260.3333333333333</ele><time>2026-04-12T06:39:56.804Z</time></trkpt><trkpt lat="45.8931967" lon="8.6355083"><ele>258.16666666666663</ele><time>2026-04-12T06:39:57.804Z</time></trkpt><trkpt lat="45.8931333" lon="8.6354667"><ele>256.0</ele><time>2026-04-12T06:39:58.804Z</time></trkpt><trkpt lat="45.8930233" lon="8.6353817"><ele>256.57142857142856</ele><time>2026-04-12T06:40:00.804Z</time></trkpt><trkpt lat="45.8929633" lon="8.6353233"><ele>257.1428571428571</ele><time>2026-04-12T06:40:01.803Z</time></trkpt><trkpt lat="45.8928983" lon="8.63527"><ele>257.7142857142857</ele><time>2026-04-12T06:40:02.804Z</time></trkpt><trkpt lat="45.8928333" lon="8.63523"><ele>258.2857142857143</ele><time>2026-04-12T06:40:03.803Z</time></trkpt><trkpt lat="45.8927683" lon="8.6351983"><ele>258.8571428571429</ele><time>2026-04-12T06:40:04.803Z</time></trkpt><trkpt lat="45.8927083" lon="8.6351683"><ele>259.42857142857144</ele><time>2026-04-12T06:40:05.803Z</time></trkpt><trkpt lat="45.8926433" lon="8.635085"><ele>260.0</ele><time>2026-04-12T06:40:07.804Z</time></trkpt><trkpt lat="45.8926633" lon="8.6352733"><ele>258.0</ele><time>2026-04-12T06:40:13.804Z</time></trkpt><trkpt lat="45.8927117" lon="8.6354017"><ele>256.0</ele><time>2026-04-12T06:40:14.804Z</time></trkpt><trkpt lat="45.892775" lon="8.6355117"><ele>254.0</ele><time>2026-04-12T06:40:15.804Z</time></trkpt><trkpt lat="45.892845" lon="8.6355967"><ele>252.0</ele><time>2026-04-12T06:40:16.804Z</time></trkpt><trkpt lat="45.892905" lon="8.63568"><ele>250.0</ele><time>2026-04-12T06:40:17.804Z</time></trkpt><trkpt lat="45.8929617" lon="8.6357583"><ele>250.0</ele><time>2026-04-12T06:40:18.804Z</time></trkpt><trkpt lat="45.8930167" lon="8.635825"><ele>250.0</ele><time>2026-04-12T06:40:19.804Z</time></trkpt><trkpt lat="45.8930667" lon="8.6358967"><ele>250.0</ele><time>2026-04-12T06:40:20.804Z</time></trkpt><trkpt lat="45.893135" lon="8.6359467"><ele>250.0</ele><time>2026-04-12T06:40:21.804Z</time></trkpt><trkpt lat="45.8931967" lon="8.6360033"><ele>250.0</ele><time>2026-04-12T06:40:22.804Z</time></trkpt><trkpt lat="45.8932533" lon="8.6360683"><ele>250.0</ele><time>2026-04-12T06:40:23.804Z</time></trkpt><trkpt lat="45.8933" lon="8.6361417"><ele>250.0</ele><time>2026-04-12T06:40:24.803Z</time></trkpt><trkpt lat="45.8933417" lon="8.6362467"><ele>248.16666666666666</ele><time>2026-04-12T06:40:25.803Z</time></trkpt><trkpt lat="45.8933733" lon="8.6363517"><ele>246.33333333333331</ele><time>2026-04-12T06:40:26.803Z</time></trkpt><trkpt lat="45.8934" lon="8.6364517"><ele>244.5</ele><time>2026-04-12T06:40:27.804Z</time></trkpt><trkpt lat="45.8934317" lon="8.6365633"><ele>242.66666666666669</ele><time>2026-04-12T06:40:28.804Z</time></trkpt><trkpt lat="45.8934633" lon="8.6366617"><ele>240.83333333333334</ele><time>2026-04-12T06:40:29.804Z</time></trkpt><trkpt lat="45.89352" lon="8.636755"><ele>239.0</ele><time>2026-04-12T06:40:30.804Z</time></trkpt><trkpt lat="45.89359" lon="8.6368833"><ele>239.00000000000003</ele><time>2026-04-12T06:40:32.804Z</time></trkpt><trkpt lat="45.893675" lon="8.63691"><ele>239.0</ele><time>2026-04-12T06:40:34.804Z</time></trkpt><trkpt lat="45.8937533" lon="8.6369183"><ele>239.0</ele><time>2026-04-12T06:40:37.803Z</time></trkpt><trkpt lat="45.8936883" lon="8.6369883"><ele>239.0</ele><time>2026-04-12T06:40:43.804Z</time></trkpt><trkpt lat="45.8936017" lon="8.6370167"><ele>239.00000000000003</ele><time>2026-04-12T06:40:45.804Z</time></trkpt><trkpt lat="45.893535" lon="8.6370717"><ele>239.0</ele><time>2026-04-12T06:40:47.804Z</time></trkpt><trkpt lat="45.8934533" lon="8.637125"><ele>237.28571428571433</ele><time>2026-04-12T06:40:49.804Z</time></trkpt><trkpt lat="45.8933883" lon="8.6371317"><ele>235.57142857142858</ele><time>2026-04-12T06:40:50.804Z</time></trkpt><trkpt lat="45.8933133" lon="8.6371317"><ele>233.8571428571429</ele><time>2026-04-12T06:40:51.804Z</time></trkpt><trkpt lat="45.8932317" lon="8.6371283"><ele>232.14285714285717</ele><time>2026-04-12T06:40:52.803Z</time></trkpt><trkpt lat="45.8931583" lon="8.6371367"><ele>230.42857142857144</ele><time>2026-04-12T06:40:53.804Z</time></trkpt><trkpt lat="45.8930867" lon="8.637155"><ele>228.71428571428572</ele><time>2026-04-12T06:40:54.804Z</time></trkpt><trkpt lat="45.89301" lon="8.6371567"><ele>227.0</ele><time>2026-04-12T06:40:55.804Z</time></trkpt><trkpt lat="45.89293" lon="8.63717"><ele>227.0</ele><time>2026-04-12T06:40:56.804Z</time></trkpt><trkpt lat="45.89287" lon="8.6372067"><ele>227.0</ele><time>2026-04-12T06:40:57.804Z</time></trkpt><trkpt lat="45.8927633" lon="8.6372333"><ele>227.0</ele><time>2026-04-12T06:40:59.804Z</time></trkpt><trkpt lat="45.8926567" lon="8.6372"><ele>227.0</ele><time>2026-04-12T06:41:01.804Z</time></trkpt><trkpt lat="45.892535" lon="8.6371383"><ele>227.0</ele><time>2026-04-12T06:41:03.804Z</time></trkpt><trkpt lat="45.8924717" lon="8.637125"><ele>226.8</ele><time>2026-04-12T06:41:04.804Z</time></trkpt><trkpt lat="45.8923633" lon="8.6371717"><ele>226.6</ele><time>2026-04-12T06:41:06.804Z</time></trkpt><trkpt lat="45.8922817" lon="8.6372783"><ele>226.40000000000003</ele><time>2026-04-12T06:41:08.804Z</time></trkpt><trkpt lat="45.892235" lon="8.63734"><ele>226.20000000000002</ele><time>2026-04-12T06:41:09.804Z</time></trkpt><trkpt lat="45.8921633" lon="8.6374367"><ele>226.0</ele><time>2026-04-12T06:41:11.804Z</time></trkpt><trkpt lat="45.8921083" lon="8.6375067"><ele>225.99999999999997</ele><time>2026-04-12T06:41:13.804Z</time></trkpt><trkpt lat="45.89204" lon="8.6375483"><ele>226.0</ele><time>2026-04-12T06:41:15.803Z</time></trkpt><trkpt lat="45.89195" lon="8.6375033"><ele>226.0</ele><time>2026-04-12T06:41:18.804Z</time></trkpt><trkpt lat="45.8918917" lon="8.6374567"><ele>226.0</ele><time>2026-04-12T06:41:21.804Z</time></trkpt><trkpt lat="45.8918217" lon="8.6374217"><ele>225.99999999999997</ele><time>2026-04-12T06:41:24.804Z</time></trkpt><trkpt lat="45.8917533" lon="8.6373817"><ele>226.0</ele><time>2026-04-12T06:41:26.804Z</time></trkpt><trkpt lat="45.8916533" lon="8.6373"><ele>227.20000000000002</ele><time>2026-04-12T06:41:28.804Z</time></trkpt><trkpt lat="45.8915583" lon="8.63718"><ele>228.40000000000003</ele><time>2026-04-12T06:41:30.804Z</time></trkpt><trkpt lat="45.8915067" lon="8.6370967"><ele>229.6</ele><time>2026-04-12T06:41:31.804Z</time></trkpt><trkpt lat="45.8914567" lon="8.637025"><ele>230.8</ele><time>2026-04-12T06:41:32.804Z</time></trkpt><trkpt lat="45.891385" lon="8.6368767"><ele>232.0</ele><time>2026-04-12T06:41:34.804Z</time></trkpt><trkpt lat="45.8913467" lon="8.63673"><ele>232.8</ele><time>2026-04-12T06:41:36.804Z</time></trkpt><trkpt lat="45.8913217" lon="8.6365883"><ele>233.6</ele><time>2026-04-12T06:41:38.804Z</time></trkpt><trkpt lat="45.89128" lon="8.6365"><ele>234.40000000000003</ele><time>2026-04-12T06:41:40.804Z</time></trkpt><trkpt lat="45.891215" lon="8.6365067"><ele>235.20000000000002</ele><time>2026-04-12T06:41:44.804Z</time></trkpt><trkpt lat="45.8911683" lon="8.636595"><ele>236.0</ele><time>2026-04-12T06:41:49.804Z</time></trkpt><trkpt lat="45.891" lon="8.6366633"><ele>236.00000000000003</ele><time>2026-04-12T06:42:00.804Z</time></trkpt><trkpt lat="45.8909267" lon="8.6366433"><ele>236.0</ele><time>2026-04-12T06:42:04.804Z</time></trkpt><trkpt lat="45.8908633" lon="8.636655"><ele>236.0</ele><time>2026-04-12T06:42:06.804Z</time></trkpt><trkpt lat="45.8907633" lon="8.6367117"><ele>236.0</ele><time>2026-04-12T06:42:08.804Z</time></trkpt><trkpt lat="45.8906783" lon="8.6367533"><ele>236.00000000000003</ele><time>2026-04-12T06:42:10.804Z</time></trkpt><trkpt lat="45.8906167" lon="8.6367917"><ele>236.0</ele><time>2026-04-12T06:42:12.804Z</time></trkpt><trkpt lat="45.8906083" lon="8.6369317"><ele>237.8</ele><time>2026-04-12T06:42:15.803Z</time></trkpt><trkpt lat="45.8905983" lon="8.6371467"><ele>239.60000000000002</ele><time>2026-04-12T06:42:17.804Z</time></trkpt><trkpt lat="45.8906033" lon="8.6373267"><ele>241.4</ele><time>2026-04-12T06:42:18.804Z</time></trkpt><trkpt lat="45.89062" lon="8.6374583"><ele>243.2</ele><time>2026-04-12T06:42:19.804Z</time></trkpt><trkpt lat="45.8906317" lon="8.6375733"><ele>245.0</ele><time>2026-04-12T06:42:20.803Z</time></trkpt><trkpt lat="45.89063" lon="8.637685"><ele>245.0</ele><time>2026-04-12T06:42:21.804Z</time></trkpt><trkpt lat="45.89062" lon="8.6377917"><ele>245.0</ele><time>2026-04-12T06:42:22.804Z</time></trkpt><trkpt lat="45.8906083" lon="8.6378917"><ele>245.0</ele><time>2026-04-12T06:42:23.804Z</time></trkpt><trkpt lat="45.8906133" lon="8.6380533"><ele>245.0</ele><time>2026-04-12T06:42:25.804Z</time></trkpt><trkpt lat="45.890625" lon="8.6382333"><ele>245.0</ele><time>2026-04-12T06:42:34.804Z</time></trkpt><trkpt lat="45.8906183" lon="8.638335"><ele>245.8</ele><time>2026-04-12T06:42:37.804Z</time></trkpt><trkpt lat="45.8906033" lon="8.6384483"><ele>246.6</ele><time>2026-04-12T06:42:40.804Z</time></trkpt><trkpt lat="45.8906" lon="8.638575"><ele>247.39999999999998</ele><time>2026-04-12T06:42:43.804Z</time></trkpt><trkpt lat="45.8905267" lon="8.63859"><ele>248.2</ele><time>2026-04-12T06:42:48.803Z</time></trkpt><trkpt lat="45.8904633" lon="8.638445"><ele>249.0</ele><time>2026-04-12T06:42:50.804Z</time></trkpt><trkpt lat="45.8904267" lon="8.63833"><ele>249.0</ele><time>2026-04-12T06:42:51.804Z</time></trkpt><trkpt lat="45.8903967" lon="8.6382267"><ele>249.0</ele><time>2026-04-12T06:42:52.804Z</time></trkpt><trkpt lat="45.8903617" lon="8.6381333"><ele>249.0</ele><time>2026-04-12T06:42:53.804Z</time></trkpt><trkpt lat="45.890315" lon="8.63805"><ele>249.0</ele><time>2026-04-12T06:42:54.804Z</time></trkpt><trkpt lat="45.89027" lon="8.637975"><ele>249.0</ele><time>2026-04-12T06:42:55.804Z</time></trkpt><trkpt lat="45.890205" lon="8.63789"><ele>249.0</ele><time>2026-04-12T06:42:57.804Z</time></trkpt><trkpt lat="45.890225" lon="8.6379983"><ele>249.0</ele><time>2026-04-12T06:43:02.804Z</time></trkpt><trkpt lat="45.8902467" lon="8.638085"><ele>248.99999999999997</ele><time>2026-04-12T06:43:03.804Z</time></trkpt><trkpt lat="45.8902633" lon="8.63818"><ele>249.0</ele><time>2026-04-12T06:43:04.804Z</time></trkpt><trkpt lat="45.8902633" lon="8.6382733"><ele>249.0</ele><time>2026-04-12T06:43:05.804Z</time></trkpt><trkpt lat="45.89026" lon="8.6383783"><ele>248.99999999999997</ele><time>2026-04-12T06:43:06.804Z</time></trkpt><trkpt lat="45.8902367" lon="8.6384733"><ele>249.0</ele><time>2026-04-12T06:43:07.804Z</time></trkpt><trkpt lat="45.8901983" lon="8.6385633"><ele>249.0</ele><time>2026-04-12T06:43:08.804Z</time></trkpt><trkpt lat="45.8901567" lon="8.6386467"><ele>249.83333333333334</ele><time>2026-04-12T06:43:09.804Z</time></trkpt><trkpt lat="45.8901167" lon="8.6387983"><ele>250.66666666666669</ele><time>2026-04-12T06:43:11.804Z</time></trkpt><trkpt lat="45.8901233" lon="8.6388883"><ele>251.5</ele><time>2026-04-12T06:43:12.804Z</time></trkpt><trkpt lat="45.890135" lon="8.6389833"><ele>252.33333333333334</ele><time>2026-04-12T06:43:13.804Z</time></trkpt><trkpt lat="45.8901583" lon="8.6390917"><ele>253.16666666666669</ele><time>2026-04-12T06:43:14.804Z</time></trkpt><trkpt lat="45.890195" lon="8.63922"><ele>254.0</ele><time>2026-04-12T06:43:15.803Z</time></trkpt><trkpt lat="45.89023" lon="8.63937"><ele>253.33333333333334</ele><time>2026-04-12T06:43:16.804Z</time></trkpt><trkpt lat="45.8902617" lon="8.6394917"><ele>252.66666666666669</ele><time>2026-04-12T06:43:17.804Z</time></trkpt><trkpt lat="45.89029" lon="8.63961"><ele>252.0</ele><time>2026-04-12T06:43:18.804Z</time></trkpt><trkpt lat="45.890305" lon="8.6397267"><ele>251.33333333333331</ele><time>2026-04-12T06:43:19.804Z</time></trkpt><trkpt lat="45.89032" lon="8.6398383"><ele>250.66666666666666</ele><time>2026-04-12T06:43:20.804Z</time></trkpt><trkpt lat="45.8903283" lon="8.6399417"><ele>250.0</ele><time>2026-04-12T06:43:21.804Z</time></trkpt><trkpt lat="45.890335" lon="8.64004"><ele>249.99999999999997</ele><time>2026-04-12T06:43:22.804Z</time></trkpt><trkpt lat="45.890365" lon="8.6402067"><ele>250.0</ele><time>2026-04-12T06:43:24.804Z</time></trkpt><trkpt lat="45.890385" lon="8.6402967"><ele>250.0</ele><time>2026-04-12T06:43:25.804Z</time></trkpt><trkpt lat="45.8903933" lon="8.6403983"><ele>250.0</ele><time>2026-04-12T06:43:26.804Z</time></trkpt><trkpt lat="45.8903833" lon="8.6405183"><ele>249.99999999999997</ele><time>2026-04-12T06:43:27.804Z</time></trkpt><trkpt lat="45.8903733" lon="8.6406367"><ele>250.0</ele><time>2026-04-12T06:43:28.804Z</time></trkpt><trkpt lat="45.890365" lon="8.6407383"><ele>249.99999999999997</ele><time>2026-04-12T06:43:29.804Z</time></trkpt><trkpt lat="45.890355" lon="8.6408917"><ele>250.0</ele><time>2026-04-12T06:43:31.804Z</time></trkpt><trkpt lat="45.89031" lon="8.64098"><ele>250.0</ele><time>2026-04-12T06:43:33.804Z</time></trkpt><trkpt lat="45.8902383" lon="8.6410333"><ele>250.0</ele><time>2026-04-12T06:43:35.803Z</time></trkpt><trkpt lat="45.890185" lon="8.6410817"><ele>249.99999999999997</ele><time>2026-04-12T06:43:37.804Z</time></trkpt><trkpt lat="45.8901967" lon="8.6412117"><ele>250.0</ele><time>2026-04-12T06:43:41.804Z</time></trkpt><trkpt lat="45.8902717" lon="8.6413483"><ele>250.2</ele><time>2026-04-12T06:43:43.804Z</time></trkpt><trkpt lat="45.8903233" lon="8.6414467"><ele>250.4</ele><time>2026-04-12T06:43:44.803Z</time></trkpt><trkpt lat="45.8903667" lon="8.6415633"><ele>250.60000000000002</ele><time>2026-04-12T06:43:45.804Z</time></trkpt><trkpt lat="45.8903983" lon="8.641705"><ele>250.8</ele><time>2026-04-12T06:43:46.804Z</time></trkpt><trkpt lat="45.89044" lon="8.6418717"><ele>251.0</ele><time>2026-04-12T06:43:47.804Z</time></trkpt><trkpt lat="45.8904583" lon="8.642015"><ele>251.50000000000003</ele><time>2026-04-12T06:43:48.804Z</time></trkpt><trkpt lat="45.8904733" lon="8.64214"><ele>252.0</ele><time>2026-04-12T06:43:49.804Z</time></trkpt><trkpt lat="45.8904833" lon="8.6422517"><ele>252.5</ele><time>2026-04-12T06:43:50.804Z</time></trkpt><trkpt lat="45.8904867" lon="8.64236"><ele>253.0</ele><time>2026-04-12T06:43:51.804Z</time></trkpt><trkpt lat="45.8904833" lon="8.642465"><ele>253.50000000000003</ele><time>2026-04-12T06:43:52.804Z</time></trkpt><trkpt lat="45.890475" lon="8.6425567"><ele>254.0</ele><time>2026-04-12T06:43:53.804Z</time></trkpt><trkpt lat="45.8904583" lon="8.6427033"><ele>255.39999999999998</ele><time>2026-04-12T06:43:55.804Z</time></trkpt><trkpt lat="45.8904667" lon="8.6428217"><ele>256.79999999999995</ele><time>2026-04-12T06:43:57.804Z</time></trkpt><trkpt lat="45.8904967" lon="8.642955"><ele>258.20000000000005</ele><time>2026-04-12T06:44:00.804Z</time></trkpt><trkpt lat="45.890535" lon="8.64314"><ele>259.6</ele><time>2026-04-12T06:44:02.804Z</time></trkpt><trkpt lat="45.890565" lon="8.64328"><ele>261.0</ele><time>2026-04-12T06:44:03.804Z</time></trkpt><trkpt lat="45.8906033" lon="8.6434167"><ele>261.0</ele><time>2026-04-12T06:44:04.804Z</time></trkpt><trkpt lat="45.8906467" lon="8.643555"><ele>261.0</ele><time>2026-04-12T06:44:05.804Z</time></trkpt><trkpt lat="45.8906783" lon="8.6436717"><ele>261.0</ele><time>2026-04-12T06:44:06.803Z</time></trkpt><trkpt lat="45.8906883" lon="8.6437917"><ele>261.0</ele><time>2026-04-12T06:44:07.804Z</time></trkpt><trkpt lat="45.890695" lon="8.6439"><ele>261.0</ele><time>2026-04-12T06:44:08.804Z</time></trkpt><trkpt lat="45.890695" lon="8.6439967"><ele>261.0</ele><time>2026-04-12T06:44:09.804Z</time></trkpt><trkpt lat="45.8907067" lon="8.6441083"><ele>262.6666666666667</ele><time>2026-04-12T06:44:10.804Z</time></trkpt><trkpt lat="45.8907267" lon="8.6442267"><ele>264.3333333333333</ele><time>2026-04-12T06:44:11.804Z</time></trkpt><trkpt lat="45.890745" lon="8.644345"><ele>266.0</ele><time>2026-04-12T06:44:12.804Z</time></trkpt><trkpt lat="45.8907667" lon="8.6444517"><ele>267.66666666666663</ele><time>2026-04-12T06:44:13.804Z</time></trkpt><trkpt lat="45.8907783" lon="8.64455"><ele>269.3333333333333</ele><time>2026-04-12T06:44:14.804Z</time></trkpt><trkpt lat="45.8907717" lon="8.6446417"><ele>271.0</ele><time>2026-04-12T06:44:15.804Z</time></trkpt><trkpt lat="45.890715" lon="8.6447767"><ele>272.0</ele><time>2026-04-12T06:44:17.803Z</time></trkpt><trkpt lat="45.8906083" lon="8.644855"><ele>273.0</ele><time>2026-04-12T06:44:19.804Z</time></trkpt><trkpt lat="45.89052" lon="8.6448717"><ele>274.0</ele><time>2026-04-12T06:44:21.804Z</time></trkpt><trkpt lat="45.8904517" lon="8.64483"><ele>275.0</ele><time>2026-04-12T06:44:23.804Z</time></trkpt><trkpt lat="45.8904217" lon="8.64472"><ele>276.0</ele><time>2026-04-12T06:44:25.804Z</time></trkpt><trkpt lat="45.8903917" lon="8.6446333"><ele>277.0</ele><time>2026-04-12T06:44:26.804Z</time></trkpt><trkpt lat="45.8903567" lon="8.6445517"><ele>275.8</ele><time>2026-04-12T06:44:27.804Z</time></trkpt><trkpt lat="45.8902967" lon="8.64443"><ele>274.6</ele><time>2026-04-12T06:44:29.804Z</time></trkpt><trkpt lat="45.8902033" lon="8.64433"><ele>273.40000000000003</ele><time>2026-04-12T06:44:31.803Z</time></trkpt><trkpt lat="45.890105" lon="8.64421"><ele>272.2</ele><time>2026-04-12T06:44:33.804Z</time></trkpt><trkpt lat="45.89005" lon="8.6441317"><ele>271.0</ele><time>2026-04-12T06:44:34.804Z</time></trkpt><trkpt lat="45.8900017" lon="8.6440583"><ele>273.0</ele><time>2026-04-12T06:44:35.804Z</time></trkpt><trkpt lat="45.889945" lon="8.64397"><ele>275.0</ele><time>2026-04-12T06:44:36.804Z</time></trkpt><trkpt lat="45.8898967" lon="8.643895"><ele>277.0</ele><time>2026-04-12T06:44:37.804Z</time></trkpt><trkpt lat="45.8898183" lon="8.6437783"><ele>279.0</ele><time>2026-04-12T06:44:39.804Z</time></trkpt><trkpt lat="45.8897567" lon="8.6436983"><ele>281.0</ele><time>2026-04-12T06:44:41.804Z</time></trkpt><trkpt lat="45.8897017" lon="8.6436367"><ele>283.0</ele><time>2026-04-12T06:44:43.804Z</time></trkpt><trkpt lat="45.8896133" lon="8.64357"><ele>283.0</ele><time>2026-04-12T06:44:45.804Z</time></trkpt><trkpt lat="45.8895567" lon="8.6435167"><ele>283.0</ele><time>2026-04-12T06:44:47.804Z</time></trkpt><trkpt lat="45.8895167" lon="8.64337"><ele>283.0</ele><time>2026-04-12T06:44:49.804Z</time></trkpt><trkpt lat="45.88951" lon="8.6432633"><ele>283.0</ele><time>2026-04-12T06:44:50.804Z</time></trkpt><trkpt lat="45.8895117" lon="8.64316"><ele>283.0</ele><time>2026-04-12T06:44:51.804Z</time></trkpt><trkpt lat="45.88951" lon="8.6430567"><ele>283.0</ele><time>2026-04-12T06:44:52.804Z</time></trkpt><trkpt lat="45.889505" lon="8.6429567"><ele>283.0</ele><time>2026-04-12T06:44:53.804Z</time></trkpt><trkpt lat="45.8895" lon="8.642865"><ele>283.0</ele><time>2026-04-12T06:44:54.803Z</time></trkpt><trkpt lat="45.88948" lon="8.6427117"><ele>283.0</ele><time>2026-04-12T06:44:56.804Z</time></trkpt><trkpt lat="45.8894567" lon="8.6425667"><ele>283.0</ele><time>2026-04-12T06:45:08.804Z</time></trkpt><trkpt lat="45.8894217" lon="8.642655"><ele>283.0</ele><time>2026-04-12T06:45:12.804Z</time></trkpt><trkpt lat="45.8893883" lon="8.642775"><ele>283.0</ele><time>2026-04-12T06:45:14.804Z</time></trkpt><trkpt lat="45.8893633" lon="8.6428967"><ele>283.0</ele><time>2026-04-12T06:45:16.804Z</time></trkpt><trkpt lat="45.8893217" lon="8.6430367"><ele>283.0</ele><time>2026-04-12T06:45:18.804Z</time></trkpt><trkpt lat="45.8892933" lon="8.6432167"><ele>283.0</ele><time>2026-04-12T06:45:20.804Z</time></trkpt><trkpt lat="45.8892817" lon="8.6433117"><ele>283.0</ele><time>2026-04-12T06:45:21.804Z</time></trkpt><trkpt lat="45.8893167" lon="8.6434883"><ele>283.0</ele><time>2026-04-12T06:45:23.804Z</time></trkpt><trkpt lat="45.8893583" lon="8.6435983"><ele>284.66666666666663</ele><time>2026-04-12T06:45:24.804Z</time></trkpt><trkpt lat="45.8894" lon="8.6436983"><ele>286.3333333333333</ele><time>2026-04-12T06:45:25.804Z</time></trkpt><trkpt lat="45.8894367" lon="8.6437833"><ele>288.0</ele><time>2026-04-12T06:45:26.804Z</time></trkpt><trkpt lat="45.8894683" lon="8.64387"><ele>289.6666666666667</ele><time>2026-04-12T06:45:27.804Z</time></trkpt><trkpt lat="45.8895067" lon="8.64396"><ele>291.33333333333337</ele><time>2026-04-12T06:45:28.804Z</time></trkpt><trkpt lat="45.8895483" lon="8.6440633"><ele>293.0</ele><time>2026-04-12T06:45:29.804Z</time></trkpt><trkpt lat="45.8895967" lon="8.6441683"><ele>293.0</ele><time>2026-04-12T06:45:30.803Z</time></trkpt><trkpt lat="45.889645" lon="8.6442833"><ele>293.0</ele><time>2026-04-12T06:45:31.804Z</time></trkpt><trkpt lat="45.8896867" lon="8.644395"><ele>293.0</ele><time>2026-04-12T06:45:32.804Z</time></trkpt><trkpt lat="45.88974" lon="8.64454"><ele>293.0</ele><time>2026-04-12T06:45:33.804Z</time></trkpt><trkpt lat="45.88978" lon="8.64468"><ele>293.0</ele><time>2026-04-12T06:45:34.804Z</time></trkpt><trkpt lat="45.8898133" lon="8.644805"><ele>294.1666666666667</ele><time>2026-04-12T06:45:35.804Z</time></trkpt><trkpt lat="45.8898383" lon="8.6449217"><ele>295.33333333333337</ele><time>2026-04-12T06:45:36.804Z</time></trkpt><trkpt lat="45.8898583" lon="8.64506"><ele>296.5</ele><time>2026-04-12T06:45:37.804Z</time></trkpt><trkpt lat="45.88988" lon="8.64519"><ele>297.6666666666667</ele><time>2026-04-12T06:45:38.804Z</time></trkpt><trkpt lat="45.88989" lon="8.6452967"><ele>298.8333333333333</ele><time>2026-04-12T06:45:39.804Z</time></trkpt><trkpt lat="45.8899033" lon="8.6454167"><ele>300.0</ele><time>2026-04-12T06:45:40.804Z</time></trkpt><trkpt lat="45.889905" lon="8.6455533"><ele>300.0</ele><time>2026-04-12T06:45:41.804Z</time></trkpt><trkpt lat="45.8899" lon="8.6456967"><ele>300.0</ele><time>2026-04-12T06:45:42.804Z</time></trkpt><trkpt lat="45.88989" lon="8.6458533"><ele>300.0</ele><time>2026-04-12T06:45:43.804Z</time></trkpt><trkpt lat="45.8898833" lon="8.645995"><ele>300.0</ele><time>2026-04-12T06:45:44.804Z</time></trkpt><trkpt lat="45.8898717" lon="8.6461167"><ele>300.0</ele><time>2026-04-12T06:45:45.804Z</time></trkpt><trkpt lat="45.8898617" lon="8.6462283"><ele>300.5</ele><time>2026-04-12T06:45:46.804Z</time></trkpt><trkpt lat="45.889845" lon="8.64635"><ele>301.0</ele><time>2026-04-12T06:45:47.804Z</time></trkpt><trkpt lat="45.8898333" lon="8.646465"><ele>301.5</ele><time>2026-04-12T06:45:48.804Z</time></trkpt><trkpt lat="45.889835" lon="8.6465967"><ele>302.0</ele><time>2026-04-12T06:45:49.803Z</time></trkpt><trkpt lat="45.8898333" lon="8.646735"><ele>302.5</ele><time>2026-04-12T06:45:50.804Z</time></trkpt><trkpt lat="45.88983" lon="8.6468633"><ele>303.0</ele><time>2026-04-12T06:45:51.804Z</time></trkpt><trkpt lat="45.8898283" lon="8.64697"><ele>303.6666666666667</ele><time>2026-04-12T06:45:52.804Z</time></trkpt><trkpt lat="45.889825" lon="8.6470617"><ele>304.3333333333333</ele><time>2026-04-12T06:45:53.804Z</time></trkpt><trkpt lat="45.8898367" lon="8.6471717"><ele>305.0</ele><time>2026-04-12T06:45:55.804Z</time></trkpt><trkpt lat="45.8898567" lon="8.6472767"><ele>305.66666666666663</ele><time>2026-04-12T06:45:58.804Z</time></trkpt><trkpt lat="45.88986" lon="8.647415"><ele>306.3333333333333</ele><time>2026-04-12T06:46:00.804Z</time></trkpt><trkpt lat="45.8898617" lon="8.647585"><ele>307.0</ele><time>2026-04-12T06:46:02.803Z</time></trkpt><trkpt lat="45.8898583" lon="8.6476833"><ele>307.0</ele><time>2026-04-12T06:46:03.804Z</time></trkpt><trkpt lat="45.889845" lon="8.6477783"><ele>307.0</ele><time>2026-04-12T06:46:04.803Z</time></trkpt><trkpt lat="45.8898383" lon="8.6478783"><ele>307.0</ele><time>2026-04-12T06:46:05.804Z</time></trkpt><trkpt lat="45.8898217" lon="8.648045"><ele>307.0</ele><time>2026-04-12T06:46:07.804Z</time></trkpt><trkpt lat="45.8898167" lon="8.64818"><ele>307.0</ele><time>2026-04-12T06:46:09.804Z</time></trkpt><trkpt lat="45.88982" lon="8.6483117"><ele>307.0</ele><time>2026-04-12T06:46:11.804Z</time></trkpt><trkpt lat="45.8898283" lon="8.6484817"><ele>308.66666666666663</ele><time>2026-04-12T06:46:13.804Z</time></trkpt><trkpt lat="45.88983" lon="8.6485883"><ele>310.3333333333333</ele><time>2026-04-12T06:46:14.803Z</time></trkpt><trkpt lat="45.8898283" lon="8.6486933"><ele>312.0</ele><time>2026-04-12T06:46:15.804Z</time></trkpt><trkpt lat="45.8898167" lon="8.6488033"><ele>313.6666666666667</ele><time>2026-04-12T06:46:16.804Z</time></trkpt><trkpt lat="45.88981" lon="8.6489067"><ele>315.33333333333337</ele><time>2026-04-12T06:46:17.803Z</time></trkpt><trkpt lat="45.8898133" lon="8.6490217"><ele>317.0</ele><time>2026-04-12T06:46:18.804Z</time></trkpt><trkpt lat="45.8898233" lon="8.649145"><ele>318.5</ele><time>2026-04-12T06:46:19.804Z</time></trkpt><trkpt lat="45.8898383" lon="8.6492717"><ele>320.0</ele><time>2026-04-12T06:46:20.804Z</time></trkpt><trkpt lat="45.889855" lon="8.6493817"><ele>321.5</ele><time>2026-04-12T06:46:21.804Z</time></trkpt><trkpt lat="45.8898683" lon="8.649475"><ele>323.0</ele><time>2026-04-12T06:46:22.804Z</time></trkpt><trkpt lat="45.8898617" lon="8.6496167"><ele>324.5</ele><time>2026-04-12T06:46:24.804Z</time></trkpt><trkpt lat="45.889815" lon="8.6496917"><ele>326.0</ele><time>2026-04-12T06:46:26.804Z</time></trkpt><trkpt lat="45.88976" lon="8.6497617"><ele>326.6666666666667</ele><time>2026-04-12T06:46:29.804Z</time></trkpt><trkpt lat="45.8897883" lon="8.6498917"><ele>327.33333333333337</ele><time>2026-04-12T06:46:33.803Z</time></trkpt><trkpt lat="45.8898383" lon="8.6500233"><ele>328.0</ele><time>2026-04-12T06:46:35.804Z</time></trkpt><trkpt lat="45.8898833" lon="8.6501433"><ele>328.6666666666667</ele><time>2026-04-12T06:46:37.804Z</time></trkpt><trkpt lat="45.8899367" lon="8.650215"><ele>329.3333333333333</ele><time>2026-04-12T06:46:39.804Z</time></trkpt><trkpt lat="45.8899867" lon="8.6502817"><ele>330.0</ele><time>2026-04-12T06:46:41.804Z</time></trkpt><trkpt lat="45.8900233" lon="8.650385"><ele>331.0</ele><time>2026-04-12T06:46:43.803Z</time></trkpt><trkpt lat="45.8900567" lon="8.6505233"><ele>332.0</ele><time>2026-04-12T06:46:45.804Z</time></trkpt><trkpt lat="45.89014" lon="8.65064"><ele>333.0</ele><time>2026-04-12T06:46:47.804Z</time></trkpt><trkpt lat="45.8902117" lon="8.6508017"><ele>334.0</ele><time>2026-04-12T06:46:49.804Z</time></trkpt><trkpt lat="45.890255" lon="8.6509333"><ele>330.5</ele><time>2026-04-12T06:46:50.804Z</time></trkpt><trkpt lat="45.8902933" lon="8.6510567"><ele>327.0</ele><time>2026-04-12T06:46:51.804Z</time></trkpt><trkpt lat="45.8903217" lon="8.651155"><ele>323.5</ele><time>2026-04-12T06:46:52.804Z</time></trkpt><trkpt lat="45.890345" lon="8.65124"><ele>320.0</ele><time>2026-04-12T06:46:53.804Z</time></trkpt><trkpt lat="45.8903767" lon="8.65136"><ele>316.5</ele><time>2026-04-12T06:46:55.804Z</time></trkpt><trkpt lat="45.8904383" lon="8.65145"><ele>313.0</ele><time>2026-04-12T06:46:58.804Z</time></trkpt><trkpt lat="45.89048" lon="8.6515367"><ele>313.0</ele><time>2026-04-12T06:47:00.804Z</time></trkpt><trkpt lat="45.8905317" lon="8.6516333"><ele>313.0</ele><time>2026-04-12T06:47:02.804Z</time></trkpt><trkpt lat="45.89059" lon="8.6516833"><ele>313.0</ele><time>2026-04-12T06:47:04.804Z</time></trkpt><trkpt lat="45.8906617" lon="8.651745"><ele>313.0</ele><time>2026-04-12T06:47:06.804Z</time></trkpt><trkpt lat="45.8907283" lon="8.651875"><ele>313.0</ele><time>2026-04-12T06:47:08.804Z</time></trkpt><trkpt lat="45.8907683" lon="8.6519617"><ele>313.0</ele><time>2026-04-12T06:47:09.804Z</time></trkpt><trkpt lat="45.8908" lon="8.6520483"><ele>313.66666666666663</ele><time>2026-04-12T06:47:10.803Z</time></trkpt><trkpt lat="45.8908217" lon="8.6521333"><ele>314.3333333333333</ele><time>2026-04-12T06:47:11.804Z</time></trkpt><trkpt lat="45.8908667" lon="8.6522817"><ele>315.0</ele><time>2026-04-12T06:47:13.803Z</time></trkpt><trkpt lat="45.8909083" lon="8.65235"><ele>315.6666666666667</ele><time>2026-04-12T06:47:15.803Z</time></trkpt><trkpt lat="45.89098" lon="8.6523833"><ele>316.33333333333337</ele><time>2026-04-12T06:47:18.804Z</time></trkpt><trkpt lat="45.8910317" lon="8.6524717"><ele>317.0</ele><time>2026-04-12T06:47:22.804Z</time></trkpt><trkpt lat="45.8910833" lon="8.6525617"><ele>313.4</ele><time>2026-04-12T06:47:24.804Z</time></trkpt><trkpt lat="45.8911617" lon="8.65266"><ele>309.79999999999995</ele><time>2026-04-12T06:47:26.804Z</time></trkpt><trkpt lat="45.8912333" lon="8.65274"><ele>306.2</ele><time>2026-04-12T06:47:28.804Z</time></trkpt><trkpt lat="45.8913033" lon="8.652815"><ele>302.59999999999997</ele><time>2026-04-12T06:47:30.804Z</time></trkpt><trkpt lat="45.8913783" lon="8.6529033"><ele>299.0</ele><time>2026-04-12T06:47:32.804Z</time></trkpt><trkpt lat="45.8914383" lon="8.6530033"><ele>299.0</ele><time>2026-04-12T06:47:34.804Z</time></trkpt><trkpt lat="45.8914967" lon="8.6531333"><ele>299.0</ele><time>2026-04-12T06:47:36.803Z</time></trkpt><trkpt lat="45.8915833" lon="8.6532683"><ele>299.0</ele><time>2026-04-12T06:47:38.804Z</time></trkpt><trkpt lat="45.8916617" lon="8.6533917"><ele>299.0</ele><time>2026-04-12T06:47:40.804Z</time></trkpt><trkpt lat="45.891725" lon="8.6535183"><ele>292.2</ele><time>2026-04-12T06:47:42.804Z</time></trkpt><trkpt lat="45.8918083" lon="8.6536367"><ele>285.4</ele><time>2026-04-12T06:47:44.804Z</time></trkpt><trkpt lat="45.8918533" lon="8.6537533"><ele>278.6</ele><time>2026-04-12T06:47:46.804Z</time></trkpt><trkpt lat="45.8919017" lon="8.653855"><ele>271.8</ele><time>2026-04-12T06:47:48.804Z</time></trkpt><trkpt lat="45.89194" lon="8.6539733"><ele>265.0</ele><time>2026-04-12T06:47:50.804Z</time></trkpt><trkpt lat="45.8919767" lon="8.65412"><ele>265.0</ele><time>2026-04-12T06:47:52.804Z</time></trkpt><trkpt lat="45.8920233" lon="8.6542717"><ele>265.0</ele><time>2026-04-12T06:47:54.804Z</time></trkpt><trkpt lat="45.8920333" lon="8.6543633"><ele>265.0</ele><time>2026-04-12T06:47:55.804Z</time></trkpt><trkpt lat="45.892045" lon="8.6544617"><ele>265.0</ele><time>2026-04-12T06:47:56.803Z</time></trkpt><trkpt lat="45.892055" lon="8.6545617"><ele>265.0</ele><time>2026-04-12T06:47:57.804Z</time></trkpt><trkpt lat="45.89208" lon="8.6546617"><ele>265.0</ele><time>2026-04-12T06:47:58.804Z</time></trkpt><trkpt lat="45.8920967" lon="8.6547583"><ele>265.8</ele><time>2026-04-12T06:47:59.804Z</time></trkpt><trkpt lat="45.89211" lon="8.65491"><ele>266.6</ele><time>2026-04-12T06:48:01.804Z</time></trkpt><trkpt lat="45.8921167" lon="8.655025"><ele>267.4</ele><time>2026-04-12T06:48:03.804Z</time></trkpt><trkpt lat="45.89216" lon="8.655135"><ele>268.2</ele><time>2026-04-12T06:48:05.804Z</time></trkpt><trkpt lat="45.89218" lon="8.655275"><ele>269.0</ele><time>2026-04-12T06:48:07.804Z</time></trkpt><trkpt lat="45.8921783" lon="8.65539"><ele>269.6666666666667</ele><time>2026-04-12T06:48:09.804Z</time></trkpt><trkpt lat="45.8921833" lon="8.6554933"><ele>270.33333333333337</ele><time>2026-04-12T06:48:11.804Z</time></trkpt><trkpt lat="45.8922133" lon="8.655585"><ele>271.0</ele><time>2026-04-12T06:48:13.804Z</time></trkpt><trkpt lat="45.8922383" lon="8.6556767"><ele>271.6666666666667</ele><time>2026-04-12T06:48:15.804Z</time></trkpt><trkpt lat="45.892275" lon="8.6557933"><ele>272.3333333333333</ele><time>2026-04-12T06:48:17.804Z</time></trkpt><trkpt lat="45.892305" lon="8.6559083"><ele>273.0</ele><time>2026-04-12T06:48:19.804Z</time></trkpt><trkpt lat="45.89232" lon="8.6560383"><ele>272.3333333333333</ele><time>2026-04-12T06:48:21.804Z</time></trkpt><trkpt lat="45.8923283" lon="8.6561733"><ele>271.6666666666667</ele><time>2026-04-12T06:48:24.804Z</time></trkpt><trkpt lat="45.8923217" lon="8.6562733"><ele>271.0</ele><time>2026-04-12T06:48:26.804Z</time></trkpt><trkpt lat="45.892315" lon="8.6563917"><ele>270.33333333333337</ele><time>2026-04-12T06:48:28.804Z</time></trkpt><trkpt lat="45.89232" lon="8.6565117"><ele>269.6666666666667</ele><time>2026-04-12T06:48:30.804Z</time></trkpt><trkpt lat="45.8923067" lon="8.6566317"><ele>269.0</ele><time>2026-04-12T06:48:32.804Z</time></trkpt><trkpt lat="45.8923017" lon="8.656755"><ele>269.0</ele><time>2026-04-12T06:48:34.804Z</time></trkpt><trkpt lat="45.8923017" lon="8.6568933"><ele>269.0</ele><time>2026-04-12T06:48:36.804Z</time></trkpt><trkpt lat="45.8923233" lon="8.6570067"><ele>269.0</ele><time>2026-04-12T06:48:38.803Z</time></trkpt><trkpt lat="45.8923783" lon="8.6570967"><ele>269.0</ele><time>2026-04-12T06:48:40.803Z</time></trkpt><trkpt lat="45.892425" lon="8.657195"><ele>269.0</ele><time>2026-04-12T06:48:42.804Z</time></trkpt><trkpt lat="45.892465" lon="8.6573133"><ele>269.0</ele><time>2026-04-12T06:48:44.803Z</time></trkpt><trkpt lat="45.8924867" lon="8.6574333"><ele>269.2</ele><time>2026-04-12T06:48:46.804Z</time></trkpt><trkpt lat="45.8925083" lon="8.6575467"><ele>269.4</ele><time>2026-04-12T06:48:48.804Z</time></trkpt><trkpt lat="45.8925483" lon="8.65768"><ele>269.6</ele><time>2026-04-12T06:48:50.804Z</time></trkpt><trkpt lat="45.892595" lon="8.657825"><ele>269.8</ele><time>2026-04-12T06:48:52.804Z</time></trkpt><trkpt lat="45.8926433" lon="8.65795"><ele>270.0</ele><time>2026-04-12T06:48:54.804Z</time></trkpt><trkpt lat="45.8926967" lon="8.658055"><ele>264.6</ele><time>2026-04-12T06:48:56.804Z</time></trkpt><trkpt lat="45.8927467" lon="8.6581583"><ele>259.2</ele><time>2026-04-12T06:48:58.804Z</time></trkpt><trkpt lat="45.8927917" lon="8.6582733"><ele>253.8</ele><time>2026-04-12T06:49:00.804Z</time></trkpt><trkpt lat="45.8928267" lon="8.6584083"><ele>248.4</ele><time>2026-04-12T06:49:02.803Z</time></trkpt><trkpt lat="45.8929067" lon="8.6585433"><ele>243.0</ele><time>2026-04-12T06:49:04.804Z</time></trkpt><trkpt lat="45.89296" lon="8.6586083"><ele>242.16666666666666</ele><time>2026-04-12T06:49:05.804Z</time></trkpt><trkpt lat="45.8930033" lon="8.6586767"><ele>241.33333333333331</ele><time>2026-04-12T06:49:06.804Z</time></trkpt><trkpt lat="45.8930817" lon="8.6588283"><ele>240.5</ele><time>2026-04-12T06:49:08.804Z</time></trkpt><trkpt lat="45.8931183" lon="8.6589133"><ele>239.66666666666666</ele><time>2026-04-12T06:49:09.804Z</time></trkpt><trkpt lat="45.8931417" lon="8.65901"><ele>238.83333333333331</ele><time>2026-04-12T06:49:10.804Z</time></trkpt><trkpt lat="45.893155" lon="8.6591117"><ele>238.0</ele><time>2026-04-12T06:49:11.804Z</time></trkpt><trkpt lat="45.89317" lon="8.6592083"><ele>237.99999999999997</ele><time>2026-04-12T06:49:12.804Z</time></trkpt><trkpt lat="45.8931767" lon="8.6593017"><ele>238.0</ele><time>2026-04-12T06:49:13.804Z</time></trkpt><trkpt lat="45.8931467" lon="8.6594317"><ele>238.0</ele><time>2026-04-12T06:49:15.804Z</time></trkpt><trkpt lat="45.893085" lon="8.659455"><ele>238.0</ele><time>2026-04-12T06:49:17.804Z</time></trkpt><trkpt lat="45.8929867" lon="8.6594417"><ele>237.99999999999997</ele><time>2026-04-12T06:49:19.804Z</time></trkpt><trkpt lat="45.8929233" lon="8.659445"><ele>238.0</ele><time>2026-04-12T06:49:21.804Z</time></trkpt><trkpt lat="45.8928917" lon="8.6595717"><ele>238.4</ele><time>2026-04-12T06:49:41.804Z</time></trkpt><trkpt lat="45.89287" lon="8.6596683"><ele>238.8</ele><time>2026-04-12T06:49:42.804Z</time></trkpt><trkpt lat="45.89285" lon="8.6597883"><ele>239.2</ele><time>2026-04-12T06:49:43.804Z</time></trkpt><trkpt lat="45.8928333" lon="8.6599333"><ele>239.6</ele><time>2026-04-12T06:49:44.804Z</time></trkpt><trkpt lat="45.8928183" lon="8.6600867"><ele>240.0</ele><time>2026-04-12T06:49:45.804Z</time></trkpt><trkpt lat="45.892795" lon="8.660245"><ele>241.0</ele><time>2026-04-12T06:49:46.804Z</time></trkpt><trkpt lat="45.8927733" lon="8.6604217"><ele>242.0</ele><time>2026-04-12T06:49:47.804Z</time></trkpt><trkpt lat="45.8927567" lon="8.6605883"><ele>243.0</ele><time>2026-04-12T06:49:48.804Z</time></trkpt><trkpt lat="45.892735" lon="8.6607483"><ele>244.0</ele><time>2026-04-12T06:49:49.804Z</time></trkpt><trkpt lat="45.8927317" lon="8.6609017"><ele>244.0</ele><time>2026-04-12T06:49:50.804Z</time></trkpt><trkpt lat="45.89273" lon="8.66106"><ele>244.0</ele><time>2026-04-12T06:49:51.804Z</time></trkpt><trkpt lat="45.8927433" lon="8.661235"><ele>244.0</ele><time>2026-04-12T06:49:52.804Z</time></trkpt><trkpt lat="45.892755" lon="8.6614117"><ele>244.0</ele><time>2026-04-12T06:49:53.804Z</time></trkpt><trkpt lat="45.8927733" lon="8.66159"><ele>244.25</ele><time>2026-04-12T06:49:54.804Z</time></trkpt><trkpt lat="45.8927883" lon="8.6617583"><ele>244.5</ele><time>2026-04-12T06:49:55.804Z</time></trkpt><trkpt lat="45.8928" lon="8.6619233"><ele>244.75</ele><time>2026-04-12T06:49:56.804Z</time></trkpt><trkpt lat="45.8928133" lon="8.6620817"><ele>245.0</ele><time>2026-04-12T06:49:57.804Z</time></trkpt><trkpt lat="45.892835" lon="8.6622617"><ele>245.2</ele><time>2026-04-12T06:49:58.804Z</time></trkpt><trkpt lat="45.8928533" lon="8.6624483"><ele>245.4</ele><time>2026-04-12T06:49:59.804Z</time></trkpt><trkpt lat="45.8928717" lon="8.6625983"><ele>245.60000000000002</ele><time>2026-04-12T06:50:00.803Z</time></trkpt><trkpt lat="45.892895" lon="8.6627317"><ele>245.8</ele><time>2026-04-12T06:50:01.803Z</time></trkpt><trkpt lat="45.8929133" lon="8.66284"><ele>246.0</ele><time>2026-04-12T06:50:02.804Z</time></trkpt><trkpt lat="45.892925" lon="8.66294"><ele>247.4</ele><time>2026-04-12T06:50:03.803Z</time></trkpt><trkpt lat="45.8929333" lon="8.663085"><ele>248.8</ele><time>2026-04-12T06:50:05.803Z</time></trkpt><trkpt lat="45.892855" lon="8.66314"><ele>250.20000000000002</ele><time>2026-04-12T06:50:07.804Z</time></trkpt><trkpt lat="45.892765" lon="8.6632283"><ele>251.60000000000002</ele><time>2026-04-12T06:50:09.804Z</time></trkpt><trkpt lat="45.8926867" lon="8.6632933"><ele>253.0</ele><time>2026-04-12T06:50:11.804Z</time></trkpt><trkpt lat="45.8925933" lon="8.6632783"><ele>255.2</ele><time>2026-04-12T06:50:13.804Z</time></trkpt><trkpt lat="45.8925233" lon="8.6631033"><ele>257.4</ele><time>2026-04-12T06:50:15.804Z</time></trkpt><trkpt lat="45.8924917" lon="8.6629883"><ele>259.59999999999997</ele><time>2026-04-12T06:50:16.804Z</time></trkpt><trkpt lat="45.8924633" lon="8.6628567"><ele>261.8</ele><time>2026-04-12T06:50:17.804Z</time></trkpt><trkpt lat="45.892445" lon="8.6627217"><ele>264.0</ele><time>2026-04-12T06:50:18.804Z</time></trkpt><trkpt lat="45.8924317" lon="8.6625767"><ele>264.25</ele><time>2026-04-12T06:50:19.804Z</time></trkpt><trkpt lat="45.89239" lon="8.662425"><ele>264.5</ele><time>2026-04-12T06:50:20.804Z</time></trkpt><trkpt lat="45.89236" lon="8.6622533"><ele>264.75</ele><time>2026-04-12T06:50:21.803Z</time></trkpt><trkpt lat="45.8923267" lon="8.6620783"><ele>265.0</ele><time>2026-04-12T06:50:22.803Z</time></trkpt><trkpt lat="45.8922883" lon="8.66191"><ele>265.4</ele><time>2026-04-12T06:50:23.804Z</time></trkpt><trkpt lat="45.892255" lon="8.661745"><ele>265.8</ele><time>2026-04-12T06:50:24.804Z</time></trkpt><trkpt lat="45.8922267" lon="8.6616117"><ele>266.2</ele><time>2026-04-12T06:50:25.803Z</time></trkpt><trkpt lat="45.892205" lon="8.661485"><ele>266.6</ele><time>2026-04-12T06:50:26.804Z</time></trkpt><trkpt lat="45.89219" lon="8.6613567"><ele>267.0</ele><time>2026-04-12T06:50:27.804Z</time></trkpt><trkpt lat="45.8921683" lon="8.661215"><ele>267.0</ele><time>2026-04-12T06:50:28.804Z</time></trkpt><trkpt lat="45.8921483" lon="8.661085"><ele>267.0</ele><time>2026-04-12T06:50:29.803Z</time></trkpt><trkpt lat="45.8921267" lon="8.6609683"><ele>267.0</ele><time>2026-04-12T06:50:30.804Z</time></trkpt><trkpt lat="45.8921067" lon="8.6608667"><ele>267.0</ele><time>2026-04-12T06:50:31.804Z</time></trkpt><trkpt lat="45.8920867" lon="8.660765"><ele>267.0</ele><time>2026-04-12T06:50:32.803Z</time></trkpt><trkpt lat="45.892075" lon="8.66065"><ele>267.0</ele><time>2026-04-12T06:50:33.803Z</time></trkpt><trkpt lat="45.8920567" lon="8.6605183"><ele>267.0</ele><time>2026-04-12T06:50:34.804Z</time></trkpt><trkpt lat="45.8920233" lon="8.6603917"><ele>267.0</ele><time>2026-04-12T06:50:35.804Z</time></trkpt><trkpt lat="45.8919667" lon="8.6602733"><ele>267.0</ele><time>2026-04-12T06:50:36.804Z</time></trkpt><trkpt lat="45.89189" lon="8.660145"><ele>267.0</ele><time>2026-04-12T06:50:37.804Z</time></trkpt><trkpt lat="45.8918117" lon="8.66003"><ele>267.0</ele><time>2026-04-12T06:50:38.803Z</time></trkpt><trkpt lat="45.89174" lon="8.6599217"><ele>268.4</ele><time>2026-04-12T06:50:39.804Z</time></trkpt><trkpt lat="45.891665" lon="8.6598233"><ele>269.79999999999995</ele><time>2026-04-12T06:50:40.804Z</time></trkpt><trkpt lat="45.8915933" lon="8.65972"><ele>271.2</ele><time>2026-04-12T06:50:41.804Z</time></trkpt><trkpt lat="45.8915217" lon="8.6596167"><ele>272.59999999999997</ele><time>2026-04-12T06:50:42.804Z</time></trkpt><trkpt lat="45.8914417" lon="8.6594883"><ele>274.0</ele><time>2026-04-12T06:50:43.805Z</time></trkpt><trkpt lat="45.8913517" lon="8.6593417"><ele>277.25</ele><time>2026-04-12T06:50:44.805Z</time></trkpt><trkpt lat="45.8912667" lon="8.6591967"><ele>280.5</ele><time>2026-04-12T06:50:45.805Z</time></trkpt><trkpt lat="45.891175" lon="8.6590833"><ele>283.75</ele><time>2026-04-12T06:50:46.805Z</time></trkpt><trkpt lat="45.89109" lon="8.658985"><ele>287.0</ele><time>2026-04-12T06:50:47.805Z</time></trkpt><trkpt lat="45.8910117" lon="8.658885"><ele>287.0</ele><time>2026-04-12T06:50:48.805Z</time></trkpt><trkpt lat="45.8909433" lon="8.6587783"><ele>287.0</ele><time>2026-04-12T06:50:49.805Z</time></trkpt><trkpt lat="45.8908983" lon="8.658665"><ele>287.0</ele><time>2026-04-12T06:50:50.805Z</time></trkpt><trkpt lat="45.8908617" lon="8.6585467"><ele>287.0</ele><time>2026-04-12T06:50:51.804Z</time></trkpt><trkpt lat="45.890835" lon="8.6584333"><ele>287.0</ele><time>2026-04-12T06:50:52.805Z</time></trkpt><trkpt lat="45.890805" lon="8.65831"><ele>287.4</ele><time>2026-04-12T06:50:53.804Z</time></trkpt><trkpt lat="45.8907717" lon="8.6581767"><ele>287.79999999999995</ele><time>2026-04-12T06:50:54.804Z</time></trkpt><trkpt lat="45.8907383" lon="8.65803"><ele>288.2</ele><time>2026-04-12T06:50:55.804Z</time></trkpt><trkpt lat="45.890695" lon="8.657895"><ele>288.59999999999997</ele><time>2026-04-12T06:50:56.804Z</time></trkpt><trkpt lat="45.8906483" lon="8.65776"><ele>289.0</ele><time>2026-04-12T06:50:57.804Z</time></trkpt><trkpt lat="45.8905983" lon="8.6576333"><ele>290.5</ele><time>2026-04-12T06:50:58.804Z</time></trkpt><trkpt lat="45.8905433" lon="8.65752"><ele>292.0</ele><time>2026-04-12T06:50:59.804Z</time></trkpt><trkpt lat="45.89049" lon="8.6574217"><ele>293.5</ele><time>2026-04-12T06:51:00.805Z</time></trkpt><trkpt lat="45.8904417" lon="8.65732"><ele>295.0</ele><time>2026-04-12T06:51:01.804Z</time></trkpt><trkpt lat="45.890395" lon="8.6572283"><ele>296.5</ele><time>2026-04-12T06:51:02.805Z</time></trkpt><trkpt lat="45.89036" lon="8.657115"><ele>298.0</ele><time>2026-04-12T06:51:03.805Z</time></trkpt><trkpt lat="45.8903383" lon="8.6569967"><ele>301.6</ele><time>2026-04-12T06:51:04.805Z</time></trkpt><trkpt lat="45.8903233" lon="8.656875"><ele>305.20000000000005</ele><time>2026-04-12T06:51:05.805Z</time></trkpt><trkpt lat="45.89031" lon="8.656755"><ele>308.8</ele><time>2026-04-12T06:51:06.805Z</time></trkpt><trkpt lat="45.890275" lon="8.6566267"><ele>312.40000000000003</ele><time>2026-04-12T06:51:07.805Z</time></trkpt><trkpt lat="45.89023" lon="8.6564967"><ele>316.0</ele><time>2026-04-12T06:51:08.805Z</time></trkpt><trkpt lat="45.8901867" lon="8.656365"><ele>316.0</ele><time>2026-04-12T06:51:09.805Z</time></trkpt><trkpt lat="45.8901467" lon="8.65622"><ele>316.0</ele><time>2026-04-12T06:51:10.805Z</time></trkpt><trkpt lat="45.89009" lon="8.6560783"><ele>316.0</ele><time>2026-04-12T06:51:11.805Z</time></trkpt><trkpt lat="45.8900333" lon="8.6559383"><ele>316.0</ele><time>2026-04-12T06:51:12.805Z</time></trkpt><trkpt lat="45.88998" lon="8.6558017"><ele>316.0</ele><time>2026-04-12T06:51:13.805Z</time></trkpt><trkpt lat="45.889925" lon="8.6556717"><ele>318.25</ele><time>2026-04-12T06:51:14.805Z</time></trkpt><trkpt lat="45.889855" lon="8.6555167"><ele>320.5</ele><time>2026-04-12T06:51:15.805Z</time></trkpt><trkpt lat="45.8897733" lon="8.6553617"><ele>322.75</ele><time>2026-04-12T06:51:16.805Z</time></trkpt><trkpt lat="45.8896967" lon="8.6551983"><ele>325.0</ele><time>2026-04-12T06:51:17.804Z</time></trkpt><trkpt lat="45.8896133" lon="8.655055"><ele>325.0</ele><time>2026-04-12T06:51:18.805Z</time></trkpt><trkpt lat="45.8895367" lon="8.654935"><ele>325.0</ele><time>2026-04-12T06:51:19.805Z</time></trkpt><trkpt lat="45.8894683" lon="8.6548117"><ele>325.0</ele><time>2026-04-12T06:51:20.805Z</time></trkpt><trkpt lat="45.8894083" lon="8.65471"><ele>325.0</ele><time>2026-04-12T06:51:21.805Z</time></trkpt><trkpt lat="45.8893567" lon="8.654615"><ele>325.0</ele><time>2026-04-12T06:51:22.805Z</time></trkpt><trkpt lat="45.889305" lon="8.6545033"><ele>322.2</ele><time>2026-04-12T06:51:23.805Z</time></trkpt><trkpt lat="45.8892533" lon="8.654365"><ele>319.4</ele><time>2026-04-12T06:51:24.805Z</time></trkpt><trkpt lat="45.8891983" lon="8.6542317"><ele>316.6</ele><time>2026-04-12T06:51:25.805Z</time></trkpt><trkpt lat="45.889145" lon="8.654115"><ele>313.8</ele><time>2026-04-12T06:51:26.804Z</time></trkpt><trkpt lat="45.88909" lon="8.6540033"><ele>311.0</ele><time>2026-04-12T06:51:27.805Z</time></trkpt><trkpt lat="45.8890283" lon="8.6538783"><ele>311.0</ele><time>2026-04-12T06:51:28.805Z</time></trkpt><trkpt lat="45.8889617" lon="8.6537533"><ele>311.0</ele><time>2026-04-12T06:51:29.805Z</time></trkpt><trkpt lat="45.8888967" lon="8.6536233"><ele>311.0</ele><time>2026-04-12T06:51:30.804Z</time></trkpt><trkpt lat="45.8888183" lon="8.6535217"><ele>311.0</ele><time>2026-04-12T06:51:31.805Z</time></trkpt><trkpt lat="45.888755" lon="8.6534167"><ele>311.0</ele><time>2026-04-12T06:51:32.804Z</time></trkpt><trkpt lat="45.8886967" lon="8.6532983"><ele>313.6666666666667</ele><time>2026-04-12T06:51:33.805Z</time></trkpt><trkpt lat="45.888645" lon="8.6531867"><ele>316.33333333333337</ele><time>2026-04-12T06:51:34.805Z</time></trkpt><trkpt lat="45.8886033" lon="8.6530733"><ele>319.0</ele><time>2026-04-12T06:51:35.805Z</time></trkpt><trkpt lat="45.88857" lon="8.65297"><ele>321.6666666666667</ele><time>2026-04-12T06:51:36.805Z</time></trkpt><trkpt lat="45.8885483" lon="8.6528517"><ele>324.3333333333333</ele><time>2026-04-12T06:51:37.805Z</time></trkpt><trkpt lat="45.88853" lon="8.65274"><ele>327.0</ele><time>2026-04-12T06:51:38.805Z</time></trkpt><trkpt lat="45.8884967" lon="8.6526483"><ele>325.3333333333333</ele><time>2026-04-12T06:51:39.805Z</time></trkpt><trkpt lat="45.8884567" lon="8.6525617"><ele>323.6666666666667</ele><time>2026-04-12T06:51:40.805Z</time></trkpt><trkpt lat="45.888395" lon="8.6524783"><ele>322.0</ele><time>2026-04-12T06:51:41.805Z</time></trkpt><trkpt lat="45.8883417" lon="8.6523983"><ele>320.33333333333337</ele><time>2026-04-12T06:51:42.805Z</time></trkpt><trkpt lat="45.8882817" lon="8.652325"><ele>318.6666666666667</ele><time>2026-04-12T06:51:43.805Z</time></trkpt><trkpt lat="45.8882267" lon="8.6522567"><ele>317.0</ele><time>2026-04-12T06:51:44.805Z</time></trkpt><trkpt lat="45.88817" lon="8.6522033"><ele>317.0</ele><time>2026-04-12T06:51:45.805Z</time></trkpt><trkpt lat="45.8880567" lon="8.65215"><ele>317.0</ele><time>2026-04-12T06:51:47.805Z</time></trkpt><trkpt lat="45.8879933" lon="8.6521533"><ele>317.0</ele><time>2026-04-12T06:51:48.805Z</time></trkpt><trkpt lat="45.8878733" lon="8.6521483"><ele>317.0</ele><time>2026-04-12T06:51:50.805Z</time></trkpt><trkpt lat="45.88776" lon="8.6520933"><ele>317.0</ele><time>2026-04-12T06:51:52.805Z</time></trkpt><trkpt lat="45.8877" lon="8.6520433"><ele>317.0</ele><time>2026-04-12T06:51:53.805Z</time></trkpt><trkpt lat="45.8876267" lon="8.651975"><ele>317.0</ele><time>2026-04-12T06:51:54.805Z</time></trkpt><trkpt lat="45.8875467" lon="8.6519017"><ele>317.0</ele><time>2026-04-12T06:51:55.805Z</time></trkpt><trkpt lat="45.8874683" lon="8.651845"><ele>317.0</ele><time>2026-04-12T06:51:56.805Z</time></trkpt><trkpt lat="45.8873917" lon="8.6517967"><ele>317.0</ele><time>2026-04-12T06:51:57.804Z</time></trkpt><trkpt lat="45.8873233" lon="8.6517717"><ele>317.0</ele><time>2026-04-12T06:51:58.804Z</time></trkpt><trkpt lat="45.88726" lon="8.65177"><ele>316.6666666666667</ele><time>2026-04-12T06:51:59.805Z</time></trkpt><trkpt lat="45.8871933" lon="8.65178"><ele>316.33333333333337</ele><time>2026-04-12T06:52:00.805Z</time></trkpt><trkpt lat="45.8871167" lon="8.651885"><ele>316.0</ele><time>2026-04-12T06:52:02.805Z</time></trkpt><trkpt lat="45.8870683" lon="8.65196"><ele>315.6666666666667</ele><time>2026-04-12T06:52:03.805Z</time></trkpt><trkpt lat="45.887015" lon="8.6520233"><ele>315.3333333333333</ele><time>2026-04-12T06:52:04.805Z</time></trkpt><trkpt lat="45.886955" lon="8.6520783"><ele>315.0</ele><time>2026-04-12T06:52:05.805Z</time></trkpt><trkpt lat="45.8868967" lon="8.6521317"><ele>313.1666666666667</ele><time>2026-04-12T06:52:06.805Z</time></trkpt><trkpt lat="45.88684" lon="8.6521833"><ele>311.3333333333333</ele><time>2026-04-12T06:52:07.805Z</time></trkpt><trkpt lat="45.8867683" lon="8.652235"><ele>309.5</ele><time>2026-04-12T06:52:09.805Z</time></trkpt><trkpt lat="45.8867017" lon="8.6522383"><ele>307.66666666666663</ele><time>2026-04-12T06:52:11.805Z</time></trkpt><trkpt lat="45.8866083" lon="8.65219"><ele>305.8333333333333</ele><time>2026-04-12T06:52:13.805Z</time></trkpt><trkpt lat="45.8865567" lon="8.6521367"><ele>304.0</ele><time>2026-04-12T06:52:14.805Z</time></trkpt><trkpt lat="45.8864983" lon="8.6520717"><ele>303.16666666666663</ele><time>2026-04-12T06:52:15.805Z</time></trkpt><trkpt lat="45.8864467" lon="8.6520017"><ele>302.3333333333333</ele><time>2026-04-12T06:52:16.805Z</time></trkpt><trkpt lat="45.886385" lon="8.6519283"><ele>301.5</ele><time>2026-04-12T06:52:17.805Z</time></trkpt><trkpt lat="45.8863183" lon="8.651855"><ele>300.6666666666667</ele><time>2026-04-12T06:52:18.805Z</time></trkpt><trkpt lat="45.8862517" lon="8.6517833"><ele>299.83333333333337</ele><time>2026-04-12T06:52:19.805Z</time></trkpt><trkpt lat="45.886175" lon="8.6516933"><ele>299.0</ele><time>2026-04-12T06:52:20.805Z</time></trkpt><trkpt lat="45.88609" lon="8.6516"><ele>299.33333333333337</ele><time>2026-04-12T06:52:21.805Z</time></trkpt><trkpt lat="45.886015" lon="8.651515"><ele>299.6666666666667</ele><time>2026-04-12T06:52:22.805Z</time></trkpt><trkpt lat="45.8859467" lon="8.6514417"><ele>300.0</ele><time>2026-04-12T06:52:23.805Z</time></trkpt><trkpt lat="45.8858967" lon="8.6513817"><ele>300.3333333333333</ele><time>2026-04-12T06:52:24.805Z</time></trkpt><trkpt lat="45.8858383" lon="8.6512617"><ele>300.66666666666663</ele><time>2026-04-12T06:52:26.804Z</time></trkpt><trkpt lat="45.88577" lon="8.6512083"><ele>301.0</ele><time>2026-04-12T06:52:29.805Z</time></trkpt><trkpt lat="45.8856783" lon="8.6512"><ele>301.0</ele><time>2026-04-12T06:52:31.805Z</time></trkpt><trkpt lat="45.885565" lon="8.6511433"><ele>301.0</ele><time>2026-04-12T06:52:33.805Z</time></trkpt><trkpt lat="45.8854833" lon="8.6510517"><ele>301.0</ele><time>2026-04-12T06:52:35.805Z</time></trkpt><trkpt lat="45.885445" lon="8.65093"><ele>301.0</ele><time>2026-04-12T06:52:37.805Z</time></trkpt><trkpt lat="45.8854" lon="8.65084"><ele>301.0</ele><time>2026-04-12T06:52:39.805Z</time></trkpt><trkpt lat="45.8853367" lon="8.6508483"><ele>301.0</ele><time>2026-04-12T06:52:42.805Z</time></trkpt><trkpt lat="45.8853933" lon="8.6509417"><ele>301.0</ele><time>2026-04-12T06:52:46.805Z</time></trkpt><trkpt lat="45.885415" lon="8.65103"><ele>301.0</ele><time>2026-04-12T06:52:48.805Z</time></trkpt><trkpt lat="45.8853917" lon="8.65115"><ele>301.0</ele><time>2026-04-12T06:52:50.804Z</time></trkpt><trkpt lat="45.88534" lon="8.6512183"><ele>301.0</ele><time>2026-04-12T06:52:52.805Z</time></trkpt><trkpt lat="45.8852817" lon="8.6511267"><ele>301.0</ele><time>2026-04-12T06:52:56.805Z</time></trkpt><trkpt lat="45.88526" lon="8.651025"><ele>301.0</ele><time>2026-04-12T06:52:59.805Z</time></trkpt><trkpt lat="45.88519" lon="8.6510867"><ele>301.0</ele><time>2026-04-12T06:53:02.805Z</time></trkpt><trkpt lat="45.88522" lon="8.6512117"><ele>301.0</ele><time>2026-04-12T06:53:05.804Z</time></trkpt><trkpt lat="45.8852817" lon="8.6513067"><ele>301.0</ele><time>2026-04-12T06:53:07.805Z</time></trkpt><trkpt lat="45.8853583" lon="8.6513783"><ele>301.0</ele><time>2026-04-12T06:53:09.805Z</time></trkpt><trkpt lat="45.8853267" lon="8.6512883"><ele>301.0</ele><time>2026-04-12T06:53:36.805Z</time></trkpt><trkpt lat="45.8852817" lon="8.6512133"><ele>301.0</ele><time>2026-04-12T06:53:38.805Z</time></trkpt><trkpt lat="45.88523" lon="8.6511467"><ele>301.0</ele><time>2026-04-12T06:53:40.805Z</time></trkpt><trkpt lat="45.8851983" lon="8.6510533"><ele>301.0</ele><time>2026-04-12T06:53:42.805Z</time></trkpt><trkpt lat="45.885245" lon="8.6509883"><ele>301.0</ele><time>2026-04-12T06:53:45.805Z</time></trkpt><trkpt lat="45.88527" lon="8.6510833"><ele>301.0</ele><time>2026-04-12T06:53:47.804Z</time></trkpt><trkpt lat="45.885285" lon="8.651205"><ele>301.0</ele><time>2026-04-12T06:53:49.805Z</time></trkpt><trkpt lat="45.8853517" lon="8.6511883"><ele>301.0</ele><time>2026-04-12T06:53:52.805Z</time></trkpt><trkpt lat="45.885395" lon="8.65111"><ele>304.66666666666663</ele><time>2026-04-12T06:53:54.805Z</time></trkpt><trkpt lat="45.88536" lon="8.6509733"><ele>308.3333333333333</ele><time>2026-04-12T06:53:57.805Z</time></trkpt><trkpt lat="45.88534" lon="8.650885"><ele>312.0</ele><time>2026-04-12T06:54:00.805Z</time></trkpt><trkpt lat="45.8854067" lon="8.6509583"><ele>315.6666666666667</ele><time>2026-04-12T06:54:05.805Z</time></trkpt><trkpt lat="45.8854467" lon="8.6510483"><ele>319.33333333333337</ele><time>2026-04-12T06:54:07.805Z</time></trkpt><trkpt lat="45.8855233" lon="8.651115"><ele>323.0</ele><time>2026-04-12T06:54:10.805Z</time></trkpt><trkpt lat="45.8855917" lon="8.6510717"><ele>323.0</ele><time>2026-04-12T06:54:15.805Z</time></trkpt><trkpt lat="45.8855533" lon="8.6509817"><ele>323.0</ele><time>2026-04-12T06:54:21.805Z</time></trkpt><trkpt lat="45.8855183" lon="8.6509"><ele>323.0</ele><time>2026-04-12T06:54:23.805Z</time></trkpt><trkpt lat="45.88547" lon="8.6508083"><ele>323.0</ele><time>2026-04-12T06:54:25.805Z</time></trkpt><trkpt lat="45.8853967" lon="8.6506833"><ele>323.0</ele><time>2026-04-12T06:54:27.804Z</time></trkpt><trkpt lat="45.8852983" lon="8.6505517"><ele>323.00000000000006</ele><time>2026-04-12T06:54:29.805Z</time></trkpt><trkpt lat="45.88525" lon="8.6504883"><ele>323.0</ele><time>2026-04-12T06:54:30.805Z</time></trkpt><trkpt lat="45.885195" lon="8.6504117"><ele>323.0</ele><time>2026-04-12T06:54:32.805Z</time></trkpt><trkpt lat="45.8852033" lon="8.6503133"><ele>323.0</ele><time>2026-04-12T06:54:35.805Z</time></trkpt><trkpt lat="45.8852633" lon="8.65025"><ele>323.0</ele><time>2026-04-12T06:54:37.805Z</time></trkpt><trkpt lat="45.8853133" lon="8.65018"><ele>323.00000000000006</ele><time>2026-04-12T06:54:40.805Z</time></trkpt><trkpt lat="45.8853767" lon="8.6500867"><ele>323.0</ele><time>2026-04-12T06:55:35.805Z</time></trkpt><trkpt lat="45.8852883" lon="8.6500383"><ele>327.0</ele><time>2026-04-12T06:55:37.805Z</time></trkpt><trkpt lat="45.8852283" lon="8.6499967"><ele>331.0</ele><time>2026-04-12T06:55:39.805Z</time></trkpt><trkpt lat="45.8851983" lon="8.6498967"><ele>335.0</ele><time>2026-04-12T06:55:42.805Z</time></trkpt><trkpt lat="45.8852333" lon="8.6498133"><ele>339.0</ele><time>2026-04-12T06:55:45.805Z</time></trkpt><trkpt lat="45.8853233" lon="8.64987"><ele>343.0</ele><time>2026-04-12T06:55:48.805Z</time></trkpt><trkpt lat="45.8853983" lon="8.6498983"><ele>347.0</ele><time>2026-04-12T06:55:50.805Z</time></trkpt><trkpt lat="45.8853117" lon="8.6498567"><ele>347.0</ele><time>2026-04-12T06:55:56.805Z</time></trkpt><trkpt lat="45.8852517" lon="8.6498183"><ele>347.0</ele><time>2026-04-12T06:55:58.805Z</time></trkpt><trkpt lat="45.8852567" lon="8.649725"><ele>347.0</ele><time>2026-04-12T06:56:06.805Z</time></trkpt><trkpt lat="45.8853383" lon="8.649665"><ele>347.0</ele><time>2026-04-12T06:56:21.805Z</time></trkpt><trkpt lat="45.8854083" lon="8.6496133"><ele>347.0</ele><time>2026-04-12T06:56:24.805Z</time></trkpt><trkpt lat="45.8854467" lon="8.6495383"><ele>347.0</ele><time>2026-04-12T06:56:26.805Z</time></trkpt><trkpt lat="45.8854433" lon="8.64944"><ele>347.0</ele><time>2026-04-12T06:56:30.805Z</time></trkpt><trkpt lat="45.8853667" lon="8.6493783"><ele>350.0</ele><time>2026-04-12T06:56:32.805Z</time></trkpt><trkpt lat="45.8852967" lon="8.6492733"><ele>353.0</ele><time>2026-04-12T06:56:34.805Z</time></trkpt><trkpt lat="45.88523" lon="8.649165"><ele>356.0</ele><time>2026-04-12T06:56:36.805Z</time></trkpt><trkpt lat="45.8851733" lon="8.6490833"><ele>359.0</ele><time>2026-04-12T06:56:38.805Z</time></trkpt><trkpt lat="45.8851617" lon="8.64898"><ele>362.0</ele><time>2026-04-12T06:56:42.805Z</time></trkpt><trkpt lat="45.885255" lon="8.648965"><ele>365.0</ele><time>2026-04-12T06:56:46.805Z</time></trkpt><trkpt lat="45.885345" lon="8.6489283"><ele>365.0</ele><time>2026-04-12T06:56:48.805Z</time></trkpt><trkpt lat="45.8853917" lon="8.64886"><ele>365.0</ele><time>2026-04-12T06:56:50.805Z</time></trkpt><trkpt lat="45.8853467" lon="8.6487783"><ele>365.0</ele><time>2026-04-12T06:56:53.805Z</time></trkpt><trkpt lat="45.8852617" lon="8.6486983"><ele>365.0</ele><time>2026-04-12T06:56:56.805Z</time></trkpt><trkpt lat="45.885185" lon="8.6486517"><ele>365.0</ele><time>2026-04-12T06:56:58.805Z</time></trkpt><trkpt lat="45.8851183" lon="8.6486483"><ele>365.0</ele><time>2026-04-12T06:57:08.805Z</time></trkpt><trkpt lat="45.8850883" lon="8.6487433"><ele>365.00000000000006</ele><time>2026-04-12T06:57:14.805Z</time></trkpt><trkpt lat="45.885105" lon="8.6488317"><ele>365.0</ele><time>2026-04-12T06:57:19.805Z</time></trkpt><trkpt lat="45.8851117" lon="8.6489467"><ele>365.0</ele><time>2026-04-12T06:57:23.805Z</time></trkpt><trkpt lat="45.88511" lon="8.64904"><ele>365.0</ele><time>2026-04-12T06:57:26.805Z</time></trkpt><trkpt lat="45.8851483" lon="8.649125"><ele>365.0</ele><time>2026-04-12T06:57:29.805Z</time></trkpt><trkpt lat="45.885215" lon="8.649215"><ele>365.00000000000006</ele><time>2026-04-12T06:57:32.805Z</time></trkpt><trkpt lat="45.88526" lon="8.6492983"><ele>365.0</ele><time>2026-04-12T06:57:34.805Z</time></trkpt><trkpt lat="45.885305" lon="8.64939"><ele>365.0</ele><time>2026-04-12T06:57:37.804Z</time></trkpt><trkpt lat="45.8852583" lon="8.6494633"><ele>365.0</ele><time>2026-04-12T06:57:41.805Z</time></trkpt><trkpt lat="45.8852067" lon="8.649365"><ele>365.0</ele><time>2026-04-12T06:57:44.804Z</time></trkpt><trkpt lat="45.885185" lon="8.6492717"><ele>365.0</ele><time>2026-04-12T06:57:46.805Z</time></trkpt><trkpt lat="45.8851217" lon="8.6491967"><ele>365.0</ele><time>2026-04-12T06:57:48.805Z</time></trkpt><trkpt lat="45.88504" lon="8.6491183"><ele>365.0</ele><time>2026-04-12T06:57:50.805Z</time></trkpt><trkpt lat="45.8849767" lon="8.6490583"><ele>360.33333333333337</ele><time>2026-04-12T06:57:51.805Z</time></trkpt><trkpt lat="45.8849217" lon="8.6489883"><ele>355.6666666666667</ele><time>2026-04-12T06:57:52.805Z</time></trkpt><trkpt lat="45.88487" lon="8.6489183"><ele>351.0</ele><time>2026-04-12T06:57:53.805Z</time></trkpt><trkpt lat="45.884795" lon="8.6488283"><ele>346.3333333333333</ele><time>2026-04-12T06:57:55.805Z</time></trkpt><trkpt lat="45.8847233" lon="8.648725"><ele>341.66666666666663</ele><time>2026-04-12T06:58:04.805Z</time></trkpt><trkpt lat="45.884655" lon="8.6487333"><ele>337.0</ele><time>2026-04-12T06:58:07.805Z</time></trkpt><trkpt lat="45.8846" lon="8.6487983"><ele>337.0</ele><time>2026-04-12T06:58:10.805Z</time></trkpt><trkpt lat="45.8845367" lon="8.6488383"><ele>337.0</ele><time>2026-04-12T06:58:16.805Z</time></trkpt><trkpt lat="45.8844717" lon="8.648805"><ele>337.0</ele><time>2026-04-12T06:58:19.805Z</time></trkpt><trkpt lat="45.8844183" lon="8.6487367"><ele>337.0</ele><time>2026-04-12T06:58:22.805Z</time></trkpt><trkpt lat="45.8843583" lon="8.6486433"><ele>337.0</ele><time>2026-04-12T06:58:35.805Z</time></trkpt><trkpt lat="45.8843383" lon="8.64853"><ele>337.0</ele><time>2026-04-12T06:58:37.805Z</time></trkpt><trkpt lat="45.8843467" lon="8.64843"><ele>338.16666666666663</ele><time>2026-04-12T06:58:38.805Z</time></trkpt><trkpt lat="45.8843033" lon="8.648305"><ele>339.3333333333333</ele><time>2026-04-12T06:58:40.805Z</time></trkpt><trkpt lat="45.8842683" lon="8.6481867"><ele>340.5</ele><time>2026-04-12T06:58:42.804Z</time></trkpt><trkpt lat="45.8842333" lon="8.6480833"><ele>341.6666666666667</ele><time>2026-04-12T06:58:44.805Z</time></trkpt><trkpt lat="45.884185" lon="8.64797"><ele>342.83333333333337</ele><time>2026-04-12T06:58:46.805Z</time></trkpt><trkpt lat="45.884135" lon="8.647885"><ele>344.0</ele><time>2026-04-12T06:58:47.805Z</time></trkpt><trkpt lat="45.8841" lon="8.64779"><ele>346.0</ele><time>2026-04-12T06:58:48.805Z</time></trkpt><trkpt lat="45.8840633" lon="8.6477033"><ele>348.0</ele><time>2026-04-12T06:58:49.805Z</time></trkpt><trkpt lat="45.8840383" lon="8.6476133"><ele>350.0</ele><time>2026-04-12T06:58:50.805Z</time></trkpt><trkpt lat="45.884035" lon="8.6474683"><ele>352.0</ele><time>2026-04-12T06:58:52.805Z</time></trkpt><trkpt lat="45.8840633" lon="8.6473367"><ele>354.0</ele><time>2026-04-12T06:58:54.805Z</time></trkpt><trkpt lat="45.8840933" lon="8.6472467"><ele>356.0</ele><time>2026-04-12T06:58:56.805Z</time></trkpt><trkpt lat="45.8841367" lon="8.647175"><ele>355.99999999999994</ele><time>2026-04-12T06:58:59.805Z</time></trkpt><trkpt lat="45.8841367" lon="8.6470717"><ele>356.0</ele><time>2026-04-12T06:59:03.805Z</time></trkpt><trkpt lat="45.8840583" lon="8.6470633"><ele>356.0</ele><time>2026-04-12T06:59:09.805Z</time></trkpt><trkpt lat="45.8839833" lon="8.647085"><ele>356.0</ele><time>2026-04-12T06:59:12.805Z</time></trkpt><trkpt lat="45.883935" lon="8.64716"><ele>356.0</ele><time>2026-04-12T06:59:16.805Z</time></trkpt><trkpt lat="45.8838933" lon="8.6472483"><ele>355.99999999999994</ele><time>2026-04-12T06:59:18.804Z</time></trkpt><trkpt lat="45.8838583" lon="8.64734"><ele>356.0</ele><time>2026-04-12T06:59:20.805Z</time></trkpt><trkpt lat="45.8838083" lon="8.6474267"><ele>356.0</ele><time>2026-04-12T06:59:29.805Z</time></trkpt><trkpt lat="45.8837817" lon="8.6475467"><ele>356.0</ele><time>2026-04-12T06:59:32.805Z</time></trkpt><trkpt lat="45.883815" lon="8.647675"><ele>356.0</ele><time>2026-04-12T06:59:34.805Z</time></trkpt><trkpt lat="45.8838517" lon="8.64781"><ele>356.0</ele><time>2026-04-12T06:59:36.805Z</time></trkpt><trkpt lat="45.8839033" lon="8.6479383"><ele>356.0</ele><time>2026-04-12T06:59:38.805Z</time></trkpt><trkpt lat="45.883945" lon="8.6480633"><ele>354.2857142857143</ele><time>2026-04-12T06:59:40.805Z</time></trkpt><trkpt lat="45.8839683" lon="8.64818"><ele>352.57142857142856</ele><time>2026-04-12T06:59:42.804Z</time></trkpt><trkpt lat="45.88398" lon="8.6482817"><ele>350.8571428571429</ele><time>2026-04-12T06:59:44.805Z</time></trkpt><trkpt lat="45.8839833" lon="8.6484017"><ele>349.1428571428571</ele><time>2026-04-12T06:59:46.805Z</time></trkpt><trkpt lat="45.8839567" lon="8.6485"><ele>347.42857142857144</ele><time>2026-04-12T06:59:48.805Z</time></trkpt><trkpt lat="45.8839417" lon="8.64859"><ele>345.7142857142857</ele><time>2026-04-12T06:59:50.805Z</time></trkpt><trkpt lat="45.8839417" lon="8.6486833"><ele>344.0</ele><time>2026-04-12T06:59:57.805Z</time></trkpt><trkpt lat="45.8839483" lon="8.6488417"><ele>340.83333333333337</ele><time>2026-04-12T07:00:19.805Z</time></trkpt><trkpt lat="45.8839433" lon="8.6489367"><ele>337.6666666666667</ele><time>2026-04-12T07:00:33.805Z</time></trkpt><trkpt lat="45.8839517" lon="8.6490783"><ele>334.5</ele><time>2026-04-12T07:00:42.804Z</time></trkpt><trkpt lat="45.8839717" lon="8.6491983"><ele>331.3333333333333</ele><time>2026-04-12T07:00:45.805Z</time></trkpt><trkpt lat="45.88405" lon="8.6491717"><ele>328.16666666666663</ele><time>2026-04-12T07:01:11.805Z</time></trkpt><trkpt lat="45.884125" lon="8.649085"><ele>325.0</ele><time>2026-04-12T07:01:16.805Z</time></trkpt><trkpt lat="45.8842017" lon="8.6490467"><ele>325.0</ele><time>2026-04-12T07:01:18.805Z</time></trkpt><trkpt lat="45.88427" lon="8.6490367"><ele>325.0</ele><time>2026-04-12T07:01:20.805Z</time></trkpt><trkpt lat="45.8842533" lon="8.649135"><ele>325.0</ele><time>2026-04-12T07:01:29.804Z</time></trkpt><trkpt lat="45.88417" lon="8.6491833"><ele>325.0</ele><time>2026-04-12T07:01:33.805Z</time></trkpt><trkpt lat="45.8841083" lon="8.6492283"><ele>325.0</ele><time>2026-04-12T07:01:35.804Z</time></trkpt><trkpt lat="45.8840817" lon="8.6493333"><ele>325.0</ele><time>2026-04-12T07:01:37.805Z</time></trkpt><trkpt lat="45.8841083" lon="8.6494517"><ele>324.0</ele><time>2026-04-12T07:01:40.805Z</time></trkpt><trkpt lat="45.8841867" lon="8.6495017"><ele>323.0</ele><time>2026-04-12T07:01:42.805Z</time></trkpt><trkpt lat="45.884265" lon="8.6495017"><ele>322.0</ele><time>2026-04-12T07:01:44.805Z</time></trkpt><trkpt lat="45.88433" lon="8.6494617"><ele>321.0</ele><time>2026-04-12T07:01:46.805Z</time></trkpt><trkpt lat="45.8843917" lon="8.649405"><ele>320.0</ele><time>2026-04-12T07:01:48.804Z</time></trkpt><trkpt lat="45.88445" lon="8.6493217"><ele>319.0</ele><time>2026-04-12T07:01:51.805Z</time></trkpt><trkpt lat="45.8845033" lon="8.6492517"><ele>322.6</ele><time>2026-04-12T07:01:53.805Z</time></trkpt><trkpt lat="45.88456" lon="8.64916"><ele>326.2</ele><time>2026-04-12T07:01:55.805Z</time></trkpt><trkpt lat="45.8845533" lon="8.6490683"><ele>329.8</ele><time>2026-04-12T07:02:08.805Z</time></trkpt><trkpt lat="45.8845067" lon="8.6488083"><ele>333.40000000000003</ele><time>2026-04-12T07:05:01.805Z</time></trkpt><trkpt lat="45.8845633" lon="8.648715"><ele>337.0</ele><time>2026-04-12T07:05:03.805Z</time></trkpt><trkpt lat="45.8846183" lon="8.6486283"><ele>340.66666666666663</ele><time>2026-04-12T07:05:05.804Z</time></trkpt><trkpt lat="45.8846633" lon="8.6485267"><ele>344.3333333333333</ele><time>2026-04-12T07:05:07.805Z</time></trkpt><trkpt lat="45.8847133" lon="8.6483983"><ele>348.0</ele><time>2026-04-12T07:05:09.805Z</time></trkpt><trkpt lat="45.88471" lon="8.6482967"><ele>351.6666666666667</ele><time>2026-04-12T07:05:11.805Z</time></trkpt><trkpt lat="45.884655" lon="8.648375"><ele>355.33333333333337</ele><time>2026-04-12T07:05:18.805Z</time></trkpt><trkpt lat="45.884635" lon="8.6484717"><ele>359.0</ele><time>2026-04-12T07:05:22.805Z</time></trkpt><trkpt lat="45.8846183" lon="8.64859"><ele>359.0</ele><time>2026-04-12T07:05:27.805Z</time></trkpt><trkpt lat="45.8845833" lon="8.6486917"><ele>359.0</ele><time>2026-04-12T07:05:30.804Z</time></trkpt><trkpt lat="45.8846017" lon="8.648595"><ele>359.0</ele><time>2026-04-12T07:05:43.804Z</time></trkpt><trkpt lat="45.8846017" lon="8.648485"><ele>359.0</ele><time>2026-04-12T07:05:48.805Z</time></trkpt><trkpt lat="45.8846033" lon="8.6483817"><ele>359.0</ele><time>2026-04-12T07:05:51.805Z</time></trkpt><trkpt lat="45.8846567" lon="8.6482633"><ele>359.0</ele><time>2026-04-12T07:05:54.805Z</time></trkpt><trkpt lat="45.8847017" lon="8.6481767"><ele>359.0</ele><time>2026-04-12T07:05:57.805Z</time></trkpt><trkpt lat="45.8846333" lon="8.64807"><ele>359.0</ele><time>2026-04-12T07:06:05.805Z</time></trkpt><trkpt lat="45.88457" lon="8.647985"><ele>359.0</ele><time>2026-04-12T07:06:07.805Z</time></trkpt><trkpt lat="45.8845233" lon="8.647915"><ele>359.0</ele><time>2026-04-12T07:06:09.805Z</time></trkpt><trkpt lat="45.8844833" lon="8.647845"><ele>359.0</ele><time>2026-04-12T07:06:11.805Z</time></trkpt><trkpt lat="45.8844117" lon="8.647705"><ele>359.0</ele><time>2026-04-12T07:06:49.805Z</time></trkpt><trkpt lat="45.8844017" lon="8.6476083"><ele>359.0</ele><time>2026-04-12T07:06:55.805Z</time></trkpt><trkpt lat="45.88447" lon="8.6476167"><ele>359.0</ele><time>2026-04-12T07:07:03.805Z</time></trkpt><trkpt lat="45.8845167" lon="8.6476883"><ele>359.0</ele><time>2026-04-12T07:07:07.805Z</time></trkpt><trkpt lat="45.8845617" lon="8.647755"><ele>359.0</ele><time>2026-04-12T07:07:10.805Z</time></trkpt><trkpt lat="45.88462" lon="8.647825"><ele>359.0</ele><time>2026-04-12T07:07:13.805Z</time></trkpt><trkpt lat="45.88467" lon="8.647905"><ele>359.0</ele><time>2026-04-12T07:07:16.805Z</time></trkpt><trkpt lat="45.8847083" lon="8.6479783"><ele>359.0</ele><time>2026-04-12T07:07:20.805Z</time></trkpt><trkpt lat="45.8847583" lon="8.6480867"><ele>359.0</ele><time>2026-04-12T07:07:24.805Z</time></trkpt><trkpt lat="45.88481" lon="8.64818"><ele>359.0</ele><time>2026-04-12T07:07:26.804Z</time></trkpt><trkpt lat="45.8848633" lon="8.64829"><ele>359.0</ele><time>2026-04-12T07:07:28.805Z</time></trkpt><trkpt lat="45.8849267" lon="8.6483817"><ele>359.0</ele><time>2026-04-12T07:07:30.805Z</time></trkpt><trkpt lat="45.8849683" lon="8.6484667"><ele>359.0</ele><time>2026-04-12T07:07:33.805Z</time></trkpt><trkpt lat="45.884995" lon="8.6485717"><ele>359.0</ele><time>2026-04-12T07:08:09.805Z</time></trkpt><trkpt lat="45.884935" lon="8.6486217"><ele>359.0</ele><time>2026-04-12T07:08:13.805Z</time></trkpt><trkpt lat="45.88486" lon="8.648555"><ele>359.0</ele><time>2026-04-12T07:08:16.805Z</time></trkpt><trkpt lat="45.88479" lon="8.6485683"><ele>359.0</ele><time>2026-04-12T07:08:21.805Z</time></trkpt><trkpt lat="45.8847917" lon="8.6486817"><ele>359.0</ele><time>2026-04-12T07:08:25.805Z</time></trkpt><trkpt lat="45.8848483" lon="8.6487433"><ele>359.0</ele><time>2026-04-12T07:08:27.805Z</time></trkpt><trkpt lat="45.8849283" lon="8.6488517"><ele>359.0</ele><time>2026-04-12T07:08:29.805Z</time></trkpt><trkpt lat="45.8850217" lon="8.6489467"><ele>360.0</ele><time>2026-04-12T07:08:31.805Z</time></trkpt><trkpt lat="45.8851133" lon="8.64902"><ele>361.0</ele><time>2026-04-12T07:08:33.805Z</time></trkpt><trkpt lat="45.8851633" lon="8.649135"><ele>362.0</ele><time>2026-04-12T07:08:35.805Z</time></trkpt><trkpt lat="45.8852" lon="8.6492667"><ele>363.0</ele><time>2026-04-12T07:08:37.805Z</time></trkpt><trkpt lat="45.88525" lon="8.6493317"><ele>364.0</ele><time>2026-04-12T07:08:39.805Z</time></trkpt><trkpt lat="45.885305" lon="8.649395"><ele>365.0</ele><time>2026-04-12T07:08:41.805Z</time></trkpt><trkpt lat="45.8853583" lon="8.6494633"><ele>362.42857142857144</ele><time>2026-04-12T07:08:43.805Z</time></trkpt><trkpt lat="45.885395" lon="8.64954"><ele>359.8571428571429</ele><time>2026-04-12T07:08:46.805Z</time></trkpt><trkpt lat="45.8853433" lon="8.6495967"><ele>357.28571428571433</ele><time>2026-04-12T07:08:52.805Z</time></trkpt><trkpt lat="45.8852783" lon="8.649635"><ele>354.7142857142857</ele><time>2026-04-12T07:08:56.805Z</time></trkpt><trkpt lat="45.8853183" lon="8.6497233"><ele>352.1428571428571</ele><time>2026-04-12T07:08:58.805Z</time></trkpt><trkpt lat="45.8853767" lon="8.64983"><ele>349.5714285714286</ele><time>2026-04-12T07:09:00.805Z</time></trkpt><trkpt lat="45.8854333" lon="8.6499117"><ele>347.0</ele><time>2026-04-12T07:09:03.804Z</time></trkpt><trkpt lat="45.8854" lon="8.6500117"><ele>347.0</ele><time>2026-04-12T07:09:07.805Z</time></trkpt><trkpt lat="45.88538" lon="8.6501017"><ele>347.0</ele><time>2026-04-12T07:09:11.805Z</time></trkpt><trkpt lat="45.88531" lon="8.65016"><ele>347.0</ele><time>2026-04-12T07:09:14.805Z</time></trkpt><trkpt lat="45.8852433" lon="8.6502417"><ele>347.0</ele><time>2026-04-12T07:09:17.805Z</time></trkpt><trkpt lat="45.8852633" lon="8.6503517"><ele>347.0</ele><time>2026-04-12T07:09:21.805Z</time></trkpt><trkpt lat="45.885345" lon="8.6504267"><ele>347.0</ele><time>2026-04-12T07:09:24.804Z</time></trkpt><trkpt lat="45.8853983" lon="8.6505017"><ele>342.20000000000005</ele><time>2026-04-12T07:09:26.804Z</time></trkpt><trkpt lat="45.8854717" lon="8.6506083"><ele>337.4</ele><time>2026-04-12T07:09:28.805Z</time></trkpt><trkpt lat="45.8855333" lon="8.650725"><ele>332.6</ele><time>2026-04-12T07:09:30.805Z</time></trkpt><trkpt lat="45.8855867" lon="8.650835"><ele>327.79999999999995</ele><time>2026-04-12T07:09:32.805Z</time></trkpt><trkpt lat="45.8856483" lon="8.6509033"><ele>323.0</ele><time>2026-04-12T07:09:34.805Z</time></trkpt><trkpt lat="45.8857" lon="8.6509767"><ele>323.0</ele><time>2026-04-12T07:09:36.805Z</time></trkpt><trkpt lat="45.8857483" lon="8.6510667"><ele>323.0</ele><time>2026-04-12T07:09:39.805Z</time></trkpt><trkpt lat="45.8858233" lon="8.6510767"><ele>323.0</ele><time>2026-04-12T07:09:43.805Z</time></trkpt><trkpt lat="45.8858733" lon="8.6511783"><ele>323.0</ele><time>2026-04-12T07:09:47.805Z</time></trkpt><trkpt lat="45.8859383" lon="8.65126"><ele>323.0</ele><time>2026-04-12T07:09:50.805Z</time></trkpt><trkpt lat="45.886" lon="8.65131"><ele>323.0</ele><time>2026-04-12T07:09:53.805Z</time></trkpt><trkpt lat="45.8861" lon="8.6514033"><ele>321.0</ele><time>2026-04-12T07:09:55.805Z</time></trkpt><trkpt lat="45.8861533" lon="8.6514667"><ele>319.0</ele><time>2026-04-12T07:09:56.805Z</time></trkpt><trkpt lat="45.88621" lon="8.6515217"><ele>317.0</ele><time>2026-04-12T07:09:57.804Z</time></trkpt><trkpt lat="45.8862983" lon="8.65162"><ele>315.0</ele><time>2026-04-12T07:09:59.805Z</time></trkpt><trkpt lat="45.8863617" lon="8.6516883"><ele>313.0</ele><time>2026-04-12T07:10:00.805Z</time></trkpt><trkpt lat="45.8864233" lon="8.6517667"><ele>311.0</ele><time>2026-04-12T07:10:01.805Z</time></trkpt><trkpt lat="45.8865" lon="8.6518617"><ele>311.0</ele><time>2026-04-12T07:10:02.805Z</time></trkpt><trkpt lat="45.8865567" lon="8.6519417"><ele>311.0</ele><time>2026-04-12T07:10:03.805Z</time></trkpt><trkpt lat="45.8865983" lon="8.6520117"><ele>311.0</ele><time>2026-04-12T07:10:04.805Z</time></trkpt><trkpt lat="45.88668" lon="8.652105"><ele>311.0</ele><time>2026-04-12T07:10:06.805Z</time></trkpt><trkpt lat="45.88675" lon="8.6521117"><ele>311.0</ele><time>2026-04-12T07:10:08.805Z</time></trkpt><trkpt lat="45.8868383" lon="8.652045"><ele>311.0</ele><time>2026-04-12T07:10:11.805Z</time></trkpt><trkpt lat="45.886935" lon="8.6519767"><ele>311.6666666666667</ele><time>2026-04-12T07:10:13.804Z</time></trkpt><trkpt lat="45.8870217" lon="8.6518517"><ele>312.33333333333337</ele><time>2026-04-12T07:10:15.805Z</time></trkpt><trkpt lat="45.8870883" lon="8.651775"><ele>313.0</ele><time>2026-04-12T07:10:17.805Z</time></trkpt><trkpt lat="45.8871533" lon="8.65175"><ele>313.6666666666667</ele><time>2026-04-12T07:10:19.805Z</time></trkpt><trkpt lat="45.8872167" lon="8.65176"><ele>314.3333333333333</ele><time>2026-04-12T07:10:21.805Z</time></trkpt><trkpt lat="45.887315" lon="8.6517983"><ele>315.0</ele><time>2026-04-12T07:10:23.805Z</time></trkpt><trkpt lat="45.887385" lon="8.6518483"><ele>315.0</ele><time>2026-04-12T07:10:24.805Z</time></trkpt><trkpt lat="45.8874633" lon="8.6519067"><ele>315.0</ele><time>2026-04-12T07:10:25.805Z</time></trkpt><trkpt lat="45.88754" lon="8.6519633"><ele>315.0</ele><time>2026-04-12T07:10:26.805Z</time></trkpt><trkpt lat="45.8876117" lon="8.6520133"><ele>315.0</ele><time>2026-04-12T07:10:27.805Z</time></trkpt><trkpt lat="45.8877183" lon="8.6520667"><ele>315.0</ele><time>2026-04-12T07:10:29.805Z</time></trkpt><trkpt lat="45.8878167" lon="8.6520867"><ele>315.4</ele><time>2026-04-12T07:10:31.805Z</time></trkpt><trkpt lat="45.8879417" lon="8.6521017"><ele>315.8</ele><time>2026-04-12T07:10:33.805Z</time></trkpt><trkpt lat="45.8880083" lon="8.652095"><ele>316.2</ele><time>2026-04-12T07:10:34.805Z</time></trkpt><trkpt lat="45.8881167" lon="8.652135"><ele>316.6</ele><time>2026-04-12T07:10:36.805Z</time></trkpt><trkpt lat="45.8881917" lon="8.6521933"><ele>317.0</ele><time>2026-04-12T07:10:38.805Z</time></trkpt><trkpt lat="45.8883083" lon="8.6523033"><ele>317.0</ele><time>2026-04-12T07:12:12.805Z</time></trkpt><trkpt lat="45.8883367" lon="8.6523867"><ele>317.0</ele><time>2026-04-12T07:13:24.805Z</time></trkpt><trkpt lat="45.8884033" lon="8.65248"><ele>317.0</ele><time>2026-04-12T07:13:26.805Z</time></trkpt><trkpt lat="45.8884667" lon="8.6525617"><ele>317.0</ele><time>2026-04-12T07:13:28.805Z</time></trkpt><trkpt lat="45.88851" lon="8.6526833"><ele>317.0</ele><time>2026-04-12T07:13:30.805Z</time></trkpt><trkpt lat="45.8885367" lon="8.6528483"><ele>319.0</ele><time>2026-04-12T07:13:32.804Z</time></trkpt><trkpt lat="45.8885617" lon="8.6530083"><ele>321.0</ele><time>2026-04-12T07:13:34.805Z</time></trkpt><trkpt lat="45.8885883" lon="8.6531317"><ele>323.0</ele><time>2026-04-12T07:13:36.805Z</time></trkpt><trkpt lat="45.88866" lon="8.65328"><ele>325.0</ele><time>2026-04-12T07:13:38.805Z</time></trkpt><trkpt lat="45.8887233" lon="8.65338"><ele>327.0</ele><time>2026-04-12T07:13:39.805Z</time></trkpt><trkpt lat="45.8888117" lon="8.6534917"><ele>327.0</ele><time>2026-04-12T07:13:40.805Z</time></trkpt><trkpt lat="45.8888983" lon="8.6536167"><ele>327.0</ele><time>2026-04-12T07:13:41.805Z</time></trkpt><trkpt lat="45.888975" lon="8.65374"><ele>327.0</ele><time>2026-04-12T07:13:42.805Z</time></trkpt><trkpt lat="45.8890483" lon="8.6538683"><ele>327.0</ele><time>2026-04-12T07:13:43.804Z</time></trkpt><trkpt lat="45.8891167" lon="8.653995"><ele>326.6</ele><time>2026-04-12T07:13:44.805Z</time></trkpt><trkpt lat="45.88918" lon="8.654115"><ele>326.20000000000005</ele><time>2026-04-12T07:13:45.805Z</time></trkpt><trkpt lat="45.8892367" lon="8.65423"><ele>325.8</ele><time>2026-04-12T07:13:46.805Z</time></trkpt><trkpt lat="45.88929" lon="8.6543433"><ele>325.4</ele><time>2026-04-12T07:13:47.805Z</time></trkpt><trkpt lat="45.889345" lon="8.65446"><ele>325.0</ele><time>2026-04-12T07:13:48.805Z</time></trkpt><trkpt lat="45.8894067" lon="8.6545717"><ele>325.0</ele><time>2026-04-12T07:13:49.805Z</time></trkpt><trkpt lat="45.8894667" lon="8.654685"><ele>325.0</ele><time>2026-04-12T07:13:50.805Z</time></trkpt><trkpt lat="45.8895283" lon="8.654795"><ele>325.0</ele><time>2026-04-12T07:13:51.805Z</time></trkpt><trkpt lat="45.8895967" lon="8.65491"><ele>325.0</ele><time>2026-04-12T07:13:52.805Z</time></trkpt><trkpt lat="45.8896667" lon="8.6550483"><ele>325.0</ele><time>2026-04-12T07:13:53.805Z</time></trkpt><trkpt lat="45.8897417" lon="8.6552017"><ele>319.75</ele><time>2026-04-12T07:13:54.805Z</time></trkpt><trkpt lat="45.8898083" lon="8.655355"><ele>314.5</ele><time>2026-04-12T07:13:55.805Z</time></trkpt><trkpt lat="45.889875" lon="8.6555017"><ele>309.25</ele><time>2026-04-12T07:13:56.805Z</time></trkpt><trkpt lat="45.88994" lon="8.6556517"><ele>304.0</ele><time>2026-04-12T07:13:57.804Z</time></trkpt><trkpt lat="45.8899983" lon="8.6557933"><ele>304.0</ele><time>2026-04-12T07:13:58.805Z</time></trkpt><trkpt lat="45.8900533" lon="8.6559233"><ele>304.0</ele><time>2026-04-12T07:13:59.805Z</time></trkpt><trkpt lat="45.8901017" lon="8.6560467"><ele>304.0</ele><time>2026-04-12T07:14:00.805Z</time></trkpt><trkpt lat="45.8901417" lon="8.656165"><ele>304.0</ele><time>2026-04-12T07:14:01.805Z</time></trkpt><trkpt lat="45.8901733" lon="8.65629"><ele>304.0</ele><time>2026-04-12T07:14:02.805Z</time></trkpt><trkpt lat="45.8902117" lon="8.656405"><ele>303.0</ele><time>2026-04-12T07:14:03.805Z</time></trkpt><trkpt lat="45.890245" lon="8.6565217"><ele>302.0</ele><time>2026-04-12T07:14:04.805Z</time></trkpt><trkpt lat="45.890285" lon="8.6566267"><ele>301.0</ele><time>2026-04-12T07:14:05.805Z</time></trkpt><trkpt lat="45.8903167" lon="8.6567283"><ele>300.0</ele><time>2026-04-12T07:14:06.805Z</time></trkpt><trkpt lat="45.8903383" lon="8.6568467"><ele>299.0</ele><time>2026-04-12T07:14:07.805Z</time></trkpt><trkpt lat="45.890355" lon="8.6569767"><ele>298.0</ele><time>2026-04-12T07:14:08.805Z</time></trkpt><trkpt lat="45.8903683" lon="8.6571017"><ele>298.0</ele><time>2026-04-12T07:14:09.805Z</time></trkpt><trkpt lat="45.8903867" lon="8.65721"><ele>298.0</ele><time>2026-04-12T07:14:10.804Z</time></trkpt><trkpt lat="45.8904317" lon="8.6573283"><ele>298.0</ele><time>2026-04-12T07:14:11.805Z</time></trkpt><trkpt lat="45.8905" lon="8.657465"><ele>298.0</ele><time>2026-04-12T07:14:12.805Z</time></trkpt><trkpt lat="45.8905717" lon="8.6576133"><ele>298.0</ele><time>2026-04-12T07:14:13.805Z</time></trkpt><trkpt lat="45.89064" lon="8.65774"><ele>295.75</ele><time>2026-04-12T07:14:14.805Z</time></trkpt><trkpt lat="45.8906967" lon="8.6578767"><ele>293.5</ele><time>2026-04-12T07:14:15.805Z</time></trkpt><trkpt lat="45.8907483" lon="8.65804"><ele>291.25</ele><time>2026-04-12T07:14:16.805Z</time></trkpt><trkpt lat="45.8907933" lon="8.6582117"><ele>289.0</ele><time>2026-04-12T07:14:17.804Z</time></trkpt><trkpt lat="45.890835" lon="8.658375"><ele>289.0</ele><time>2026-04-12T07:14:18.804Z</time></trkpt><trkpt lat="45.8908867" lon="8.65853"><ele>289.0</ele><time>2026-04-12T07:14:19.805Z</time></trkpt><trkpt lat="45.890945" lon="8.6586617"><ele>289.0</ele><time>2026-04-12T07:14:20.804Z</time></trkpt><trkpt lat="45.8910083" lon="8.6587917"><ele>289.0</ele><time>2026-04-12T07:14:21.805Z</time></trkpt><trkpt lat="45.8910883" lon="8.6589133"><ele>288.59999999999997</ele><time>2026-04-12T07:14:22.805Z</time></trkpt><trkpt lat="45.89117" lon="8.6590233"><ele>288.2</ele><time>2026-04-12T07:14:23.805Z</time></trkpt><trkpt lat="45.89126" lon="8.6591333"><ele>287.79999999999995</ele><time>2026-04-12T07:14:24.805Z</time></trkpt><trkpt lat="45.891335" lon="8.6592417"><ele>287.4</ele><time>2026-04-12T07:14:25.805Z</time></trkpt><trkpt lat="45.8913983" lon="8.659345"><ele>287.0</ele><time>2026-04-12T07:14:26.805Z</time></trkpt><trkpt lat="45.8914517" lon="8.65944"><ele>284.4</ele><time>2026-04-12T07:14:27.805Z</time></trkpt><trkpt lat="45.8914917" lon="8.65952"><ele>281.79999999999995</ele><time>2026-04-12T07:14:28.805Z</time></trkpt><trkpt lat="45.89154" lon="8.6596333"><ele>279.2</ele><time>2026-04-12T07:14:30.805Z</time></trkpt><trkpt lat="45.8914783" lon="8.65973"><ele>276.59999999999997</ele><time>2026-04-12T07:14:32.805Z</time></trkpt><trkpt lat="45.89139" lon="8.659795"><ele>274.0</ele><time>2026-04-12T07:14:33.805Z</time></trkpt><trkpt lat="45.8912967" lon="8.65988"><ele>274.0</ele><time>2026-04-12T07:14:34.805Z</time></trkpt><trkpt lat="45.8912133" lon="8.6599717"><ele>274.0</ele><time>2026-04-12T07:14:35.805Z</time></trkpt><trkpt lat="45.89115" lon="8.6600733"><ele>274.0</ele><time>2026-04-12T07:14:36.805Z</time></trkpt><trkpt lat="45.8910983" lon="8.6601867"><ele>274.0</ele><time>2026-04-12T07:14:37.804Z</time></trkpt><trkpt lat="45.891075" lon="8.6603133"><ele>274.0</ele><time>2026-04-12T07:14:38.805Z</time></trkpt><trkpt lat="45.891055" lon="8.6604417"><ele>272.4</ele><time>2026-04-12T07:14:39.805Z</time></trkpt><trkpt lat="45.891035" lon="8.660575"><ele>270.79999999999995</ele><time>2026-04-12T07:14:40.805Z</time></trkpt><trkpt lat="45.8910283" lon="8.6607"><ele>269.20000000000005</ele><time>2026-04-12T07:14:41.804Z</time></trkpt><trkpt lat="45.8910217" lon="8.6608217"><ele>267.6</ele><time>2026-04-12T07:14:42.805Z</time></trkpt><trkpt lat="45.8910133" lon="8.6609483"><ele>266.0</ele><time>2026-04-12T07:14:43.805Z</time></trkpt><trkpt lat="45.891" lon="8.6610867"><ele>265.40000000000003</ele><time>2026-04-12T07:14:44.805Z</time></trkpt><trkpt lat="45.89099" lon="8.66123"><ele>264.8</ele><time>2026-04-12T07:14:45.805Z</time></trkpt><trkpt lat="45.8909883" lon="8.6613767"><ele>264.20000000000005</ele><time>2026-04-12T07:14:46.805Z</time></trkpt><trkpt lat="45.8909983" lon="8.6615133"><ele>263.6</ele><time>2026-04-12T07:14:47.805Z</time></trkpt><trkpt lat="45.89101" lon="8.6616383"><ele>263.0</ele><time>2026-04-12T07:14:48.805Z</time></trkpt><trkpt lat="45.89103" lon="8.6617633"><ele>263.0</ele><time>2026-04-12T07:14:49.805Z</time></trkpt><trkpt lat="45.891055" lon="8.6618917"><ele>263.0</ele><time>2026-04-12T07:14:50.805Z</time></trkpt><trkpt lat="45.8910883" lon="8.6620183"><ele>263.0</ele><time>2026-04-12T07:14:51.804Z</time></trkpt><trkpt lat="45.8911167" lon="8.66216"><ele>263.0</ele><time>2026-04-12T07:14:52.805Z</time></trkpt><trkpt lat="45.8911417" lon="8.6623067"><ele>263.0</ele><time>2026-04-12T07:14:53.805Z</time></trkpt><trkpt lat="45.8911717" lon="8.6624467"><ele>262.83333333333337</ele><time>2026-04-12T07:14:54.805Z</time></trkpt><trkpt lat="45.8912017" lon="8.6625767"><ele>262.6666666666667</ele><time>2026-04-12T07:14:55.805Z</time></trkpt><trkpt lat="45.8912283" lon="8.6626967"><ele>262.5</ele><time>2026-04-12T07:14:56.805Z</time></trkpt><trkpt lat="45.8912567" lon="8.6628083"><ele>262.3333333333333</ele><time>2026-04-12T07:14:57.805Z</time></trkpt><trkpt lat="45.8912867" lon="8.6629083"><ele>262.16666666666663</ele><time>2026-04-12T07:14:58.804Z</time></trkpt><trkpt lat="45.8913217" lon="8.6630133"><ele>262.0</ele><time>2026-04-12T07:14:59.805Z</time></trkpt><trkpt lat="45.8913683" lon="8.663125"><ele>262.0</ele><time>2026-04-12T07:15:00.805Z</time></trkpt><trkpt lat="45.8914333" lon="8.6632283"><ele>262.0</ele><time>2026-04-12T07:15:01.805Z</time></trkpt><trkpt lat="45.891505" lon="8.66334"><ele>262.0</ele><time>2026-04-12T07:15:02.805Z</time></trkpt><trkpt lat="45.8915867" lon="8.663445"><ele>262.0</ele><time>2026-04-12T07:15:03.804Z</time></trkpt><trkpt lat="45.8916717" lon="8.6635383"><ele>262.0</ele><time>2026-04-12T07:15:04.805Z</time></trkpt><trkpt lat="45.8917567" lon="8.6636267"><ele>261.4</ele><time>2026-04-12T07:15:05.805Z</time></trkpt><trkpt lat="45.8918367" lon="8.6637083"><ele>260.79999999999995</ele><time>2026-04-12T07:15:06.805Z</time></trkpt><trkpt lat="45.8919117" lon="8.6637883"><ele>260.2</ele><time>2026-04-12T07:15:07.805Z</time></trkpt><trkpt lat="45.8919883" lon="8.663875"><ele>259.59999999999997</ele><time>2026-04-12T07:15:08.805Z</time></trkpt><trkpt lat="45.8920583" lon="8.6639733"><ele>259.0</ele><time>2026-04-12T07:15:09.805Z</time></trkpt><trkpt lat="45.8921183" lon="8.6641"><ele>259.0</ele><time>2026-04-12T07:15:10.805Z</time></trkpt><trkpt lat="45.8921733" lon="8.664245"><ele>259.0</ele><time>2026-04-12T07:15:11.805Z</time></trkpt><trkpt lat="45.8922167" lon="8.664385"><ele>259.0</ele><time>2026-04-12T07:15:12.805Z</time></trkpt><trkpt lat="45.8922583" lon="8.66452"><ele>259.0</ele><time>2026-04-12T07:15:13.805Z</time></trkpt><trkpt lat="45.8922983" lon="8.6646733"><ele>259.0</ele><time>2026-04-12T07:15:14.805Z</time></trkpt><trkpt lat="45.892335" lon="8.66482"><ele>257.0</ele><time>2026-04-12T07:15:15.805Z</time></trkpt><trkpt lat="45.8923633" lon="8.6649817"><ele>255.0</ele><time>2026-04-12T07:15:16.805Z</time></trkpt><trkpt lat="45.8923783" lon="8.6651467"><ele>253.0</ele><time>2026-04-12T07:15:17.804Z</time></trkpt><trkpt lat="45.892385" lon="8.6653117"><ele>251.0</ele><time>2026-04-12T07:15:18.805Z</time></trkpt><trkpt lat="45.892385" lon="8.66548"><ele>249.5</ele><time>2026-04-12T07:15:19.805Z</time></trkpt><trkpt lat="45.89239" lon="8.66565"><ele>248.0</ele><time>2026-04-12T07:15:20.805Z</time></trkpt><trkpt lat="45.8923883" lon="8.6658167"><ele>246.5</ele><time>2026-04-12T07:15:21.805Z</time></trkpt><trkpt lat="45.8923733" lon="8.6659733"><ele>245.0</ele><time>2026-04-12T07:15:22.805Z</time></trkpt><trkpt lat="45.8923133" lon="8.6661267"><ele>245.0</ele><time>2026-04-12T07:15:23.805Z</time></trkpt><trkpt lat="45.8922467" lon="8.6662917"><ele>245.0</ele><time>2026-04-12T07:15:24.805Z</time></trkpt><trkpt lat="45.892185" lon="8.6664567"><ele>245.0</ele><time>2026-04-12T07:15:25.805Z</time></trkpt><trkpt lat="45.8921467" lon="8.6666183"><ele>245.0</ele><time>2026-04-12T07:15:26.805Z</time></trkpt><trkpt lat="45.8921267" lon="8.666755"><ele>245.0</ele><time>2026-04-12T07:15:27.805Z</time></trkpt><trkpt lat="45.89213" lon="8.6668883"><ele>245.0</ele><time>2026-04-12T07:15:28.805Z</time></trkpt><trkpt lat="45.8921367" lon="8.6669967"><ele>245.0</ele><time>2026-04-12T07:15:29.805Z</time></trkpt><trkpt lat="45.89214" lon="8.66713"><ele>245.0</ele><time>2026-04-12T07:15:31.805Z</time></trkpt><trkpt lat="45.8920683" lon="8.6672367"><ele>245.0</ele><time>2026-04-12T07:15:33.805Z</time></trkpt><trkpt lat="45.8919817" lon="8.667295"><ele>244.75</ele><time>2026-04-12T07:15:34.805Z</time></trkpt><trkpt lat="45.89188" lon="8.66737"><ele>244.5</ele><time>2026-04-12T07:15:35.805Z</time></trkpt><trkpt lat="45.8917667" lon="8.667455"><ele>244.25</ele><time>2026-04-12T07:15:36.805Z</time></trkpt><trkpt lat="45.8916467" lon="8.6675433"><ele>244.0</ele><time>2026-04-12T07:15:37.805Z</time></trkpt><trkpt lat="45.8915333" lon="8.6676233"><ele>244.39999999999998</ele><time>2026-04-12T07:15:38.805Z</time></trkpt><trkpt lat="45.8914317" lon="8.6677067"><ele>244.79999999999998</ele><time>2026-04-12T07:15:39.805Z</time></trkpt><trkpt lat="45.8913367" lon="8.6677833"><ele>245.20000000000002</ele><time>2026-04-12T07:15:40.805Z</time></trkpt><trkpt lat="45.89124" lon="8.66785"><ele>245.60000000000002</ele><time>2026-04-12T07:15:41.805Z</time></trkpt><trkpt lat="45.8911383" lon="8.66792"><ele>246.0</ele><time>2026-04-12T07:15:42.805Z</time></trkpt><trkpt lat="45.891025" lon="8.667985"><ele>246.75</ele><time>2026-04-12T07:15:43.805Z</time></trkpt><trkpt lat="45.8909117" lon="8.6680517"><ele>247.5</ele><time>2026-04-12T07:15:44.805Z</time></trkpt><trkpt lat="45.8907967" lon="8.66812"><ele>248.25</ele><time>2026-04-12T07:15:45.805Z</time></trkpt><trkpt lat="45.8906733" lon="8.6681867"><ele>249.0</ele><time>2026-04-12T07:15:46.805Z</time></trkpt><trkpt lat="45.8905567" lon="8.66825"><ele>249.0</ele><time>2026-04-12T07:15:47.805Z</time></trkpt><trkpt lat="45.8904333" lon="8.6683183"><ele>249.0</ele><time>2026-04-12T07:15:48.805Z</time></trkpt><trkpt lat="45.8903033" lon="8.66838"><ele>249.0</ele><time>2026-04-12T07:15:49.805Z</time></trkpt><trkpt lat="45.890175" lon="8.66842"><ele>249.0</ele><time>2026-04-12T07:15:50.805Z</time></trkpt><trkpt lat="45.89004" lon="8.6684617"><ele>249.0</ele><time>2026-04-12T07:15:51.805Z</time></trkpt><trkpt lat="45.889905" lon="8.6684983"><ele>249.0</ele><time>2026-04-12T07:15:52.805Z</time></trkpt><trkpt lat="45.8897633" lon="8.6685317"><ele>249.0</ele><time>2026-04-12T07:15:53.805Z</time></trkpt><trkpt lat="45.8896283" lon="8.6685717"><ele>249.0</ele><time>2026-04-12T07:15:54.805Z</time></trkpt><trkpt lat="45.8894983" lon="8.6686133"><ele>248.5</ele><time>2026-04-12T07:15:55.805Z</time></trkpt><trkpt lat="45.8893767" lon="8.668655"><ele>248.0</ele><time>2026-04-12T07:15:56.805Z</time></trkpt><trkpt lat="45.8892467" lon="8.668695"><ele>247.5</ele><time>2026-04-12T07:15:57.805Z</time></trkpt><trkpt lat="45.889105" lon="8.6687383"><ele>247.0</ele><time>2026-04-12T07:15:58.805Z</time></trkpt><trkpt lat="45.888965" lon="8.6687867"><ele>247.0</ele><time>2026-04-12T07:15:59.805Z</time></trkpt><trkpt lat="45.88883" lon="8.668835"><ele>247.0</ele><time>2026-04-12T07:16:00.804Z</time></trkpt><trkpt lat="45.8887083" lon="8.6688817"><ele>247.0</ele><time>2026-04-12T07:16:01.805Z</time></trkpt><trkpt lat="45.888595" lon="8.6689167"><ele>247.0</ele><time>2026-04-12T07:16:02.805Z</time></trkpt><trkpt lat="45.88847" lon="8.6689467"><ele>247.25</ele><time>2026-04-12T07:16:03.805Z</time></trkpt><trkpt lat="45.88833" lon="8.6689783"><ele>247.5</ele><time>2026-04-12T07:16:04.805Z</time></trkpt><trkpt lat="45.8881883" lon="8.6690217"><ele>247.75</ele><time>2026-04-12T07:16:05.805Z</time></trkpt><trkpt lat="45.88805" lon="8.6690617"><ele>248.0</ele><time>2026-04-12T07:16:06.805Z</time></trkpt><trkpt lat="45.8879033" lon="8.6691033"><ele>248.0</ele><time>2026-04-12T07:16:07.805Z</time></trkpt><trkpt lat="45.887765" lon="8.669135"><ele>248.0</ele><time>2026-04-12T07:16:08.805Z</time></trkpt><trkpt lat="45.8876183" lon="8.6691717"><ele>248.0</ele><time>2026-04-12T07:16:09.805Z</time></trkpt><trkpt lat="45.8874783" lon="8.6692067"><ele>248.0</ele><time>2026-04-12T07:16:10.805Z</time></trkpt><trkpt lat="45.88735" lon="8.6692417"><ele>248.0</ele><time>2026-04-12T07:16:11.805Z</time></trkpt><trkpt lat="45.8872317" lon="8.669265"><ele>248.0</ele><time>2026-04-12T07:16:12.805Z</time></trkpt><trkpt lat="45.887115" lon="8.66929"><ele>248.0</ele><time>2026-04-12T07:16:13.805Z</time></trkpt><trkpt lat="45.8870167" lon="8.6693"><ele>248.0</ele><time>2026-04-12T07:16:14.805Z</time></trkpt><trkpt lat="45.8869383" lon="8.6693033"><ele>248.0</ele><time>2026-04-12T07:16:15.805Z</time></trkpt><trkpt lat="45.8868267" lon="8.6693017"><ele>248.00000000000003</ele><time>2026-04-12T07:16:17.805Z</time></trkpt><trkpt lat="45.8868133" lon="8.669445"><ele>248.0</ele><time>2026-04-12T07:16:20.805Z</time></trkpt><trkpt lat="45.8868417" lon="8.6695417"><ele>248.0</ele><time>2026-04-12T07:16:21.805Z</time></trkpt><trkpt lat="45.88688" lon="8.669645"><ele>248.0</ele><time>2026-04-12T07:16:22.805Z</time></trkpt><trkpt lat="45.88692" lon="8.6697433"><ele>248.00000000000003</ele><time>2026-04-12T07:16:23.805Z</time></trkpt><trkpt lat="45.8869617" lon="8.6698517"><ele>248.0</ele><time>2026-04-12T07:16:24.805Z</time></trkpt><trkpt lat="45.8870067" lon="8.6699617"><ele>248.00000000000003</ele><time>2026-04-12T07:16:25.805Z</time></trkpt><trkpt lat="45.8870517" lon="8.6700667"><ele>248.0</ele><time>2026-04-12T07:16:26.805Z</time></trkpt><trkpt lat="45.8870917" lon="8.6701633"><ele>248.0</ele><time>2026-04-12T07:16:27.805Z</time></trkpt><trkpt lat="45.88712" lon="8.6702467"><ele>248.0</ele><time>2026-04-12T07:16:28.805Z</time></trkpt><trkpt lat="45.8871383" lon="8.6703367"><ele>248.00000000000003</ele><time>2026-04-12T07:16:29.805Z</time></trkpt><trkpt lat="45.8871583" lon="8.670495"><ele>248.0</ele><time>2026-04-12T07:16:31.805Z</time></trkpt><trkpt lat="45.88712" lon="8.670595"><ele>248.60000000000002</ele><time>2026-04-12T07:16:33.804Z</time></trkpt><trkpt lat="45.8870083" lon="8.6706667"><ele>249.20000000000002</ele><time>2026-04-12T07:16:35.805Z</time></trkpt><trkpt lat="45.8869217" lon="8.67069"><ele>249.8</ele><time>2026-04-12T07:16:36.805Z</time></trkpt><trkpt lat="45.886815" lon="8.6707117"><ele>250.4</ele><time>2026-04-12T07:16:37.805Z</time></trkpt><trkpt lat="45.8866933" lon="8.6707317"><ele>251.0</ele><time>2026-04-12T07:16:38.805Z</time></trkpt><trkpt lat="45.8865683" lon="8.6707617"><ele>251.8</ele><time>2026-04-12T07:16:39.805Z</time></trkpt><trkpt lat="45.88645" lon="8.6707833"><ele>252.60000000000002</ele><time>2026-04-12T07:16:40.805Z</time></trkpt><trkpt lat="45.88635" lon="8.6708083"><ele>253.4</ele><time>2026-04-12T07:16:41.805Z</time></trkpt><trkpt lat="45.886235" lon="8.670825"><ele>254.2</ele><time>2026-04-12T07:16:42.805Z</time></trkpt><trkpt lat="45.8861383" lon="8.6708383"><ele>255.0</ele><time>2026-04-12T07:16:43.805Z</time></trkpt><trkpt lat="45.886045" lon="8.6708533"><ele>255.0</ele><time>2026-04-12T07:16:44.805Z</time></trkpt><trkpt lat="45.8859583" lon="8.6708683"><ele>255.0</ele><time>2026-04-12T07:16:45.804Z</time></trkpt><trkpt lat="45.8858883" lon="8.6708833"><ele>255.0</ele><time>2026-04-12T07:16:46.805Z</time></trkpt><trkpt lat="45.8858217" lon="8.67089"><ele>255.0</ele><time>2026-04-12T07:16:47.805Z</time></trkpt><trkpt lat="45.8857283" lon="8.6709067"><ele>255.0</ele><time>2026-04-12T07:16:49.805Z</time></trkpt><trkpt lat="45.88566" lon="8.67091"><ele>255.0</ele><time>2026-04-12T07:16:51.805Z</time></trkpt><trkpt lat="45.88558" lon="8.6709533"><ele>255.4</ele><time>2026-04-12T07:16:54.805Z</time></trkpt><trkpt lat="45.8855733" lon="8.6710517"><ele>255.8</ele><time>2026-04-12T07:16:57.804Z</time></trkpt><trkpt lat="45.8856" lon="8.6711933"><ele>256.2</ele><time>2026-04-12T07:16:59.805Z</time></trkpt><trkpt lat="45.8856117" lon="8.6713117"><ele>256.6</ele><time>2026-04-12T07:17:00.805Z</time></trkpt><trkpt lat="45.885615" lon="8.6714533"><ele>257.0</ele><time>2026-04-12T07:17:01.805Z</time></trkpt><trkpt lat="45.8856333" lon="8.6716"><ele>259.0</ele><time>2026-04-12T07:17:02.805Z</time></trkpt><trkpt lat="45.8856567" lon="8.6717433"><ele>261.0</ele><time>2026-04-12T07:17:03.804Z</time></trkpt><trkpt lat="45.8856933" lon="8.6719017"><ele>263.0</ele><time>2026-04-12T07:17:04.805Z</time></trkpt><trkpt lat="45.88573" lon="8.6720683"><ele>265.0</ele><time>2026-04-12T07:17:05.805Z</time></trkpt><trkpt lat="45.8857583" lon="8.672225"><ele>265.66666666666663</ele><time>2026-04-12T07:17:06.805Z</time></trkpt><trkpt lat="45.885775" lon="8.6723683"><ele>266.3333333333333</ele><time>2026-04-12T07:17:07.805Z</time></trkpt><trkpt lat="45.885795" lon="8.67248"><ele>267.0</ele><time>2026-04-12T07:17:08.805Z</time></trkpt><trkpt lat="45.8857933" lon="8.672585"><ele>267.6666666666667</ele><time>2026-04-12T07:17:09.805Z</time></trkpt><trkpt lat="45.8857667" lon="8.6726833"><ele>268.33333333333337</ele><time>2026-04-12T07:17:10.805Z</time></trkpt><trkpt lat="45.8857133" lon="8.672785"><ele>269.0</ele><time>2026-04-12T07:17:11.805Z</time></trkpt><trkpt lat="45.8856417" lon="8.6729017"><ele>270.4</ele><time>2026-04-12T07:17:12.805Z</time></trkpt><trkpt lat="45.885575" lon="8.6730217"><ele>271.79999999999995</ele><time>2026-04-12T07:17:13.805Z</time></trkpt><trkpt lat="45.885505" lon="8.6731383"><ele>273.20000000000005</ele><time>2026-04-12T07:17:14.805Z</time></trkpt><trkpt lat="45.885435" lon="8.6732517"><ele>274.6</ele><time>2026-04-12T07:17:15.805Z</time></trkpt><trkpt lat="45.8853733" lon="8.6733533"><ele>276.0</ele><time>2026-04-12T07:17:16.805Z</time></trkpt><trkpt lat="45.8853117" lon="8.6734383"><ele>276.0</ele><time>2026-04-12T07:17:17.805Z</time></trkpt><trkpt lat="45.8852633" lon="8.6735033"><ele>276.0</ele><time>2026-04-12T07:17:18.804Z</time></trkpt><trkpt lat="45.885185" lon="8.6736167"><ele>276.0</ele><time>2026-04-12T07:17:20.805Z</time></trkpt><trkpt lat="45.885125" lon="8.6736933"><ele>276.0</ele><time>2026-04-12T07:17:22.805Z</time></trkpt><trkpt lat="45.88511" lon="8.67379"><ele>276.0</ele><time>2026-04-12T07:17:25.805Z</time></trkpt><trkpt lat="45.88512" lon="8.67389"><ele>276.0</ele><time>2026-04-12T07:17:28.805Z</time></trkpt><trkpt lat="45.885125" lon="8.674025"><ele>276.8333333333333</ele><time>2026-04-12T07:17:32.805Z</time></trkpt><trkpt lat="45.8851333" lon="8.6741183"><ele>277.6666666666667</ele><time>2026-04-12T07:17:34.805Z</time></trkpt><trkpt lat="45.885155" lon="8.6742183"><ele>278.5</ele><time>2026-04-12T07:17:37.805Z</time></trkpt><trkpt lat="45.8851717" lon="8.6743383"><ele>279.33333333333337</ele><time>2026-04-12T07:17:39.804Z</time></trkpt><trkpt lat="45.88521" lon="8.6745017"><ele>280.1666666666667</ele><time>2026-04-12T07:17:41.805Z</time></trkpt><trkpt lat="45.885245" lon="8.6746083"><ele>281.0</ele><time>2026-04-12T07:17:42.805Z</time></trkpt><trkpt lat="45.8852967" lon="8.6747667"><ele>282.2</ele><time>2026-04-12T07:17:43.805Z</time></trkpt><trkpt lat="45.8853517" lon="8.6749133"><ele>283.40000000000003</ele><time>2026-04-12T07:17:44.804Z</time></trkpt><trkpt lat="45.8854083" lon="8.6750433"><ele>284.6</ele><time>2026-04-12T07:17:45.805Z</time></trkpt><trkpt lat="45.8854733" lon="8.67517"><ele>285.8</ele><time>2026-04-12T07:17:46.805Z</time></trkpt><trkpt lat="45.8855433" lon="8.6752967"><ele>287.0</ele><time>2026-04-12T07:17:47.805Z</time></trkpt><trkpt lat="45.8856083" lon="8.6754267"><ele>288.0</ele><time>2026-04-12T07:17:48.805Z</time></trkpt><trkpt lat="45.8856783" lon="8.675555"><ele>289.0</ele><time>2026-04-12T07:17:49.805Z</time></trkpt><trkpt lat="45.8857467" lon="8.675695"><ele>290.0</ele><time>2026-04-12T07:17:50.804Z</time></trkpt><trkpt lat="45.8858033" lon="8.6758317"><ele>291.0</ele><time>2026-04-12T07:17:51.805Z</time></trkpt><trkpt lat="45.8858533" lon="8.675955"><ele>292.0</ele><time>2026-04-12T07:17:52.805Z</time></trkpt><trkpt lat="45.8858983" lon="8.67604"><ele>292.4</ele><time>2026-04-12T07:17:53.805Z</time></trkpt><trkpt lat="45.8859683" lon="8.67611"><ele>292.79999999999995</ele><time>2026-04-12T07:17:55.805Z</time></trkpt><trkpt lat="45.8860367" lon="8.676095"><ele>293.2</ele><time>2026-04-12T07:17:57.805Z</time></trkpt><trkpt lat="45.8861167" lon="8.6760867"><ele>293.59999999999997</ele><time>2026-04-12T07:17:59.805Z</time></trkpt><trkpt lat="45.886225" lon="8.6761317"><ele>294.0</ele><time>2026-04-12T07:18:01.804Z</time></trkpt><trkpt lat="45.8863633" lon="8.6761917"><ele>294.0</ele><time>2026-04-12T07:18:03.805Z</time></trkpt><trkpt lat="45.8864517" lon="8.67622"><ele>294.0</ele><time>2026-04-12T07:18:04.805Z</time></trkpt><trkpt lat="45.8865417" lon="8.6762633"><ele>294.0</ele><time>2026-04-12T07:18:05.805Z</time></trkpt><trkpt lat="45.88663" lon="8.6763033"><ele>294.0</ele><time>2026-04-12T07:18:06.805Z</time></trkpt><trkpt lat="45.8867217" lon="8.676385"><ele>294.0</ele><time>2026-04-12T07:18:07.805Z</time></trkpt><trkpt lat="45.8868067" lon="8.6764983"><ele>293.75</ele><time>2026-04-12T07:18:08.804Z</time></trkpt><trkpt lat="45.8868967" lon="8.6766317"><ele>293.5</ele><time>2026-04-12T07:18:09.805Z</time></trkpt><trkpt lat="45.886995" lon="8.6767867"><ele>293.25</ele><time>2026-04-12T07:18:10.805Z</time></trkpt><trkpt lat="45.887085" lon="8.6769367"><ele>293.0</ele><time>2026-04-12T07:18:11.805Z</time></trkpt><trkpt lat="45.887165" lon="8.6770733"><ele>294.25</ele><time>2026-04-12T07:18:12.805Z</time></trkpt><trkpt lat="45.887235" lon="8.6772017"><ele>295.5</ele><time>2026-04-12T07:18:13.805Z</time></trkpt><trkpt lat="45.8872967" lon="8.6773367"><ele>296.75</ele><time>2026-04-12T07:18:14.805Z</time></trkpt><trkpt lat="45.8873533" lon="8.67748"><ele>298.0</ele><time>2026-04-12T07:18:15.805Z</time></trkpt><trkpt lat="45.887405" lon="8.67764"><ele>299.0</ele><time>2026-04-12T07:18:16.805Z</time></trkpt><trkpt lat="45.8874533" lon="8.6778117"><ele>300.0</ele><time>2026-04-12T07:18:17.804Z</time></trkpt><trkpt lat="45.887495" lon="8.6779917"><ele>301.0</ele><time>2026-04-12T07:18:18.805Z</time></trkpt><trkpt lat="45.8875333" lon="8.6781767"><ele>302.0</ele><time>2026-04-12T07:18:19.805Z</time></trkpt><trkpt lat="45.8875717" lon="8.6783367"><ele>302.1666666666667</ele><time>2026-04-12T07:18:20.805Z</time></trkpt><trkpt lat="45.8875983" lon="8.6784683"><ele>302.33333333333337</ele><time>2026-04-12T07:18:21.805Z</time></trkpt><trkpt lat="45.8876167" lon="8.67858"><ele>302.5</ele><time>2026-04-12T07:18:22.805Z</time></trkpt><trkpt lat="45.887615" lon="8.6786717"><ele>302.6666666666667</ele><time>2026-04-12T07:18:23.805Z</time></trkpt><trkpt lat="45.88754" lon="8.678775"><ele>302.8333333333333</ele><time>2026-04-12T07:18:25.805Z</time></trkpt><trkpt lat="45.887465" lon="8.67881"><ele>303.0</ele><time>2026-04-12T07:18:26.804Z</time></trkpt><trkpt lat="45.887385" lon="8.678855"><ele>303.0</ele><time>2026-04-12T07:18:27.805Z</time></trkpt><trkpt lat="45.88731" lon="8.6789083"><ele>303.0</ele><time>2026-04-12T07:18:28.805Z</time></trkpt><trkpt lat="45.8872567" lon="8.6789967"><ele>303.0</ele><time>2026-04-12T07:18:29.805Z</time></trkpt><trkpt lat="45.887225" lon="8.6790983"><ele>303.0</ele><time>2026-04-12T07:18:30.805Z</time></trkpt><trkpt lat="45.8872217" lon="8.6792017"><ele>303.0</ele><time>2026-04-12T07:18:31.805Z</time></trkpt><trkpt lat="45.8872267" lon="8.6792967"><ele>303.0</ele><time>2026-04-12T07:18:32.805Z</time></trkpt><trkpt lat="45.8872317" lon="8.6794367"><ele>303.8</ele><time>2026-04-12T07:18:34.805Z</time></trkpt><trkpt lat="45.8873183" lon="8.6795817"><ele>304.6</ele><time>2026-04-12T07:18:36.805Z</time></trkpt><trkpt lat="45.8873867" lon="8.6796683"><ele>305.4</ele><time>2026-04-12T07:18:37.805Z</time></trkpt><trkpt lat="45.8874617" lon="8.6797617"><ele>306.2</ele><time>2026-04-12T07:18:38.805Z</time></trkpt><trkpt lat="45.8875267" lon="8.6798533"><ele>307.0</ele><time>2026-04-12T07:18:39.805Z</time></trkpt><trkpt lat="45.887585" lon="8.6799417"><ele>306.66666666666663</ele><time>2026-04-12T07:18:40.805Z</time></trkpt><trkpt lat="45.8876417" lon="8.680035"><ele>306.3333333333333</ele><time>2026-04-12T07:18:41.805Z</time></trkpt><trkpt lat="45.8877017" lon="8.6801233"><ele>306.0</ele><time>2026-04-12T07:18:42.805Z</time></trkpt><trkpt lat="45.887765" lon="8.6802033"><ele>305.6666666666667</ele><time>2026-04-12T07:18:43.805Z</time></trkpt><trkpt lat="45.8878167" lon="8.6802783"><ele>305.33333333333337</ele><time>2026-04-12T07:18:44.805Z</time></trkpt><trkpt lat="45.887875" lon="8.680345"><ele>305.0</ele><time>2026-04-12T07:18:45.805Z</time></trkpt><trkpt lat="45.8879383" lon="8.6804067"><ele>305.0</ele><time>2026-04-12T07:18:46.805Z</time></trkpt><trkpt lat="45.8880017" lon="8.68047"><ele>305.0</ele><time>2026-04-12T07:18:47.805Z</time></trkpt><trkpt lat="45.888075" lon="8.6805317"><ele>305.0</ele><time>2026-04-12T07:18:48.805Z</time></trkpt><trkpt lat="45.8881467" lon="8.6805917"><ele>305.0</ele><time>2026-04-12T07:18:49.805Z</time></trkpt><trkpt lat="45.8882167" lon="8.6806517"><ele>305.0</ele><time>2026-04-12T07:18:50.805Z</time></trkpt><trkpt lat="45.8882867" lon="8.680715"><ele>305.0</ele><time>2026-04-12T07:18:51.805Z</time></trkpt><trkpt lat="45.8883517" lon="8.6807817"><ele>305.0</ele><time>2026-04-12T07:18:52.805Z</time></trkpt><trkpt lat="45.8884117" lon="8.6808517"><ele>305.0</ele><time>2026-04-12T07:18:53.805Z</time></trkpt><trkpt lat="45.888475" lon="8.6809333"><ele>305.0</ele><time>2026-04-12T07:18:54.805Z</time></trkpt><trkpt lat="45.8885283" lon="8.6810267"><ele>305.0</ele><time>2026-04-12T07:18:55.805Z</time></trkpt><trkpt lat="45.88857" lon="8.6811217"><ele>305.0</ele><time>2026-04-12T07:18:56.805Z</time></trkpt><trkpt lat="45.8886" lon="8.68121"><ele>305.0</ele><time>2026-04-12T07:18:57.805Z</time></trkpt><trkpt lat="45.8886783" lon="8.6813533"><ele>303.83333333333337</ele><time>2026-04-12T07:18:59.805Z</time></trkpt><trkpt lat="45.8887833" lon="8.6814483"><ele>302.6666666666667</ele><time>2026-04-12T07:19:01.805Z</time></trkpt><trkpt lat="45.8888483" lon="8.6815067"><ele>301.5</ele><time>2026-04-12T07:19:02.805Z</time></trkpt><trkpt lat="45.88891" lon="8.681575"><ele>300.3333333333333</ele><time>2026-04-12T07:19:03.805Z</time></trkpt><trkpt lat="45.8889617" lon="8.6816417"><ele>299.16666666666663</ele><time>2026-04-12T07:19:04.805Z</time></trkpt><trkpt lat="45.88901" lon="8.681715"><ele>298.0</ele><time>2026-04-12T07:19:05.805Z</time></trkpt><trkpt lat="45.88906" lon="8.68182"><ele>299.0</ele><time>2026-04-12T07:19:06.805Z</time></trkpt><trkpt lat="45.889105" lon="8.68194"><ele>300.0</ele><time>2026-04-12T07:19:07.805Z</time></trkpt><trkpt lat="45.8891367" lon="8.68207"><ele>301.0</ele><time>2026-04-12T07:19:08.804Z</time></trkpt><trkpt lat="45.8891767" lon="8.6821917"><ele>302.0</ele><time>2026-04-12T07:19:09.805Z</time></trkpt><trkpt lat="45.8892183" lon="8.68231"><ele>303.0</ele><time>2026-04-12T07:19:10.805Z</time></trkpt><trkpt lat="45.889295" lon="8.6824383"><ele>301.4</ele><time>2026-04-12T07:19:11.805Z</time></trkpt><trkpt lat="45.88937" lon="8.6825533"><ele>299.8</ele><time>2026-04-12T07:19:12.805Z</time></trkpt><trkpt lat="45.8894417" lon="8.68266"><ele>298.2</ele><time>2026-04-12T07:19:13.806Z</time></trkpt><trkpt lat="45.88951" lon="8.68277"><ele>296.6</ele><time>2026-04-12T07:19:14.805Z</time></trkpt><trkpt lat="45.8895767" lon="8.682885"><ele>295.0</ele><time>2026-04-12T07:19:15.806Z</time></trkpt><trkpt lat="45.8896417" lon="8.6829833"><ele>295.0</ele><time>2026-04-12T07:19:16.806Z</time></trkpt><trkpt lat="45.88971" lon="8.68306"><ele>295.0</ele><time>2026-04-12T07:19:17.806Z</time></trkpt><trkpt lat="45.8897783" lon="8.6831183"><ele>295.0</ele><time>2026-04-12T07:19:18.806Z</time></trkpt><trkpt lat="45.8898467" lon="8.6831717"><ele>295.0</ele><time>2026-04-12T07:19:19.806Z</time></trkpt><trkpt lat="45.8899133" lon="8.6832267"><ele>295.0</ele><time>2026-04-12T07:19:20.806Z</time></trkpt><trkpt lat="45.8899733" lon="8.6832933"><ele>295.0</ele><time>2026-04-12T07:19:21.805Z</time></trkpt><trkpt lat="45.8900317" lon="8.6833867"><ele>295.0</ele><time>2026-04-12T07:19:22.806Z</time></trkpt><trkpt lat="45.8900767" lon="8.6834917"><ele>295.0</ele><time>2026-04-12T07:19:23.806Z</time></trkpt><trkpt lat="45.8901117" lon="8.6835833"><ele>295.0</ele><time>2026-04-12T07:19:24.806Z</time></trkpt><trkpt lat="45.89014" lon="8.6837333"><ele>295.0</ele><time>2026-04-12T07:19:26.806Z</time></trkpt><trkpt lat="45.89008" lon="8.6838233"><ele>295.0</ele><time>2026-04-12T07:19:28.805Z</time></trkpt><trkpt lat="45.890015" lon="8.683865"><ele>295.0</ele><time>2026-04-12T07:19:29.806Z</time></trkpt><trkpt lat="45.889915" lon="8.68398"><ele>295.8333333333333</ele><time>2026-04-12T07:19:31.806Z</time></trkpt><trkpt lat="45.8898583" lon="8.6840683"><ele>296.66666666666663</ele><time>2026-04-12T07:19:32.806Z</time></trkpt><trkpt lat="45.8898117" lon="8.68416"><ele>297.5</ele><time>2026-04-12T07:19:33.806Z</time></trkpt><trkpt lat="45.889775" lon="8.6842417"><ele>298.3333333333333</ele><time>2026-04-12T07:19:34.806Z</time></trkpt><trkpt lat="45.88976" lon="8.6843417"><ele>299.1666666666667</ele><time>2026-04-12T07:19:35.806Z</time></trkpt><trkpt lat="45.8897683" lon="8.6844417"><ele>300.0</ele><time>2026-04-12T07:19:36.806Z</time></trkpt><trkpt lat="45.8897817" lon="8.6845667"><ele>301.4</ele><time>2026-04-12T07:19:37.805Z</time></trkpt><trkpt lat="45.889805" lon="8.684715"><ele>302.8</ele><time>2026-04-12T07:19:38.806Z</time></trkpt><trkpt lat="45.8898233" lon="8.6848733"><ele>304.2</ele><time>2026-04-12T07:19:39.806Z</time></trkpt><trkpt lat="45.8898417" lon="8.6850083"><ele>305.6</ele><time>2026-04-12T07:19:40.806Z</time></trkpt><trkpt lat="45.8898683" lon="8.6851367"><ele>307.0</ele><time>2026-04-12T07:19:41.806Z</time></trkpt><trkpt lat="45.8898983" lon="8.68526"><ele>308.2</ele><time>2026-04-12T07:19:42.806Z</time></trkpt><trkpt lat="45.889925" lon="8.6853833"><ele>309.4</ele><time>2026-04-12T07:19:43.805Z</time></trkpt><trkpt lat="45.889955" lon="8.6855083"><ele>310.6</ele><time>2026-04-12T07:19:44.806Z</time></trkpt><trkpt lat="45.8899733" lon="8.685645"><ele>311.8</ele><time>2026-04-12T07:19:45.805Z</time></trkpt><trkpt lat="45.88999" lon="8.6858083"><ele>313.0</ele><time>2026-04-12T07:19:46.806Z</time></trkpt><trkpt lat="45.890015" lon="8.6859817"><ele>313.66666666666663</ele><time>2026-04-12T07:19:47.806Z</time></trkpt><trkpt lat="45.89004" lon="8.686135"><ele>314.3333333333333</ele><time>2026-04-12T07:19:48.806Z</time></trkpt><trkpt lat="45.8900533" lon="8.6862617"><ele>315.0</ele><time>2026-04-12T07:19:49.806Z</time></trkpt><trkpt lat="45.890065" lon="8.6863733"><ele>315.6666666666667</ele><time>2026-04-12T07:19:50.806Z</time></trkpt><trkpt lat="45.8900733" lon="8.68648"><ele>316.33333333333337</ele><time>2026-04-12T07:19:51.806Z</time></trkpt><trkpt lat="45.89008" lon="8.686575"><ele>317.0</ele><time>2026-04-12T07:19:52.806Z</time></trkpt><trkpt lat="45.8900883" lon="8.6867083"><ele>317.0</ele><time>2026-04-12T07:19:54.806Z</time></trkpt><trkpt lat="45.8900917" lon="8.6868067"><ele>317.0</ele><time>2026-04-12T07:20:22.806Z</time></trkpt><trkpt lat="45.8900733" lon="8.6869033"><ele>317.0</ele><time>2026-04-12T07:20:25.806Z</time></trkpt><trkpt lat="45.8900583" lon="8.6870067"><ele>317.0</ele><time>2026-04-12T07:20:30.806Z</time></trkpt><trkpt lat="45.8900917" lon="8.6871033"><ele>317.0</ele><time>2026-04-12T07:20:34.806Z</time></trkpt><trkpt lat="45.89015" lon="8.6871783"><ele>317.0</ele><time>2026-04-12T07:20:41.806Z</time></trkpt><trkpt lat="45.8901683" lon="8.687285"><ele>317.0</ele><time>2026-04-12T07:20:43.806Z</time></trkpt><trkpt lat="45.890185" lon="8.687385"><ele>317.33333333333337</ele><time>2026-04-12T07:20:45.806Z</time></trkpt><trkpt lat="45.890235" lon="8.6874967"><ele>317.6666666666667</ele><time>2026-04-12T07:20:47.806Z</time></trkpt><trkpt lat="45.8902567" lon="8.687595"><ele>318.0</ele><time>2026-04-12T07:20:49.806Z</time></trkpt><trkpt lat="45.8902367" lon="8.6877033"><ele>318.3333333333333</ele><time>2026-04-12T07:20:52.806Z</time></trkpt><trkpt lat="45.8901683" lon="8.6877917"><ele>318.66666666666663</ele><time>2026-04-12T07:20:55.806Z</time></trkpt><trkpt lat="45.8901017" lon="8.6878"><ele>319.0</ele><time>2026-04-12T07:20:57.806Z</time></trkpt><trkpt lat="45.8899933" lon="8.6878067"><ele>319.0</ele><time>2026-04-12T07:20:59.805Z</time></trkpt><trkpt lat="45.88993" lon="8.687795"><ele>319.0</ele><time>2026-04-12T07:21:00.806Z</time></trkpt><trkpt lat="45.8898217" lon="8.6877817"><ele>319.0</ele><time>2026-04-12T07:21:01.806Z</time></trkpt><trkpt lat="45.8897183" lon="8.6877667"><ele>319.0</ele><time>2026-04-12T07:21:02.806Z</time></trkpt><trkpt lat="45.8896483" lon="8.687755"><ele>319.0</ele><time>2026-04-12T07:21:03.806Z</time></trkpt><trkpt lat="45.8895633" lon="8.6877367"><ele>319.0</ele><time>2026-04-12T07:21:04.805Z</time></trkpt><trkpt lat="45.889505" lon="8.6876917"><ele>319.16666666666663</ele><time>2026-04-12T07:21:05.805Z</time></trkpt><trkpt lat="45.8894733" lon="8.68759"><ele>319.3333333333333</ele><time>2026-04-12T07:21:06.806Z</time></trkpt><trkpt lat="45.88943" lon="8.68749"><ele>319.5</ele><time>2026-04-12T07:21:07.806Z</time></trkpt><trkpt lat="45.889385" lon="8.6873867"><ele>319.6666666666667</ele><time>2026-04-12T07:21:08.806Z</time></trkpt><trkpt lat="45.8893367" lon="8.6872983"><ele>319.83333333333337</ele><time>2026-04-12T07:21:09.806Z</time></trkpt><trkpt lat="45.8892717" lon="8.6872133"><ele>320.0</ele><time>2026-04-12T07:21:10.805Z</time></trkpt><trkpt lat="45.8892067" lon="8.687135"><ele>321.1428571428571</ele><time>2026-04-12T07:21:11.806Z</time></trkpt><trkpt lat="45.8891567" lon="8.687075"><ele>322.2857142857143</ele><time>2026-04-12T07:21:12.806Z</time></trkpt><trkpt lat="45.889105" lon="8.6870217"><ele>323.42857142857144</ele><time>2026-04-12T07:21:13.806Z</time></trkpt><trkpt lat="45.88905" lon="8.6869717"><ele>324.57142857142856</ele><time>2026-04-12T07:21:15.806Z</time></trkpt><trkpt lat="45.8889533" lon="8.687015"><ele>325.7142857142857</ele><time>2026-04-12T07:23:34.806Z</time></trkpt><trkpt lat="45.8888817" lon="8.6870067"><ele>326.85714285714283</ele><time>2026-04-12T07:23:37.805Z</time></trkpt><trkpt lat="45.888805" lon="8.6870067"><ele>328.0</ele><time>2026-04-12T07:23:40.806Z</time></trkpt><trkpt lat="45.8887867" lon="8.6871233"><ele>328.0</ele><time>2026-04-12T07:23:44.806Z</time></trkpt><trkpt lat="45.8887983" lon="8.687225"><ele>328.0</ele><time>2026-04-12T07:23:46.806Z</time></trkpt><trkpt lat="45.88881" lon="8.68735"><ele>328.0</ele><time>2026-04-12T07:23:48.806Z</time></trkpt><trkpt lat="45.8887983" lon="8.6875017"><ele>328.0</ele><time>2026-04-12T07:23:50.806Z</time></trkpt><trkpt lat="45.8887983" lon="8.687635"><ele>328.0</ele><time>2026-04-12T07:23:52.806Z</time></trkpt><trkpt lat="45.8887983" lon="8.6877417"><ele>328.0</ele><time>2026-04-12T07:23:53.806Z</time></trkpt><trkpt lat="45.888815" lon="8.6879083"><ele>328.4</ele><time>2026-04-12T07:23:55.806Z</time></trkpt><trkpt lat="45.888835" lon="8.6880017"><ele>328.79999999999995</ele><time>2026-04-12T07:23:56.806Z</time></trkpt><trkpt lat="45.88885" lon="8.688135"><ele>329.2</ele><time>2026-04-12T07:23:57.806Z</time></trkpt><trkpt lat="45.88887" lon="8.688245"><ele>329.6</ele><time>2026-04-12T07:23:58.806Z</time></trkpt><trkpt lat="45.88888" lon="8.6883933"><ele>330.0</ele><time>2026-04-12T07:23:59.806Z</time></trkpt><trkpt lat="45.8888933" lon="8.688555"><ele>330.0</ele><time>2026-04-12T07:24:00.806Z</time></trkpt><trkpt lat="45.8889067" lon="8.6887083"><ele>330.0</ele><time>2026-04-12T07:24:01.806Z</time></trkpt><trkpt lat="45.8889183" lon="8.6888283"><ele>330.0</ele><time>2026-04-12T07:24:02.806Z</time></trkpt><trkpt lat="45.8889317" lon="8.68894"><ele>330.0</ele><time>2026-04-12T07:24:03.805Z</time></trkpt><trkpt lat="45.8889483" lon="8.6890367"><ele>330.0</ele><time>2026-04-12T07:24:04.806Z</time></trkpt><trkpt lat="45.888965" lon="8.6891783"><ele>330.0</ele><time>2026-04-12T07:24:06.806Z</time></trkpt><trkpt lat="45.8889617" lon="8.6893033"><ele>330.3333333333333</ele><time>2026-04-12T07:24:08.806Z</time></trkpt><trkpt lat="45.888955" lon="8.6894467"><ele>330.6666666666667</ele><time>2026-04-12T07:24:10.806Z</time></trkpt><trkpt lat="45.88896" lon="8.6895433"><ele>331.0</ele><time>2026-04-12T07:24:11.806Z</time></trkpt><trkpt lat="45.8889683" lon="8.6896417"><ele>331.33333333333337</ele><time>2026-04-12T07:24:12.806Z</time></trkpt><trkpt lat="45.8889767" lon="8.6897517"><ele>331.6666666666667</ele><time>2026-04-12T07:24:13.806Z</time></trkpt><trkpt lat="45.8889817" lon="8.6898867"><ele>332.0</ele><time>2026-04-12T07:24:14.805Z</time></trkpt><trkpt lat="45.8889933" lon="8.6900583"><ele>332.0</ele><time>2026-04-12T07:24:15.806Z</time></trkpt><trkpt lat="45.8890117" lon="8.6902467"><ele>332.0</ele><time>2026-04-12T07:24:16.806Z</time></trkpt><trkpt lat="45.8890417" lon="8.69043"><ele>332.0</ele><time>2026-04-12T07:24:17.806Z</time></trkpt><trkpt lat="45.8890683" lon="8.690595"><ele>332.0</ele><time>2026-04-12T07:24:18.806Z</time></trkpt><trkpt lat="45.8890933" lon="8.690745"><ele>332.0</ele><time>2026-04-12T07:24:19.806Z</time></trkpt><trkpt lat="45.8891083" lon="8.6908783"><ele>332.0</ele><time>2026-04-12T07:24:20.806Z</time></trkpt><trkpt lat="45.8891217" lon="8.6910033"><ele>332.0</ele><time>2026-04-12T07:24:21.805Z</time></trkpt><trkpt lat="45.8891267" lon="8.6911167"><ele>332.0</ele><time>2026-04-12T07:24:22.806Z</time></trkpt><trkpt lat="45.8890967" lon="8.6912367"><ele>332.0</ele><time>2026-04-12T07:24:23.805Z</time></trkpt><trkpt lat="45.8890567" lon="8.691365"><ele>332.0</ele><time>2026-04-12T07:24:24.806Z</time></trkpt><trkpt lat="45.8890217" lon="8.6914917"><ele>332.0</ele><time>2026-04-12T07:24:25.806Z</time></trkpt><trkpt lat="45.888985" lon="8.69159"><ele>332.0</ele><time>2026-04-12T07:24:26.806Z</time></trkpt><trkpt lat="45.888955" lon="8.6916767"><ele>332.0</ele><time>2026-04-12T07:24:27.806Z</time></trkpt><trkpt lat="45.888875" lon="8.6918067"><ele>332.0</ele><time>2026-04-12T07:24:29.806Z</time></trkpt><trkpt lat="45.8888183" lon="8.6919217"><ele>332.0</ele><time>2026-04-12T07:24:31.806Z</time></trkpt><trkpt lat="45.8887433" lon="8.6920417"><ele>332.0</ele><time>2026-04-12T07:24:33.806Z</time></trkpt><trkpt lat="45.888695" lon="8.6921083"><ele>332.0</ele><time>2026-04-12T07:24:34.805Z</time></trkpt><trkpt lat="45.8886167" lon="8.692175"><ele>332.0</ele><time>2026-04-12T07:24:36.805Z</time></trkpt><trkpt lat="45.888565" lon="8.6922317"><ele>332.0</ele><time>2026-04-12T07:24:38.806Z</time></trkpt><trkpt lat="45.888465" lon="8.69228"><ele>332.0</ele><time>2026-04-12T07:24:40.806Z</time></trkpt><trkpt lat="45.8883717" lon="8.692335"><ele>332.0</ele><time>2026-04-12T07:24:41.806Z</time></trkpt><trkpt lat="45.8882767" lon="8.6923733"><ele>334.6</ele><time>2026-04-12T07:24:42.805Z</time></trkpt><trkpt lat="45.8881683" lon="8.6924083"><ele>337.20000000000005</ele><time>2026-04-12T07:24:43.806Z</time></trkpt><trkpt lat="45.8880783" lon="8.6924383"><ele>339.8</ele><time>2026-04-12T07:24:44.806Z</time></trkpt><trkpt lat="45.8879867" lon="8.6924533"><ele>342.4</ele><time>2026-04-12T07:24:45.806Z</time></trkpt><trkpt lat="45.88791" lon="8.69245"><ele>345.0</ele><time>2026-04-12T07:24:46.806Z</time></trkpt><trkpt lat="45.88783" lon="8.6924267"><ele>345.0</ele><time>2026-04-12T07:24:47.806Z</time></trkpt><trkpt lat="45.8877333" lon="8.692405"><ele>345.0</ele><time>2026-04-12T07:24:48.806Z</time></trkpt><trkpt lat="45.8876217" lon="8.69238"><ele>345.0</ele><time>2026-04-12T07:24:49.806Z</time></trkpt><trkpt lat="45.887505" lon="8.6923517"><ele>345.0</ele><time>2026-04-12T07:24:50.805Z</time></trkpt><trkpt lat="45.8873917" lon="8.6923183"><ele>345.0</ele><time>2026-04-12T07:24:51.806Z</time></trkpt><trkpt lat="45.887285" lon="8.6922783"><ele>345.5</ele><time>2026-04-12T07:24:52.806Z</time></trkpt><trkpt lat="45.8871883" lon="8.692235"><ele>346.0</ele><time>2026-04-12T07:24:53.806Z</time></trkpt><trkpt lat="45.8871017" lon="8.692205"><ele>346.5</ele><time>2026-04-12T07:24:54.806Z</time></trkpt><trkpt lat="45.887025" lon="8.692195"><ele>347.0</ele><time>2026-04-12T07:24:55.806Z</time></trkpt><trkpt lat="45.8869567" lon="8.6922067"><ele>347.5</ele><time>2026-04-12T07:24:56.806Z</time></trkpt><trkpt lat="45.886895" lon="8.69224"><ele>348.0</ele><time>2026-04-12T07:24:57.806Z</time></trkpt><trkpt lat="45.8868383" lon="8.69228"><ele>348.0</ele><time>2026-04-12T07:24:58.805Z</time></trkpt><trkpt lat="45.88677" lon="8.69234"><ele>348.0</ele><time>2026-04-12T07:25:00.806Z</time></trkpt><trkpt lat="45.8867583" lon="8.6924717"><ele>348.0</ele><time>2026-04-12T07:25:38.806Z</time></trkpt><trkpt lat="45.8868033" lon="8.692605"><ele>348.0</ele><time>2026-04-12T07:25:40.805Z</time></trkpt><trkpt lat="45.8868433" lon="8.69269"><ele>348.0</ele><time>2026-04-12T07:25:42.805Z</time></trkpt><trkpt lat="45.886875" lon="8.6927783"><ele>348.0</ele><time>2026-04-12T07:25:44.806Z</time></trkpt><trkpt lat="45.88688" lon="8.6928933"><ele>347.59999999999997</ele><time>2026-04-12T07:25:46.806Z</time></trkpt><trkpt lat="45.8868317" lon="8.6930133"><ele>347.2</ele><time>2026-04-12T07:25:48.806Z</time></trkpt><trkpt lat="45.8868317" lon="8.6931533"><ele>346.8</ele><time>2026-04-12T07:25:50.806Z</time></trkpt><trkpt lat="45.88691" lon="8.6933183"><ele>346.4</ele><time>2026-04-12T07:25:52.806Z</time></trkpt><trkpt lat="45.8869583" lon="8.693405"><ele>346.0</ele><time>2026-04-12T07:25:53.806Z</time></trkpt><trkpt lat="45.8870067" lon="8.6934983"><ele>347.0</ele><time>2026-04-12T07:25:54.806Z</time></trkpt><trkpt lat="45.8870433" lon="8.6936167"><ele>348.0</ele><time>2026-04-12T07:25:55.806Z</time></trkpt><trkpt lat="45.887085" lon="8.6937583"><ele>349.0</ele><time>2026-04-12T07:25:56.806Z</time></trkpt><trkpt lat="45.8871117" lon="8.6939067"><ele>350.0</ele><time>2026-04-12T07:25:57.806Z</time></trkpt><trkpt lat="45.8871283" lon="8.6940517"><ele>351.0</ele><time>2026-04-12T07:25:58.806Z</time></trkpt><trkpt lat="45.88714" lon="8.6942033"><ele>351.0</ele><time>2026-04-12T07:25:59.806Z</time></trkpt><trkpt lat="45.88716" lon="8.69435"><ele>351.0</ele><time>2026-04-12T07:26:00.806Z</time></trkpt><trkpt lat="45.8871983" lon="8.69452"><ele>351.0</ele><time>2026-04-12T07:26:01.806Z</time></trkpt><trkpt lat="45.8872417" lon="8.69468"><ele>351.0</ele><time>2026-04-12T07:26:02.806Z</time></trkpt><trkpt lat="45.8872883" lon="8.6948317"><ele>351.0</ele><time>2026-04-12T07:26:03.805Z</time></trkpt><trkpt lat="45.8873383" lon="8.6949867"><ele>351.0</ele><time>2026-04-12T07:26:04.806Z</time></trkpt><trkpt lat="45.8873883" lon="8.6951383"><ele>351.0</ele><time>2026-04-12T07:26:05.806Z</time></trkpt><trkpt lat="45.88743" lon="8.6952683"><ele>351.0</ele><time>2026-04-12T07:26:06.806Z</time></trkpt><trkpt lat="45.88748" lon="8.69538"><ele>351.0</ele><time>2026-04-12T07:26:07.806Z</time></trkpt><trkpt lat="45.8875367" lon="8.69547"><ele>350.5</ele><time>2026-04-12T07:26:08.806Z</time></trkpt><trkpt lat="45.8876017" lon="8.6955483"><ele>350.0</ele><time>2026-04-12T07:26:09.806Z</time></trkpt><trkpt lat="45.8876667" lon="8.69561"><ele>349.5</ele><time>2026-04-12T07:26:10.806Z</time></trkpt><trkpt lat="45.88773" lon="8.695665"><ele>349.0</ele><time>2026-04-12T07:26:11.806Z</time></trkpt><trkpt lat="45.8877867" lon="8.6957183"><ele>348.5</ele><time>2026-04-12T07:26:12.806Z</time></trkpt><trkpt lat="45.8878917" lon="8.69579"><ele>348.0</ele><time>2026-04-12T07:26:14.806Z</time></trkpt><trkpt lat="45.8879717" lon="8.695835"><ele>348.0</ele><time>2026-04-12T07:26:16.806Z</time></trkpt><trkpt lat="45.8880483" lon="8.69583"><ele>348.0</ele><time>2026-04-12T07:26:18.806Z</time></trkpt><trkpt lat="45.8881133" lon="8.6957867"><ele>348.0</ele><time>2026-04-12T07:26:20.806Z</time></trkpt><trkpt lat="45.8882" lon="8.6958617"><ele>348.0</ele><time>2026-04-12T07:26:25.806Z</time></trkpt><trkpt lat="45.88827" lon="8.6960233"><ele>348.0</ele><time>2026-04-12T07:26:27.806Z</time></trkpt><trkpt lat="45.8883167" lon="8.696125"><ele>348.57142857142856</ele><time>2026-04-12T07:26:28.806Z</time></trkpt><trkpt lat="45.8883667" lon="8.696215"><ele>349.14285714285717</ele><time>2026-04-12T07:26:29.806Z</time></trkpt><trkpt lat="45.888415" lon="8.6963033"><ele>349.7142857142857</ele><time>2026-04-12T07:26:30.806Z</time></trkpt><trkpt lat="45.8884583" lon="8.6963833"><ele>350.2857142857143</ele><time>2026-04-12T07:26:31.806Z</time></trkpt><trkpt lat="45.8884883" lon="8.6964683"><ele>350.85714285714283</ele><time>2026-04-12T07:26:32.806Z</time></trkpt><trkpt lat="45.888525" lon="8.6965633"><ele>351.42857142857144</ele><time>2026-04-12T07:26:33.806Z</time></trkpt><trkpt lat="45.8885583" lon="8.6966633"><ele>352.0</ele><time>2026-04-12T07:26:34.805Z</time></trkpt><trkpt lat="45.888605" lon="8.6967717"><ele>349.40000000000003</ele><time>2026-04-12T07:26:35.806Z</time></trkpt><trkpt lat="45.88865" lon="8.696875"><ele>346.8</ele><time>2026-04-12T07:26:36.806Z</time></trkpt><trkpt lat="45.8887" lon="8.6969933"><ele>344.2</ele><time>2026-04-12T07:26:37.806Z</time></trkpt><trkpt lat="45.8887533" lon="8.6971283"><ele>341.6</ele><time>2026-04-12T07:26:38.806Z</time></trkpt><trkpt lat="45.88881" lon="8.6972683"><ele>339.0</ele><time>2026-04-12T07:26:39.805Z</time></trkpt><trkpt lat="45.88886" lon="8.6974083"><ele>339.0</ele><time>2026-04-12T07:26:40.806Z</time></trkpt><trkpt lat="45.8889033" lon="8.6975333"><ele>339.0</ele><time>2026-04-12T07:26:41.806Z</time></trkpt><trkpt lat="45.888935" lon="8.6976467"><ele>339.0</ele><time>2026-04-12T07:26:42.806Z</time></trkpt><trkpt lat="45.8889683" lon="8.6977583"><ele>339.0</ele><time>2026-04-12T07:26:43.805Z</time></trkpt><trkpt lat="45.888995" lon="8.6978717"><ele>339.0</ele><time>2026-04-12T07:26:44.806Z</time></trkpt><trkpt lat="45.8890167" lon="8.69797"><ele>339.0</ele><time>2026-04-12T07:26:45.806Z</time></trkpt><trkpt lat="45.8890333" lon="8.698065"><ele>339.1666666666667</ele><time>2026-04-12T07:26:46.805Z</time></trkpt><trkpt lat="45.889045" lon="8.6981633"><ele>339.3333333333333</ele><time>2026-04-12T07:26:47.806Z</time></trkpt><trkpt lat="45.88905" lon="8.69826"><ele>339.5</ele><time>2026-04-12T07:26:48.806Z</time></trkpt><trkpt lat="45.8890567" lon="8.6983517"><ele>339.66666666666663</ele><time>2026-04-12T07:26:49.806Z</time></trkpt><trkpt lat="45.8890733" lon="8.69851"><ele>339.8333333333333</ele><time>2026-04-12T07:26:51.806Z</time></trkpt><trkpt lat="45.8890883" lon="8.6986267"><ele>340.0</ele><time>2026-04-12T07:26:53.806Z</time></trkpt><trkpt lat="45.8890967" lon="8.6987667"><ele>340.0</ele><time>2026-04-12T07:26:55.806Z</time></trkpt><trkpt lat="45.8891183" lon="8.6989067"><ele>340.0</ele><time>2026-04-12T07:26:57.806Z</time></trkpt><trkpt lat="45.8891383" lon="8.6990267"><ele>340.0</ele><time>2026-04-12T07:26:59.806Z</time></trkpt><trkpt lat="45.88915" lon="8.6991633"><ele>340.0</ele><time>2026-04-12T07:27:01.806Z</time></trkpt><trkpt lat="45.8891417" lon="8.699295"><ele>340.0</ele><time>2026-04-12T07:27:03.806Z</time></trkpt><trkpt lat="45.8891183" lon="8.6994433"><ele>339.5</ele><time>2026-04-12T07:27:05.806Z</time></trkpt><trkpt lat="45.8891017" lon="8.6995417"><ele>339.0</ele><time>2026-04-12T07:27:06.806Z</time></trkpt><trkpt lat="45.8890817" lon="8.6996617"><ele>338.5</ele><time>2026-04-12T07:27:07.805Z</time></trkpt><trkpt lat="45.8890717" lon="8.6997867"><ele>338.0</ele><time>2026-04-12T07:27:08.806Z</time></trkpt><trkpt lat="45.8890733" lon="8.6998967"><ele>337.5</ele><time>2026-04-12T07:27:09.806Z</time></trkpt><trkpt lat="45.8890683" lon="8.6999917"><ele>337.0</ele><time>2026-04-12T07:27:10.806Z</time></trkpt><trkpt lat="45.88904" lon="8.700145"><ele>337.0</ele><time>2026-04-12T07:27:12.806Z</time></trkpt><trkpt lat="45.888995" lon="8.70023"><ele>337.0</ele><time>2026-04-12T07:27:14.806Z</time></trkpt><trkpt lat="45.8889583" lon="8.7003283"><ele>337.0</ele><time>2026-04-12T07:27:17.806Z</time></trkpt><trkpt lat="45.8890167" lon="8.7004833"><ele>337.0</ele><time>2026-04-12T07:27:19.806Z</time></trkpt><trkpt lat="45.88906" lon="8.7005967"><ele>337.0</ele><time>2026-04-12T07:27:20.806Z</time></trkpt><trkpt lat="45.8890983" lon="8.7007267"><ele>337.66666666666663</ele><time>2026-04-12T07:27:21.806Z</time></trkpt><trkpt lat="45.8891183" lon="8.7008433"><ele>338.3333333333333</ele><time>2026-04-12T07:27:22.805Z</time></trkpt><trkpt lat="45.8891217" lon="8.7009483"><ele>339.0</ele><time>2026-04-12T07:27:23.806Z</time></trkpt><trkpt lat="45.8891233" lon="8.7010533"><ele>339.6666666666667</ele><time>2026-04-12T07:27:24.806Z</time></trkpt><trkpt lat="45.8891267" lon="8.7011483"><ele>340.33333333333337</ele><time>2026-04-12T07:27:25.806Z</time></trkpt><trkpt lat="45.88912" lon="8.7012983"><ele>341.0</ele><time>2026-04-12T07:27:27.805Z</time></trkpt><trkpt lat="45.8891267" lon="8.7013983"><ele>341.6666666666667</ele><time>2026-04-12T07:27:29.806Z</time></trkpt><trkpt lat="45.88919" lon="8.7014067"><ele>342.33333333333337</ele><time>2026-04-12T07:27:33.806Z</time></trkpt><trkpt lat="45.8892533" lon="8.7013633"><ele>343.0</ele><time>2026-04-12T07:27:35.805Z</time></trkpt><trkpt lat="45.8893583" lon="8.701355"><ele>343.6666666666667</ele><time>2026-04-12T07:27:37.806Z</time></trkpt><trkpt lat="45.88946" lon="8.701355"><ele>344.3333333333333</ele><time>2026-04-12T07:27:39.806Z</time></trkpt><trkpt lat="45.8895583" lon="8.7013483"><ele>345.0</ele><time>2026-04-12T07:27:41.806Z</time></trkpt><trkpt lat="45.8896583" lon="8.7013433"><ele>345.0</ele><time>2026-04-12T07:27:43.806Z</time></trkpt><trkpt lat="45.8897683" lon="8.70135"><ele>345.0</ele><time>2026-04-12T07:27:45.805Z</time></trkpt><trkpt lat="45.8898767" lon="8.7013183"><ele>345.0</ele><time>2026-04-12T07:27:47.806Z</time></trkpt><trkpt lat="45.8899533" lon="8.7012833"><ele>345.0</ele><time>2026-04-12T07:27:48.806Z</time></trkpt><trkpt lat="45.8900317" lon="8.7012467"><ele>345.0</ele><time>2026-04-12T07:27:49.806Z</time></trkpt><trkpt lat="45.89011" lon="8.7012017"><ele>344.0</ele><time>2026-04-12T07:27:50.806Z</time></trkpt><trkpt lat="45.8901767" lon="8.7011583"><ele>343.0</ele><time>2026-04-12T07:27:51.806Z</time></trkpt><trkpt lat="45.89023" lon="8.70111"><ele>342.0</ele><time>2026-04-12T07:27:52.806Z</time></trkpt><trkpt lat="45.8902983" lon="8.7010567"><ele>341.0</ele><time>2026-04-12T07:27:54.806Z</time></trkpt><trkpt lat="45.8903633" lon="8.701015"><ele>340.0</ele><time>2026-04-12T07:27:58.806Z</time></trkpt><trkpt lat="45.8904367" lon="8.7009983"><ele>339.0</ele><time>2026-04-12T07:28:00.806Z</time></trkpt><trkpt lat="45.8905333" lon="8.7009933"><ele>339.0</ele><time>2026-04-12T07:28:02.806Z</time></trkpt><trkpt lat="45.8906333" lon="8.7010467"><ele>339.0</ele><time>2026-04-12T07:28:04.806Z</time></trkpt><trkpt lat="45.890705" lon="8.7012017"><ele>339.0</ele><time>2026-04-12T07:28:06.806Z</time></trkpt><trkpt lat="45.8907433" lon="8.7013283"><ele>339.0</ele><time>2026-04-12T07:28:07.806Z</time></trkpt><trkpt lat="45.8907717" lon="8.70145"><ele>339.0</ele><time>2026-04-12T07:28:08.806Z</time></trkpt><trkpt lat="45.89079" lon="8.7015583"><ele>339.0</ele><time>2026-04-12T07:28:09.806Z</time></trkpt><trkpt lat="45.8908083" lon="8.70165"><ele>339.0</ele><time>2026-04-12T07:28:10.806Z</time></trkpt><trkpt lat="45.890855" lon="8.7018133"><ele>339.0</ele><time>2026-04-12T07:28:12.805Z</time></trkpt><trkpt lat="45.89091" lon="8.7018933"><ele>339.0</ele><time>2026-04-12T07:28:13.806Z</time></trkpt><trkpt lat="45.8909717" lon="8.7019783"><ele>339.0</ele><time>2026-04-12T07:28:14.806Z</time></trkpt><trkpt lat="45.8910333" lon="8.702075"><ele>339.0</ele><time>2026-04-12T07:28:15.806Z</time></trkpt><trkpt lat="45.8910783" lon="8.7021783"><ele>338.57142857142856</ele><time>2026-04-12T07:28:16.806Z</time></trkpt><trkpt lat="45.8911083" lon="8.702295"><ele>338.14285714285717</ele><time>2026-04-12T07:28:17.806Z</time></trkpt><trkpt lat="45.8911417" lon="8.702385"><ele>337.7142857142857</ele><time>2026-04-12T07:28:18.806Z</time></trkpt><trkpt lat="45.891165" lon="8.702485"><ele>337.2857142857143</ele><time>2026-04-12T07:28:19.806Z</time></trkpt><trkpt lat="45.8911783" lon="8.7025883"><ele>336.8571428571429</ele><time>2026-04-12T07:28:20.805Z</time></trkpt><trkpt lat="45.8911783" lon="8.70268"><ele>336.42857142857144</ele><time>2026-04-12T07:28:21.806Z</time></trkpt><trkpt lat="45.8911833" lon="8.7027783"><ele>336.0</ele><time>2026-04-12T07:28:22.806Z</time></trkpt><trkpt lat="45.891185" lon="8.7029483"><ele>336.0</ele><time>2026-04-12T07:28:24.806Z</time></trkpt><trkpt lat="45.891225" lon="8.703085"><ele>336.0</ele><time>2026-04-12T07:28:26.806Z</time></trkpt><trkpt lat="45.891275" lon="8.7032667"><ele>336.0</ele><time>2026-04-12T07:28:28.806Z</time></trkpt><trkpt lat="45.8913017" lon="8.7033967"><ele>336.0</ele><time>2026-04-12T07:28:29.805Z</time></trkpt><trkpt lat="45.8913367" lon="8.7035517"><ele>336.0</ele><time>2026-04-12T07:28:30.806Z</time></trkpt><trkpt lat="45.8913833" lon="8.7037117"><ele>337.4</ele><time>2026-04-12T07:28:31.806Z</time></trkpt><trkpt lat="45.891435" lon="8.7038567"><ele>338.8</ele><time>2026-04-12T07:28:32.806Z</time></trkpt><trkpt lat="45.8914767" lon="8.7039833"><ele>340.2</ele><time>2026-04-12T07:28:33.806Z</time></trkpt><trkpt lat="45.8915083" lon="8.7040967"><ele>341.59999999999997</ele><time>2026-04-12T07:28:34.806Z</time></trkpt><trkpt lat="45.8915467" lon="8.7042133"><ele>343.0</ele><time>2026-04-12T07:28:35.805Z</time></trkpt><trkpt lat="45.8915917" lon="8.7043367"><ele>345.59999999999997</ele><time>2026-04-12T07:28:36.806Z</time></trkpt><trkpt lat="45.8916483" lon="8.704505"><ele>348.2</ele><time>2026-04-12T07:28:37.806Z</time></trkpt><trkpt lat="45.891695" lon="8.70466"><ele>350.8</ele><time>2026-04-12T07:28:38.806Z</time></trkpt><trkpt lat="45.891725" lon="8.7047933"><ele>353.4</ele><time>2026-04-12T07:28:39.806Z</time></trkpt><trkpt lat="45.8917533" lon="8.7048983"><ele>356.0</ele><time>2026-04-12T07:28:40.806Z</time></trkpt><trkpt lat="45.8917783" lon="8.7050117"><ele>351.4</ele><time>2026-04-12T07:28:41.806Z</time></trkpt><trkpt lat="45.891805" lon="8.7051483"><ele>346.8</ele><time>2026-04-12T07:28:42.806Z</time></trkpt><trkpt lat="45.8918333" lon="8.7052933"><ele>342.2</ele><time>2026-04-12T07:28:43.806Z</time></trkpt><trkpt lat="45.8918567" lon="8.705425"><ele>337.59999999999997</ele><time>2026-04-12T07:28:44.806Z</time></trkpt><trkpt lat="45.8918817" lon="8.705545"><ele>333.0</ele><time>2026-04-12T07:28:45.805Z</time></trkpt><trkpt lat="45.89191" lon="8.7056467"><ele>333.0</ele><time>2026-04-12T07:28:46.806Z</time></trkpt><trkpt lat="45.891925" lon="8.7057383"><ele>333.0</ele><time>2026-04-12T07:28:47.806Z</time></trkpt><trkpt lat="45.89193" lon="8.7059283"><ele>333.0</ele><time>2026-04-12T07:28:49.806Z</time></trkpt><trkpt lat="45.891935" lon="8.7060267"><ele>333.0</ele><time>2026-04-12T07:28:50.806Z</time></trkpt><trkpt lat="45.8919617" lon="8.7061233"><ele>333.0</ele><time>2026-04-12T07:28:51.806Z</time></trkpt><trkpt lat="45.8919933" lon="8.7062167"><ele>333.0</ele><time>2026-04-12T07:28:52.805Z</time></trkpt><trkpt lat="45.8920483" lon="8.7063817"><ele>334.8333333333333</ele><time>2026-04-12T07:28:54.806Z</time></trkpt><trkpt lat="45.8920783" lon="8.7064617"><ele>336.6666666666667</ele><time>2026-04-12T07:28:55.806Z</time></trkpt><trkpt lat="45.8921617" lon="8.7065983"><ele>338.5</ele><time>2026-04-12T07:28:57.806Z</time></trkpt><trkpt lat="45.892225" lon="8.70665"><ele>340.33333333333337</ele><time>2026-04-12T07:28:58.806Z</time></trkpt><trkpt lat="45.892295" lon="8.7067117"><ele>342.1666666666667</ele><time>2026-04-12T07:28:59.806Z</time></trkpt><trkpt lat="45.8923633" lon="8.70679"><ele>344.0</ele><time>2026-04-12T07:29:00.806Z</time></trkpt><trkpt lat="45.8924383" lon="8.7068983"><ele>343.5</ele><time>2026-04-12T07:29:01.806Z</time></trkpt><trkpt lat="45.892525" lon="8.7070333"><ele>343.0</ele><time>2026-04-12T07:29:02.806Z</time></trkpt><trkpt lat="45.8926133" lon="8.707155"><ele>342.5</ele><time>2026-04-12T07:29:03.806Z</time></trkpt><trkpt lat="45.8926917" lon="8.7072533"><ele>342.0</ele><time>2026-04-12T07:29:04.806Z</time></trkpt><trkpt lat="45.8927733" lon="8.7073317"><ele>342.0</ele><time>2026-04-12T07:29:05.806Z</time></trkpt><trkpt lat="45.8928533" lon="8.7073933"><ele>342.0</ele><time>2026-04-12T07:29:06.806Z</time></trkpt><trkpt lat="45.8929167" lon="8.7074383"><ele>342.0</ele><time>2026-04-12T07:29:07.805Z</time></trkpt><trkpt lat="45.8930117" lon="8.7074617"><ele>342.0</ele><time>2026-04-12T07:29:09.806Z</time></trkpt><trkpt lat="45.89308" lon="8.7074567"><ele>342.0</ele><time>2026-04-12T07:29:12.806Z</time></trkpt><trkpt lat="45.8931433" lon="8.7074717"><ele>342.0</ele><time>2026-04-12T07:29:17.806Z</time></trkpt><trkpt lat="45.8932017" lon="8.7075433"><ele>342.0</ele><time>2026-04-12T07:29:21.806Z</time></trkpt><trkpt lat="45.8932317" lon="8.7076333"><ele>342.0</ele><time>2026-04-12T07:29:23.805Z</time></trkpt><trkpt lat="45.8932917" lon="8.7075933"><ele>342.0</ele><time>2026-04-12T07:29:29.806Z</time></trkpt><trkpt lat="45.8933183" lon="8.70742"><ele>342.0</ele><time>2026-04-12T07:29:31.805Z</time></trkpt><trkpt lat="45.8933517" lon="8.70727"><ele>342.0</ele><time>2026-04-12T07:29:33.805Z</time></trkpt><trkpt lat="45.89338" lon="8.70718"><ele>342.0</ele><time>2026-04-12T07:29:35.806Z</time></trkpt><trkpt lat="45.8934217" lon="8.707095"><ele>337.6666666666667</ele><time>2026-04-12T07:29:38.806Z</time></trkpt><trkpt lat="45.8934683" lon="8.706975"><ele>333.3333333333333</ele><time>2026-04-12T07:29:41.806Z</time></trkpt><trkpt lat="45.8934867" lon="8.70688"><ele>329.0</ele><time>2026-04-12T07:29:43.806Z</time></trkpt><trkpt lat="45.8935233" lon="8.70679"><ele>324.66666666666663</ele><time>2026-04-12T07:29:45.806Z</time></trkpt><trkpt lat="45.893555" lon="8.7066933"><ele>320.3333333333333</ele><time>2026-04-12T07:29:47.806Z</time></trkpt><trkpt lat="45.89358" lon="8.7066"><ele>316.0</ele><time>2026-04-12T07:29:49.806Z</time></trkpt><trkpt lat="45.8936133" lon="8.70649"><ele>316.0</ele><time>2026-04-12T07:29:52.806Z</time></trkpt><trkpt lat="45.8936667" lon="8.7065967"><ele>316.0</ele><time>2026-04-12T07:29:57.806Z</time></trkpt><trkpt lat="45.8936967" lon="8.7067433"><ele>316.0</ele><time>2026-04-12T07:29:59.805Z</time></trkpt><trkpt lat="45.89371" lon="8.7068633"><ele>316.0</ele><time>2026-04-12T07:30:01.806Z</time></trkpt><trkpt lat="45.8937083" lon="8.70696"><ele>316.0</ele><time>2026-04-12T07:30:03.806Z</time></trkpt><trkpt lat="45.8937433" lon="8.7070467"><ele>316.0</ele><time>2026-04-12T07:30:05.806Z</time></trkpt><trkpt lat="45.8938167" lon="8.7070783"><ele>315.6</ele><time>2026-04-12T07:30:07.805Z</time></trkpt><trkpt lat="45.893925" lon="8.7070733"><ele>315.20000000000005</ele><time>2026-04-12T07:30:09.805Z</time></trkpt><trkpt lat="45.89401" lon="8.70707"><ele>314.79999999999995</ele><time>2026-04-12T07:30:11.806Z</time></trkpt><trkpt lat="45.89408" lon="8.7071417"><ele>314.4</ele><time>2026-04-12T07:30:13.806Z</time></trkpt><trkpt lat="45.8941033" lon="8.707315"><ele>314.0</ele><time>2026-04-12T07:30:15.806Z</time></trkpt><trkpt lat="45.8940967" lon="8.7074667"><ele>314.0</ele><time>2026-04-12T07:30:16.805Z</time></trkpt><trkpt lat="45.8940817" lon="8.7076633"><ele>314.0</ele><time>2026-04-12T07:30:17.806Z</time></trkpt><trkpt lat="45.8940667" lon="8.7078533"><ele>314.0</ele><time>2026-04-12T07:30:18.806Z</time></trkpt><trkpt lat="45.89405" lon="8.7080467"><ele>314.0</ele><time>2026-04-12T07:30:19.806Z</time></trkpt><trkpt lat="45.8940333" lon="8.708235"><ele>313.5</ele><time>2026-04-12T07:30:20.806Z</time></trkpt><trkpt lat="45.8940183" lon="8.7084133"><ele>313.0</ele><time>2026-04-12T07:30:21.806Z</time></trkpt><trkpt lat="45.894005" lon="8.7085883"><ele>312.5</ele><time>2026-04-12T07:30:22.806Z</time></trkpt><trkpt lat="45.8939883" lon="8.708765"><ele>312.0</ele><time>2026-04-12T07:30:23.806Z</time></trkpt><trkpt lat="45.8939817" lon="8.708945"><ele>311.8</ele><time>2026-04-12T07:30:24.806Z</time></trkpt><trkpt lat="45.8939833" lon="8.7091117"><ele>311.6</ele><time>2026-04-12T07:30:25.806Z</time></trkpt><trkpt lat="45.8939683" lon="8.7092817"><ele>311.40000000000003</ele><time>2026-04-12T07:30:26.806Z</time></trkpt><trkpt lat="45.8939483" lon="8.70944"><ele>311.2</ele><time>2026-04-12T07:30:27.806Z</time></trkpt><trkpt lat="45.8939267" lon="8.70955"><ele>311.0</ele><time>2026-04-12T07:30:28.806Z</time></trkpt><trkpt lat="45.8939033" lon="8.7096383"><ele>310.6666666666667</ele><time>2026-04-12T07:30:29.806Z</time></trkpt><trkpt lat="45.8939383" lon="8.7097283"><ele>310.33333333333337</ele><time>2026-04-12T07:30:31.806Z</time></trkpt><trkpt lat="45.8939783" lon="8.7098267"><ele>310.0</ele><time>2026-04-12T07:30:33.806Z</time></trkpt><trkpt lat="45.8940383" lon="8.7099183"><ele>309.6666666666667</ele><time>2026-04-12T07:30:35.805Z</time></trkpt><trkpt lat="45.8940817" lon="8.710015"><ele>309.3333333333333</ele><time>2026-04-12T07:30:37.806Z</time></trkpt><trkpt lat="45.8941283" lon="8.710085"><ele>309.0</ele><time>2026-04-12T07:30:39.806Z</time></trkpt><trkpt lat="45.8942067" lon="8.710015"><ele>309.0</ele><time>2026-04-12T07:30:43.806Z</time></trkpt><trkpt lat="45.89425" lon="8.7098767"><ele>309.0</ele><time>2026-04-12T07:30:45.806Z</time></trkpt><trkpt lat="45.8942833" lon="8.7097867"><ele>309.0</ele><time>2026-04-12T07:30:46.806Z</time></trkpt><trkpt lat="45.89432" lon="8.7096717"><ele>309.0</ele><time>2026-04-12T07:30:48.806Z</time></trkpt><trkpt lat="45.894355" lon="8.7095783"><ele>309.0</ele><time>2026-04-12T07:30:50.806Z</time></trkpt><trkpt lat="45.8944083" lon="8.709515"><ele>309.0</ele><time>2026-04-12T07:30:54.806Z</time></trkpt><trkpt lat="45.894475" lon="8.7095133"><ele>304.59999999999997</ele><time>2026-04-12T07:30:58.806Z</time></trkpt><trkpt lat="45.8945567" lon="8.7095667"><ele>300.2</ele><time>2026-04-12T07:31:00.806Z</time></trkpt><trkpt lat="45.8946467" lon="8.70961"><ele>295.79999999999995</ele><time>2026-04-12T07:31:02.806Z</time></trkpt><trkpt lat="45.8947167" lon="8.7096983"><ele>291.4</ele><time>2026-04-12T07:31:04.806Z</time></trkpt><trkpt lat="45.8947433" lon="8.7098833"><ele>287.0</ele><time>2026-04-12T07:31:06.806Z</time></trkpt><trkpt lat="45.8947533" lon="8.7100067"><ele>287.0</ele><time>2026-04-12T07:31:07.806Z</time></trkpt><trkpt lat="45.8947583" lon="8.7101267"><ele>287.0</ele><time>2026-04-12T07:31:08.806Z</time></trkpt><trkpt lat="45.89477" lon="8.7102333"><ele>287.0</ele><time>2026-04-12T07:31:09.806Z</time></trkpt><trkpt lat="45.8947933" lon="8.7103267"><ele>287.0</ele><time>2026-04-12T07:31:10.806Z</time></trkpt><trkpt lat="45.8948483" lon="8.7104033"><ele>287.0</ele><time>2026-04-12T07:31:11.806Z</time></trkpt><trkpt lat="45.8949117" lon="8.7104983"><ele>287.0</ele><time>2026-04-12T07:31:12.806Z</time></trkpt><trkpt lat="45.8949817" lon="8.7105867"><ele>286.6666666666667</ele><time>2026-04-12T07:31:13.806Z</time></trkpt><trkpt lat="45.8950417" lon="8.7106667"><ele>286.33333333333337</ele><time>2026-04-12T07:31:14.806Z</time></trkpt><trkpt lat="45.8950967" lon="8.7107333"><ele>286.0</ele><time>2026-04-12T07:31:15.806Z</time></trkpt><trkpt lat="45.8951633" lon="8.7108183"><ele>285.6666666666667</ele><time>2026-04-12T07:31:17.805Z</time></trkpt><trkpt lat="45.8951967" lon="8.7109633"><ele>285.3333333333333</ele><time>2026-04-12T07:36:51.806Z</time></trkpt><trkpt lat="45.8952467" lon="8.7110667"><ele>285.0</ele><time>2026-04-12T07:36:52.806Z</time></trkpt><trkpt lat="45.8952917" lon="8.71117"><ele>283.8333333333333</ele><time>2026-04-12T07:36:53.805Z</time></trkpt><trkpt lat="45.8953233" lon="8.7112717"><ele>282.6666666666667</ele><time>2026-04-12T07:36:54.806Z</time></trkpt><trkpt lat="45.8953367" lon="8.7113733"><ele>281.5</ele><time>2026-04-12T07:36:55.806Z</time></trkpt><trkpt lat="45.895335" lon="8.7114817"><ele>280.33333333333337</ele><time>2026-04-12T07:36:56.806Z</time></trkpt><trkpt lat="45.8953217" lon="8.7115867"><ele>279.1666666666667</ele><time>2026-04-12T07:36:57.806Z</time></trkpt><trkpt lat="45.8952967" lon="8.7116867"><ele>278.0</ele><time>2026-04-12T07:36:58.806Z</time></trkpt><trkpt lat="45.8952533" lon="8.7118417"><ele>277.5</ele><time>2026-04-12T07:37:00.806Z</time></trkpt><trkpt lat="45.8952" lon="8.7119967"><ele>277.0</ele><time>2026-04-12T07:37:02.806Z</time></trkpt><trkpt lat="45.8951617" lon="8.7120717"><ele>276.5</ele><time>2026-04-12T07:37:03.806Z</time></trkpt><trkpt lat="45.8951167" lon="8.712155"><ele>276.0</ele><time>2026-04-12T07:37:04.806Z</time></trkpt><trkpt lat="45.8950717" lon="8.7122433"><ele>275.5</ele><time>2026-04-12T07:37:05.806Z</time></trkpt><trkpt lat="45.8950167" lon="8.712335"><ele>275.0</ele><time>2026-04-12T07:37:06.806Z</time></trkpt><trkpt lat="45.8949667" lon="8.7124333"><ele>276.4</ele><time>2026-04-12T07:37:07.806Z</time></trkpt><trkpt lat="45.8949117" lon="8.71254"><ele>277.8</ele><time>2026-04-12T07:37:08.806Z</time></trkpt><trkpt lat="45.8948533" lon="8.712635"><ele>279.2</ele><time>2026-04-12T07:37:09.806Z</time></trkpt><trkpt lat="45.894795" lon="8.7127633"><ele>280.6</ele><time>2026-04-12T07:37:10.806Z</time></trkpt><trkpt lat="45.89473" lon="8.7128783"><ele>282.0</ele><time>2026-04-12T07:37:11.806Z</time></trkpt><trkpt lat="45.8946883" lon="8.7129883"><ele>282.0</ele><time>2026-04-12T07:37:12.806Z</time></trkpt><trkpt lat="45.894655" lon="8.713095"><ele>282.0</ele><time>2026-04-12T07:37:13.806Z</time></trkpt><trkpt lat="45.8946217" lon="8.7132033"><ele>282.0</ele><time>2026-04-12T07:37:14.806Z</time></trkpt><trkpt lat="45.8945967" lon="8.71332"><ele>282.0</ele><time>2026-04-12T07:37:15.806Z</time></trkpt><trkpt lat="45.8945783" lon="8.713445"><ele>282.0</ele><time>2026-04-12T07:37:16.806Z</time></trkpt><trkpt lat="45.894565" lon="8.7135817"><ele>282.0</ele><time>2026-04-12T07:37:17.806Z</time></trkpt><trkpt lat="45.89455" lon="8.7137067"><ele>281.8333333333333</ele><time>2026-04-12T07:37:18.806Z</time></trkpt><trkpt lat="45.89453" lon="8.71382"><ele>281.6666666666667</ele><time>2026-04-12T07:37:19.806Z</time></trkpt><trkpt lat="45.89451" lon="8.7139367"><ele>281.5</ele><time>2026-04-12T07:37:20.806Z</time></trkpt><trkpt lat="45.894475" lon="8.7140517"><ele>281.33333333333337</ele><time>2026-04-12T07:37:21.806Z</time></trkpt><trkpt lat="45.8944417" lon="8.7141717"><ele>281.1666666666667</ele><time>2026-04-12T07:37:22.806Z</time></trkpt><trkpt lat="45.894405" lon="8.714285"><ele>281.0</ele><time>2026-04-12T07:37:23.806Z</time></trkpt><trkpt lat="45.8943633" lon="8.7143983"><ele>281.40000000000003</ele><time>2026-04-12T07:37:24.806Z</time></trkpt><trkpt lat="45.8943233" lon="8.7145233"><ele>281.8</ele><time>2026-04-12T07:37:25.806Z</time></trkpt><trkpt lat="45.89427" lon="8.7146633"><ele>282.20000000000005</ele><time>2026-04-12T07:37:26.806Z</time></trkpt><trkpt lat="45.8942333" lon="8.7147967"><ele>282.6</ele><time>2026-04-12T07:37:27.806Z</time></trkpt><trkpt lat="45.8941817" lon="8.7149167"><ele>283.0</ele><time>2026-04-12T07:37:28.806Z</time></trkpt><trkpt lat="45.894115" lon="8.7150367"><ele>283.2</ele><time>2026-04-12T07:37:29.806Z</time></trkpt><trkpt lat="45.8940383" lon="8.7151667"><ele>283.4</ele><time>2026-04-12T07:37:30.805Z</time></trkpt><trkpt lat="45.8939633" lon="8.7152833"><ele>283.59999999999997</ele><time>2026-04-12T07:37:31.805Z</time></trkpt><trkpt lat="45.89388" lon="8.71539"><ele>283.8</ele><time>2026-04-12T07:37:32.806Z</time></trkpt><trkpt lat="45.893805" lon="8.7154983"><ele>284.0</ele><time>2026-04-12T07:37:33.806Z</time></trkpt><trkpt lat="45.893745" lon="8.7156033"><ele>284.0</ele><time>2026-04-12T07:37:34.806Z</time></trkpt><trkpt lat="45.8936917" lon="8.7157033"><ele>284.0</ele><time>2026-04-12T07:37:35.806Z</time></trkpt><trkpt lat="45.8936667" lon="8.7157917"><ele>284.0</ele><time>2026-04-12T07:37:36.806Z</time></trkpt><trkpt lat="45.8936517" lon="8.7159033"><ele>284.0</ele><time>2026-04-12T07:37:37.806Z</time></trkpt><trkpt lat="45.8936567" lon="8.71603"><ele>284.0</ele><time>2026-04-12T07:37:38.806Z</time></trkpt><trkpt lat="45.89367" lon="8.7161783"><ele>284.0</ele><time>2026-04-12T07:37:39.806Z</time></trkpt><trkpt lat="45.8936883" lon="8.7163617"><ele>282.75</ele><time>2026-04-12T07:37:40.806Z</time></trkpt><trkpt lat="45.8936983" lon="8.7165733"><ele>281.5</ele><time>2026-04-12T07:37:41.806Z</time></trkpt><trkpt lat="45.893705" lon="8.7167867"><ele>280.25</ele><time>2026-04-12T07:37:42.806Z</time></trkpt><trkpt lat="45.8937117" lon="8.71699"><ele>279.0</ele><time>2026-04-12T07:37:43.806Z</time></trkpt><trkpt lat="45.8937217" lon="8.7171617"><ele>278.6666666666667</ele><time>2026-04-12T07:37:44.806Z</time></trkpt><trkpt lat="45.893735" lon="8.7173033"><ele>278.3333333333333</ele><time>2026-04-12T07:37:45.806Z</time></trkpt><trkpt lat="45.8937583" lon="8.7174267"><ele>278.0</ele><time>2026-04-12T07:37:46.806Z</time></trkpt><trkpt lat="45.8937867" lon="8.71753"><ele>277.66666666666663</ele><time>2026-04-12T07:37:47.806Z</time></trkpt><trkpt lat="45.8938183" lon="8.7176367"><ele>277.3333333333333</ele><time>2026-04-12T07:37:48.806Z</time></trkpt><trkpt lat="45.8938283" lon="8.7177567"><ele>277.0</ele><time>2026-04-12T07:37:49.805Z</time></trkpt><trkpt lat="45.8938367" lon="8.7179033"><ele>276.25</ele><time>2026-04-12T07:37:50.806Z</time></trkpt><trkpt lat="45.8938317" lon="8.7180733"><ele>275.5</ele><time>2026-04-12T07:37:51.806Z</time></trkpt><trkpt lat="45.8938267" lon="8.718255"><ele>274.75</ele><time>2026-04-12T07:37:52.806Z</time></trkpt><trkpt lat="45.89383" lon="8.7184483"><ele>274.0</ele><time>2026-04-12T07:37:53.806Z</time></trkpt><trkpt lat="45.8938433" lon="8.718625"><ele>273.4</ele><time>2026-04-12T07:37:54.806Z</time></trkpt><trkpt lat="45.8938633" lon="8.7187933"><ele>272.79999999999995</ele><time>2026-04-12T07:37:55.806Z</time></trkpt><trkpt lat="45.8938767" lon="8.7189483"><ele>272.20000000000005</ele><time>2026-04-12T07:37:56.806Z</time></trkpt><trkpt lat="45.89388" lon="8.7190883"><ele>271.6</ele><time>2026-04-12T07:37:57.806Z</time></trkpt><trkpt lat="45.8938783" lon="8.7192167"><ele>271.0</ele><time>2026-04-12T07:37:58.806Z</time></trkpt><trkpt lat="45.8938683" lon="8.719355"><ele>272.0</ele><time>2026-04-12T07:37:59.806Z</time></trkpt><trkpt lat="45.89385" lon="8.7195167"><ele>273.0</ele><time>2026-04-12T07:38:00.806Z</time></trkpt><trkpt lat="45.8938267" lon="8.7197"><ele>274.0</ele><time>2026-04-12T07:38:01.806Z</time></trkpt><trkpt lat="45.893805" lon="8.7198983"><ele>275.0</ele><time>2026-04-12T07:38:02.806Z</time></trkpt><trkpt lat="45.8937983" lon="8.7201033"><ele>276.0</ele><time>2026-04-12T07:38:03.806Z</time></trkpt><trkpt lat="45.8937967" lon="8.7203"><ele>277.0</ele><time>2026-04-12T07:38:04.806Z</time></trkpt><trkpt lat="45.8937967" lon="8.7204767"><ele>278.0</ele><time>2026-04-12T07:38:05.806Z</time></trkpt><trkpt lat="45.8938017" lon="8.7206533"><ele>279.0</ele><time>2026-04-12T07:38:06.806Z</time></trkpt><trkpt lat="45.8937967" lon="8.7208267"><ele>279.0</ele><time>2026-04-12T07:38:07.806Z</time></trkpt><trkpt lat="45.8937933" lon="8.7210017"><ele>279.0</ele><time>2026-04-12T07:38:08.805Z</time></trkpt><trkpt lat="45.893795" lon="8.721175"><ele>279.0</ele><time>2026-04-12T07:38:09.806Z</time></trkpt><trkpt lat="45.8938033" lon="8.7213467"><ele>279.0</ele><time>2026-04-12T07:38:10.806Z</time></trkpt><trkpt lat="45.8938117" lon="8.72153"><ele>279.75</ele><time>2026-04-12T07:38:11.806Z</time></trkpt><trkpt lat="45.8938183" lon="8.721725"><ele>280.5</ele><time>2026-04-12T07:38:12.806Z</time></trkpt><trkpt lat="45.893825" lon="8.72191"><ele>281.25</ele><time>2026-04-12T07:38:13.806Z</time></trkpt><trkpt lat="45.893835" lon="8.7220683"><ele>282.0</ele><time>2026-04-12T07:38:14.806Z</time></trkpt><trkpt lat="45.893855" lon="8.722225"><ele>283.5</ele><time>2026-04-12T07:38:15.806Z</time></trkpt><trkpt lat="45.89386" lon="8.72238"><ele>285.0</ele><time>2026-04-12T07:38:16.806Z</time></trkpt><trkpt lat="45.893865" lon="8.7225517"><ele>286.5</ele><time>2026-04-12T07:38:17.806Z</time></trkpt><trkpt lat="45.8938733" lon="8.722715"><ele>288.0</ele><time>2026-04-12T07:38:18.806Z</time></trkpt><trkpt lat="45.89388" lon="8.722875"><ele>288.0</ele><time>2026-04-12T07:38:19.806Z</time></trkpt><trkpt lat="45.8938833" lon="8.723055"><ele>288.0</ele><time>2026-04-12T07:38:20.806Z</time></trkpt><trkpt lat="45.8938917" lon="8.72325"><ele>288.0</ele><time>2026-04-12T07:38:21.806Z</time></trkpt><trkpt lat="45.8939133" lon="8.7234417"><ele>288.0</ele><time>2026-04-12T07:38:22.806Z</time></trkpt><trkpt lat="45.8939267" lon="8.7236283"><ele>289.0</ele><time>2026-04-12T07:38:23.806Z</time></trkpt><trkpt lat="45.8939483" lon="8.7238317"><ele>290.0</ele><time>2026-04-12T07:38:24.806Z</time></trkpt><trkpt lat="45.8939783" lon="8.72403"><ele>291.0</ele><time>2026-04-12T07:38:25.806Z</time></trkpt><trkpt lat="45.894005" lon="8.7242067"><ele>292.0</ele><time>2026-04-12T07:38:26.806Z</time></trkpt><trkpt lat="45.89403" lon="8.7243533"><ele>293.3333333333333</ele><time>2026-04-12T07:38:27.806Z</time></trkpt><trkpt lat="45.8940517" lon="8.72446"><ele>294.66666666666663</ele><time>2026-04-12T07:38:28.806Z</time></trkpt><trkpt lat="45.8940667" lon="8.7245667"><ele>296.0</ele><time>2026-04-12T07:38:29.806Z</time></trkpt><trkpt lat="45.894085" lon="8.7246567"><ele>297.3333333333333</ele><time>2026-04-12T07:38:30.806Z</time></trkpt><trkpt lat="45.8940917" lon="8.72483"><ele>298.6666666666667</ele><time>2026-04-12T07:38:32.805Z</time></trkpt><trkpt lat="45.89409" lon="8.724925"><ele>300.0</ele><time>2026-04-12T07:38:33.806Z</time></trkpt><trkpt lat="45.894085" lon="8.7250433"><ele>300.0</ele><time>2026-04-12T07:38:34.806Z</time></trkpt><trkpt lat="45.8940833" lon="8.72516"><ele>300.0</ele><time>2026-04-12T07:38:35.806Z</time></trkpt><trkpt lat="45.89409" lon="8.7252667"><ele>300.0</ele><time>2026-04-12T07:38:36.806Z</time></trkpt><trkpt lat="45.8940967" lon="8.725385"><ele>300.0</ele><time>2026-04-12T07:38:37.805Z</time></trkpt><trkpt lat="45.894105" lon="8.725505"><ele>300.0</ele><time>2026-04-12T07:38:38.806Z</time></trkpt><trkpt lat="45.8941117" lon="8.725615"><ele>300.0</ele><time>2026-04-12T07:38:39.806Z</time></trkpt><trkpt lat="45.89412" lon="8.7257683"><ele>301.1666666666667</ele><time>2026-04-12T07:38:41.806Z</time></trkpt><trkpt lat="45.8940867" lon="8.725885"><ele>302.3333333333333</ele><time>2026-04-12T07:38:44.806Z</time></trkpt><trkpt lat="45.8940617" lon="8.7259733"><ele>303.5</ele><time>2026-04-12T07:38:46.806Z</time></trkpt><trkpt lat="45.893995" lon="8.7259967"><ele>304.66666666666663</ele><time>2026-04-12T07:38:49.806Z</time></trkpt><trkpt lat="45.893935" lon="8.725905"><ele>305.8333333333333</ele><time>2026-04-12T07:38:52.806Z</time></trkpt><trkpt lat="45.893925" lon="8.725815"><ele>307.0</ele><time>2026-04-12T07:38:55.806Z</time></trkpt><trkpt lat="45.89392" lon="8.7257"><ele>307.0</ele><time>2026-04-12T07:38:58.805Z</time></trkpt><trkpt lat="45.893905" lon="8.72557"><ele>307.0</ele><time>2026-04-12T07:39:00.806Z</time></trkpt><trkpt lat="45.8938567" lon="8.7254517"><ele>307.0</ele><time>2026-04-12T07:39:02.806Z</time></trkpt><trkpt lat="45.893785" lon="8.7253383"><ele>307.0</ele><time>2026-04-12T07:39:04.806Z</time></trkpt><trkpt lat="45.8937167" lon="8.7252267"><ele>307.0</ele><time>2026-04-12T07:39:06.806Z</time></trkpt><trkpt lat="45.8936167" lon="8.7251733"><ele>307.0</ele><time>2026-04-12T07:39:08.806Z</time></trkpt><trkpt lat="45.8935183" lon="8.7251733"><ele>307.0</ele><time>2026-04-12T07:39:10.806Z</time></trkpt><trkpt lat="45.8934533" lon="8.725245"><ele>307.0</ele><time>2026-04-12T07:39:12.806Z</time></trkpt><trkpt lat="45.8934167" lon="8.7253267"><ele>307.0</ele><time>2026-04-12T07:39:15.806Z</time></trkpt><trkpt lat="45.8934283" lon="8.7254367"><ele>307.0</ele><time>2026-04-12T07:39:18.805Z</time></trkpt><trkpt lat="45.8934133" lon="8.7255383"><ele>307.0</ele><time>2026-04-12T07:39:20.806Z</time></trkpt><trkpt lat="45.8933883" lon="8.7256233"><ele>313.8333333333333</ele><time>2026-04-12T07:39:22.806Z</time></trkpt><trkpt lat="45.8932917" lon="8.725775"><ele>320.66666666666663</ele><time>2026-04-12T07:39:47.806Z</time></trkpt><trkpt lat="45.8932683" lon="8.7258633"><ele>327.5</ele><time>2026-04-12T07:39:49.806Z</time></trkpt><trkpt lat="45.89324" lon="8.7259783"><ele>334.3333333333333</ele><time>2026-04-12T07:39:52.806Z</time></trkpt><trkpt lat="45.8932317" lon="8.7260683"><ele>341.1666666666667</ele><time>2026-04-12T07:39:54.806Z</time></trkpt><trkpt lat="45.8932483" lon="8.7261733"><ele>348.0</ele><time>2026-04-12T07:39:56.806Z</time></trkpt><trkpt lat="45.8932633" lon="8.7262683"><ele>349.1666666666667</ele><time>2026-04-12T07:39:58.806Z</time></trkpt><trkpt lat="45.8932733" lon="8.7263617"><ele>350.3333333333333</ele><time>2026-04-12T07:40:00.805Z</time></trkpt><trkpt lat="45.8932633" lon="8.726485"><ele>351.5</ele><time>2026-04-12T07:40:03.806Z</time></trkpt><trkpt lat="45.8932617" lon="8.7265767"><ele>352.66666666666663</ele><time>2026-04-12T07:40:05.806Z</time></trkpt><trkpt lat="45.8932635" lon="8.7266969"><ele>353.8333333333333</ele><time>2026-04-12T07:40:08.847Z</time></trkpt><trkpt lat="45.8932433" lon="8.726823"><ele>355.0</ele><time>2026-04-12T07:40:10.841Z</time></trkpt><trkpt lat="45.8932531" lon="8.7269399"><ele>356.16666666666663</ele><time>2026-04-12T07:40:12.834Z</time></trkpt><trkpt lat="45.8932802" lon="8.7270527"><ele>357.3333333333333</ele><time>2026-04-12T07:40:14.828Z</time></trkpt><trkpt lat="45.8933006" lon="8.7271637"><ele>358.5</ele><time>2026-04-12T07:40:16.882Z</time></trkpt><trkpt lat="45.8932333" lon="8.7272417"><ele>359.6666666666667</ele><time>2026-04-12T07:40:17.806Z</time></trkpt><trkpt lat="45.8932367" lon="8.7273583"><ele>360.83333333333337</ele><time>2026-04-12T07:40:27.806Z</time></trkpt><trkpt lat="45.8932933" lon="8.7274233"><ele>362.0</ele><time>2026-04-12T07:40:32.806Z</time></trkpt><trkpt lat="45.8933683" lon="8.72747"><ele>362.0</ele><time>2026-04-12T07:40:36.806Z</time></trkpt><trkpt lat="45.8934183" lon="8.7275317"><ele>362.0</ele><time>2026-04-12T07:40:39.806Z</time></trkpt><trkpt lat="45.89347" lon="8.7275967"><ele>362.0</ele><time>2026-04-12T07:40:41.806Z</time></trkpt><trkpt lat="45.8935283" lon="8.7276733"><ele>362.0</ele><time>2026-04-12T07:40:45.806Z</time></trkpt><trkpt lat="45.8935667" lon="8.72775"><ele>362.0</ele><time>2026-04-12T07:40:49.806Z</time></trkpt><trkpt lat="45.8936117" lon="8.7278717"><ele>362.0</ele><time>2026-04-12T07:40:51.806Z</time></trkpt><trkpt lat="45.8936417" lon="8.7279767"><ele>357.20000000000005</ele><time>2026-04-12T07:40:52.806Z</time></trkpt><trkpt lat="45.8936717" lon="8.7280883"><ele>352.4</ele><time>2026-04-12T07:40:53.806Z</time></trkpt><trkpt lat="45.8937233" lon="8.7282317"><ele>347.6</ele><time>2026-04-12T07:40:54.805Z</time></trkpt><trkpt lat="45.89376" lon="8.72836"><ele>342.79999999999995</ele><time>2026-04-12T07:40:55.806Z</time></trkpt><trkpt lat="45.8938" lon="8.728505"><ele>338.0</ele><time>2026-04-12T07:40:56.806Z</time></trkpt><trkpt lat="45.8938367" lon="8.7286533"><ele>338.0</ele><time>2026-04-12T07:40:57.806Z</time></trkpt><trkpt lat="45.8938817" lon="8.728795"><ele>338.0</ele><time>2026-04-12T07:40:58.806Z</time></trkpt><trkpt lat="45.893925" lon="8.728935"><ele>338.0</ele><time>2026-04-12T07:40:59.806Z</time></trkpt><trkpt lat="45.8939433" lon="8.7290583"><ele>338.0</ele><time>2026-04-12T07:41:00.806Z</time></trkpt><trkpt lat="45.8939567" lon="8.72917"><ele>338.0</ele><time>2026-04-12T07:41:01.806Z</time></trkpt><trkpt lat="45.8939717" lon="8.7292733"><ele>338.0</ele><time>2026-04-12T07:41:02.806Z</time></trkpt><trkpt lat="45.8939717" lon="8.729365"><ele>338.0</ele><time>2026-04-12T07:41:03.806Z</time></trkpt><trkpt lat="45.8939767" lon="8.7294567"><ele>338.0</ele><time>2026-04-12T07:41:04.806Z</time></trkpt><trkpt lat="45.8939967" lon="8.7296333"><ele>338.0</ele><time>2026-04-12T07:41:06.806Z</time></trkpt><trkpt lat="45.894005" lon="8.7298183"><ele>338.0</ele><time>2026-04-12T07:41:08.806Z</time></trkpt><trkpt lat="45.8940017" lon="8.7299117"><ele>338.0</ele><time>2026-04-12T07:41:09.806Z</time></trkpt><trkpt lat="45.8940067" lon="8.7300733"><ele>337.5</ele><time>2026-04-12T07:41:11.806Z</time></trkpt><trkpt lat="45.8940133" lon="8.7302383"><ele>337.0</ele><time>2026-04-12T07:41:13.806Z</time></trkpt><trkpt lat="45.89405" lon="8.7304033"><ele>336.5</ele><time>2026-04-12T07:41:15.805Z</time></trkpt><trkpt lat="45.894105" lon="8.7305567"><ele>336.0</ele><time>2026-04-12T07:41:17.806Z</time></trkpt><trkpt lat="45.8941767" lon="8.7306733"><ele>336.0</ele><time>2026-04-12T07:41:19.805Z</time></trkpt><trkpt lat="45.8942433" lon="8.7307933"><ele>336.0</ele><time>2026-04-12T07:41:21.805Z</time></trkpt><trkpt lat="45.8942933" lon="8.730945"><ele>336.0</ele><time>2026-04-12T07:41:23.806Z</time></trkpt><trkpt lat="45.894315" lon="8.7310383"><ele>336.0</ele><time>2026-04-12T07:41:24.806Z</time></trkpt><trkpt lat="45.894335" lon="8.7311433"><ele>336.0</ele><time>2026-04-12T07:41:25.805Z</time></trkpt><trkpt lat="45.8943567" lon="8.7312483"><ele>336.0</ele><time>2026-04-12T07:41:26.806Z</time></trkpt><trkpt lat="45.8943817" lon="8.731345"><ele>329.8</ele><time>2026-04-12T07:41:27.806Z</time></trkpt><trkpt lat="45.8943933" lon="8.73146"><ele>323.6</ele><time>2026-04-12T07:41:28.805Z</time></trkpt><trkpt lat="45.8944117" lon="8.7315733"><ele>317.4</ele><time>2026-04-12T07:41:29.806Z</time></trkpt><trkpt lat="45.8944367" lon="8.7316967"><ele>311.2</ele><time>2026-04-12T07:41:30.806Z</time></trkpt><trkpt lat="45.894465" lon="8.7318417"><ele>305.0</ele><time>2026-04-12T07:41:31.806Z</time></trkpt><trkpt lat="45.894505" lon="8.7319983"><ele>305.0</ele><time>2026-04-12T07:41:32.805Z</time></trkpt><trkpt lat="45.894545" lon="8.732155"><ele>305.0</ele><time>2026-04-12T07:41:33.806Z</time></trkpt><trkpt lat="45.89458" lon="8.7323033"><ele>305.0</ele><time>2026-04-12T07:41:34.805Z</time></trkpt><trkpt lat="45.8946083" lon="8.73244"><ele>305.0</ele><time>2026-04-12T07:41:35.806Z</time></trkpt><trkpt lat="45.8946267" lon="8.7325583"><ele>305.0</ele><time>2026-04-12T07:41:36.806Z</time></trkpt><trkpt lat="45.89463" lon="8.7326517"><ele>305.5</ele><time>2026-04-12T07:41:37.806Z</time></trkpt><trkpt lat="45.8946217" lon="8.73275"><ele>306.0</ele><time>2026-04-12T07:41:38.806Z</time></trkpt><trkpt lat="45.8946133" lon="8.73285"><ele>306.5</ele><time>2026-04-12T07:41:39.806Z</time></trkpt><trkpt lat="45.8946517" lon="8.733005"><ele>307.0</ele><time>2026-04-12T07:41:41.806Z</time></trkpt><trkpt lat="45.89466" lon="8.73311"><ele>307.5</ele><time>2026-04-12T07:41:43.806Z</time></trkpt><trkpt lat="45.8945533" lon="8.7331917"><ele>308.0</ele><time>2026-04-12T07:41:45.806Z</time></trkpt><trkpt lat="45.8944583" lon="8.7332433"><ele>308.0</ele><time>2026-04-12T07:41:46.806Z</time></trkpt><trkpt lat="45.894365" lon="8.7332917"><ele>308.0</ele><time>2026-04-12T07:41:47.806Z</time></trkpt><trkpt lat="45.894285" lon="8.7333333"><ele>308.0</ele><time>2026-04-12T07:41:48.806Z</time></trkpt><trkpt lat="45.8942283" lon="8.733375"><ele>308.0</ele><time>2026-04-12T07:41:49.806Z</time></trkpt><trkpt lat="45.894185" lon="8.7334417"><ele>308.0</ele><time>2026-04-12T07:41:50.806Z</time></trkpt><trkpt lat="45.89418" lon="8.7335333"><ele>308.0</ele><time>2026-04-12T07:41:51.805Z</time></trkpt><trkpt lat="45.8941833" lon="8.7336417"><ele>309.1666666666667</ele><time>2026-04-12T07:41:52.806Z</time></trkpt><trkpt lat="45.8941967" lon="8.7337583"><ele>310.33333333333337</ele><time>2026-04-12T07:41:53.805Z</time></trkpt><trkpt lat="45.8941967" lon="8.733875"><ele>311.5</ele><time>2026-04-12T07:41:54.806Z</time></trkpt><trkpt lat="45.8942067" lon="8.7339983"><ele>312.6666666666667</ele><time>2026-04-12T07:41:55.806Z</time></trkpt><trkpt lat="45.8942083" lon="8.73412"><ele>313.8333333333333</ele><time>2026-04-12T07:41:56.805Z</time></trkpt><trkpt lat="45.8942133" lon="8.7342433"><ele>315.0</ele><time>2026-04-12T07:41:57.806Z</time></trkpt><trkpt lat="45.894215" lon="8.7343733"><ele>317.0</ele><time>2026-04-12T07:41:58.806Z</time></trkpt><trkpt lat="45.8942167" lon="8.7345083"><ele>319.0</ele><time>2026-04-12T07:41:59.806Z</time></trkpt><trkpt lat="45.8942167" lon="8.7346467"><ele>321.0</ele><time>2026-04-12T07:42:00.806Z</time></trkpt><trkpt lat="45.89422" lon="8.73479"><ele>323.0</ele><time>2026-04-12T07:42:01.806Z</time></trkpt><trkpt lat="45.8942283" lon="8.7349317"><ele>325.0</ele><time>2026-04-12T07:42:02.806Z</time></trkpt><trkpt lat="45.8942383" lon="8.7350633"><ele>325.0</ele><time>2026-04-12T07:42:03.806Z</time></trkpt><trkpt lat="45.89425" lon="8.73517"><ele>325.0</ele><time>2026-04-12T07:42:04.806Z</time></trkpt><trkpt lat="45.8942567" lon="8.7352633"><ele>325.0</ele><time>2026-04-12T07:42:05.806Z</time></trkpt><trkpt lat="45.894225" lon="8.7354067"><ele>325.0</ele><time>2026-04-12T07:42:07.806Z</time></trkpt><trkpt lat="45.8942433" lon="8.7355867"><ele>325.0</ele><time>2026-04-12T07:42:09.805Z</time></trkpt><trkpt lat="45.894265" lon="8.735695"><ele>323.2</ele><time>2026-04-12T07:42:10.805Z</time></trkpt><trkpt lat="45.894295" lon="8.7358283"><ele>321.4</ele><time>2026-04-12T07:42:11.806Z</time></trkpt><trkpt lat="45.894325" lon="8.7359867"><ele>319.6</ele><time>2026-04-12T07:42:12.806Z</time></trkpt><trkpt lat="45.8943567" lon="8.73615"><ele>317.8</ele><time>2026-04-12T07:42:13.806Z</time></trkpt><trkpt lat="45.8943817" lon="8.7362983"><ele>316.0</ele><time>2026-04-12T07:42:14.806Z</time></trkpt><trkpt lat="45.8944033" lon="8.7364283"><ele>316.0</ele><time>2026-04-12T07:42:15.806Z</time></trkpt><trkpt lat="45.8944283" lon="8.7365333"><ele>316.0</ele><time>2026-04-12T07:42:16.806Z</time></trkpt><trkpt lat="45.8944617" lon="8.7366583"><ele>316.0</ele><time>2026-04-12T07:42:18.806Z</time></trkpt><trkpt lat="45.8943567" lon="8.736595"><ele>316.0</ele><time>2026-04-12T07:42:22.806Z</time></trkpt><trkpt lat="45.8942633" lon="8.736475"><ele>316.0</ele><time>2026-04-12T07:42:24.806Z</time></trkpt><trkpt lat="45.894175" lon="8.7363567"><ele>320.8</ele><time>2026-04-12T07:42:26.806Z</time></trkpt><trkpt lat="45.8940883" lon="8.7362567"><ele>325.6</ele><time>2026-04-12T07:42:28.806Z</time></trkpt><trkpt lat="45.894015" lon="8.7361583"><ele>330.4</ele><time>2026-04-12T07:42:30.806Z</time></trkpt><trkpt lat="45.8939567" lon="8.73602"><ele>335.2</ele><time>2026-04-12T07:42:32.806Z</time></trkpt><trkpt lat="45.8939483" lon="8.7358833"><ele>340.0</ele><time>2026-04-12T07:42:34.806Z</time></trkpt><trkpt lat="45.893915" lon="8.7357267"><ele>340.0</ele><time>2026-04-12T07:42:36.806Z</time></trkpt><trkpt lat="45.89389" lon="8.7356317"><ele>340.0</ele><time>2026-04-12T07:42:37.806Z</time></trkpt><trkpt lat="45.893845" lon="8.7355417"><ele>340.0</ele><time>2026-04-12T07:42:38.805Z</time></trkpt><trkpt lat="45.8938033" lon="8.7354533"><ele>340.0</ele><time>2026-04-12T07:42:39.806Z</time></trkpt><trkpt lat="45.8937367" lon="8.735375"><ele>340.0</ele><time>2026-04-12T07:42:41.806Z</time></trkpt><trkpt lat="45.8936633" lon="8.735385"><ele>340.0</ele><time>2026-04-12T07:42:43.806Z</time></trkpt><trkpt lat="45.8936367" lon="8.7354867"><ele>340.0</ele><time>2026-04-12T07:42:45.806Z</time></trkpt><trkpt lat="45.8936633" lon="8.7355917"><ele>340.0</ele><time>2026-04-12T07:42:48.806Z</time></trkpt><trkpt lat="45.8937083" lon="8.73569"><ele>340.0</ele><time>2026-04-12T07:42:54.806Z</time></trkpt><trkpt lat="45.8937383" lon="8.73578"><ele>340.0</ele><time>2026-04-12T07:42:55.806Z</time></trkpt><trkpt lat="45.8937283" lon="8.735945"><ele>340.0</ele><time>2026-04-12T07:42:57.806Z</time></trkpt><trkpt lat="45.89374" lon="8.7360717"><ele>340.0</ele><time>2026-04-12T07:42:59.806Z</time></trkpt><trkpt lat="45.89366" lon="8.7360933"><ele>340.0</ele><time>2026-04-12T07:43:02.806Z</time></trkpt><trkpt lat="45.89357" lon="8.7360033"><ele>340.0</ele><time>2026-04-12T07:43:04.805Z</time></trkpt><trkpt lat="45.8934833" lon="8.7358967"><ele>340.0</ele><time>2026-04-12T07:43:06.806Z</time></trkpt><trkpt lat="45.8934083" lon="8.7357983"><ele>340.0</ele><time>2026-04-12T07:43:08.806Z</time></trkpt><trkpt lat="45.8933517" lon="8.7357383"><ele>340.0</ele><time>2026-04-12T07:43:10.806Z</time></trkpt><trkpt lat="45.89328" lon="8.7356983"><ele>344.3333333333333</ele><time>2026-04-12T07:43:13.806Z</time></trkpt><trkpt lat="45.893225" lon="8.7356467"><ele>348.66666666666663</ele><time>2026-04-12T07:43:18.806Z</time></trkpt><trkpt lat="45.8931733" lon="8.73551"><ele>353.0</ele><time>2026-04-12T07:43:20.806Z</time></trkpt><trkpt lat="45.8931317" lon="8.7353883"><ele>357.3333333333333</ele><time>2026-04-12T07:43:22.806Z</time></trkpt><trkpt lat="45.8930733" lon="8.7352933"><ele>361.6666666666667</ele><time>2026-04-12T07:43:24.806Z</time></trkpt><trkpt lat="45.893025" lon="8.735235"><ele>366.0</ele><time>2026-04-12T07:43:25.806Z</time></trkpt><trkpt lat="45.8929333" lon="8.73516"><ele>366.0</ele><time>2026-04-12T07:43:27.806Z</time></trkpt><trkpt lat="45.8928467" lon="8.735075"><ele>366.0</ele><time>2026-04-12T07:43:29.806Z</time></trkpt><trkpt lat="45.892765" lon="8.73498"><ele>366.0</ele><time>2026-04-12T07:43:31.806Z</time></trkpt><trkpt lat="45.89266" lon="8.7348717"><ele>366.0</ele><time>2026-04-12T07:43:33.806Z</time></trkpt><trkpt lat="45.8925983" lon="8.7348283"><ele>366.0</ele><time>2026-04-12T07:43:34.805Z</time></trkpt><trkpt lat="45.8925317" lon="8.7347817"><ele>369.2857142857143</ele><time>2026-04-12T07:43:35.806Z</time></trkpt><trkpt lat="45.89246" lon="8.7347367"><ele>372.57142857142856</ele><time>2026-04-12T07:43:36.806Z</time></trkpt><trkpt lat="45.89239" lon="8.734705"><ele>375.8571428571429</ele><time>2026-04-12T07:43:37.805Z</time></trkpt><trkpt lat="45.8923233" lon="8.7346967"><ele>379.1428571428571</ele><time>2026-04-12T07:43:38.806Z</time></trkpt><trkpt lat="45.8922483" lon="8.734715"><ele>382.4285714285714</ele><time>2026-04-12T07:43:39.805Z</time></trkpt><trkpt lat="45.8921767" lon="8.7347533"><ele>385.7142857142857</ele><time>2026-04-12T07:43:40.806Z</time></trkpt><trkpt lat="45.89212" lon="8.7347983"><ele>389.0</ele><time>2026-04-12T07:43:41.806Z</time></trkpt><trkpt lat="45.8920283" lon="8.73491"><ele>389.0</ele><time>2026-04-12T07:43:43.806Z</time></trkpt><trkpt lat="45.8919617" lon="8.73504"><ele>389.0</ele><time>2026-04-12T07:43:45.806Z</time></trkpt><trkpt lat="45.8919017" lon="8.735115"><ele>389.0</ele><time>2026-04-12T07:43:47.806Z</time></trkpt><trkpt lat="45.8918317" lon="8.7351183"><ele>389.0</ele><time>2026-04-12T07:43:49.806Z</time></trkpt><trkpt lat="45.89172" lon="8.735025"><ele>389.0</ele><time>2026-04-12T07:43:51.806Z</time></trkpt><trkpt lat="45.891665" lon="8.7349617"><ele>391.66666666666663</ele><time>2026-04-12T07:43:52.806Z</time></trkpt><trkpt lat="45.89162" lon="8.73489"><ele>394.3333333333333</ele><time>2026-04-12T07:43:53.806Z</time></trkpt><trkpt lat="45.891565" lon="8.7348283"><ele>397.0</ele><time>2026-04-12T07:43:54.806Z</time></trkpt><trkpt lat="45.8915033" lon="8.7347783"><ele>399.66666666666663</ele><time>2026-04-12T07:43:55.805Z</time></trkpt><trkpt lat="45.89144" lon="8.7347283"><ele>402.3333333333333</ele><time>2026-04-12T07:43:56.806Z</time></trkpt><trkpt lat="45.89138" lon="8.7346717"><ele>405.0</ele><time>2026-04-12T07:43:57.806Z</time></trkpt><trkpt lat="45.89129" lon="8.7345983"><ele>405.0</ele><time>2026-04-12T07:43:59.806Z</time></trkpt><trkpt lat="45.8912433" lon="8.7344633"><ele>405.0</ele><time>2026-04-12T07:44:01.805Z</time></trkpt><trkpt lat="45.89122" lon="8.7343767"><ele>405.0</ele><time>2026-04-12T07:44:02.806Z</time></trkpt><trkpt lat="45.8912" lon="8.734285"><ele>405.0</ele><time>2026-04-12T07:44:03.806Z</time></trkpt><trkpt lat="45.8911783" lon="8.73418"><ele>405.0</ele><time>2026-04-12T07:44:04.806Z</time></trkpt><trkpt lat="45.89115" lon="8.7340817"><ele>405.0</ele><time>2026-04-12T07:44:05.805Z</time></trkpt><trkpt lat="45.8911267" lon="8.7339667"><ele>403.1666666666667</ele><time>2026-04-12T07:44:06.806Z</time></trkpt><trkpt lat="45.8911017" lon="8.7338483"><ele>401.33333333333337</ele><time>2026-04-12T07:44:07.806Z</time></trkpt><trkpt lat="45.8910767" lon="8.733725"><ele>399.5</ele><time>2026-04-12T07:44:08.806Z</time></trkpt><trkpt lat="45.89105" lon="8.73361"><ele>397.6666666666667</ele><time>2026-04-12T07:44:09.805Z</time></trkpt><trkpt lat="45.891025" lon="8.73351"><ele>395.83333333333337</ele><time>2026-04-12T07:44:10.806Z</time></trkpt><trkpt lat="45.8909933" lon="8.73343"><ele>394.0</ele><time>2026-04-12T07:44:11.806Z</time></trkpt><trkpt lat="45.8909583" lon="8.7333433"><ele>393.1666666666667</ele><time>2026-04-12T07:44:12.806Z</time></trkpt><trkpt lat="45.8909267" lon="8.7332583"><ele>392.33333333333337</ele><time>2026-04-12T07:44:13.805Z</time></trkpt><trkpt lat="45.8908967" lon="8.73317"><ele>391.5</ele><time>2026-04-12T07:44:14.806Z</time></trkpt><trkpt lat="45.89081" lon="8.7331767"><ele>390.66666666666663</ele><time>2026-04-12T07:44:18.806Z</time></trkpt><trkpt lat="45.8907267" lon="8.73321"><ele>389.8333333333333</ele><time>2026-04-12T07:44:21.806Z</time></trkpt><trkpt lat="45.8906467" lon="8.7332167"><ele>389.0</ele><time>2026-04-12T07:44:24.806Z</time></trkpt><trkpt lat="45.890565" lon="8.733195"><ele>392.49999999999994</ele><time>2026-04-12T07:44:27.806Z</time></trkpt><trkpt lat="45.8904933" lon="8.7331883"><ele>396.0</ele><time>2026-04-12T07:44:29.806Z</time></trkpt><trkpt lat="45.8904167" lon="8.7331917"><ele>399.5</ele><time>2026-04-12T07:44:31.806Z</time></trkpt><trkpt lat="45.8903467" lon="8.73321"><ele>403.0</ele><time>2026-04-12T07:44:33.806Z</time></trkpt><trkpt lat="45.8902817" lon="8.7332533"><ele>406.49999999999994</ele><time>2026-04-12T07:44:35.806Z</time></trkpt><trkpt lat="45.8901867" lon="8.733315"><ele>410.0</ele><time>2026-04-12T07:44:39.806Z</time></trkpt><trkpt lat="45.8901233" lon="8.7333517"><ele>411.66666666666663</ele><time>2026-04-12T07:44:41.806Z</time></trkpt><trkpt lat="45.8900603" lon="8.7333627"><ele>413.3333333333333</ele><time>2026-04-12T07:44:47.908Z</time></trkpt><trkpt lat="45.890005" lon="8.7334283"><ele>415.0</ele><time>2026-04-12T07:44:52.805Z</time></trkpt><trkpt lat="45.8899367" lon="8.7334483"><ele>416.66666666666663</ele><time>2026-04-12T07:44:55.806Z</time></trkpt><trkpt lat="45.88988" lon="8.7334917"><ele>418.3333333333333</ele><time>2026-04-12T07:44:58.806Z</time></trkpt><trkpt lat="45.889825" lon="8.7336083"><ele>420.0</ele><time>2026-04-12T07:45:01.806Z</time></trkpt><trkpt lat="45.8897883" lon="8.7337767"><ele>422.3333333333333</ele><time>2026-04-12T07:45:03.805Z</time></trkpt><trkpt lat="45.8897767" lon="8.7339067"><ele>424.66666666666663</ele><time>2026-04-12T07:45:05.806Z</time></trkpt><trkpt lat="45.8897567" lon="8.7339983"><ele>427.0</ele><time>2026-04-12T07:45:08.806Z</time></trkpt><trkpt lat="45.8897383" lon="8.7341417"><ele>429.3333333333333</ele><time>2026-04-12T07:46:26.806Z</time></trkpt><trkpt lat="45.8897833" lon="8.734235"><ele>431.66666666666663</ele><time>2026-04-12T07:49:34.806Z</time></trkpt><trkpt lat="45.8898133" lon="8.7343183"><ele>434.0</ele><time>2026-04-12T07:49:36.806Z</time></trkpt><trkpt lat="45.8898283" lon="8.7344067"><ele>435.14285714285717</ele><time>2026-04-12T07:49:38.806Z</time></trkpt><trkpt lat="45.8898083" lon="8.7344983"><ele>436.2857142857143</ele><time>2026-04-12T07:49:40.806Z</time></trkpt><trkpt lat="45.8898" lon="8.734595"><ele>437.42857142857144</ele><time>2026-04-12T07:49:45.806Z</time></trkpt><trkpt lat="45.8897483" lon="8.7346683"><ele>438.57142857142856</ele><time>2026-04-12T07:49:51.806Z</time></trkpt><trkpt lat="45.8897367" lon="8.7347583"><ele>439.7142857142857</ele><time>2026-04-12T07:49:57.806Z</time></trkpt><trkpt lat="45.88974" lon="8.73485"><ele>440.8571428571429</ele><time>2026-04-12T07:49:59.806Z</time></trkpt><trkpt lat="45.8897283" lon="8.73495"><ele>442.0</ele><time>2026-04-12T07:50:04.806Z</time></trkpt><trkpt lat="45.889685" lon="8.7350267"><ele>442.00000000000006</ele><time>2026-04-12T07:50:08.806Z</time></trkpt><trkpt lat="45.8896283" lon="8.7350833"><ele>442.0</ele><time>2026-04-12T07:50:12.806Z</time></trkpt><trkpt lat="45.8895783" lon="8.73515"><ele>442.0</ele><time>2026-04-12T07:50:16.806Z</time></trkpt><trkpt lat="45.8895367" lon="8.73523"><ele>442.0</ele><time>2026-04-12T07:50:21.806Z</time></trkpt><trkpt lat="45.8894967" lon="8.7353183"><ele>442.0</ele><time>2026-04-12T07:50:25.806Z</time></trkpt><trkpt lat="45.8894996" lon="8.7354088"><ele>442.00000000000006</ele><time>2026-04-12T07:50:31.855Z</time></trkpt><trkpt lat="45.8894583" lon="8.7355072"><ele>442.0</ele><time>2026-04-12T07:50:40.879Z</time></trkpt><trkpt lat="45.8894165" lon="8.7355945"><ele>443.6666666666667</ele><time>2026-04-12T07:50:43.816Z</time></trkpt><trkpt lat="45.8893737" lon="8.7356665"><ele>445.33333333333337</ele><time>2026-04-12T07:50:45.81Z</time></trkpt><trkpt lat="45.8893453" lon="8.7357491"><ele>447.0</ele><time>2026-04-12T07:50:47.806Z</time></trkpt><trkpt lat="45.8893052" lon="8.7358342"><ele>448.66666666666663</ele><time>2026-04-12T07:50:51.679Z</time></trkpt><trkpt lat="45.8892997" lon="8.7359293"><ele>450.3333333333333</ele><time>2026-04-12T07:50:57.877Z</time></trkpt><trkpt lat="45.88921" lon="8.7360517"><ele>452.0</ele><time>2026-04-12T07:51:36.806Z</time></trkpt><trkpt lat="45.88916" lon="8.7361067"><ele>457.16666666666663</ele><time>2026-04-12T07:52:17.806Z</time></trkpt><trkpt lat="45.8891467" lon="8.7362033"><ele>462.3333333333333</ele><time>2026-04-12T07:52:22.806Z</time></trkpt><trkpt lat="45.8890933" lon="8.73626"><ele>467.5</ele><time>2026-04-12T07:52:29.806Z</time></trkpt><trkpt lat="45.8890683" lon="8.7363633"><ele>472.66666666666663</ele><time>2026-04-12T07:53:12.806Z</time></trkpt><trkpt lat="45.8891167" lon="8.7364417"><ele>477.8333333333333</ele><time>2026-04-12T07:53:19.806Z</time></trkpt><trkpt lat="45.889165" lon="8.736535"><ele>483.0</ele><time>2026-04-12T07:53:24.806Z</time></trkpt><trkpt lat="45.8891867" lon="8.73666"><ele>483.0</ele><time>2026-04-12T07:53:27.806Z</time></trkpt><trkpt lat="45.8892083" lon="8.7367617"><ele>483.0</ele><time>2026-04-12T07:53:30.806Z</time></trkpt><trkpt lat="45.8892083" lon="8.7368733"><ele>483.0</ele><time>2026-04-12T07:53:35.805Z</time></trkpt><trkpt lat="45.889185" lon="8.73696"><ele>483.0</ele><time>2026-04-12T07:54:01.806Z</time></trkpt><trkpt lat="45.8891317" lon="8.7370217"><ele>483.0</ele><time>2026-04-12T07:54:07.806Z</time></trkpt><trkpt lat="45.889065" lon="8.73706"><ele>483.0</ele><time>2026-04-12T07:54:12.806Z</time></trkpt><trkpt lat="45.8889683" lon="8.7371783"><ele>485.5</ele><time>2026-04-12T07:55:09.806Z</time></trkpt><trkpt lat="45.8889333" lon="8.737255"><ele>488.0</ele><time>2026-04-12T07:55:12.806Z</time></trkpt><trkpt lat="45.8888733" lon="8.737335"><ele>490.5</ele><time>2026-04-12T07:55:16.806Z</time></trkpt><trkpt lat="45.8888217" lon="8.73743"><ele>493.0</ele><time>2026-04-12T07:55:20.806Z</time></trkpt><trkpt lat="45.8887683" lon="8.737525"><ele>495.5</ele><time>2026-04-12T07:55:23.806Z</time></trkpt><trkpt lat="45.8887367" lon="8.7376333"><ele>498.0</ele><time>2026-04-12T07:55:25.806Z</time></trkpt><trkpt lat="45.888725" lon="8.7377467"><ele>500.6666666666667</ele><time>2026-04-12T07:55:27.806Z</time></trkpt><trkpt lat="45.888705" lon="8.73787"><ele>503.33333333333337</ele><time>2026-04-12T07:55:30.806Z</time></trkpt><trkpt lat="45.888685" lon="8.7379617"><ele>506.0</ele><time>2026-04-12T07:55:32.806Z</time></trkpt><trkpt lat="45.8886583" lon="8.7380583"><ele>508.6666666666667</ele><time>2026-04-12T07:55:34.806Z</time></trkpt><trkpt lat="45.8886333" lon="8.7381783"><ele>511.33333333333337</ele><time>2026-04-12T07:55:37.806Z</time></trkpt><trkpt lat="45.88863" lon="8.7382883"><ele>514.0</ele><time>2026-04-12T07:55:40.806Z</time></trkpt><trkpt lat="45.88867" lon="8.738375"><ele>514.0</ele><time>2026-04-12T07:55:43.806Z</time></trkpt><trkpt lat="45.8887167" lon="8.738445"><ele>514.0</ele><time>2026-04-12T07:55:45.806Z</time></trkpt><trkpt lat="45.88874" lon="8.7385367"><ele>514.0</ele><time>2026-04-12T07:55:50.806Z</time></trkpt><trkpt lat="45.8887333" lon="8.73863"><ele>514.0</ele><time>2026-04-12T07:57:09.805Z</time></trkpt><trkpt lat="45.8887033" lon="8.7387517"><ele>514.0</ele><time>2026-04-12T07:57:10.806Z</time></trkpt><trkpt lat="45.8887894" lon="8.7387337"><ele>514.0</ele><time>2026-04-12T07:59:04.845Z</time></trkpt><trkpt lat="45.8888352" lon="8.7388017"><ele>514.0</ele><time>2026-04-12T07:59:06.838Z</time></trkpt><trkpt lat="45.8888598" lon="8.7388992"><ele>516.5</ele><time>2026-04-12T07:59:08.832Z</time></trkpt><trkpt lat="45.8888878" lon="8.7390286"><ele>519.0</ele><time>2026-04-12T07:59:11.81Z</time></trkpt><trkpt lat="45.8889806" lon="8.739125"><ele>521.5</ele><time>2026-04-12T07:59:14.813Z</time></trkpt><trkpt lat="45.8890431" lon="8.7391761"><ele>524.0</ele><time>2026-04-12T07:59:16.806Z</time></trkpt><trkpt lat="45.8891035" lon="8.7392074"><ele>526.5</ele><time>2026-04-12T07:59:19.849Z</time></trkpt><trkpt lat="45.88917" lon="8.7392033"><ele>529.0</ele><time>2026-04-12T07:59:27.806Z</time></trkpt><trkpt lat="45.8892317" lon="8.739325"><ele>530.1428571428571</ele><time>2026-04-12T07:59:45.806Z</time></trkpt><trkpt lat="45.8892417" lon="8.7394233"><ele>531.2857142857142</ele><time>2026-04-12T07:59:49.806Z</time></trkpt><trkpt lat="45.8892533" lon="8.739535"><ele>532.4285714285713</ele><time>2026-04-12T07:59:53.806Z</time></trkpt><trkpt lat="45.8892733" lon="8.7396233"><ele>533.5714285714286</ele><time>2026-04-12T08:00:03.806Z</time></trkpt><trkpt lat="45.8893367" lon="8.7396067"><ele>534.7142857142857</ele><time>2026-04-12T08:00:58.806Z</time></trkpt><trkpt lat="45.889415" lon="8.7396067"><ele>535.8571428571428</ele><time>2026-04-12T08:01:35.806Z</time></trkpt><trkpt lat="45.889455" lon="8.7396917"><ele>537.0</ele><time>2026-04-12T08:01:39.805Z</time></trkpt><trkpt lat="45.8894567" lon="8.7397933"><ele>537.0</ele><time>2026-04-12T08:01:44.806Z</time></trkpt><trkpt lat="45.8894767" lon="8.739885"><ele>537.0</ele><time>2026-04-12T08:01:57.807Z</time></trkpt><trkpt lat="45.889555" lon="8.7398417"><ele>537.0</ele><time>2026-04-12T08:03:54.807Z</time></trkpt><trkpt lat="45.8896433" lon="8.7397633"><ele>537.0</ele><time>2026-04-12T08:04:37.807Z</time></trkpt><trkpt lat="45.8896967" lon="8.7398133"><ele>537.0</ele><time>2026-04-12T08:04:45.807Z</time></trkpt><trkpt lat="45.8897817" lon="8.7398617"><ele>537.0</ele><time>2026-04-12T08:04:48.807Z</time></trkpt><trkpt lat="45.88985" lon="8.7398917"><ele>537.0</ele><time>2026-04-12T08:04:50.807Z</time></trkpt><trkpt lat="45.889945" lon="8.7399117"><ele>537.0</ele><time>2026-04-12T08:04:53.807Z</time></trkpt><trkpt lat="45.8900233" lon="8.739945"><ele>537.0</ele><time>2026-04-12T08:04:55.807Z</time></trkpt><trkpt lat="45.8901017" lon="8.7400067"><ele>537.0</ele><time>2026-04-12T08:04:57.807Z</time></trkpt><trkpt lat="45.8901783" lon="8.74008"><ele>537.0</ele><time>2026-04-12T08:04:59.807Z</time></trkpt><trkpt lat="45.890285" lon="8.7401733"><ele>534.4</ele><time>2026-04-12T08:05:01.807Z</time></trkpt><trkpt lat="45.8903867" lon="8.7402833"><ele>531.8000000000001</ele><time>2026-04-12T08:05:03.807Z</time></trkpt><trkpt lat="45.8904383" lon="8.7403417"><ele>529.2</ele><time>2026-04-12T08:05:04.807Z</time></trkpt><trkpt lat="45.890555" lon="8.7404533"><ele>526.6</ele><time>2026-04-12T08:05:06.806Z</time></trkpt><trkpt lat="45.8906133" lon="8.7405267"><ele>524.0</ele><time>2026-04-12T08:05:07.807Z</time></trkpt><trkpt lat="45.8906617" lon="8.740595"><ele>524.0</ele><time>2026-04-12T08:05:08.807Z</time></trkpt><trkpt lat="45.8907317" lon="8.7407217"><ele>524.0</ele><time>2026-04-12T08:05:10.807Z</time></trkpt><trkpt lat="45.890795" lon="8.7408367"><ele>524.0</ele><time>2026-04-12T08:05:12.807Z</time></trkpt><trkpt lat="45.8908383" lon="8.74098"><ele>524.0</ele><time>2026-04-12T08:05:14.807Z</time></trkpt><trkpt lat="45.89086" lon="8.7410683"><ele>524.0</ele><time>2026-04-12T08:05:15.807Z</time></trkpt><trkpt lat="45.8908833" lon="8.7411533"><ele>520.25</ele><time>2026-04-12T08:05:16.807Z</time></trkpt><trkpt lat="45.8909483" lon="8.7412933"><ele>516.5</ele><time>2026-04-12T08:05:18.807Z</time></trkpt><trkpt lat="45.8910067" lon="8.7414217"><ele>512.75</ele><time>2026-04-12T08:05:20.807Z</time></trkpt><trkpt lat="45.89105" lon="8.7415717"><ele>509.0</ele><time>2026-04-12T08:05:22.807Z</time></trkpt><trkpt lat="45.891075" lon="8.7417517"><ele>508.99999999999994</ele><time>2026-04-12T08:05:24.806Z</time></trkpt><trkpt lat="45.8911067" lon="8.7418583"><ele>509.0</ele><time>2026-04-12T08:05:25.806Z</time></trkpt><trkpt lat="45.8911367" lon="8.741955"><ele>509.0</ele><time>2026-04-12T08:05:26.807Z</time></trkpt><trkpt lat="45.89116" lon="8.74204"><ele>509.0</ele><time>2026-04-12T08:05:27.807Z</time></trkpt><trkpt lat="45.8911833" lon="8.7422033"><ele>508.99999999999994</ele><time>2026-04-12T08:05:29.807Z</time></trkpt><trkpt lat="45.89119" lon="8.742335"><ele>509.0</ele><time>2026-04-12T08:05:31.807Z</time></trkpt><trkpt lat="45.8912067" lon="8.7424267"><ele>511.16666666666663</ele><time>2026-04-12T08:05:33.807Z</time></trkpt><trkpt lat="45.89123" lon="8.7425117"><ele>513.3333333333333</ele><time>2026-04-12T08:05:35.807Z</time></trkpt><trkpt lat="45.8912433" lon="8.742605"><ele>515.5</ele><time>2026-04-12T08:05:38.806Z</time></trkpt><trkpt lat="45.8912433" lon="8.7427067"><ele>517.6666666666666</ele><time>2026-04-12T08:05:40.807Z</time></trkpt><trkpt lat="45.891235" lon="8.7428333"><ele>519.8333333333334</ele><time>2026-04-12T08:05:42.806Z</time></trkpt><trkpt lat="45.8912583" lon="8.7429533"><ele>522.0</ele><time>2026-04-12T08:05:44.807Z</time></trkpt><trkpt lat="45.8912983" lon="8.7430733"><ele>525.0</ele><time>2026-04-12T08:05:46.807Z</time></trkpt><trkpt lat="45.8913317" lon="8.74318"><ele>528.0</ele><time>2026-04-12T08:05:48.807Z</time></trkpt><trkpt lat="45.8913503" lon="8.7432901"><ele>531.0</ele><time>2026-04-12T08:05:50.807Z</time></trkpt><trkpt lat="45.891425" lon="8.74338"><ele>534.0</ele><time>2026-04-12T08:05:53.806Z</time></trkpt><trkpt lat="45.8914767" lon="8.7434383"><ele>537.0</ele><time>2026-04-12T08:05:55.807Z</time></trkpt><trkpt lat="45.89152" lon="8.7435267"><ele>540.0</ele><time>2026-04-12T08:06:00.807Z</time></trkpt><trkpt lat="45.8915733" lon="8.7436083"><ele>541.5</ele><time>2026-04-12T08:06:05.806Z</time></trkpt><trkpt lat="45.8916283" lon="8.74369"><ele>543.0</ele><time>2026-04-12T08:06:08.807Z</time></trkpt><trkpt lat="45.89168" lon="8.743795"><ele>544.5</ele><time>2026-04-12T08:06:11.807Z</time></trkpt><trkpt lat="45.8917317" lon="8.7438767"><ele>546.0</ele><time>2026-04-12T08:06:13.807Z</time></trkpt><trkpt lat="45.8917783" lon="8.743955"><ele>547.5</ele><time>2026-04-12T08:06:15.806Z</time></trkpt><trkpt lat="45.8918067" lon="8.74404"><ele>549.0</ele><time>2026-04-12T08:06:17.807Z</time></trkpt><trkpt lat="45.89183" lon="8.7441317"><ele>549.0</ele><time>2026-04-12T08:06:19.807Z</time></trkpt><trkpt lat="45.8918417" lon="8.74424"><ele>549.0</ele><time>2026-04-12T08:06:21.807Z</time></trkpt><trkpt lat="45.8918467" lon="8.7443467"><ele>549.0</ele><time>2026-04-12T08:06:23.807Z</time></trkpt><trkpt lat="45.8918667" lon="8.7444933"><ele>549.0</ele><time>2026-04-12T08:06:25.807Z</time></trkpt><trkpt lat="45.8918967" lon="8.7446017"><ele>549.0</ele><time>2026-04-12T08:06:27.807Z</time></trkpt><trkpt lat="45.8918767" lon="8.74472"><ele>549.0</ele><time>2026-04-12T08:06:30.807Z</time></trkpt><trkpt lat="45.891855" lon="8.7448067"><ele>551.3333333333334</ele><time>2026-04-12T08:06:32.807Z</time></trkpt><trkpt lat="45.8918733" lon="8.7449367"><ele>553.6666666666666</ele><time>2026-04-12T08:06:35.807Z</time></trkpt><trkpt lat="45.8918683" lon="8.7450433"><ele>556.0</ele><time>2026-04-12T08:06:43.806Z</time></trkpt><trkpt lat="45.8919133" lon="8.74512"><ele>558.3333333333333</ele><time>2026-04-12T08:06:46.807Z</time></trkpt><trkpt lat="45.8919683" lon="8.7452017"><ele>560.6666666666666</ele><time>2026-04-12T08:06:50.807Z</time></trkpt><trkpt lat="45.8920117" lon="8.74527"><ele>563.0</ele><time>2026-04-12T08:06:53.807Z</time></trkpt><trkpt lat="45.8920783" lon="8.7453167"><ele>564.3333333333333</ele><time>2026-04-12T08:06:56.807Z</time></trkpt><trkpt lat="45.8921417" lon="8.745405"><ele>565.6666666666666</ele><time>2026-04-12T08:06:59.807Z</time></trkpt><trkpt lat="45.8921967" lon="8.7454967"><ele>567.0</ele><time>2026-04-12T08:07:02.807Z</time></trkpt><trkpt lat="45.8922433" lon="8.7456183"><ele>568.3333333333334</ele><time>2026-04-12T08:07:04.807Z</time></trkpt><trkpt lat="45.8922833" lon="8.7457083"><ele>569.6666666666667</ele><time>2026-04-12T08:07:06.807Z</time></trkpt><trkpt lat="45.892335" lon="8.74578"><ele>571.0</ele><time>2026-04-12T08:07:08.807Z</time></trkpt><trkpt lat="45.89239" lon="8.745835"><ele>571.0</ele><time>2026-04-12T08:07:11.807Z</time></trkpt><trkpt lat="45.8924917" lon="8.746"><ele>571.0</ele><time>2026-04-12T08:08:19.807Z</time></trkpt><trkpt lat="45.8925933" lon="8.746045"><ele>571.0</ele><time>2026-04-12T08:09:35.807Z</time></trkpt><trkpt lat="45.8926433" lon="8.7461333"><ele>571.0</ele><time>2026-04-12T08:09:37.807Z</time></trkpt><trkpt lat="45.89272" lon="8.7462583"><ele>570.6666666666667</ele><time>2026-04-12T08:09:40.807Z</time></trkpt><trkpt lat="45.892765" lon="8.7463283"><ele>570.3333333333334</ele><time>2026-04-12T08:09:41.807Z</time></trkpt><trkpt lat="45.8928317" lon="8.7464683"><ele>570.0</ele><time>2026-04-12T08:09:43.806Z</time></trkpt><trkpt lat="45.8928717" lon="8.7465783"><ele>569.6666666666666</ele><time>2026-04-12T08:09:45.807Z</time></trkpt><trkpt lat="45.892905" lon="8.7466767"><ele>569.3333333333333</ele><time>2026-04-12T08:09:47.807Z</time></trkpt><trkpt lat="45.892935" lon="8.7467683"><ele>569.0</ele><time>2026-04-12T08:09:52.807Z</time></trkpt><trkpt lat="45.8930067" lon="8.746855"><ele>571.0</ele><time>2026-04-12T08:09:56.807Z</time></trkpt><trkpt lat="45.8930667" lon="8.746885"><ele>573.0</ele><time>2026-04-12T08:10:00.807Z</time></trkpt><trkpt lat="45.893075" lon="8.7470167"><ele>575.0</ele><time>2026-04-12T08:11:17.807Z</time></trkpt><trkpt lat="45.89308" lon="8.7471217"><ele>577.0</ele><time>2026-04-12T08:11:20.806Z</time></trkpt><trkpt lat="45.8931067" lon="8.747275"><ele>579.0</ele><time>2026-04-12T08:11:23.807Z</time></trkpt><trkpt lat="45.8931317" lon="8.7473667"><ele>581.0</ele><time>2026-04-12T08:11:25.807Z</time></trkpt><trkpt lat="45.893165" lon="8.7474733"><ele>581.0</ele><time>2026-04-12T08:11:28.807Z</time></trkpt><trkpt lat="45.893205" lon="8.7475517"><ele>581.0</ele><time>2026-04-12T08:11:31.807Z</time></trkpt><trkpt lat="45.893235" lon="8.7476417"><ele>581.0</ele><time>2026-04-12T08:11:35.807Z</time></trkpt><trkpt lat="45.893255" lon="8.7477333"><ele>581.0</ele><time>2026-04-12T08:11:38.807Z</time></trkpt><trkpt lat="45.8932617" lon="8.747835"><ele>581.0</ele><time>2026-04-12T08:11:40.807Z</time></trkpt><trkpt lat="45.89327" lon="8.7480233"><ele>581.0</ele><time>2026-04-12T08:11:42.806Z</time></trkpt><trkpt lat="45.8932967" lon="8.7481417"><ele>582.2</ele><time>2026-04-12T08:11:43.807Z</time></trkpt><trkpt lat="45.89333" lon="8.7482567"><ele>583.4000000000001</ele><time>2026-04-12T08:11:44.807Z</time></trkpt><trkpt lat="45.8933883" lon="8.748405"><ele>584.6</ele><time>2026-04-12T08:11:45.807Z</time></trkpt><trkpt lat="45.8934333" lon="8.7485233"><ele>585.8000000000001</ele><time>2026-04-12T08:11:46.807Z</time></trkpt><trkpt lat="45.89348" lon="8.748635"><ele>587.0</ele><time>2026-04-12T08:11:47.807Z</time></trkpt><trkpt lat="45.89352" lon="8.7487333"><ele>587.1666666666666</ele><time>2026-04-12T08:11:48.807Z</time></trkpt><trkpt lat="45.8935567" lon="8.7488183"><ele>587.3333333333333</ele><time>2026-04-12T08:11:49.807Z</time></trkpt><trkpt lat="45.8935933" lon="8.7489083"><ele>587.5</ele><time>2026-04-12T08:11:50.807Z</time></trkpt><trkpt lat="45.8936283" lon="8.748995"><ele>587.6666666666666</ele><time>2026-04-12T08:11:51.807Z</time></trkpt><trkpt lat="45.8936867" lon="8.7491383"><ele>587.8333333333334</ele><time>2026-04-12T08:11:53.807Z</time></trkpt><trkpt lat="45.8937417" lon="8.7492933"><ele>588.0</ele><time>2026-04-12T08:11:55.807Z</time></trkpt><trkpt lat="45.8937967" lon="8.7494433"><ele>588.0</ele><time>2026-04-12T08:11:57.807Z</time></trkpt><trkpt lat="45.8938517" lon="8.749575"><ele>588.0</ele><time>2026-04-12T08:11:59.807Z</time></trkpt><trkpt lat="45.89392" lon="8.749715"><ele>588.0</ele><time>2026-04-12T08:12:01.807Z</time></trkpt><trkpt lat="45.8939633" lon="8.7498033"><ele>588.0</ele><time>2026-04-12T08:12:02.807Z</time></trkpt><trkpt lat="45.89401" lon="8.7498933"><ele>588.0</ele><time>2026-04-12T08:12:03.807Z</time></trkpt><trkpt lat="45.8940433" lon="8.7499817"><ele>588.0</ele><time>2026-04-12T08:12:04.806Z</time></trkpt><trkpt lat="45.8940717" lon="8.7500717"><ele>590.6</ele><time>2026-04-12T08:12:05.807Z</time></trkpt><trkpt lat="45.8941067" lon="8.75021"><ele>593.1999999999999</ele><time>2026-04-12T08:12:07.807Z</time></trkpt><trkpt lat="45.8941183" lon="8.7503667"><ele>595.8</ele><time>2026-04-12T08:12:09.807Z</time></trkpt><trkpt lat="45.8941333" lon="8.7504617"><ele>598.4</ele><time>2026-04-12T08:12:10.806Z</time></trkpt><trkpt lat="45.8941683" lon="8.7506333"><ele>601.0</ele><time>2026-04-12T08:12:12.807Z</time></trkpt><trkpt lat="45.8942217" lon="8.75077"><ele>597.8333333333334</ele><time>2026-04-12T08:12:14.807Z</time></trkpt><trkpt lat="45.89427" lon="8.7508683"><ele>594.6666666666667</ele><time>2026-04-12T08:12:16.807Z</time></trkpt><trkpt lat="45.894315" lon="8.7509733"><ele>591.5</ele><time>2026-04-12T08:12:19.807Z</time></trkpt><trkpt lat="45.89437" lon="8.751045"><ele>588.3333333333334</ele><time>2026-04-12T08:12:21.807Z</time></trkpt><trkpt lat="45.89444" lon="8.75111"><ele>585.1666666666666</ele><time>2026-04-12T08:12:24.806Z</time></trkpt><trkpt lat="45.8944967" lon="8.7511967"><ele>582.0</ele><time>2026-04-12T08:12:27.807Z</time></trkpt><trkpt lat="45.8945267" lon="8.7512967"><ele>582.0</ele><time>2026-04-12T08:12:29.807Z</time></trkpt><trkpt lat="45.894575" lon="8.7514117"><ele>582.0</ele><time>2026-04-12T08:12:31.807Z</time></trkpt><trkpt lat="45.89463" lon="8.7515117"><ele>582.0</ele><time>2026-04-12T08:12:33.806Z</time></trkpt><trkpt lat="45.8946917" lon="8.751615"><ele>582.0</ele><time>2026-04-12T08:12:35.807Z</time></trkpt><trkpt lat="45.8947467" lon="8.751735"><ele>582.0</ele><time>2026-04-12T08:12:37.807Z</time></trkpt><trkpt lat="45.8947967" lon="8.7518467"><ele>582.1666666666666</ele><time>2026-04-12T08:12:39.807Z</time></trkpt><trkpt lat="45.8948383" lon="8.7519367"><ele>582.3333333333334</ele><time>2026-04-12T08:12:41.807Z</time></trkpt><trkpt lat="45.8948667" lon="8.752025"><ele>582.5</ele><time>2026-04-12T08:12:43.807Z</time></trkpt><trkpt lat="45.89488" lon="8.7521367"><ele>582.6666666666667</ele><time>2026-04-12T08:12:46.807Z</time></trkpt><trkpt lat="45.8948833" lon="8.7522367"><ele>582.8333333333334</ele><time>2026-04-12T08:12:49.807Z</time></trkpt><trkpt lat="45.8948533" lon="8.752355"><ele>583.0</ele><time>2026-04-12T08:12:52.807Z</time></trkpt><trkpt lat="45.8948433" lon="8.7525017"><ele>583.0</ele><time>2026-04-12T08:12:54.806Z</time></trkpt><trkpt lat="45.8948367" lon="8.7525933"><ele>583.0</ele><time>2026-04-12T08:12:55.807Z</time></trkpt><trkpt lat="45.89484" lon="8.7527"><ele>583.0</ele><time>2026-04-12T08:12:56.807Z</time></trkpt><trkpt lat="45.894845" lon="8.7528017"><ele>583.0</ele><time>2026-04-12T08:12:57.806Z</time></trkpt><trkpt lat="45.8948383" lon="8.752925"><ele>583.0</ele><time>2026-04-12T08:12:58.807Z</time></trkpt><trkpt lat="45.8948233" lon="8.7530433"><ele>583.0</ele><time>2026-04-12T08:12:59.806Z</time></trkpt><trkpt lat="45.8948017" lon="8.7531533"><ele>583.1999999999999</ele><time>2026-04-12T08:13:00.807Z</time></trkpt><trkpt lat="45.8947767" lon="8.7532517"><ele>583.4</ele><time>2026-04-12T08:13:01.807Z</time></trkpt><trkpt lat="45.89476" lon="8.75342"><ele>583.5999999999999</ele><time>2026-04-12T08:13:03.806Z</time></trkpt><trkpt lat="45.8948" lon="8.7535883"><ele>583.8</ele><time>2026-04-12T08:13:05.807Z</time></trkpt><trkpt lat="45.8948733" lon="8.7537233"><ele>584.0</ele><time>2026-04-12T08:13:07.807Z</time></trkpt><trkpt lat="45.8949517" lon="8.7538517"><ele>584.6</ele><time>2026-04-12T08:13:09.807Z</time></trkpt><trkpt lat="45.8950217" lon="8.7539717"><ele>585.2</ele><time>2026-04-12T08:13:11.807Z</time></trkpt><trkpt lat="45.89508" lon="8.754085"><ele>585.8000000000001</ele><time>2026-04-12T08:13:13.807Z</time></trkpt><trkpt lat="45.895135" lon="8.75419"><ele>586.4</ele><time>2026-04-12T08:13:15.807Z</time></trkpt><trkpt lat="45.895185" lon="8.7543"><ele>587.0</ele><time>2026-04-12T08:13:17.807Z</time></trkpt><trkpt lat="45.895255" lon="8.7544533"><ele>586.0</ele><time>2026-04-12T08:13:19.807Z</time></trkpt><trkpt lat="45.8953267" lon="8.7545967"><ele>585.0</ele><time>2026-04-12T08:13:21.807Z</time></trkpt><trkpt lat="45.8953633" lon="8.7546733"><ele>584.0</ele><time>2026-04-12T08:13:22.807Z</time></trkpt><trkpt lat="45.89541" lon="8.7547583"><ele>583.0</ele><time>2026-04-12T08:13:23.807Z</time></trkpt><trkpt lat="45.8954567" lon="8.75484"><ele>582.0</ele><time>2026-04-12T08:13:24.807Z</time></trkpt><trkpt lat="45.8955033" lon="8.7549117"><ele>581.0</ele><time>2026-04-12T08:13:25.807Z</time></trkpt><trkpt lat="45.8955383" lon="8.7549883"><ele>581.0</ele><time>2026-04-12T08:13:26.807Z</time></trkpt><trkpt lat="45.8955717" lon="8.7550717"><ele>581.0</ele><time>2026-04-12T08:13:27.807Z</time></trkpt><trkpt lat="45.8955967" lon="8.75516"><ele>581.0</ele><time>2026-04-12T08:13:28.807Z</time></trkpt><trkpt lat="45.8956133" lon="8.7552667"><ele>581.0</ele><time>2026-04-12T08:13:29.807Z</time></trkpt><trkpt lat="45.895615" lon="8.755365"><ele>581.0</ele><time>2026-04-12T08:13:30.806Z</time></trkpt><trkpt lat="45.8956233" lon="8.7554633"><ele>581.0</ele><time>2026-04-12T08:13:31.807Z</time></trkpt><trkpt lat="45.8956283" lon="8.7555933"><ele>581.0</ele><time>2026-04-12T08:13:33.807Z</time></trkpt><trkpt lat="45.89566" lon="8.75569"><ele>582.2</ele><time>2026-04-12T08:13:35.806Z</time></trkpt><trkpt lat="45.8957617" lon="8.7558033"><ele>583.4000000000001</ele><time>2026-04-12T08:13:37.807Z</time></trkpt><trkpt lat="45.895815" lon="8.7558667"><ele>584.6</ele><time>2026-04-12T08:13:38.807Z</time></trkpt><trkpt lat="45.8958683" lon="8.7559333"><ele>585.8000000000001</ele><time>2026-04-12T08:13:39.807Z</time></trkpt><trkpt lat="45.895925" lon="8.755995"><ele>587.0</ele><time>2026-04-12T08:13:40.807Z</time></trkpt><trkpt lat="45.8960083" lon="8.7561017"><ele>591.6</ele><time>2026-04-12T08:13:42.807Z</time></trkpt><trkpt lat="45.89608" lon="8.75619"><ele>596.2</ele><time>2026-04-12T08:13:44.807Z</time></trkpt><trkpt lat="45.89611" lon="8.756305"><ele>600.8</ele><time>2026-04-12T08:13:46.807Z</time></trkpt><trkpt lat="45.8960917" lon="8.7564883"><ele>605.4</ele><time>2026-04-12T08:13:48.807Z</time></trkpt><trkpt lat="45.8960667" lon="8.75664"><ele>610.0</ele><time>2026-04-12T08:13:50.807Z</time></trkpt><trkpt lat="45.8960767" lon="8.7567533"><ele>610.6666666666667</ele><time>2026-04-12T08:13:52.807Z</time></trkpt><trkpt lat="45.8961333" lon="8.7568917"><ele>611.3333333333334</ele><time>2026-04-12T08:13:54.807Z</time></trkpt><trkpt lat="45.8961717" lon="8.7569683"><ele>612.0</ele><time>2026-04-12T08:13:55.807Z</time></trkpt><trkpt lat="45.8962183" lon="8.757055"><ele>612.6666666666666</ele><time>2026-04-12T08:13:56.807Z</time></trkpt><trkpt lat="45.896255" lon="8.757135"><ele>613.3333333333333</ele><time>2026-04-12T08:13:57.806Z</time></trkpt><trkpt lat="45.8962933" lon="8.7572267"><ele>614.0</ele><time>2026-04-12T08:13:58.807Z</time></trkpt><trkpt lat="45.89633" lon="8.757335"><ele>614.0</ele><time>2026-04-12T08:13:59.807Z</time></trkpt><trkpt lat="45.896365" lon="8.75745"><ele>614.0</ele><time>2026-04-12T08:14:00.807Z</time></trkpt><trkpt lat="45.8964033" lon="8.7575617"><ele>614.0</ele><time>2026-04-12T08:14:01.807Z</time></trkpt><trkpt lat="45.896455" lon="8.7576717"><ele>614.0</ele><time>2026-04-12T08:14:02.807Z</time></trkpt><trkpt lat="45.8965233" lon="8.75778"><ele>614.0</ele><time>2026-04-12T08:14:03.807Z</time></trkpt><trkpt lat="45.8966167" lon="8.7579067"><ele>613.6</ele><time>2026-04-12T08:14:04.807Z</time></trkpt><trkpt lat="45.896705" lon="8.758055"><ele>613.2</ele><time>2026-04-12T08:14:05.807Z</time></trkpt><trkpt lat="45.8967683" lon="8.7581667"><ele>612.8000000000001</ele><time>2026-04-12T08:14:06.807Z</time></trkpt><trkpt lat="45.8968383" lon="8.758265"><ele>612.4</ele><time>2026-04-12T08:14:07.807Z</time></trkpt><trkpt lat="45.8969083" lon="8.7583583"><ele>612.0</ele><time>2026-04-12T08:14:08.807Z</time></trkpt><trkpt lat="45.8969817" lon="8.7584767"><ele>611.5</ele><time>2026-04-12T08:14:09.807Z</time></trkpt><trkpt lat="45.8970617" lon="8.7586083"><ele>611.0</ele><time>2026-04-12T08:14:10.807Z</time></trkpt><trkpt lat="45.8971367" lon="8.7587517"><ele>610.5</ele><time>2026-04-12T08:14:11.807Z</time></trkpt><trkpt lat="45.8972183" lon="8.75887"><ele>610.0</ele><time>2026-04-12T08:14:12.806Z</time></trkpt><trkpt lat="45.8973017" lon="8.7590017"><ele>610.0</ele><time>2026-04-12T08:14:13.807Z</time></trkpt><trkpt lat="45.8973767" lon="8.7591383"><ele>610.0</ele><time>2026-04-12T08:14:14.807Z</time></trkpt><trkpt lat="45.897445" lon="8.7592667"><ele>610.0</ele><time>2026-04-12T08:14:15.806Z</time></trkpt><trkpt lat="45.89751" lon="8.75939"><ele>610.0</ele><time>2026-04-12T08:14:16.807Z</time></trkpt><trkpt lat="45.8975617" lon="8.759495"><ele>610.0</ele><time>2026-04-12T08:14:17.807Z</time></trkpt><trkpt lat="45.8976167" lon="8.7595867"><ele>607.8333333333334</ele><time>2026-04-12T08:14:18.807Z</time></trkpt><trkpt lat="45.8976617" lon="8.75968"><ele>605.6666666666667</ele><time>2026-04-12T08:14:19.806Z</time></trkpt><trkpt lat="45.8977067" lon="8.7597667"><ele>603.5</ele><time>2026-04-12T08:14:20.807Z</time></trkpt><trkpt lat="45.8977483" lon="8.7598383"><ele>601.3333333333334</ele><time>2026-04-12T08:14:21.807Z</time></trkpt><trkpt lat="45.8978183" lon="8.7599367"><ele>599.1666666666666</ele><time>2026-04-12T08:14:23.807Z</time></trkpt><trkpt lat="45.897875" lon="8.760055"><ele>597.0</ele><time>2026-04-12T08:14:25.807Z</time></trkpt><trkpt lat="45.8979283" lon="8.7602117"><ele>597.0</ele><time>2026-04-12T08:14:27.807Z</time></trkpt><trkpt lat="45.897995" lon="8.7603517"><ele>597.0</ele><time>2026-04-12T08:14:29.807Z</time></trkpt><trkpt lat="45.8980533" lon="8.7605017"><ele>597.0</ele><time>2026-04-12T08:14:31.807Z</time></trkpt><trkpt lat="45.8980867" lon="8.76062"><ele>597.0</ele><time>2026-04-12T08:14:33.807Z</time></trkpt><trkpt lat="45.8981017" lon="8.7607333"><ele>597.0</ele><time>2026-04-12T08:14:37.806Z</time></trkpt><trkpt lat="45.89818" lon="8.7608467"><ele>597.0</ele><time>2026-04-12T08:14:52.807Z</time></trkpt><trkpt lat="45.8982583" lon="8.76093"><ele>597.0</ele><time>2026-04-12T08:15:04.807Z</time></trkpt><trkpt lat="45.89831" lon="8.7609917"><ele>597.0</ele><time>2026-04-12T08:15:07.807Z</time></trkpt><trkpt lat="45.898355" lon="8.7610733"><ele>597.0</ele><time>2026-04-12T08:15:10.807Z</time></trkpt><trkpt lat="45.8984317" lon="8.7612117"><ele>597.0</ele><time>2026-04-12T08:15:27.807Z</time></trkpt><trkpt lat="45.8985233" lon="8.7613217"><ele>595.0</ele><time>2026-04-12T08:15:29.807Z</time></trkpt><trkpt lat="45.8985817" lon="8.7613883"><ele>593.0</ele><time>2026-04-12T08:15:30.807Z</time></trkpt><trkpt lat="45.8986583" lon="8.761465"><ele>591.0</ele><time>2026-04-12T08:15:31.807Z</time></trkpt><trkpt lat="45.8987283" lon="8.761545"><ele>589.0</ele><time>2026-04-12T08:15:32.807Z</time></trkpt><trkpt lat="45.8987983" lon="8.761635"><ele>587.0</ele><time>2026-04-12T08:15:33.807Z</time></trkpt><trkpt lat="45.8988667" lon="8.7617133"><ele>585.0</ele><time>2026-04-12T08:15:34.807Z</time></trkpt><trkpt lat="45.8989283" lon="8.7617733"><ele>585.0</ele><time>2026-04-12T08:15:35.807Z</time></trkpt><trkpt lat="45.89899" lon="8.7618283"><ele>585.0</ele><time>2026-04-12T08:15:36.807Z</time></trkpt><trkpt lat="45.899045" lon="8.7618867"><ele>585.0</ele><time>2026-04-12T08:15:37.807Z</time></trkpt><trkpt lat="45.899145" lon="8.76198"><ele>585.0</ele><time>2026-04-12T08:15:39.807Z</time></trkpt><trkpt lat="45.8992167" lon="8.762045"><ele>585.0</ele><time>2026-04-12T08:15:41.806Z</time></trkpt><trkpt lat="45.8992933" lon="8.76211"><ele>585.0</ele><time>2026-04-12T08:15:47.807Z</time></trkpt><trkpt lat="45.8993417" lon="8.7621733"><ele>584.5</ele><time>2026-04-12T08:15:48.807Z</time></trkpt><trkpt lat="45.8994233" lon="8.762265"><ele>584.0</ele><time>2026-04-12T08:15:49.807Z</time></trkpt><trkpt lat="45.8994967" lon="8.762355"><ele>583.5</ele><time>2026-04-12T08:15:50.806Z</time></trkpt><trkpt lat="45.8995667" lon="8.7624283"><ele>583.0</ele><time>2026-04-12T08:15:51.807Z</time></trkpt><trkpt lat="45.899635" lon="8.7624933"><ele>582.5</ele><time>2026-04-12T08:15:52.807Z</time></trkpt><trkpt lat="45.8997" lon="8.7625517"><ele>582.0</ele><time>2026-04-12T08:15:53.807Z</time></trkpt><trkpt lat="45.89976" lon="8.7625983"><ele>582.0</ele><time>2026-04-12T08:15:54.806Z</time></trkpt><trkpt lat="45.8998617" lon="8.762675"><ele>582.0</ele><time>2026-04-12T08:15:56.807Z</time></trkpt><trkpt lat="45.8999417" lon="8.7627017"><ele>582.0</ele><time>2026-04-12T08:15:58.807Z</time></trkpt><trkpt lat="45.9000067" lon="8.76272"><ele>582.0</ele><time>2026-04-12T08:16:00.807Z</time></trkpt><trkpt lat="45.9000667" lon="8.7627617"><ele>582.0</ele><time>2026-04-12T08:16:02.807Z</time></trkpt><trkpt lat="45.90014" lon="8.7628733"><ele>582.0</ele><time>2026-04-12T08:16:04.807Z</time></trkpt><trkpt lat="45.900185" lon="8.7629617"><ele>580.4</ele><time>2026-04-12T08:16:05.807Z</time></trkpt><trkpt lat="45.9002283" lon="8.7630367"><ele>578.8000000000001</ele><time>2026-04-12T08:16:06.807Z</time></trkpt><trkpt lat="45.9003117" lon="8.763195"><ele>577.2</ele><time>2026-04-12T08:16:08.807Z</time></trkpt><trkpt lat="45.9003767" lon="8.7633183"><ele>575.6</ele><time>2026-04-12T08:16:10.806Z</time></trkpt><trkpt lat="45.9004383" lon="8.7633983"><ele>574.0</ele><time>2026-04-12T08:16:12.807Z</time></trkpt><trkpt lat="45.9005017" lon="8.7634867"><ele>575.2</ele><time>2026-04-12T08:16:14.807Z</time></trkpt><trkpt lat="45.90055" lon="8.7635533"><ele>576.4</ele><time>2026-04-12T08:16:15.807Z</time></trkpt><trkpt lat="45.9006033" lon="8.7636183"><ele>577.6</ele><time>2026-04-12T08:16:16.807Z</time></trkpt><trkpt lat="45.9006867" lon="8.763735"><ele>578.8</ele><time>2026-04-12T08:16:18.807Z</time></trkpt><trkpt lat="45.9007417" lon="8.76387"><ele>580.0</ele><time>2026-04-12T08:16:20.807Z</time></trkpt><trkpt lat="45.900815" lon="8.76402"><ele>580.0</ele><time>2026-04-12T08:16:22.807Z</time></trkpt><trkpt lat="45.9008517" lon="8.764095"><ele>580.0</ele><time>2026-04-12T08:16:23.807Z</time></trkpt><trkpt lat="45.9008867" lon="8.7641717"><ele>580.0</ele><time>2026-04-12T08:16:24.807Z</time></trkpt><trkpt lat="45.9009517" lon="8.7642083"><ele>580.0</ele><time>2026-04-12T08:16:27.806Z</time></trkpt><trkpt lat="45.9010267" lon="8.7642383"><ele>580.0</ele><time>2026-04-12T08:16:30.807Z</time></trkpt><trkpt lat="45.9011283" lon="8.7644017"><ele>580.0</ele><time>2026-04-12T08:16:41.807Z</time></trkpt><trkpt lat="45.9011633" lon="8.7644817"><ele>577.6666666666667</ele><time>2026-04-12T08:16:44.807Z</time></trkpt><trkpt lat="45.9011833" lon="8.7646083"><ele>575.3333333333334</ele><time>2026-04-12T08:16:47.807Z</time></trkpt><trkpt lat="45.901225" lon="8.7647017"><ele>573.0</ele><time>2026-04-12T08:16:50.807Z</time></trkpt><trkpt lat="45.9012967" lon="8.76482"><ele>570.6666666666666</ele><time>2026-04-12T08:16:59.806Z</time></trkpt><trkpt lat="45.9013367" lon="8.7649033"><ele>568.3333333333333</ele><time>2026-04-12T08:17:02.807Z</time></trkpt><trkpt lat="45.901365" lon="8.7650133"><ele>566.0</ele><time>2026-04-12T08:17:05.807Z</time></trkpt><trkpt lat="45.901405" lon="8.76512"><ele>566.2</ele><time>2026-04-12T08:17:08.807Z</time></trkpt><trkpt lat="45.9014383" lon="8.76521"><ele>566.4000000000001</ele><time>2026-04-12T08:17:11.806Z</time></trkpt><trkpt lat="45.9015517" lon="8.7654017"><ele>566.6</ele><time>2026-04-12T08:17:25.807Z</time></trkpt><trkpt lat="45.901605" lon="8.7654917"><ele>566.8000000000001</ele><time>2026-04-12T08:17:28.807Z</time></trkpt><trkpt lat="45.90167" lon="8.7656033"><ele>567.0</ele><time>2026-04-12T08:17:34.807Z</time></trkpt><trkpt lat="45.9017317" lon="8.7656733"><ele>565.3333333333334</ele><time>2026-04-12T08:17:37.807Z</time></trkpt><trkpt lat="45.901775" lon="8.7657433"><ele>563.6666666666666</ele><time>2026-04-12T08:17:39.807Z</time></trkpt><trkpt lat="45.9018367" lon="8.76584"><ele>562.0</ele><time>2026-04-12T08:17:42.807Z</time></trkpt><trkpt lat="45.9018967" lon="8.76591"><ele>560.3333333333333</ele><time>2026-04-12T08:17:45.807Z</time></trkpt><trkpt lat="45.90195" lon="8.7659967"><ele>558.6666666666666</ele><time>2026-04-12T08:17:50.807Z</time></trkpt><trkpt lat="45.9020083" lon="8.7660767"><ele>557.0</ele><time>2026-04-12T08:17:54.807Z</time></trkpt><trkpt lat="45.9020683" lon="8.766255"><ele>557.0</ele><time>2026-04-12T08:18:12.807Z</time></trkpt><trkpt lat="45.9021033" lon="8.76636"><ele>557.0</ele><time>2026-04-12T08:18:16.807Z</time></trkpt><trkpt lat="45.90213" lon="8.766465"><ele>557.0</ele><time>2026-04-12T08:18:19.807Z</time></trkpt><trkpt lat="45.902155" lon="8.7665583"><ele>557.0</ele><time>2026-04-12T08:18:22.807Z</time></trkpt><trkpt lat="45.9021733" lon="8.76666"><ele>557.0</ele><time>2026-04-12T08:18:26.807Z</time></trkpt><trkpt lat="45.90218" lon="8.7667767"><ele>557.0</ele><time>2026-04-12T08:18:30.807Z</time></trkpt><trkpt lat="45.902145" lon="8.766885"><ele>556.0</ele><time>2026-04-12T08:18:33.807Z</time></trkpt><trkpt lat="45.9021083" lon="8.7669933"><ele>555.0</ele><time>2026-04-12T08:18:36.807Z</time></trkpt><trkpt lat="45.90206" lon="8.7670583"><ele>554.0</ele><time>2026-04-12T08:18:38.807Z</time></trkpt><trkpt lat="45.90201" lon="8.7671317"><ele>553.0</ele><time>2026-04-12T08:18:40.806Z</time></trkpt><trkpt lat="45.90194" lon="8.7671917"><ele>552.0</ele><time>2026-04-12T08:18:42.807Z</time></trkpt><trkpt lat="45.9018783" lon="8.7672233"><ele>551.0</ele><time>2026-04-12T08:18:44.807Z</time></trkpt><trkpt lat="45.9018" lon="8.7672967"><ele>551.0</ele><time>2026-04-12T08:18:47.807Z</time></trkpt><trkpt lat="45.901795" lon="8.7673967"><ele>551.0</ele><time>2026-04-12T08:19:25.806Z</time></trkpt><trkpt lat="45.9018417" lon="8.7675083"><ele>551.0</ele><time>2026-04-12T08:19:27.807Z</time></trkpt><trkpt lat="45.90192" lon="8.7676433"><ele>551.0</ele><time>2026-04-12T08:19:29.807Z</time></trkpt><trkpt lat="45.9019917" lon="8.76777"><ele>551.0</ele><time>2026-04-12T08:19:31.807Z</time></trkpt><trkpt lat="45.90205" lon="8.7678767"><ele>548.4</ele><time>2026-04-12T08:19:33.807Z</time></trkpt><trkpt lat="45.9020983" lon="8.7679833"><ele>545.8</ele><time>2026-04-12T08:19:35.806Z</time></trkpt><trkpt lat="45.9021583" lon="8.76808"><ele>543.1999999999999</ele><time>2026-04-12T08:19:37.807Z</time></trkpt><trkpt lat="45.9022317" lon="8.7681667"><ele>540.6</ele><time>2026-04-12T08:19:39.807Z</time></trkpt><trkpt lat="45.9022967" lon="8.7682683"><ele>538.0</ele><time>2026-04-12T08:19:41.807Z</time></trkpt><trkpt lat="45.9023433" lon="8.7683917"><ele>536.1999999999999</ele><time>2026-04-12T08:19:43.806Z</time></trkpt><trkpt lat="45.902405" lon="8.76854"><ele>534.4</ele><time>2026-04-12T08:19:45.807Z</time></trkpt><trkpt lat="45.9024467" lon="8.7686083"><ele>532.5999999999999</ele><time>2026-04-12T08:19:46.807Z</time></trkpt><trkpt lat="45.9025117" lon="8.7687583"><ele>530.8</ele><time>2026-04-12T08:19:48.807Z</time></trkpt><trkpt lat="45.9025433" lon="8.7688367"><ele>529.0</ele><time>2026-04-12T08:19:49.807Z</time></trkpt><trkpt lat="45.9025983" lon="8.76897"><ele>529.0</ele><time>2026-04-12T08:19:51.807Z</time></trkpt><trkpt lat="45.9026633" lon="8.7690933"><ele>529.0</ele><time>2026-04-12T08:19:53.807Z</time></trkpt><trkpt lat="45.902705" lon="8.76918"><ele>529.0</ele><time>2026-04-12T08:19:54.807Z</time></trkpt><trkpt lat="45.90278" lon="8.7693283"><ele>529.0</ele><time>2026-04-12T08:19:56.807Z</time></trkpt><trkpt lat="45.9028217" lon="8.7694167"><ele>529.0</ele><time>2026-04-12T08:19:57.807Z</time></trkpt><trkpt lat="45.9028817" lon="8.769495"><ele>527.0</ele><time>2026-04-12T08:19:58.807Z</time></trkpt><trkpt lat="45.9029533" lon="8.76958"><ele>525.0</ele><time>2026-04-12T08:19:59.807Z</time></trkpt><trkpt lat="45.903005" lon="8.7696483"><ele>523.0</ele><time>2026-04-12T08:20:00.807Z</time></trkpt><trkpt lat="45.903095" lon="8.7697433"><ele>521.0</ele><time>2026-04-12T08:20:02.807Z</time></trkpt><trkpt lat="45.9031717" lon="8.769815"><ele>519.0</ele><time>2026-04-12T08:20:04.807Z</time></trkpt><trkpt lat="45.90324" lon="8.7698817"><ele>517.0</ele><time>2026-04-12T08:20:06.807Z</time></trkpt><trkpt lat="45.9033183" lon="8.769985"><ele>517.0</ele><time>2026-04-12T08:20:08.807Z</time></trkpt><trkpt lat="45.90337" lon="8.770065"><ele>517.0</ele><time>2026-04-12T08:20:09.807Z</time></trkpt><trkpt lat="45.90343" lon="8.7701633"><ele>517.0</ele><time>2026-04-12T08:20:10.806Z</time></trkpt><trkpt lat="45.9034917" lon="8.77027"><ele>517.0</ele><time>2026-04-12T08:20:11.807Z</time></trkpt><trkpt lat="45.90355" lon="8.7703767"><ele>517.0</ele><time>2026-04-12T08:20:12.807Z</time></trkpt><trkpt lat="45.9035933" lon="8.77048"><ele>517.0</ele><time>2026-04-12T08:20:13.806Z</time></trkpt><trkpt lat="45.9036367" lon="8.7705733"><ele>517.3333333333334</ele><time>2026-04-12T08:20:14.807Z</time></trkpt><trkpt lat="45.9036883" lon="8.77066"><ele>517.6666666666667</ele><time>2026-04-12T08:20:15.807Z</time></trkpt><trkpt lat="45.9037467" lon="8.7707383"><ele>518.0</ele><time>2026-04-12T08:20:16.807Z</time></trkpt><trkpt lat="45.9037933" lon="8.7708083"><ele>518.3333333333334</ele><time>2026-04-12T08:20:17.807Z</time></trkpt><trkpt lat="45.9038333" lon="8.770885"><ele>518.6666666666666</ele><time>2026-04-12T08:20:18.807Z</time></trkpt><trkpt lat="45.9038983" lon="8.7710317"><ele>519.0</ele><time>2026-04-12T08:20:20.807Z</time></trkpt><trkpt lat="45.90398" lon="8.7711683"><ele>517.0</ele><time>2026-04-12T08:20:22.806Z</time></trkpt><trkpt lat="45.9040683" lon="8.7712567"><ele>515.0</ele><time>2026-04-12T08:20:24.807Z</time></trkpt><trkpt lat="45.90416" lon="8.7712867"><ele>513.0</ele><time>2026-04-12T08:20:26.807Z</time></trkpt><trkpt lat="45.9042367" lon="8.7713067"><ele>511.0</ele><time>2026-04-12T08:20:28.807Z</time></trkpt><trkpt lat="45.90433" lon="8.7713383"><ele>509.0</ele><time>2026-04-12T08:20:30.807Z</time></trkpt><trkpt lat="45.9044567" lon="8.771385"><ele>509.0</ele><time>2026-04-12T08:20:32.807Z</time></trkpt><trkpt lat="45.904525" lon="8.77141"><ele>509.0</ele><time>2026-04-12T08:20:33.807Z</time></trkpt><trkpt lat="45.9045933" lon="8.7714367"><ele>509.0</ele><time>2026-04-12T08:20:34.807Z</time></trkpt><trkpt lat="45.9047017" lon="8.7715033"><ele>509.0</ele><time>2026-04-12T08:20:36.807Z</time></trkpt><trkpt lat="45.9047783" lon="8.7715883"><ele>509.0</ele><time>2026-04-12T08:20:38.807Z</time></trkpt><trkpt lat="45.9048483" lon="8.77172"><ele>509.0</ele><time>2026-04-12T08:20:40.807Z</time></trkpt><trkpt lat="45.9048767" lon="8.771805"><ele>509.0</ele><time>2026-04-12T08:20:41.807Z</time></trkpt><trkpt lat="45.9049" lon="8.771895"><ele>509.0</ele><time>2026-04-12T08:20:42.806Z</time></trkpt><trkpt lat="45.9049633" lon="8.7720317"><ele>509.0</ele><time>2026-04-12T08:20:44.807Z</time></trkpt><trkpt lat="45.9050383" lon="8.7721383"><ele>509.0</ele><time>2026-04-12T08:20:46.807Z</time></trkpt><trkpt lat="45.9051233" lon="8.772225"><ele>506.6</ele><time>2026-04-12T08:20:48.807Z</time></trkpt><trkpt lat="45.9052133" lon="8.7722983"><ele>504.2</ele><time>2026-04-12T08:20:50.807Z</time></trkpt><trkpt lat="45.9052983" lon="8.7723967"><ele>501.80000000000007</ele><time>2026-04-12T08:20:52.806Z</time></trkpt><trkpt lat="45.905405" lon="8.7724883"><ele>499.40000000000003</ele><time>2026-04-12T08:20:54.807Z</time></trkpt><trkpt lat="45.9054667" lon="8.77253"><ele>497.0</ele><time>2026-04-12T08:20:55.807Z</time></trkpt><trkpt lat="45.905525" lon="8.77258"><ele>496.99999999999994</ele><time>2026-04-12T08:20:56.807Z</time></trkpt><trkpt lat="45.905575" lon="8.7726417"><ele>497.0</ele><time>2026-04-12T08:20:57.807Z</time></trkpt><trkpt lat="45.905655" lon="8.77274"><ele>497.0</ele><time>2026-04-12T08:20:59.807Z</time></trkpt><trkpt lat="45.905745" lon="8.7727967"><ele>497.0</ele><time>2026-04-12T08:21:01.807Z</time></trkpt><trkpt lat="45.9058117" lon="8.77282"><ele>496.99999999999994</ele><time>2026-04-12T08:21:02.807Z</time></trkpt><trkpt lat="45.9058833" lon="8.772835"><ele>497.0</ele><time>2026-04-12T08:21:03.806Z</time></trkpt><trkpt lat="45.90596" lon="8.7728433"><ele>495.66666666666663</ele><time>2026-04-12T08:21:04.807Z</time></trkpt><trkpt lat="45.9060367" lon="8.7728633"><ele>494.3333333333333</ele><time>2026-04-12T08:21:05.807Z</time></trkpt><trkpt lat="45.90612" lon="8.77289"><ele>493.0</ele><time>2026-04-12T08:21:06.807Z</time></trkpt><trkpt lat="45.9062017" lon="8.7729167"><ele>491.66666666666663</ele><time>2026-04-12T08:21:07.807Z</time></trkpt><trkpt lat="45.906285" lon="8.7729567"><ele>490.3333333333333</ele><time>2026-04-12T08:21:08.806Z</time></trkpt><trkpt lat="45.9063817" lon="8.7730383"><ele>489.0</ele><time>2026-04-12T08:21:10.806Z</time></trkpt><trkpt lat="45.9064433" lon="8.772965"><ele>489.0</ele><time>2026-04-12T08:21:31.807Z</time></trkpt><trkpt lat="45.9064967" lon="8.7728933"><ele>489.0</ele><time>2026-04-12T08:21:35.807Z</time></trkpt><trkpt lat="45.9065417" lon="8.7728233"><ele>489.0</ele><time>2026-04-12T08:21:38.806Z</time></trkpt><trkpt lat="45.90659" lon="8.77274"><ele>489.0</ele><time>2026-04-12T08:21:40.807Z</time></trkpt><trkpt lat="45.90663" lon="8.77265"><ele>489.0</ele><time>2026-04-12T08:21:42.807Z</time></trkpt><trkpt lat="45.90666" lon="8.7725667"><ele>489.0</ele><time>2026-04-12T08:21:45.807Z</time></trkpt><trkpt lat="45.9067517" lon="8.7725133"><ele>484.3333333333333</ele><time>2026-04-12T08:21:54.807Z</time></trkpt><trkpt lat="45.9068383" lon="8.772495"><ele>479.66666666666663</ele><time>2026-04-12T08:21:57.807Z</time></trkpt><trkpt lat="45.9069117" lon="8.772475"><ele>475.0</ele><time>2026-04-12T08:22:00.807Z</time></trkpt><trkpt lat="45.9070033" lon="8.7724417"><ele>470.3333333333333</ele><time>2026-04-12T08:22:03.807Z</time></trkpt><trkpt lat="45.90707" lon="8.7724383"><ele>465.66666666666663</ele><time>2026-04-12T08:22:05.807Z</time></trkpt><trkpt lat="45.9071583" lon="8.7724267"><ele>461.0</ele><time>2026-04-12T08:22:07.806Z</time></trkpt><trkpt lat="45.9072667" lon="8.7723967"><ele>460.99999999999994</ele><time>2026-04-12T08:22:09.807Z</time></trkpt><trkpt lat="45.9073483" lon="8.7723933"><ele>461.0</ele><time>2026-04-12T08:22:11.806Z</time></trkpt><trkpt lat="45.9074183" lon="8.7724017"><ele>461.0</ele><time>2026-04-12T08:22:15.807Z</time></trkpt><trkpt lat="45.907525" lon="8.7724083"><ele>461.0</ele><time>2026-04-12T08:23:10.807Z</time></trkpt><trkpt lat="45.9075883" lon="8.77231"><ele>460.99999999999994</ele><time>2026-04-12T08:23:13.807Z</time></trkpt><trkpt lat="45.9075933" lon="8.7722067"><ele>461.0</ele><time>2026-04-12T08:23:16.807Z</time></trkpt><trkpt lat="45.90759" lon="8.7721033"><ele>461.0</ele><time>2026-04-12T08:23:19.807Z</time></trkpt><trkpt lat="45.9075783" lon="8.771995"><ele>461.00000000000006</ele><time>2026-04-12T08:23:22.806Z</time></trkpt><trkpt lat="45.9075667" lon="8.771905"><ele>461.0</ele><time>2026-04-12T08:23:24.807Z</time></trkpt><trkpt lat="45.9075483" lon="8.7717917"><ele>461.0</ele><time>2026-04-12T08:23:26.807Z</time></trkpt><trkpt lat="45.90754" lon="8.7716833"><ele>461.00000000000006</ele><time>2026-04-12T08:23:28.807Z</time></trkpt><trkpt lat="45.9075367" lon="8.7715883"><ele>461.0</ele><time>2026-04-12T08:23:30.807Z</time></trkpt><trkpt lat="45.9075383" lon="8.7714917"><ele>461.0</ele><time>2026-04-12T08:23:32.807Z</time></trkpt><trkpt lat="45.9075383" lon="8.7713933"><ele>460.14285714285717</ele><time>2026-04-12T08:23:34.807Z</time></trkpt><trkpt lat="45.9075417" lon="8.77129"><ele>459.28571428571433</ele><time>2026-04-12T08:23:36.806Z</time></trkpt><trkpt lat="45.907555" lon="8.7711717"><ele>458.42857142857144</ele><time>2026-04-12T08:23:38.806Z</time></trkpt><trkpt lat="45.9075617" lon="8.7710733"><ele>457.57142857142856</ele><time>2026-04-12T08:23:40.807Z</time></trkpt><trkpt lat="45.9075633" lon="8.77098"><ele>456.7142857142857</ele><time>2026-04-12T08:23:42.806Z</time></trkpt><trkpt lat="45.9075517" lon="8.7708733"><ele>455.8571428571429</ele><time>2026-04-12T08:23:44.806Z</time></trkpt><trkpt lat="45.9075233" lon="8.7707767"><ele>455.0</ele><time>2026-04-12T08:23:46.807Z</time></trkpt><trkpt lat="45.9075" lon="8.7706817"><ele>452.8333333333333</ele><time>2026-04-12T08:23:48.807Z</time></trkpt><trkpt lat="45.9074683" lon="8.7705683"><ele>450.66666666666663</ele><time>2026-04-12T08:23:50.806Z</time></trkpt><trkpt lat="45.907415" lon="8.7704183"><ele>448.5</ele><time>2026-04-12T08:23:52.807Z</time></trkpt><trkpt lat="45.90738" lon="8.7703067"><ele>446.33333333333337</ele><time>2026-04-12T08:23:53.807Z</time></trkpt><trkpt lat="45.907345" lon="8.7702083"><ele>444.1666666666667</ele><time>2026-04-12T08:23:54.807Z</time></trkpt><trkpt lat="45.9073133" lon="8.7701117"><ele>442.0</ele><time>2026-04-12T08:23:55.807Z</time></trkpt><trkpt lat="45.907265" lon="8.7699883"><ele>437.40000000000003</ele><time>2026-04-12T08:23:57.807Z</time></trkpt><trkpt lat="45.9072017" lon="8.7699033"><ele>432.80000000000007</ele><time>2026-04-12T08:23:59.807Z</time></trkpt><trkpt lat="45.9071133" lon="8.7697967"><ele>428.2</ele><time>2026-04-12T08:24:01.807Z</time></trkpt><trkpt lat="45.9070567" lon="8.7697383"><ele>423.6</ele><time>2026-04-12T08:24:02.807Z</time></trkpt><trkpt lat="45.907005" lon="8.7696533"><ele>419.0</ele><time>2026-04-12T08:24:03.807Z</time></trkpt><trkpt lat="45.906915" lon="8.7695533"><ele>418.99999999999994</ele><time>2026-04-12T08:24:05.807Z</time></trkpt><trkpt lat="45.90684" lon="8.7694633"><ele>419.0</ele><time>2026-04-12T08:24:07.807Z</time></trkpt><trkpt lat="45.9067767" lon="8.769405"><ele>419.0</ele><time>2026-04-12T08:24:09.807Z</time></trkpt><trkpt lat="45.9067017" lon="8.7693567"><ele>419.0</ele><time>2026-04-12T08:24:11.807Z</time></trkpt><trkpt lat="45.9066233" lon="8.76931"><ele>418.99999999999994</ele><time>2026-04-12T08:24:13.807Z</time></trkpt><trkpt lat="45.9065533" lon="8.7692133"><ele>419.0</ele><time>2026-04-12T08:24:15.807Z</time></trkpt><trkpt lat="45.9065167" lon="8.7690783"><ele>417.0</ele><time>2026-04-12T08:24:17.807Z</time></trkpt><trkpt lat="45.906525" lon="8.7688967"><ele>415.0</ele><time>2026-04-12T08:24:19.807Z</time></trkpt><trkpt lat="45.9065317" lon="8.768805"><ele>413.0</ele><time>2026-04-12T08:24:20.807Z</time></trkpt><trkpt lat="45.906525" lon="8.7687117"><ele>411.0</ele><time>2026-04-12T08:24:21.807Z</time></trkpt><trkpt lat="45.9064983" lon="8.768565"><ele>409.0</ele><time>2026-04-12T08:24:23.807Z</time></trkpt><trkpt lat="45.9064733" lon="8.7684283"><ele>409.0</ele><time>2026-04-12T08:24:25.807Z</time></trkpt><trkpt lat="45.9064117" lon="8.7683217"><ele>409.0</ele><time>2026-04-12T08:24:27.806Z</time></trkpt><trkpt lat="45.9063483" lon="8.768205"><ele>409.0</ele><time>2026-04-12T08:24:29.807Z</time></trkpt><trkpt lat="45.9062883" lon="8.7680567"><ele>409.0</ele><time>2026-04-12T08:24:31.807Z</time></trkpt><trkpt lat="45.9062333" lon="8.76789"><ele>409.0</ele><time>2026-04-12T08:24:33.807Z</time></trkpt><trkpt lat="45.9062067" lon="8.7678"><ele>409.00000000000006</ele><time>2026-04-12T08:24:34.807Z</time></trkpt><trkpt lat="45.9061783" lon="8.7677133"><ele>409.0</ele><time>2026-04-12T08:24:35.807Z</time></trkpt><trkpt lat="45.9061217" lon="8.7675533"><ele>409.0</ele><time>2026-04-12T08:24:37.807Z</time></trkpt><trkpt lat="45.9060667" lon="8.7674017"><ele>409.0</ele><time>2026-04-12T08:24:39.806Z</time></trkpt><trkpt lat="45.9060283" lon="8.767325"><ele>409.00000000000006</ele><time>2026-04-12T08:24:40.807Z</time></trkpt><trkpt lat="45.9059917" lon="8.7672467"><ele>409.0</ele><time>2026-04-12T08:24:41.807Z</time></trkpt><trkpt lat="45.9059483" lon="8.76716"><ele>409.85714285714283</ele><time>2026-04-12T08:24:42.807Z</time></trkpt><trkpt lat="45.9059117" lon="8.767065"><ele>410.7142857142857</ele><time>2026-04-12T08:24:43.807Z</time></trkpt><trkpt lat="45.9058833" lon="8.766975"><ele>411.57142857142856</ele><time>2026-04-12T08:24:44.807Z</time></trkpt><trkpt lat="45.9058617" lon="8.766885"><ele>412.42857142857144</ele><time>2026-04-12T08:24:45.807Z</time></trkpt><trkpt lat="45.9058433" lon="8.7667883"><ele>413.28571428571433</ele><time>2026-04-12T08:24:46.806Z</time></trkpt><trkpt lat="45.9058333" lon="8.7666967"><ele>414.14285714285717</ele><time>2026-04-12T08:24:47.807Z</time></trkpt><trkpt lat="45.9058217" lon="8.7666067"><ele>415.0</ele><time>2026-04-12T08:24:48.807Z</time></trkpt><trkpt lat="45.9057967" lon="8.7664517"><ele>410.6</ele><time>2026-04-12T08:24:50.807Z</time></trkpt><trkpt lat="45.905745" lon="8.766335"><ele>406.2</ele><time>2026-04-12T08:24:52.807Z</time></trkpt><trkpt lat="45.9056717" lon="8.7662333"><ele>401.79999999999995</ele><time>2026-04-12T08:24:54.807Z</time></trkpt><trkpt lat="45.9055833" lon="8.766165"><ele>397.4</ele><time>2026-04-12T08:24:56.806Z</time></trkpt><trkpt lat="45.9055117" lon="8.7661017"><ele>393.0</ele><time>2026-04-12T08:24:58.807Z</time></trkpt><trkpt lat="45.9054667" lon="8.7659917"><ele>389.8333333333333</ele><time>2026-04-12T08:25:00.807Z</time></trkpt><trkpt lat="45.905435" lon="8.76587"><ele>386.6666666666667</ele><time>2026-04-12T08:25:02.807Z</time></trkpt><trkpt lat="45.905395" lon="8.7657317"><ele>383.5</ele><time>2026-04-12T08:25:04.806Z</time></trkpt><trkpt lat="45.905345" lon="8.7656217"><ele>380.33333333333337</ele><time>2026-04-12T08:25:06.807Z</time></trkpt><trkpt lat="45.9052733" lon="8.76555"><ele>377.1666666666667</ele><time>2026-04-12T08:25:08.807Z</time></trkpt><trkpt lat="45.90521" lon="8.7654967"><ele>374.0</ele><time>2026-04-12T08:25:10.807Z</time></trkpt><trkpt lat="45.9051367" lon="8.7654283"><ele>374.0</ele><time>2026-04-12T08:25:12.807Z</time></trkpt><trkpt lat="45.90508" lon="8.7653167"><ele>374.0</ele><time>2026-04-12T08:25:14.806Z</time></trkpt><trkpt lat="45.9050167" lon="8.7651767"><ele>374.0</ele><time>2026-04-12T08:25:16.807Z</time></trkpt><trkpt lat="45.90498" lon="8.7651017"><ele>374.0</ele><time>2026-04-12T08:25:17.806Z</time></trkpt><trkpt lat="45.904925" lon="8.76497"><ele>374.0</ele><time>2026-04-12T08:25:19.807Z</time></trkpt><trkpt lat="45.9048767" lon="8.7648333"><ele>374.4</ele><time>2026-04-12T08:25:21.807Z</time></trkpt><trkpt lat="45.904855" lon="8.764695"><ele>374.79999999999995</ele><time>2026-04-12T08:25:23.807Z</time></trkpt><trkpt lat="45.9048083" lon="8.7645617"><ele>375.20000000000005</ele><time>2026-04-12T08:25:25.807Z</time></trkpt><trkpt lat="45.9047717" lon="8.76441"><ele>375.6</ele><time>2026-04-12T08:25:27.807Z</time></trkpt><trkpt lat="45.904745" lon="8.76427"><ele>376.0</ele><time>2026-04-12T08:25:29.807Z</time></trkpt><trkpt lat="45.9046883" lon="8.764155"><ele>372.0</ele><time>2026-04-12T08:25:31.807Z</time></trkpt><trkpt lat="45.9046467" lon="8.7640533"><ele>368.0</ele><time>2026-04-12T08:25:33.807Z</time></trkpt><trkpt lat="45.9046417" lon="8.7639317"><ele>364.0</ele><time>2026-04-12T08:25:35.806Z</time></trkpt><trkpt lat="45.90464" lon="8.7637567"><ele>360.0</ele><time>2026-04-12T08:25:37.807Z</time></trkpt><trkpt lat="45.9046333" lon="8.7635933"><ele>356.0</ele><time>2026-04-12T08:25:39.807Z</time></trkpt><trkpt lat="45.9046283" lon="8.7634367"><ele>353.0</ele><time>2026-04-12T08:25:41.807Z</time></trkpt><trkpt lat="45.9046033" lon="8.7632883"><ele>350.0</ele><time>2026-04-12T08:25:43.807Z</time></trkpt><trkpt lat="45.904595" lon="8.7631483"><ele>347.0</ele><time>2026-04-12T08:25:45.807Z</time></trkpt><trkpt lat="45.904565" lon="8.7630133"><ele>344.0</ele><time>2026-04-12T08:25:47.807Z</time></trkpt><trkpt lat="45.904535" lon="8.7628617"><ele>341.0</ele><time>2026-04-12T08:25:49.807Z</time></trkpt><trkpt lat="45.904505" lon="8.7627383"><ele>338.5</ele><time>2026-04-12T08:25:51.807Z</time></trkpt><trkpt lat="45.9044967" lon="8.7626283"><ele>336.0</ele><time>2026-04-12T08:25:54.807Z</time></trkpt><trkpt lat="45.9045783" lon="8.7625983"><ele>333.5</ele><time>2026-04-12T08:25:57.807Z</time></trkpt><trkpt lat="45.9047017" lon="8.7626117"><ele>331.0</ele><time>2026-04-12T08:25:59.807Z</time></trkpt><trkpt lat="45.904775" lon="8.7626267"><ele>328.5</ele><time>2026-04-12T08:26:00.806Z</time></trkpt><trkpt lat="45.9048417" lon="8.76265"><ele>326.0</ele><time>2026-04-12T08:26:01.807Z</time></trkpt><trkpt lat="45.9049067" lon="8.762675"><ele>326.0</ele><time>2026-04-12T08:26:02.806Z</time></trkpt><trkpt lat="45.9049717" lon="8.76271"><ele>326.0</ele><time>2026-04-12T08:26:03.807Z</time></trkpt><trkpt lat="45.90507" lon="8.76278"><ele>326.0</ele><time>2026-04-12T08:26:05.807Z</time></trkpt><trkpt lat="45.905135" lon="8.76283"><ele>326.0</ele><time>2026-04-12T08:26:07.807Z</time></trkpt><trkpt lat="45.905155" lon="8.7627083"><ele>326.0</ele><time>2026-04-12T08:26:12.807Z</time></trkpt><trkpt lat="45.9051" lon="8.7626117"><ele>326.0</ele><time>2026-04-12T08:26:14.807Z</time></trkpt><trkpt lat="45.9050433" lon="8.76245"><ele>326.0</ele><time>2026-04-12T08:26:16.807Z</time></trkpt><trkpt lat="45.9050117" lon="8.7623583"><ele>326.0</ele><time>2026-04-12T08:26:17.807Z</time></trkpt><trkpt lat="45.9049733" lon="8.7622533"><ele>326.0</ele><time>2026-04-12T08:26:18.807Z</time></trkpt><trkpt lat="45.9049233" lon="8.7621267"><ele>326.0</ele><time>2026-04-12T08:26:19.807Z</time></trkpt><trkpt lat="45.9048667" lon="8.7619983"><ele>326.0</ele><time>2026-04-12T08:26:20.807Z</time></trkpt><trkpt lat="45.9048067" lon="8.7618683"><ele>323.33333333333337</ele><time>2026-04-12T08:26:21.807Z</time></trkpt><trkpt lat="45.9047483" lon="8.7617533"><ele>320.6666666666667</ele><time>2026-04-12T08:26:22.807Z</time></trkpt><trkpt lat="45.9046817" lon="8.7616567"><ele>318.0</ele><time>2026-04-12T08:26:23.807Z</time></trkpt><trkpt lat="45.9046283" lon="8.761565"><ele>315.3333333333333</ele><time>2026-04-12T08:26:24.807Z</time></trkpt><trkpt lat="45.9045983" lon="8.7614717"><ele>312.66666666666663</ele><time>2026-04-12T08:26:25.806Z</time></trkpt><trkpt lat="45.9045833" lon="8.7613667"><ele>310.0</ele><time>2026-04-12T08:26:26.807Z</time></trkpt><trkpt lat="45.9045883" lon="8.7612733"><ele>310.0</ele><time>2026-04-12T08:26:27.807Z</time></trkpt><trkpt lat="45.9045733" lon="8.76111"><ele>310.0</ele><time>2026-04-12T08:26:29.806Z</time></trkpt><trkpt lat="45.9045317" lon="8.760955"><ele>310.0</ele><time>2026-04-12T08:26:31.807Z</time></trkpt><trkpt lat="45.904525" lon="8.7608133"><ele>310.0</ele><time>2026-04-12T08:26:33.807Z</time></trkpt><trkpt lat="45.90457" lon="8.7607333"><ele>310.0</ele><time>2026-04-12T08:26:34.807Z</time></trkpt><trkpt lat="45.9046433" lon="8.7606433"><ele>308.2</ele><time>2026-04-12T08:26:35.807Z</time></trkpt><trkpt lat="45.9047317" lon="8.76053"><ele>306.4</ele><time>2026-04-12T08:26:36.807Z</time></trkpt><trkpt lat="45.9048083" lon="8.7604183"><ele>304.6</ele><time>2026-04-12T08:26:37.807Z</time></trkpt><trkpt lat="45.9048817" lon="8.7603283"><ele>302.8</ele><time>2026-04-12T08:26:38.807Z</time></trkpt><trkpt lat="45.9049567" lon="8.7602583"><ele>301.0</ele><time>2026-04-12T08:26:39.807Z</time></trkpt><trkpt lat="45.9050267" lon="8.7602"><ele>301.0</ele><time>2026-04-12T08:26:40.807Z</time></trkpt><trkpt lat="45.9050883" lon="8.7601467"><ele>301.0</ele><time>2026-04-12T08:26:41.807Z</time></trkpt><trkpt lat="45.9051467" lon="8.7601017"><ele>301.0</ele><time>2026-04-12T08:26:42.807Z</time></trkpt><trkpt lat="45.9052317" lon="8.7600433"><ele>301.0</ele><time>2026-04-12T08:26:44.807Z</time></trkpt><trkpt lat="45.9053" lon="8.7599883"><ele>301.0</ele><time>2026-04-12T08:26:46.807Z</time></trkpt><trkpt lat="45.90538" lon="8.7599567"><ele>301.0</ele><time>2026-04-12T08:28:17.806Z</time></trkpt><trkpt lat="45.9054533" lon="8.75992"><ele>301.0</ele><time>2026-04-12T08:28:18.807Z</time></trkpt><trkpt lat="45.9055567" lon="8.7598733"><ele>301.0</ele><time>2026-04-12T08:28:19.807Z</time></trkpt><trkpt lat="45.9056717" lon="8.7598267"><ele>301.0</ele><time>2026-04-12T08:28:20.807Z</time></trkpt><trkpt lat="45.9057733" lon="8.7597817"><ele>301.0</ele><time>2026-04-12T08:28:21.807Z</time></trkpt><trkpt lat="45.9058617" lon="8.7597417"><ele>301.0</ele><time>2026-04-12T08:28:22.806Z</time></trkpt><trkpt lat="45.9059383" lon="8.7597033"><ele>303.0</ele><time>2026-04-12T08:28:23.807Z</time></trkpt><trkpt lat="45.9060067" lon="8.7596733"><ele>305.0</ele><time>2026-04-12T08:28:24.807Z</time></trkpt><trkpt lat="45.9060683" lon="8.7596533"><ele>307.0</ele><time>2026-04-12T08:28:25.807Z</time></trkpt><trkpt lat="45.9061517" lon="8.7596417"><ele>309.0</ele><time>2026-04-12T08:28:27.807Z</time></trkpt><trkpt lat="45.9062033" lon="8.7597117"><ele>311.0</ele><time>2026-04-12T08:28:29.807Z</time></trkpt><trkpt lat="45.9062367" lon="8.7598283"><ele>313.0</ele><time>2026-04-12T08:28:30.807Z</time></trkpt><trkpt lat="45.906285" lon="8.7599517"><ele>313.0</ele><time>2026-04-12T08:28:31.807Z</time></trkpt><trkpt lat="45.9063433" lon="8.76009"><ele>313.0</ele><time>2026-04-12T08:28:32.806Z</time></trkpt><trkpt lat="45.90641" lon="8.76024"><ele>313.0</ele><time>2026-04-12T08:28:33.807Z</time></trkpt><trkpt lat="45.9064683" lon="8.7603867"><ele>313.0</ele><time>2026-04-12T08:28:34.806Z</time></trkpt><trkpt lat="45.9065217" lon="8.7605483"><ele>312.0</ele><time>2026-04-12T08:28:35.807Z</time></trkpt><trkpt lat="45.9065733" lon="8.7607183"><ele>311.0</ele><time>2026-04-12T08:28:36.807Z</time></trkpt><trkpt lat="45.9066233" lon="8.7608617"><ele>310.0</ele><time>2026-04-12T08:28:37.807Z</time></trkpt><trkpt lat="45.90667" lon="8.7609983"><ele>309.0</ele><time>2026-04-12T08:28:38.807Z</time></trkpt><trkpt lat="45.90673" lon="8.7611167"><ele>308.0</ele><time>2026-04-12T08:28:39.807Z</time></trkpt><trkpt lat="45.9067867" lon="8.76125"><ele>309.0</ele><time>2026-04-12T08:28:40.807Z</time></trkpt><trkpt lat="45.9068367" lon="8.7613783"><ele>310.0</ele><time>2026-04-12T08:28:41.807Z</time></trkpt><trkpt lat="45.9068783" lon="8.7614933"><ele>311.0</ele><time>2026-04-12T08:28:42.806Z</time></trkpt><trkpt lat="45.9069167" lon="8.761595"><ele>312.0</ele><time>2026-04-12T08:28:43.807Z</time></trkpt><trkpt lat="45.9069633" lon="8.7617017"><ele>313.0</ele><time>2026-04-12T08:28:44.807Z</time></trkpt><trkpt lat="45.9070067" lon="8.7617883"><ele>314.0</ele><time>2026-04-12T08:28:45.807Z</time></trkpt><trkpt lat="45.9070583" lon="8.7618667"><ele>314.0</ele><time>2026-04-12T08:28:46.807Z</time></trkpt><trkpt lat="45.90711" lon="8.7619433"><ele>314.0</ele><time>2026-04-12T08:28:47.807Z</time></trkpt><trkpt lat="45.9071767" lon="8.762025"><ele>314.0</ele><time>2026-04-12T08:28:48.807Z</time></trkpt><trkpt lat="45.90724" lon="8.762105"><ele>314.0</ele><time>2026-04-12T08:28:49.807Z</time></trkpt><trkpt lat="45.9072933" lon="8.7621817"><ele>314.0</ele><time>2026-04-12T08:28:50.807Z</time></trkpt><trkpt lat="45.9073383" lon="8.76227"><ele>314.0</ele><time>2026-04-12T08:28:51.807Z</time></trkpt><trkpt lat="45.9073717" lon="8.76236"><ele>314.0</ele><time>2026-04-12T08:28:52.807Z</time></trkpt><trkpt lat="45.9074383" lon="8.7624983"><ele>314.0</ele><time>2026-04-12T08:28:54.807Z</time></trkpt><trkpt lat="45.9075317" lon="8.762585"><ele>314.0</ele><time>2026-04-12T08:28:56.807Z</time></trkpt><trkpt lat="45.9075917" lon="8.762615"><ele>314.0</ele><time>2026-04-12T08:28:57.807Z</time></trkpt><trkpt lat="45.907665" lon="8.76264"><ele>314.0</ele><time>2026-04-12T08:28:58.807Z</time></trkpt><trkpt lat="45.907755" lon="8.7626517"><ele>316.0</ele><time>2026-04-12T08:28:59.806Z</time></trkpt><trkpt lat="45.9078483" lon="8.7626533"><ele>318.0</ele><time>2026-04-12T08:29:00.807Z</time></trkpt><trkpt lat="45.9079367" lon="8.7626583"><ele>320.0</ele><time>2026-04-12T08:29:01.807Z</time></trkpt><trkpt lat="45.90803" lon="8.7626367"><ele>322.0</ele><time>2026-04-12T08:29:02.807Z</time></trkpt><trkpt lat="45.90811" lon="8.7625883"><ele>324.0</ele><time>2026-04-12T08:29:03.807Z</time></trkpt><trkpt lat="45.90818" lon="8.762545"><ele>326.0</ele><time>2026-04-12T08:29:04.806Z</time></trkpt><trkpt lat="45.908225" lon="8.7624317"><ele>326.0</ele><time>2026-04-12T08:29:06.807Z</time></trkpt><trkpt lat="45.9081833" lon="8.762295"><ele>326.0</ele><time>2026-04-12T08:29:08.807Z</time></trkpt><trkpt lat="45.90816" lon="8.7622017"><ele>326.0</ele><time>2026-04-12T08:29:10.807Z</time></trkpt><trkpt lat="45.9082333" lon="8.7621067"><ele>326.0</ele><time>2026-04-12T08:29:12.807Z</time></trkpt><trkpt lat="45.9083217" lon="8.7620417"><ele>326.0</ele><time>2026-04-12T08:29:13.807Z</time></trkpt><trkpt lat="45.90842" lon="8.7619883"><ele>328.20000000000005</ele><time>2026-04-12T08:29:14.807Z</time></trkpt><trkpt lat="45.9085083" lon="8.7619317"><ele>330.40000000000003</ele><time>2026-04-12T08:29:15.807Z</time></trkpt><trkpt lat="45.9085717" lon="8.7618767"><ele>332.6</ele><time>2026-04-12T08:29:16.807Z</time></trkpt><trkpt lat="45.908645" lon="8.7617467"><ele>334.8</ele><time>2026-04-12T08:29:18.807Z</time></trkpt><trkpt lat="45.9086683" lon="8.7616533"><ele>337.0</ele><time>2026-04-12T08:29:19.806Z</time></trkpt><trkpt lat="45.90873" lon="8.76151"><ele>337.0</ele><time>2026-04-12T08:29:21.807Z</time></trkpt><trkpt lat="45.9087983" lon="8.7614267"><ele>337.0</ele><time>2026-04-12T08:29:23.807Z</time></trkpt><trkpt lat="45.908895" lon="8.7613983"><ele>337.0</ele><time>2026-04-12T08:29:25.807Z</time></trkpt><trkpt lat="45.9089867" lon="8.7614167"><ele>337.0</ele><time>2026-04-12T08:29:27.807Z</time></trkpt><trkpt lat="45.9090683" lon="8.7614817"><ele>337.0</ele><time>2026-04-12T08:29:29.807Z</time></trkpt><trkpt lat="45.9091483" lon="8.7615217"><ele>337.0</ele><time>2026-04-12T08:29:31.807Z</time></trkpt><trkpt lat="45.90923" lon="8.7614783"><ele>337.0</ele><time>2026-04-12T08:29:34.807Z</time></trkpt><trkpt lat="45.9093017" lon="8.7614233"><ele>337.0</ele><time>2026-04-12T08:29:36.807Z</time></trkpt><trkpt lat="45.9093917" lon="8.7614067"><ele>337.0</ele><time>2026-04-12T08:29:38.807Z</time></trkpt><trkpt lat="45.9094633" lon="8.761395"><ele>337.0</ele><time>2026-04-12T08:29:40.807Z</time></trkpt><trkpt lat="45.909535" lon="8.7614167"><ele>337.0</ele><time>2026-04-12T08:29:42.807Z</time></trkpt><trkpt lat="45.9096017" lon="8.76153"><ele>337.16666666666663</ele><time>2026-04-12T08:29:44.807Z</time></trkpt><trkpt lat="45.9096917" lon="8.7616583"><ele>337.3333333333333</ele><time>2026-04-12T08:29:46.807Z</time></trkpt><trkpt lat="45.909735" lon="8.7617267"><ele>337.5</ele><time>2026-04-12T08:29:47.807Z</time></trkpt><trkpt lat="45.9097867" lon="8.7618083"><ele>337.6666666666667</ele><time>2026-04-12T08:29:48.807Z</time></trkpt><trkpt lat="45.909825" lon="8.76189"><ele>337.83333333333337</ele><time>2026-04-12T08:29:49.806Z</time></trkpt><trkpt lat="45.9098567" lon="8.7619767"><ele>338.0</ele><time>2026-04-12T08:29:50.807Z</time></trkpt><trkpt lat="45.90989" lon="8.762065"><ele>338.79999999999995</ele><time>2026-04-12T08:29:51.807Z</time></trkpt><trkpt lat="45.9099533" lon="8.762205"><ele>339.6</ele><time>2026-04-12T08:29:53.807Z</time></trkpt><trkpt lat="45.91" lon="8.7622683"><ele>340.4</ele><time>2026-04-12T08:29:54.807Z</time></trkpt><trkpt lat="45.9100983" lon="8.7623833"><ele>341.20000000000005</ele><time>2026-04-12T08:29:56.807Z</time></trkpt><trkpt lat="45.9101867" lon="8.7624833"><ele>342.0</ele><time>2026-04-12T08:29:58.807Z</time></trkpt><trkpt lat="45.91028" lon="8.7626017"><ele>341.0</ele><time>2026-04-12T08:30:00.807Z</time></trkpt><trkpt lat="45.910335" lon="8.7626733"><ele>340.0</ele><time>2026-04-12T08:30:01.807Z</time></trkpt><trkpt lat="45.9103933" lon="8.7627517"><ele>339.0</ele><time>2026-04-12T08:30:02.807Z</time></trkpt><trkpt lat="45.9104567" lon="8.7628417"><ele>338.0</ele><time>2026-04-12T08:30:03.807Z</time></trkpt><trkpt lat="45.910535" lon="8.76293"><ele>337.0</ele><time>2026-04-12T08:30:04.807Z</time></trkpt><trkpt lat="45.9106083" lon="8.76301"><ele>336.0</ele><time>2026-04-12T08:30:05.807Z</time></trkpt><trkpt lat="45.910675" lon="8.7630917"><ele>336.0</ele><time>2026-04-12T08:30:06.807Z</time></trkpt><trkpt lat="45.9107267" lon="8.763175"><ele>336.0</ele><time>2026-04-12T08:30:07.807Z</time></trkpt><trkpt lat="45.91078" lon="8.76327"><ele>336.0</ele><time>2026-04-12T08:30:08.807Z</time></trkpt><trkpt lat="45.9108383" lon="8.76336"><ele>336.0</ele><time>2026-04-12T08:30:09.807Z</time></trkpt><trkpt lat="45.9108917" lon="8.7634817"><ele>336.0</ele><time>2026-04-12T08:30:10.806Z</time></trkpt><trkpt lat="45.9109617" lon="8.7636333"><ele>335.4</ele><time>2026-04-12T08:30:11.807Z</time></trkpt><trkpt lat="45.9110333" lon="8.7638083"><ele>334.8</ele><time>2026-04-12T08:30:12.807Z</time></trkpt><trkpt lat="45.9110983" lon="8.7639633"><ele>334.2</ele><time>2026-04-12T08:30:13.807Z</time></trkpt><trkpt lat="45.9111433" lon="8.764085"><ele>333.59999999999997</ele><time>2026-04-12T08:30:14.807Z</time></trkpt><trkpt lat="45.9111783" lon="8.7641833"><ele>333.0</ele><time>2026-04-12T08:30:15.807Z</time></trkpt><trkpt lat="45.9112033" lon="8.764275"><ele>335.0</ele><time>2026-04-12T08:30:16.806Z</time></trkpt><trkpt lat="45.91122" lon="8.7644417"><ele>337.0</ele><time>2026-04-12T08:30:18.807Z</time></trkpt><trkpt lat="45.9112217" lon="8.7645467"><ele>339.0</ele><time>2026-04-12T08:30:20.807Z</time></trkpt><trkpt lat="45.9112567" lon="8.7647017"><ele>341.0</ele><time>2026-04-12T08:30:22.807Z</time></trkpt><trkpt lat="45.9112783" lon="8.7648017"><ele>343.0</ele><time>2026-04-12T08:30:23.807Z</time></trkpt><trkpt lat="45.9113067" lon="8.7648967"><ele>345.0</ele><time>2026-04-12T08:30:24.806Z</time></trkpt><trkpt lat="45.9113467" lon="8.76498"><ele>345.0</ele><time>2026-04-12T08:30:25.807Z</time></trkpt><trkpt lat="45.9113933" lon="8.7650533"><ele>345.0</ele><time>2026-04-12T08:30:26.807Z</time></trkpt><trkpt lat="45.9114517" lon="8.765125"><ele>345.0</ele><time>2026-04-12T08:30:27.807Z</time></trkpt><trkpt lat="45.91152" lon="8.7651917"><ele>345.0</ele><time>2026-04-12T08:30:28.807Z</time></trkpt><trkpt lat="45.9115983" lon="8.76524"><ele>345.0</ele><time>2026-04-12T08:30:29.807Z</time></trkpt><trkpt lat="45.9116767" lon="8.76529"><ele>345.0</ele><time>2026-04-12T08:30:30.807Z</time></trkpt><trkpt lat="45.9117517" lon="8.7653367"><ele>343.3333333333333</ele><time>2026-04-12T08:30:31.807Z</time></trkpt><trkpt lat="45.9118133" lon="8.765385"><ele>341.6666666666667</ele><time>2026-04-12T08:30:32.807Z</time></trkpt><trkpt lat="45.9118667" lon="8.765455"><ele>340.0</ele><time>2026-04-12T08:30:33.806Z</time></trkpt><trkpt lat="45.9119167" lon="8.7655417"><ele>338.33333333333337</ele><time>2026-04-12T08:30:34.807Z</time></trkpt><trkpt lat="45.9119733" lon="8.7656583"><ele>336.6666666666667</ele><time>2026-04-12T08:30:35.807Z</time></trkpt><trkpt lat="45.9120233" lon="8.76577"><ele>335.0</ele><time>2026-04-12T08:30:36.807Z</time></trkpt><trkpt lat="45.9120633" lon="8.7658683"><ele>335.0</ele><time>2026-04-12T08:30:37.807Z</time></trkpt><trkpt lat="45.912095" lon="8.7659567"><ele>335.0</ele><time>2026-04-12T08:30:38.807Z</time></trkpt><trkpt lat="45.91213" lon="8.7660383"><ele>335.0</ele><time>2026-04-12T08:30:39.807Z</time></trkpt><trkpt lat="45.912215" lon="8.766185"><ele>335.0</ele><time>2026-04-12T08:30:41.807Z</time></trkpt><trkpt lat="45.91226" lon="8.7662633"><ele>335.0</ele><time>2026-04-12T08:30:42.807Z</time></trkpt><trkpt lat="45.9123117" lon="8.7663367"><ele>335.0</ele><time>2026-04-12T08:30:43.807Z</time></trkpt><trkpt lat="45.912355" lon="8.7664133"><ele>335.33333333333337</ele><time>2026-04-12T08:30:44.807Z</time></trkpt><trkpt lat="45.912405" lon="8.7664983"><ele>335.6666666666667</ele><time>2026-04-12T08:30:45.807Z</time></trkpt><trkpt lat="45.9124317" lon="8.7665967"><ele>336.0</ele><time>2026-04-12T08:30:46.807Z</time></trkpt><trkpt lat="45.9124583" lon="8.7667083"><ele>336.3333333333333</ele><time>2026-04-12T08:30:47.807Z</time></trkpt><trkpt lat="45.91248" lon="8.766805"><ele>336.66666666666663</ele><time>2026-04-12T08:30:48.807Z</time></trkpt><trkpt lat="45.9125267" lon="8.7669033"><ele>337.0</ele><time>2026-04-12T08:30:49.806Z</time></trkpt><trkpt lat="45.9125817" lon="8.7670317"><ele>336.0</ele><time>2026-04-12T08:30:50.807Z</time></trkpt><trkpt lat="45.9126317" lon="8.7671467"><ele>335.0</ele><time>2026-04-12T08:30:51.807Z</time></trkpt><trkpt lat="45.9126933" lon="8.7672417"><ele>334.0</ele><time>2026-04-12T08:30:52.807Z</time></trkpt><trkpt lat="45.9127517" lon="8.76734"><ele>333.0</ele><time>2026-04-12T08:30:53.807Z</time></trkpt><trkpt lat="45.9128083" lon="8.767425"><ele>332.0</ele><time>2026-04-12T08:30:54.807Z</time></trkpt><trkpt lat="45.9128583" lon="8.76751"><ele>331.0</ele><time>2026-04-12T08:30:55.807Z</time></trkpt><trkpt lat="45.9128967" lon="8.7676017"><ele>331.0</ele><time>2026-04-12T08:30:56.807Z</time></trkpt><trkpt lat="45.9129217" lon="8.7676883"><ele>331.0</ele><time>2026-04-12T08:30:57.807Z</time></trkpt><trkpt lat="45.9129667" lon="8.76783"><ele>331.0</ele><time>2026-04-12T08:30:59.806Z</time></trkpt><trkpt lat="45.9129817" lon="8.7679233"><ele>331.0</ele><time>2026-04-12T08:31:02.807Z</time></trkpt><trkpt lat="45.913055" lon="8.76784"><ele>331.0</ele><time>2026-04-12T08:31:11.807Z</time></trkpt><trkpt lat="45.9131" lon="8.7677617"><ele>331.0</ele><time>2026-04-12T08:31:12.807Z</time></trkpt><trkpt lat="45.9131583" lon="8.7676867"><ele>331.0</ele><time>2026-04-12T08:31:13.807Z</time></trkpt><trkpt lat="45.9132117" lon="8.7676317"><ele>331.0</ele><time>2026-04-12T08:31:14.807Z</time></trkpt><trkpt lat="45.91327" lon="8.7675683"><ele>331.0</ele><time>2026-04-12T08:31:15.807Z</time></trkpt><trkpt lat="45.9133267" lon="8.7675133"><ele>331.0</ele><time>2026-04-12T08:31:16.807Z</time></trkpt><trkpt lat="45.913395" lon="8.7674133"><ele>331.0</ele><time>2026-04-12T08:31:18.807Z</time></trkpt><trkpt lat="45.9133933" lon="8.76727"><ele>331.0</ele><time>2026-04-12T08:31:20.806Z</time></trkpt><trkpt lat="45.9133917" lon="8.7671083"><ele>327.16666666666663</ele><time>2026-04-12T08:31:22.807Z</time></trkpt><trkpt lat="45.9134183" lon="8.766985"><ele>323.3333333333333</ele><time>2026-04-12T08:31:24.807Z</time></trkpt><trkpt lat="45.9134883" lon="8.76693"><ele>319.5</ele><time>2026-04-12T08:31:26.807Z</time></trkpt><trkpt lat="45.9135467" lon="8.7669733"><ele>315.6666666666667</ele><time>2026-04-12T08:31:28.806Z</time></trkpt><trkpt lat="45.9135867" lon="8.7671033"><ele>311.83333333333337</ele><time>2026-04-12T08:31:30.807Z</time></trkpt><trkpt lat="45.9136267" lon="8.767225"><ele>308.0</ele><time>2026-04-12T08:31:32.806Z</time></trkpt><trkpt lat="45.9136817" lon="8.767355"><ele>308.0</ele><time>2026-04-12T08:31:34.806Z</time></trkpt><trkpt lat="45.9137433" lon="8.7674433"><ele>308.0</ele><time>2026-04-12T08:31:36.806Z</time></trkpt><trkpt lat="45.9137967" lon="8.7675467"><ele>308.0</ele><time>2026-04-12T08:31:38.807Z</time></trkpt><trkpt lat="45.9138517" lon="8.76766"><ele>308.0</ele><time>2026-04-12T08:31:40.807Z</time></trkpt><trkpt lat="45.913915" lon="8.767725"><ele>308.0</ele><time>2026-04-12T08:31:42.807Z</time></trkpt><trkpt lat="45.9139983" lon="8.767735"><ele>308.0</ele><time>2026-04-12T08:31:44.807Z</time></trkpt><trkpt lat="45.91408" lon="8.7677367"><ele>307.4</ele><time>2026-04-12T08:31:46.807Z</time></trkpt><trkpt lat="45.9141683" lon="8.7678"><ele>306.8</ele><time>2026-04-12T08:31:48.807Z</time></trkpt><trkpt lat="45.9142233" lon="8.76787"><ele>306.2</ele><time>2026-04-12T08:31:49.807Z</time></trkpt><trkpt lat="45.91429" lon="8.7679567"><ele>305.6</ele><time>2026-04-12T08:31:50.806Z</time></trkpt><trkpt lat="45.914375" lon="8.7680567"><ele>305.0</ele><time>2026-04-12T08:31:51.807Z</time></trkpt><trkpt lat="45.9144683" lon="8.7681417"><ele>303.0</ele><time>2026-04-12T08:31:52.807Z</time></trkpt><trkpt lat="45.9145633" lon="8.76821"><ele>301.0</ele><time>2026-04-12T08:31:53.806Z</time></trkpt><trkpt lat="45.9146467" lon="8.768265"><ele>299.0</ele><time>2026-04-12T08:31:54.807Z</time></trkpt><trkpt lat="45.9147167" lon="8.7683117"><ele>297.0</ele><time>2026-04-12T08:31:55.807Z</time></trkpt><trkpt lat="45.9147833" lon="8.76835"><ele>295.0</ele><time>2026-04-12T08:31:56.807Z</time></trkpt><trkpt lat="45.9148917" lon="8.76839"><ele>295.0</ele><time>2026-04-12T08:31:58.807Z</time></trkpt><trkpt lat="45.91496" lon="8.7684433"><ele>295.0</ele><time>2026-04-12T08:32:00.807Z</time></trkpt><trkpt lat="45.915" lon="8.7685467"><ele>295.0</ele><time>2026-04-12T08:32:02.807Z</time></trkpt><trkpt lat="45.9149883" lon="8.7686483"><ele>295.0</ele><time>2026-04-12T08:32:04.807Z</time></trkpt><trkpt lat="45.91502" lon="8.7687683"><ele>295.0</ele><time>2026-04-12T08:32:06.807Z</time></trkpt><trkpt lat="45.9150683" lon="8.7688567"><ele>295.0</ele><time>2026-04-12T08:32:07.807Z</time></trkpt><trkpt lat="45.915115" lon="8.7689483"><ele>294.42857142857144</ele><time>2026-04-12T08:32:08.807Z</time></trkpt><trkpt lat="45.9151567" lon="8.769025"><ele>293.8571428571429</ele><time>2026-04-12T08:32:09.807Z</time></trkpt><trkpt lat="45.9152083" lon="8.7690883"><ele>293.2857142857143</ele><time>2026-04-12T08:32:10.807Z</time></trkpt><trkpt lat="45.9152617" lon="8.76915"><ele>292.7142857142857</ele><time>2026-04-12T08:32:11.807Z</time></trkpt><trkpt lat="45.9153167" lon="8.7692333"><ele>292.1428571428571</ele><time>2026-04-12T08:32:12.807Z</time></trkpt><trkpt lat="45.9153567" lon="8.7693133"><ele>291.57142857142856</ele><time>2026-04-12T08:32:13.807Z</time></trkpt><trkpt lat="45.9153933" lon="8.76939"><ele>291.0</ele><time>2026-04-12T08:32:14.807Z</time></trkpt><trkpt lat="45.915445" lon="8.7694733"><ele>291.0</ele><time>2026-04-12T08:32:15.806Z</time></trkpt><trkpt lat="45.9155117" lon="8.769555"><ele>291.0</ele><time>2026-04-12T08:32:16.806Z</time></trkpt><trkpt lat="45.91559" lon="8.7696217"><ele>291.0</ele><time>2026-04-12T08:32:17.807Z</time></trkpt><trkpt lat="45.9156617" lon="8.7696667"><ele>291.0</ele><time>2026-04-12T08:32:18.807Z</time></trkpt><trkpt lat="45.91573" lon="8.769705"><ele>291.0</ele><time>2026-04-12T08:32:19.807Z</time></trkpt><trkpt lat="45.9157867" lon="8.76975"><ele>291.0</ele><time>2026-04-12T08:32:20.807Z</time></trkpt><trkpt lat="45.9158683" lon="8.7698883"><ele>291.1666666666667</ele><time>2026-04-12T08:32:22.807Z</time></trkpt><trkpt lat="45.9159083" lon="8.76999"><ele>291.3333333333333</ele><time>2026-04-12T08:32:23.807Z</time></trkpt><trkpt lat="45.9159517" lon="8.7700867"><ele>291.5</ele><time>2026-04-12T08:32:24.807Z</time></trkpt><trkpt lat="45.9159817" lon="8.7701733"><ele>291.66666666666663</ele><time>2026-04-12T08:32:25.807Z</time></trkpt><trkpt lat="45.916075" lon="8.7702217"><ele>291.8333333333333</ele><time>2026-04-12T08:32:27.807Z</time></trkpt><trkpt lat="45.9161483" lon="8.7701917"><ele>292.0</ele><time>2026-04-12T08:32:28.807Z</time></trkpt><trkpt lat="45.9162333" lon="8.7701283"><ele>290.75</ele><time>2026-04-12T08:32:29.807Z</time></trkpt><trkpt lat="45.9163333" lon="8.7700367"><ele>289.5</ele><time>2026-04-12T08:32:30.807Z</time></trkpt><trkpt lat="45.91645" lon="8.7699317"><ele>288.25</ele><time>2026-04-12T08:32:31.806Z</time></trkpt><trkpt lat="45.916575" lon="8.7698183"><ele>287.0</ele><time>2026-04-12T08:32:32.807Z</time></trkpt><trkpt lat="45.9167" lon="8.7697133"><ele>286.0</ele><time>2026-04-12T08:32:33.807Z</time></trkpt><trkpt lat="45.916815" lon="8.7696133"><ele>285.0</ele><time>2026-04-12T08:32:34.807Z</time></trkpt><trkpt lat="45.916925" lon="8.7695067"><ele>284.0</ele><time>2026-04-12T08:32:35.807Z</time></trkpt><trkpt lat="45.9170383" lon="8.76941"><ele>283.0</ele><time>2026-04-12T08:32:36.806Z</time></trkpt><trkpt lat="45.9171517" lon="8.7693217"><ele>282.8</ele><time>2026-04-12T08:32:37.807Z</time></trkpt><trkpt lat="45.9172567" lon="8.7692383"><ele>282.6</ele><time>2026-04-12T08:32:38.807Z</time></trkpt><trkpt lat="45.917355" lon="8.7691633"><ele>282.4</ele><time>2026-04-12T08:32:39.807Z</time></trkpt><trkpt lat="45.9174467" lon="8.7691033"><ele>282.2</ele><time>2026-04-12T08:32:40.806Z</time></trkpt><trkpt lat="45.917535" lon="8.76904"><ele>282.0</ele><time>2026-04-12T08:32:41.807Z</time></trkpt><trkpt lat="45.91763" lon="8.769"><ele>280.2</ele><time>2026-04-12T08:32:42.807Z</time></trkpt><trkpt lat="45.9177317" lon="8.7689767"><ele>278.4</ele><time>2026-04-12T08:32:43.807Z</time></trkpt><trkpt lat="45.9178233" lon="8.7689583"><ele>276.6</ele><time>2026-04-12T08:32:44.807Z</time></trkpt><trkpt lat="45.917905" lon="8.7689617"><ele>274.8</ele><time>2026-04-12T08:32:45.807Z</time></trkpt><trkpt lat="45.9179833" lon="8.7690067"><ele>273.0</ele><time>2026-04-12T08:32:46.807Z</time></trkpt><trkpt lat="45.918065" lon="8.769085"><ele>273.0</ele><time>2026-04-12T08:32:47.807Z</time></trkpt><trkpt lat="45.9181417" lon="8.7691733"><ele>273.0</ele><time>2026-04-12T08:32:48.807Z</time></trkpt><trkpt lat="45.91821" lon="8.7692567"><ele>273.0</ele><time>2026-04-12T08:32:49.807Z</time></trkpt><trkpt lat="45.9182733" lon="8.7693483"><ele>273.0</ele><time>2026-04-12T08:32:50.807Z</time></trkpt><trkpt lat="45.9183233" lon="8.7694483"><ele>273.0</ele><time>2026-04-12T08:32:51.807Z</time></trkpt><trkpt lat="45.918355" lon="8.7695517"><ele>273.0</ele><time>2026-04-12T08:32:52.807Z</time></trkpt><trkpt lat="45.918385" lon="8.7696433"><ele>271.6</ele><time>2026-04-12T08:32:53.807Z</time></trkpt><trkpt lat="45.9184783" lon="8.7697633"><ele>270.20000000000005</ele><time>2026-04-12T08:32:55.807Z</time></trkpt><trkpt lat="45.918565" lon="8.7698067"><ele>268.8</ele><time>2026-04-12T08:32:56.807Z</time></trkpt><trkpt lat="45.9186617" lon="8.7698467"><ele>267.40000000000003</ele><time>2026-04-12T08:32:57.807Z</time></trkpt><trkpt lat="45.9187567" lon="8.76989"><ele>266.0</ele><time>2026-04-12T08:32:58.807Z</time></trkpt><trkpt lat="45.9188633" lon="8.76993"><ele>266.0</ele><time>2026-04-12T08:32:59.807Z</time></trkpt><trkpt lat="45.91898" lon="8.76997"><ele>266.0</ele><time>2026-04-12T08:33:00.807Z</time></trkpt><trkpt lat="45.9191067" lon="8.7700117"><ele>266.0</ele><time>2026-04-12T08:33:01.807Z</time></trkpt><trkpt lat="45.9192533" lon="8.7700583"><ele>266.0</ele><time>2026-04-12T08:33:02.807Z</time></trkpt><trkpt lat="45.9194083" lon="8.770095"><ele>264.75</ele><time>2026-04-12T08:33:03.807Z</time></trkpt><trkpt lat="45.919555" lon="8.7701267"><ele>263.5</ele><time>2026-04-12T08:33:04.807Z</time></trkpt><trkpt lat="45.9196883" lon="8.7701567"><ele>262.25</ele><time>2026-04-12T08:33:05.807Z</time></trkpt><trkpt lat="45.919805" lon="8.7701817"><ele>261.0</ele><time>2026-04-12T08:33:06.807Z</time></trkpt><trkpt lat="45.919915" lon="8.7701967"><ele>260.8333333333333</ele><time>2026-04-12T08:33:07.806Z</time></trkpt><trkpt lat="45.9200133" lon="8.7702017"><ele>260.6666666666667</ele><time>2026-04-12T08:33:08.807Z</time></trkpt><trkpt lat="45.9200917" lon="8.7702117"><ele>260.5</ele><time>2026-04-12T08:33:09.807Z</time></trkpt><trkpt lat="45.9201783" lon="8.7702183"><ele>260.33333333333337</ele><time>2026-04-12T08:33:10.807Z</time></trkpt><trkpt lat="45.9202533" lon="8.7702233"><ele>260.1666666666667</ele><time>2026-04-12T08:33:11.807Z</time></trkpt><trkpt lat="45.92036" lon="8.77024"><ele>260.0</ele><time>2026-04-12T08:33:13.807Z</time></trkpt><trkpt lat="45.9204467" lon="8.7702283"><ele>259.8</ele><time>2026-04-12T08:33:16.807Z</time></trkpt><trkpt lat="45.920535" lon="8.7702417"><ele>259.6</ele><time>2026-04-12T08:33:18.807Z</time></trkpt><trkpt lat="45.9206233" lon="8.7702633"><ele>259.4</ele><time>2026-04-12T08:33:20.807Z</time></trkpt><trkpt lat="45.920715" lon="8.77028"><ele>259.2</ele><time>2026-04-12T08:33:22.807Z</time></trkpt><trkpt lat="45.9208067" lon="8.77029"><ele>259.0</ele><time>2026-04-12T08:33:24.807Z</time></trkpt><trkpt lat="45.9209083" lon="8.7703"><ele>258.66666666666663</ele><time>2026-04-12T08:33:26.807Z</time></trkpt><trkpt lat="45.9210033" lon="8.7703183"><ele>258.3333333333333</ele><time>2026-04-12T08:33:28.807Z</time></trkpt><trkpt lat="45.92111" lon="8.7703433"><ele>258.0</ele><time>2026-04-12T08:33:30.807Z</time></trkpt><trkpt lat="45.9212183" lon="8.7703717"><ele>257.6666666666667</ele><time>2026-04-12T08:33:32.807Z</time></trkpt><trkpt lat="45.9212817" lon="8.7703967"><ele>257.33333333333337</ele><time>2026-04-12T08:33:33.807Z</time></trkpt><trkpt lat="45.9213483" lon="8.7704217"><ele>257.0</ele><time>2026-04-12T08:33:34.807Z</time></trkpt><trkpt lat="45.9214083" lon="8.77045"><ele>257.0</ele><time>2026-04-12T08:33:35.807Z</time></trkpt><trkpt lat="45.9214733" lon="8.770465"><ele>257.0</ele><time>2026-04-12T08:33:36.807Z</time></trkpt><trkpt lat="45.9215367" lon="8.77048"><ele>257.0</ele><time>2026-04-12T08:33:37.807Z</time></trkpt><trkpt lat="45.9216" lon="8.7704817"><ele>257.0</ele><time>2026-04-12T08:33:38.807Z</time></trkpt><trkpt lat="45.921675" lon="8.7704683"><ele>257.0</ele><time>2026-04-12T08:33:39.807Z</time></trkpt><trkpt lat="45.9217433" lon="8.7704533"><ele>257.0</ele><time>2026-04-12T08:33:40.807Z</time></trkpt><trkpt lat="45.92187" lon="8.7704133"><ele>256.83333333333337</ele><time>2026-04-12T08:33:42.807Z</time></trkpt><trkpt lat="45.9219383" lon="8.770375"><ele>256.6666666666667</ele><time>2026-04-12T08:33:43.807Z</time></trkpt><trkpt lat="45.9220117" lon="8.7703183"><ele>256.5</ele><time>2026-04-12T08:33:44.807Z</time></trkpt><trkpt lat="45.9220883" lon="8.7702683"><ele>256.3333333333333</ele><time>2026-04-12T08:33:45.807Z</time></trkpt><trkpt lat="45.922165" lon="8.770235"><ele>256.16666666666663</ele><time>2026-04-12T08:33:46.807Z</time></trkpt><trkpt lat="45.9222517" lon="8.7702067"><ele>256.0</ele><time>2026-04-12T08:33:47.807Z</time></trkpt><trkpt lat="45.9223467" lon="8.7701817"><ele>256.0</ele><time>2026-04-12T08:33:48.807Z</time></trkpt><trkpt lat="45.9224467" lon="8.7701617"><ele>256.0</ele><time>2026-04-12T08:33:49.807Z</time></trkpt><trkpt lat="45.9225533" lon="8.77015"><ele>256.0</ele><time>2026-04-12T08:33:50.807Z</time></trkpt><trkpt lat="45.922665" lon="8.77014"><ele>256.0</ele><time>2026-04-12T08:33:51.807Z</time></trkpt><trkpt lat="45.9227733" lon="8.7701417"><ele>256.0</ele><time>2026-04-12T08:33:52.807Z</time></trkpt><trkpt lat="45.92288" lon="8.7701433"><ele>256.0</ele><time>2026-04-12T08:33:53.807Z</time></trkpt><trkpt lat="45.922995" lon="8.7701367"><ele>256.0</ele><time>2026-04-12T08:33:54.807Z</time></trkpt><trkpt lat="45.92312" lon="8.7701283"><ele>256.0</ele><time>2026-04-12T08:33:55.807Z</time></trkpt><trkpt lat="45.9232367" lon="8.77013"><ele>256.0</ele><time>2026-04-12T08:33:56.807Z</time></trkpt><trkpt lat="45.9233383" lon="8.7701233"><ele>256.5</ele><time>2026-04-12T08:33:57.807Z</time></trkpt><trkpt lat="45.9234267" lon="8.7701067"><ele>257.0</ele><time>2026-04-12T08:33:58.807Z</time></trkpt><trkpt lat="45.9235133" lon="8.7700917"><ele>257.5</ele><time>2026-04-12T08:33:59.807Z</time></trkpt><trkpt lat="45.9235967" lon="8.7700767"><ele>258.0</ele><time>2026-04-12T08:34:00.807Z</time></trkpt><trkpt lat="45.9236867" lon="8.7700517"><ele>258.5</ele><time>2026-04-12T08:34:01.806Z</time></trkpt><trkpt lat="45.9237733" lon="8.77001"><ele>259.0</ele><time>2026-04-12T08:34:02.807Z</time></trkpt><trkpt lat="45.9238567" lon="8.7699267"><ele>259.0</ele><time>2026-04-12T08:34:03.806Z</time></trkpt><trkpt lat="45.9239267" lon="8.7698467"><ele>259.0</ele><time>2026-04-12T08:34:04.807Z</time></trkpt><trkpt lat="45.9239783" lon="8.769765"><ele>259.0</ele><time>2026-04-12T08:34:05.807Z</time></trkpt><trkpt lat="45.92403" lon="8.769705"><ele>259.0</ele><time>2026-04-12T08:34:06.807Z</time></trkpt><trkpt lat="45.9241033" lon="8.7696583"><ele>259.0</ele><time>2026-04-12T08:34:07.807Z</time></trkpt><trkpt lat="45.9242017" lon="8.769615"><ele>259.0</ele><time>2026-04-12T08:34:08.807Z</time></trkpt><trkpt lat="45.924295" lon="8.7695717"><ele>260.16666666666663</ele><time>2026-04-12T08:34:09.807Z</time></trkpt><trkpt lat="45.9243717" lon="8.7695233"><ele>261.3333333333333</ele><time>2026-04-12T08:34:10.806Z</time></trkpt><trkpt lat="45.9244533" lon="8.769475"><ele>262.5</ele><time>2026-04-12T08:34:11.807Z</time></trkpt><trkpt lat="45.9245383" lon="8.7694317"><ele>263.6666666666667</ele><time>2026-04-12T08:34:12.807Z</time></trkpt><trkpt lat="45.9246183" lon="8.7693767"><ele>264.83333333333337</ele><time>2026-04-12T08:34:13.807Z</time></trkpt><trkpt lat="45.9246883" lon="8.7693167"><ele>266.0</ele><time>2026-04-12T08:34:14.807Z</time></trkpt><trkpt lat="45.9247483" lon="8.7692717"><ele>266.5</ele><time>2026-04-12T08:34:15.807Z</time></trkpt><trkpt lat="45.9248133" lon="8.7692333"><ele>267.0</ele><time>2026-04-12T08:34:16.807Z</time></trkpt><trkpt lat="45.9248883" lon="8.769205"><ele>267.5</ele><time>2026-04-12T08:34:17.807Z</time></trkpt><trkpt lat="45.9249817" lon="8.769195"><ele>268.0</ele><time>2026-04-12T08:34:18.807Z</time></trkpt><trkpt lat="45.92507" lon="8.769215"><ele>268.5</ele><time>2026-04-12T08:34:19.807Z</time></trkpt><trkpt lat="45.9251583" lon="8.7692283"><ele>269.0</ele><time>2026-04-12T08:34:20.806Z</time></trkpt><trkpt lat="45.9252483" lon="8.7692317"><ele>270.4</ele><time>2026-04-12T08:34:21.806Z</time></trkpt><trkpt lat="45.925335" lon="8.76924"><ele>271.79999999999995</ele><time>2026-04-12T08:34:22.807Z</time></trkpt><trkpt lat="45.9254233" lon="8.7692567"><ele>273.20000000000005</ele><time>2026-04-12T08:34:23.807Z</time></trkpt><trkpt lat="45.9255283" lon="8.7692767"><ele>274.6</ele><time>2026-04-12T08:34:24.807Z</time></trkpt><trkpt lat="45.925635" lon="8.769295"><ele>276.0</ele><time>2026-04-12T08:34:25.807Z</time></trkpt><trkpt lat="45.92574" lon="8.7693233"><ele>275.40000000000003</ele><time>2026-04-12T08:34:26.807Z</time></trkpt><trkpt lat="45.9258517" lon="8.7693783"><ele>274.8</ele><time>2026-04-12T08:34:27.807Z</time></trkpt><trkpt lat="45.9259633" lon="8.7694483"><ele>274.20000000000005</ele><time>2026-04-12T08:34:28.807Z</time></trkpt><trkpt lat="45.9260633" lon="8.7695083"><ele>273.6</ele><time>2026-04-12T08:34:29.807Z</time></trkpt><trkpt lat="45.9261533" lon="8.769555"><ele>273.0</ele><time>2026-04-12T08:34:30.806Z</time></trkpt><trkpt lat="45.9262517" lon="8.7695817"><ele>275.25</ele><time>2026-04-12T08:34:31.807Z</time></trkpt><trkpt lat="45.926365" lon="8.7695917"><ele>277.5</ele><time>2026-04-12T08:34:32.807Z</time></trkpt><trkpt lat="45.9264783" lon="8.7696"><ele>279.75</ele><time>2026-04-12T08:34:33.806Z</time></trkpt><trkpt lat="45.9265917" lon="8.7696067"><ele>282.0</ele><time>2026-04-12T08:34:34.807Z</time></trkpt><trkpt lat="45.9267033" lon="8.7696083"><ele>282.0</ele><time>2026-04-12T08:34:35.807Z</time></trkpt><trkpt lat="45.9268117" lon="8.7695917"><ele>282.0</ele><time>2026-04-12T08:34:36.807Z</time></trkpt><trkpt lat="45.92692" lon="8.769565"><ele>282.0</ele><time>2026-04-12T08:34:37.807Z</time></trkpt><trkpt lat="45.9270383" lon="8.7695233"><ele>282.0</ele><time>2026-04-12T08:34:38.807Z</time></trkpt><trkpt lat="45.927155" lon="8.7694883"><ele>282.0</ele><time>2026-04-12T08:34:39.807Z</time></trkpt><trkpt lat="45.9272567" lon="8.7694433"><ele>282.0</ele><time>2026-04-12T08:34:40.807Z</time></trkpt><trkpt lat="45.9273533" lon="8.76942"><ele>282.0</ele><time>2026-04-12T08:34:41.807Z</time></trkpt><trkpt lat="45.9274567" lon="8.769415"><ele>282.0</ele><time>2026-04-12T08:34:42.807Z</time></trkpt><trkpt lat="45.927555" lon="8.7694083"><ele>282.0</ele><time>2026-04-12T08:34:43.806Z</time></trkpt><trkpt lat="45.9276567" lon="8.7693783"><ele>281.5</ele><time>2026-04-12T08:34:44.807Z</time></trkpt><trkpt lat="45.9277617" lon="8.7693433"><ele>281.0</ele><time>2026-04-12T08:34:45.807Z</time></trkpt><trkpt lat="45.9278733" lon="8.7693183"><ele>280.5</ele><time>2026-04-12T08:34:46.807Z</time></trkpt><trkpt lat="45.9280033" lon="8.7692933"><ele>280.0</ele><time>2026-04-12T08:34:47.807Z</time></trkpt><trkpt lat="45.9281333" lon="8.7692733"><ele>280.0</ele><time>2026-04-12T08:34:48.807Z</time></trkpt><trkpt lat="45.92825" lon="8.7692567"><ele>280.0</ele><time>2026-04-12T08:34:49.807Z</time></trkpt><trkpt lat="45.92836" lon="8.769225"><ele>280.0</ele><time>2026-04-12T08:34:50.807Z</time></trkpt><trkpt lat="45.928455" lon="8.7691967"><ele>280.0</ele><time>2026-04-12T08:34:51.806Z</time></trkpt><trkpt lat="45.92855" lon="8.7691883"><ele>280.0</ele><time>2026-04-12T08:34:52.807Z</time></trkpt><trkpt lat="45.928655" lon="8.7692033"><ele>280.75</ele><time>2026-04-12T08:34:53.807Z</time></trkpt><trkpt lat="45.9287717" lon="8.76923"><ele>281.5</ele><time>2026-04-12T08:34:54.807Z</time></trkpt><trkpt lat="45.9288883" lon="8.7692567"><ele>282.25</ele><time>2026-04-12T08:34:55.806Z</time></trkpt><trkpt lat="45.9290033" lon="8.7692667"><ele>283.0</ele><time>2026-04-12T08:34:56.807Z</time></trkpt><trkpt lat="45.929115" lon="8.7692817"><ele>283.0</ele><time>2026-04-12T08:34:57.807Z</time></trkpt><trkpt lat="45.9292167" lon="8.7692833"><ele>283.0</ele><time>2026-04-12T08:34:58.807Z</time></trkpt><trkpt lat="45.9293217" lon="8.7692683"><ele>283.0</ele><time>2026-04-12T08:34:59.806Z</time></trkpt><trkpt lat="45.9294133" lon="8.7692383"><ele>283.0</ele><time>2026-04-12T08:35:00.807Z</time></trkpt><trkpt lat="45.9295017" lon="8.769195"><ele>283.0</ele><time>2026-04-12T08:35:01.807Z</time></trkpt><trkpt lat="45.929585" lon="8.7691517"><ele>284.0</ele><time>2026-04-12T08:35:02.807Z</time></trkpt><trkpt lat="45.9296567" lon="8.7691183"><ele>285.0</ele><time>2026-04-12T08:35:03.807Z</time></trkpt><trkpt lat="45.9297367" lon="8.7690867"><ele>286.0</ele><time>2026-04-12T08:35:04.807Z</time></trkpt><trkpt lat="45.9298233" lon="8.7690583"><ele>287.0</ele><time>2026-04-12T08:35:05.807Z</time></trkpt><trkpt lat="45.929905" lon="8.769035"><ele>288.0</ele><time>2026-04-12T08:35:06.807Z</time></trkpt><trkpt lat="45.929985" lon="8.769015"><ele>289.0</ele><time>2026-04-12T08:35:07.807Z</time></trkpt><trkpt lat="45.9300633" lon="8.769"><ele>290.2</ele><time>2026-04-12T08:35:08.807Z</time></trkpt><trkpt lat="45.930145" lon="8.7689967"><ele>291.4</ele><time>2026-04-12T08:35:09.807Z</time></trkpt><trkpt lat="45.93025" lon="8.76899"><ele>292.6</ele><time>2026-04-12T08:35:10.807Z</time></trkpt><trkpt lat="45.9303517" lon="8.7689633"><ele>293.8</ele><time>2026-04-12T08:35:11.807Z</time></trkpt><trkpt lat="45.93045" lon="8.7689233"><ele>295.0</ele><time>2026-04-12T08:35:12.807Z</time></trkpt><trkpt lat="45.9305433" lon="8.768885"><ele>295.0</ele><time>2026-04-12T08:35:13.807Z</time></trkpt><trkpt lat="45.9306367" lon="8.7688583"><ele>295.0</ele><time>2026-04-12T08:35:14.807Z</time></trkpt><trkpt lat="45.9307333" lon="8.7688383"><ele>295.0</ele><time>2026-04-12T08:35:15.807Z</time></trkpt><trkpt lat="45.9308283" lon="8.768825"><ele>295.0</ele><time>2026-04-12T08:35:16.807Z</time></trkpt><trkpt lat="45.9309233" lon="8.7688117"><ele>295.0</ele><time>2026-04-12T08:35:17.807Z</time></trkpt><trkpt lat="45.9310217" lon="8.7688133"><ele>296.5</ele><time>2026-04-12T08:35:18.807Z</time></trkpt><trkpt lat="45.9311367" lon="8.7688217"><ele>298.0</ele><time>2026-04-12T08:35:19.807Z</time></trkpt><trkpt lat="45.9312483" lon="8.7688683"><ele>299.5</ele><time>2026-04-12T08:35:20.806Z</time></trkpt><trkpt lat="45.9313567" lon="8.7689083"><ele>301.0</ele><time>2026-04-12T08:35:21.806Z</time></trkpt><trkpt lat="45.9314633" lon="8.76894"><ele>301.0</ele><time>2026-04-12T08:35:22.807Z</time></trkpt><trkpt lat="45.9315617" lon="8.7689467"><ele>301.0</ele><time>2026-04-12T08:35:23.806Z</time></trkpt><trkpt lat="45.931665" lon="8.7689517"><ele>301.0</ele><time>2026-04-12T08:35:24.807Z</time></trkpt><trkpt lat="45.931745" lon="8.7689667"><ele>301.0</ele><time>2026-04-12T08:35:25.807Z</time></trkpt><trkpt lat="45.9318317" lon="8.7689833"><ele>301.0</ele><time>2026-04-12T08:35:26.807Z</time></trkpt><trkpt lat="45.9319217" lon="8.7690183"><ele>301.3333333333333</ele><time>2026-04-12T08:35:27.807Z</time></trkpt><trkpt lat="45.9319933" lon="8.7690567"><ele>301.66666666666663</ele><time>2026-04-12T08:35:28.807Z</time></trkpt><trkpt lat="45.93206" lon="8.7691533"><ele>302.0</ele><time>2026-04-12T08:35:29.807Z</time></trkpt><trkpt lat="45.9321433" lon="8.76922"><ele>302.3333333333333</ele><time>2026-04-12T08:35:30.807Z</time></trkpt><trkpt lat="45.9322283" lon="8.7692817"><ele>302.6666666666667</ele><time>2026-04-12T08:35:31.807Z</time></trkpt><trkpt lat="45.932295" lon="8.7693267"><ele>303.0</ele><time>2026-04-12T08:35:32.807Z</time></trkpt><trkpt lat="45.9323633" lon="8.7693617"><ele>302.0</ele><time>2026-04-12T08:35:33.807Z</time></trkpt><trkpt lat="45.93245" lon="8.76931"><ele>301.0</ele><time>2026-04-12T08:35:35.807Z</time></trkpt><trkpt lat="45.93249" lon="8.7691417"><ele>300.0</ele><time>2026-04-12T08:35:37.807Z</time></trkpt><trkpt lat="45.932505" lon="8.76903"><ele>299.0</ele><time>2026-04-12T08:35:38.807Z</time></trkpt><trkpt lat="45.9325217" lon="8.768915"><ele>298.0</ele><time>2026-04-12T08:35:39.807Z</time></trkpt><trkpt lat="45.9325417" lon="8.7688083"><ele>299.0</ele><time>2026-04-12T08:35:40.807Z</time></trkpt><trkpt lat="45.9325683" lon="8.7687183"><ele>300.0</ele><time>2026-04-12T08:35:41.807Z</time></trkpt><trkpt lat="45.93261" lon="8.76863"><ele>301.0</ele><time>2026-04-12T08:35:42.807Z</time></trkpt><trkpt lat="45.9326633" lon="8.7685467"><ele>302.0</ele><time>2026-04-12T08:35:43.807Z</time></trkpt><trkpt lat="45.9327183" lon="8.7684583"><ele>303.0</ele><time>2026-04-12T08:35:44.807Z</time></trkpt><trkpt lat="45.93276" lon="8.7683567"><ele>304.0</ele><time>2026-04-12T08:35:45.807Z</time></trkpt><trkpt lat="45.932785" lon="8.7682417"><ele>305.0</ele><time>2026-04-12T08:35:46.807Z</time></trkpt><trkpt lat="45.9328" lon="8.7681433"><ele>306.0</ele><time>2026-04-12T08:35:47.807Z</time></trkpt><trkpt lat="45.9328617" lon="8.7680383"><ele>307.0</ele><time>2026-04-12T08:35:49.807Z</time></trkpt><trkpt lat="45.93297" lon="8.768095"><ele>308.0</ele><time>2026-04-12T08:35:51.807Z</time></trkpt><trkpt lat="45.9330467" lon="8.7681833"><ele>309.0</ele><time>2026-04-12T08:35:52.807Z</time></trkpt><trkpt lat="45.9331233" lon="8.768285"><ele>309.0</ele><time>2026-04-12T08:35:53.807Z</time></trkpt><trkpt lat="45.9331967" lon="8.7683783"><ele>309.0</ele><time>2026-04-12T08:35:54.807Z</time></trkpt><trkpt lat="45.93328" lon="8.7684567"><ele>309.0</ele><time>2026-04-12T08:35:55.807Z</time></trkpt><trkpt lat="45.9333633" lon="8.7685117"><ele>309.0</ele><time>2026-04-12T08:35:56.807Z</time></trkpt><trkpt lat="45.9334533" lon="8.7685267"><ele>309.0</ele><time>2026-04-12T08:35:57.807Z</time></trkpt><trkpt lat="45.9335433" lon="8.7685067"><ele>311.6</ele><time>2026-04-12T08:35:58.807Z</time></trkpt><trkpt lat="45.93365" lon="8.768475"><ele>314.2</ele><time>2026-04-12T08:35:59.807Z</time></trkpt><trkpt lat="45.9337567" lon="8.76842"><ele>316.8</ele><time>2026-04-12T08:36:00.807Z</time></trkpt><trkpt lat="45.9338483" lon="8.76835"><ele>319.40000000000003</ele><time>2026-04-12T08:36:01.807Z</time></trkpt><trkpt lat="45.9339317" lon="8.7682633"><ele>322.0</ele><time>2026-04-12T08:36:02.807Z</time></trkpt><trkpt lat="45.9340117" lon="8.768185"><ele>322.0</ele><time>2026-04-12T08:36:03.807Z</time></trkpt><trkpt lat="45.9340883" lon="8.76813"><ele>322.0</ele><time>2026-04-12T08:36:04.807Z</time></trkpt><trkpt lat="45.9341767" lon="8.768095"><ele>322.0</ele><time>2026-04-12T08:36:05.807Z</time></trkpt><trkpt lat="45.93427" lon="8.7680633"><ele>322.0</ele><time>2026-04-12T08:36:06.807Z</time></trkpt><trkpt lat="45.9343617" lon="8.7680183"><ele>322.0</ele><time>2026-04-12T08:36:07.806Z</time></trkpt><trkpt lat="45.93445" lon="8.7679467"><ele>322.40000000000003</ele><time>2026-04-12T08:36:08.807Z</time></trkpt><trkpt lat="45.9345333" lon="8.7678633"><ele>322.8</ele><time>2026-04-12T08:36:09.806Z</time></trkpt><trkpt lat="45.9346017" lon="8.7677783"><ele>323.2</ele><time>2026-04-12T08:36:10.807Z</time></trkpt><trkpt lat="45.9346667" lon="8.76769"><ele>323.6</ele><time>2026-04-12T08:36:11.807Z</time></trkpt><trkpt lat="45.9347283" lon="8.7675867"><ele>324.0</ele><time>2026-04-12T08:36:12.807Z</time></trkpt><trkpt lat="45.9347817" lon="8.7674717"><ele>325.4</ele><time>2026-04-12T08:36:13.807Z</time></trkpt><trkpt lat="45.9348483" lon="8.7673617"><ele>326.79999999999995</ele><time>2026-04-12T08:36:14.807Z</time></trkpt><trkpt lat="45.9349233" lon="8.76726"><ele>328.20000000000005</ele><time>2026-04-12T08:36:15.806Z</time></trkpt><trkpt lat="45.935005" lon="8.76716"><ele>329.6</ele><time>2026-04-12T08:36:16.807Z</time></trkpt><trkpt lat="45.935095" lon="8.7670683"><ele>331.0</ele><time>2026-04-12T08:36:17.807Z</time></trkpt><trkpt lat="45.9351733" lon="8.76698"><ele>331.0</ele><time>2026-04-12T08:36:18.807Z</time></trkpt><trkpt lat="45.9352317" lon="8.7668867"><ele>331.0</ele><time>2026-04-12T08:36:19.807Z</time></trkpt><trkpt lat="45.935275" lon="8.7667733"><ele>331.0</ele><time>2026-04-12T08:36:20.807Z</time></trkpt><trkpt lat="45.935305" lon="8.766635"><ele>331.0</ele><time>2026-04-12T08:36:21.807Z</time></trkpt><trkpt lat="45.9353217" lon="8.7664967"><ele>331.0</ele><time>2026-04-12T08:36:22.807Z</time></trkpt><trkpt lat="45.9353217" lon="8.7663567"><ele>333.3333333333333</ele><time>2026-04-12T08:36:23.807Z</time></trkpt><trkpt lat="45.9353233" lon="8.7662417"><ele>335.66666666666663</ele><time>2026-04-12T08:36:24.807Z</time></trkpt><trkpt lat="45.9353367" lon="8.7661333"><ele>338.0</ele><time>2026-04-12T08:36:25.807Z</time></trkpt><trkpt lat="45.9353767" lon="8.7660267"><ele>340.3333333333333</ele><time>2026-04-12T08:36:26.807Z</time></trkpt><trkpt lat="45.9354267" lon="8.765915"><ele>342.6666666666667</ele><time>2026-04-12T08:36:27.807Z</time></trkpt><trkpt lat="45.935475" lon="8.7657983"><ele>345.0</ele><time>2026-04-12T08:36:28.807Z</time></trkpt><trkpt lat="45.9355267" lon="8.765685"><ele>347.0</ele><time>2026-04-12T08:36:29.806Z</time></trkpt><trkpt lat="45.9355983" lon="8.7655683"><ele>349.0</ele><time>2026-04-12T08:36:30.807Z</time></trkpt><trkpt lat="45.9356767" lon="8.7654717"><ele>351.0</ele><time>2026-04-12T08:36:31.807Z</time></trkpt><trkpt lat="45.9357467" lon="8.76539"><ele>353.0</ele><time>2026-04-12T08:36:32.807Z</time></trkpt><trkpt lat="45.9358167" lon="8.7653183"><ele>355.0</ele><time>2026-04-12T08:36:33.807Z</time></trkpt><trkpt lat="45.935885" lon="8.76524"><ele>352.8</ele><time>2026-04-12T08:36:34.807Z</time></trkpt><trkpt lat="45.9359567" lon="8.7651467"><ele>350.6</ele><time>2026-04-12T08:36:35.807Z</time></trkpt><trkpt lat="45.9360267" lon="8.7650433"><ele>348.4</ele><time>2026-04-12T08:36:36.807Z</time></trkpt><trkpt lat="45.9360883" lon="8.7649367"><ele>346.2</ele><time>2026-04-12T08:36:37.807Z</time></trkpt><trkpt lat="45.93614" lon="8.7648383"><ele>344.0</ele><time>2026-04-12T08:36:38.807Z</time></trkpt><trkpt lat="45.9362" lon="8.7647367"><ele>344.0</ele><time>2026-04-12T08:36:39.807Z</time></trkpt><trkpt lat="45.9362583" lon="8.7646317"><ele>344.0</ele><time>2026-04-12T08:36:40.807Z</time></trkpt><trkpt lat="45.9363117" lon="8.764535"><ele>344.0</ele><time>2026-04-12T08:36:41.807Z</time></trkpt><trkpt lat="45.9363383" lon="8.7644433"><ele>344.0</ele><time>2026-04-12T08:36:42.807Z</time></trkpt><trkpt lat="45.936345" lon="8.76434"><ele>344.0</ele><time>2026-04-12T08:36:43.807Z</time></trkpt><trkpt lat="45.9363517" lon="8.7642233"><ele>344.0</ele><time>2026-04-12T08:36:44.807Z</time></trkpt><trkpt lat="45.9363717" lon="8.7641033"><ele>345.33333333333337</ele><time>2026-04-12T08:36:45.807Z</time></trkpt><trkpt lat="45.9363967" lon="8.7639817"><ele>346.6666666666667</ele><time>2026-04-12T08:36:46.807Z</time></trkpt><trkpt lat="45.936435" lon="8.7638567"><ele>348.0</ele><time>2026-04-12T08:36:47.807Z</time></trkpt><trkpt lat="45.9364633" lon="8.7637367"><ele>349.3333333333333</ele><time>2026-04-12T08:36:48.807Z</time></trkpt><trkpt lat="45.9364783" lon="8.7636167"><ele>350.66666666666663</ele><time>2026-04-12T08:36:49.807Z</time></trkpt><trkpt lat="45.9364817" lon="8.763485"><ele>352.0</ele><time>2026-04-12T08:36:50.807Z</time></trkpt><trkpt lat="45.936475" lon="8.7633633"><ele>353.5</ele><time>2026-04-12T08:36:51.807Z</time></trkpt><trkpt lat="45.9364667" lon="8.7632533"><ele>355.0</ele><time>2026-04-12T08:36:52.807Z</time></trkpt><trkpt lat="45.936465" lon="8.76316"><ele>356.5</ele><time>2026-04-12T08:36:53.807Z</time></trkpt><trkpt lat="45.9364617" lon="8.7629983"><ele>358.0</ele><time>2026-04-12T08:36:55.807Z</time></trkpt><trkpt lat="45.93646" lon="8.762865"><ele>359.5</ele><time>2026-04-12T08:36:57.807Z</time></trkpt><trkpt lat="45.9364667" lon="8.7627517"><ele>361.0</ele><time>2026-04-12T08:36:59.806Z</time></trkpt><trkpt lat="45.9364883" lon="8.76263"><ele>361.66666666666663</ele><time>2026-04-12T08:37:02.807Z</time></trkpt><trkpt lat="45.9365683" lon="8.7625817"><ele>362.3333333333333</ele><time>2026-04-12T08:37:05.806Z</time></trkpt><trkpt lat="45.936635" lon="8.76257"><ele>363.0</ele><time>2026-04-12T08:37:07.807Z</time></trkpt><trkpt lat="45.9366983" lon="8.762595"><ele>363.6666666666667</ele><time>2026-04-12T08:37:09.807Z</time></trkpt><trkpt lat="45.93675" lon="8.7626983"><ele>364.33333333333337</ele><time>2026-04-12T08:37:12.807Z</time></trkpt><trkpt lat="45.9368017" lon="8.762835"><ele>365.0</ele><time>2026-04-12T08:37:14.807Z</time></trkpt><trkpt lat="45.93685" lon="8.7629183"><ele>365.0</ele><time>2026-04-12T08:37:15.807Z</time></trkpt><trkpt lat="45.936935" lon="8.76303"><ele>365.0</ele><time>2026-04-12T08:37:17.807Z</time></trkpt><trkpt lat="45.9370283" lon="8.7631417"><ele>365.0</ele><time>2026-04-12T08:37:19.807Z</time></trkpt><trkpt lat="45.9370783" lon="8.7632067"><ele>365.0</ele><time>2026-04-12T08:37:20.807Z</time></trkpt><trkpt lat="45.9371317" lon="8.7632867"><ele>365.0</ele><time>2026-04-12T08:37:21.807Z</time></trkpt><trkpt lat="45.9371917" lon="8.7633767"><ele>365.0</ele><time>2026-04-12T08:37:22.807Z</time></trkpt><trkpt lat="45.9372433" lon="8.7634633"><ele>365.0</ele><time>2026-04-12T08:37:23.807Z</time></trkpt><trkpt lat="45.9372917" lon="8.7635433"><ele>365.0</ele><time>2026-04-12T08:37:24.807Z</time></trkpt><trkpt lat="45.9373367" lon="8.76361"><ele>365.0</ele><time>2026-04-12T08:37:25.807Z</time></trkpt><trkpt lat="45.9374217" lon="8.76372"><ele>365.0</ele><time>2026-04-12T08:37:27.807Z</time></trkpt><trkpt lat="45.9375133" lon="8.76376"><ele>365.0</ele><time>2026-04-12T08:37:29.807Z</time></trkpt><trkpt lat="45.937615" lon="8.76374"><ele>363.1666666666667</ele><time>2026-04-12T08:37:31.807Z</time></trkpt><trkpt lat="45.937715" lon="8.763715"><ele>361.33333333333337</ele><time>2026-04-12T08:37:33.807Z</time></trkpt><trkpt lat="45.937785" lon="8.7636683"><ele>359.5</ele><time>2026-04-12T08:37:35.807Z</time></trkpt><trkpt lat="45.937865" lon="8.7636"><ele>357.6666666666667</ele><time>2026-04-12T08:37:37.807Z</time></trkpt><trkpt lat="45.93795" lon="8.76354"><ele>355.8333333333333</ele><time>2026-04-12T08:37:39.807Z</time></trkpt><trkpt lat="45.9380233" lon="8.7635567"><ele>354.0</ele><time>2026-04-12T08:37:41.807Z</time></trkpt><trkpt lat="45.9380983" lon="8.763645"><ele>354.0</ele><time>2026-04-12T08:37:43.807Z</time></trkpt><trkpt lat="45.93814" lon="8.7637767"><ele>354.0</ele><time>2026-04-12T08:37:45.806Z</time></trkpt><trkpt lat="45.93817" lon="8.7639383"><ele>354.0</ele><time>2026-04-12T08:37:47.807Z</time></trkpt><trkpt lat="45.9381883" lon="8.7640917"><ele>354.0</ele><time>2026-04-12T08:37:49.807Z</time></trkpt><trkpt lat="45.93821" lon="8.7641967"><ele>354.0</ele><time>2026-04-12T08:37:51.807Z</time></trkpt><trkpt lat="45.9382333" lon="8.7643033"><ele>354.0</ele><time>2026-04-12T08:37:54.807Z</time></trkpt><trkpt lat="45.93831" lon="8.76433"><ele>354.0</ele><time>2026-04-12T08:38:00.806Z</time></trkpt><trkpt lat="45.9383883" lon="8.764335"><ele>354.0</ele><time>2026-04-12T08:38:04.807Z</time></trkpt><trkpt lat="45.9384383" lon="8.7644183"><ele>354.0</ele><time>2026-04-12T08:38:09.807Z</time></trkpt><trkpt lat="45.9385167" lon="8.7644733"><ele>354.0</ele><time>2026-04-12T08:38:11.807Z</time></trkpt><trkpt lat="45.9385983" lon="8.7644717"><ele>354.0</ele><time>2026-04-12T08:38:13.807Z</time></trkpt><trkpt lat="45.9386633" lon="8.7644733"><ele>352.1666666666667</ele><time>2026-04-12T08:38:16.807Z</time></trkpt><trkpt lat="45.9387367" lon="8.76453"><ele>350.3333333333333</ele><time>2026-04-12T08:38:19.807Z</time></trkpt><trkpt lat="45.9387883" lon="8.7644383"><ele>348.5</ele><time>2026-04-12T08:38:24.807Z</time></trkpt><trkpt lat="45.9388267" lon="8.764335"><ele>346.66666666666663</ele><time>2026-04-12T08:38:26.807Z</time></trkpt><trkpt lat="45.9388867" lon="8.7642683"><ele>344.8333333333333</ele><time>2026-04-12T08:38:29.807Z</time></trkpt><trkpt lat="45.9389583" lon="8.7642333"><ele>343.0</ele><time>2026-04-12T08:38:34.807Z</time></trkpt><trkpt lat="45.9390383" lon="8.7642233"><ele>343.0</ele><time>2026-04-12T08:38:39.807Z</time></trkpt><trkpt lat="45.9391133" lon="8.7642483"><ele>343.0</ele><time>2026-04-12T08:38:42.807Z</time></trkpt><trkpt lat="45.9391617" lon="8.7643533"><ele>343.0</ele><time>2026-04-12T08:38:45.807Z</time></trkpt><trkpt lat="45.9391833" lon="8.7644733"><ele>343.0</ele><time>2026-04-12T08:38:48.807Z</time></trkpt><trkpt lat="45.9391717" lon="8.76457"><ele>343.0</ele><time>2026-04-12T08:38:50.807Z</time></trkpt><trkpt lat="45.939125" lon="8.764695"><ele>343.0</ele><time>2026-04-12T08:38:52.807Z</time></trkpt><trkpt lat="45.9390683" lon="8.7648217"><ele>341.16666666666663</ele><time>2026-04-12T08:38:54.807Z</time></trkpt><trkpt lat="45.938995" lon="8.7649117"><ele>339.3333333333333</ele><time>2026-04-12T08:38:56.806Z</time></trkpt><trkpt lat="45.9389383" lon="8.7649917"><ele>337.5</ele><time>2026-04-12T08:38:58.807Z</time></trkpt><trkpt lat="45.938915" lon="8.7651117"><ele>335.6666666666667</ele><time>2026-04-12T08:39:01.807Z</time></trkpt><trkpt lat="45.9389117" lon="8.7652133"><ele>333.83333333333337</ele><time>2026-04-12T08:39:03.807Z</time></trkpt><trkpt lat="45.9389167" lon="8.76534"><ele>332.0</ele><time>2026-04-12T08:39:06.807Z</time></trkpt><trkpt lat="45.9389667" lon="8.7654317"><ele>330.2857142857143</ele><time>2026-04-12T08:39:09.807Z</time></trkpt><trkpt lat="45.939025" lon="8.765495"><ele>328.5714285714286</ele><time>2026-04-12T08:39:12.807Z</time></trkpt><trkpt lat="45.939085" lon="8.7655517"><ele>326.8571428571429</ele><time>2026-04-12T08:39:18.807Z</time></trkpt><trkpt lat="45.9390717" lon="8.76565"><ele>325.1428571428571</ele><time>2026-04-12T08:39:20.806Z</time></trkpt><trkpt lat="45.93909" lon="8.7657533"><ele>323.42857142857144</ele><time>2026-04-12T08:39:23.807Z</time></trkpt><trkpt lat="45.9391383" lon="8.7658217"><ele>321.7142857142857</ele><time>2026-04-12T08:39:26.807Z</time></trkpt><trkpt lat="45.9392267" lon="8.76578"><ele>320.0</ele><time>2026-04-12T08:39:29.806Z</time></trkpt><trkpt lat="45.9392883" lon="8.7657567"><ele>319.6666666666667</ele><time>2026-04-12T08:39:31.807Z</time></trkpt><trkpt lat="45.9393733" lon="8.7657417"><ele>319.33333333333337</ele><time>2026-04-12T08:39:33.807Z</time></trkpt><trkpt lat="45.93945" lon="8.76575"><ele>319.0</ele><time>2026-04-12T08:39:35.807Z</time></trkpt><trkpt lat="45.9395183" lon="8.76578"><ele>318.6666666666667</ele><time>2026-04-12T08:39:37.806Z</time></trkpt><trkpt lat="45.9396083" lon="8.7659067"><ele>318.3333333333333</ele><time>2026-04-12T08:39:39.807Z</time></trkpt><trkpt lat="45.9396483" lon="8.76598"><ele>318.0</ele><time>2026-04-12T08:39:40.807Z</time></trkpt><trkpt lat="45.9397233" lon="8.7660683"><ele>318.0</ele><time>2026-04-12T08:39:42.807Z</time></trkpt><trkpt lat="45.9398283" lon="8.766045"><ele>318.0</ele><time>2026-04-12T08:39:44.807Z</time></trkpt><trkpt lat="45.9398967" lon="8.7660117"><ele>318.0</ele><time>2026-04-12T08:39:45.806Z</time></trkpt><trkpt lat="45.9399767" lon="8.7659267"><ele>318.0</ele><time>2026-04-12T08:39:47.807Z</time></trkpt><trkpt lat="45.9400083" lon="8.7658067"><ele>318.0</ele><time>2026-04-12T08:39:49.807Z</time></trkpt><trkpt lat="45.9400383" lon="8.76572"><ele>318.0</ele><time>2026-04-12T08:39:50.807Z</time></trkpt><trkpt lat="45.9400733" lon="8.7656167"><ele>318.5</ele><time>2026-04-12T08:39:51.807Z</time></trkpt><trkpt lat="45.9401033" lon="8.7655083"><ele>319.0</ele><time>2026-04-12T08:39:52.807Z</time></trkpt><trkpt lat="45.9401417" lon="8.7653817"><ele>319.5</ele><time>2026-04-12T08:39:53.807Z</time></trkpt><trkpt lat="45.94019" lon="8.7652683"><ele>320.0</ele><time>2026-04-12T08:39:54.807Z</time></trkpt><trkpt lat="45.9402233" lon="8.76518"><ele>320.5</ele><time>2026-04-12T08:39:55.807Z</time></trkpt><trkpt lat="45.9402633" lon="8.7650883"><ele>321.0</ele><time>2026-04-12T08:39:56.807Z</time></trkpt><trkpt lat="45.9403433" lon="8.7649583"><ele>322.20000000000005</ele><time>2026-04-12T08:39:58.807Z</time></trkpt><trkpt lat="45.94043" lon="8.7648733"><ele>323.40000000000003</ele><time>2026-04-12T08:40:00.807Z</time></trkpt><trkpt lat="45.94052" lon="8.7648783"><ele>324.6</ele><time>2026-04-12T08:40:02.807Z</time></trkpt><trkpt lat="45.940625" lon="8.7648533"><ele>325.8</ele><time>2026-04-12T08:40:04.807Z</time></trkpt><trkpt lat="45.94072" lon="8.7648217"><ele>327.0</ele><time>2026-04-12T08:40:06.807Z</time></trkpt><trkpt lat="45.9408183" lon="8.7648583"><ele>326.6</ele><time>2026-04-12T08:40:08.807Z</time></trkpt><trkpt lat="45.9409133" lon="8.764925"><ele>326.20000000000005</ele><time>2026-04-12T08:40:10.807Z</time></trkpt><trkpt lat="45.9410133" lon="8.7649767"><ele>325.8</ele><time>2026-04-12T08:40:12.806Z</time></trkpt><trkpt lat="45.941085" lon="8.7649883"><ele>325.4</ele><time>2026-04-12T08:40:14.807Z</time></trkpt><trkpt lat="45.9411667" lon="8.7649267"><ele>325.0</ele><time>2026-04-12T08:40:17.807Z</time></trkpt><trkpt lat="45.9412083" lon="8.7648333"><ele>325.0</ele><time>2026-04-12T08:40:19.807Z</time></trkpt><trkpt lat="45.9412633" lon="8.7647017"><ele>325.0</ele><time>2026-04-12T08:40:21.807Z</time></trkpt><trkpt lat="45.9413067" lon="8.7645517"><ele>325.0</ele><time>2026-04-12T08:40:23.807Z</time></trkpt><trkpt lat="45.9413583" lon="8.7644617"><ele>325.0</ele><time>2026-04-12T08:40:25.807Z</time></trkpt><trkpt lat="45.941425" lon="8.7643933"><ele>325.0</ele><time>2026-04-12T08:40:28.806Z</time></trkpt><trkpt lat="45.9414867" lon="8.7642917"><ele>326.4</ele><time>2026-04-12T08:40:31.807Z</time></trkpt><trkpt lat="45.9415417" lon="8.7642333"><ele>327.8</ele><time>2026-04-12T08:40:33.807Z</time></trkpt><trkpt lat="45.94162" lon="8.7641333"><ele>329.20000000000005</ele><time>2026-04-12T08:40:36.807Z</time></trkpt><trkpt lat="45.9416983" lon="8.7640583"><ele>330.6</ele><time>2026-04-12T08:40:38.807Z</time></trkpt><trkpt lat="45.9417767" lon="8.7639567"><ele>332.0</ele><time>2026-04-12T08:41:27.806Z</time></trkpt><trkpt lat="45.941735" lon="8.7638583"><ele>332.0</ele><time>2026-04-12T08:41:38.807Z</time></trkpt><trkpt lat="45.9416683" lon="8.7638033"><ele>332.0</ele><time>2026-04-12T08:41:40.807Z</time></trkpt><trkpt lat="45.941605" lon="8.7637483"><ele>332.0</ele><time>2026-04-12T08:41:42.807Z</time></trkpt><trkpt lat="45.9415233" lon="8.7636867"><ele>332.0</ele><time>2026-04-12T08:41:44.807Z</time></trkpt><trkpt lat="45.9414433" lon="8.7636417"><ele>332.0</ele><time>2026-04-12T08:41:46.807Z</time></trkpt><trkpt lat="45.9413667" lon="8.76356"><ele>332.0</ele><time>2026-04-12T08:41:50.807Z</time></trkpt><trkpt lat="45.9412917" lon="8.7634567"><ele>333.5</ele><time>2026-04-12T08:41:52.807Z</time></trkpt><trkpt lat="45.9412267" lon="8.7633133"><ele>335.0</ele><time>2026-04-12T08:41:54.806Z</time></trkpt><trkpt lat="45.9411467" lon="8.76319"><ele>336.5</ele><time>2026-04-12T08:41:56.807Z</time></trkpt><trkpt lat="45.9410933" lon="8.7631283"><ele>338.0</ele><time>2026-04-12T08:41:57.807Z</time></trkpt><trkpt lat="45.9410433" lon="8.7630567"><ele>339.5</ele><time>2026-04-12T08:41:58.807Z</time></trkpt><trkpt lat="45.9409967" lon="8.7629883"><ele>341.0</ele><time>2026-04-12T08:41:59.807Z</time></trkpt><trkpt lat="45.9409417" lon="8.7628417"><ele>341.0</ele><time>2026-04-12T08:42:01.807Z</time></trkpt><trkpt lat="45.9409167" lon="8.7627417"><ele>341.0</ele><time>2026-04-12T08:42:02.807Z</time></trkpt><trkpt lat="45.9409" lon="8.762615"><ele>341.0</ele><time>2026-04-12T08:42:03.807Z</time></trkpt><trkpt lat="45.9408867" lon="8.7625033"><ele>341.0</ele><time>2026-04-12T08:42:04.807Z</time></trkpt><trkpt lat="45.94086" lon="8.7623633"><ele>341.0</ele><time>2026-04-12T08:42:06.807Z</time></trkpt><trkpt lat="45.94086" lon="8.7622583"><ele>341.0</ele><time>2026-04-12T08:42:08.807Z</time></trkpt><trkpt lat="45.9409117" lon="8.7621917"><ele>343.0</ele><time>2026-04-12T08:42:10.807Z</time></trkpt><trkpt lat="45.9410167" lon="8.7621233"><ele>345.0</ele><time>2026-04-12T08:42:12.807Z</time></trkpt><trkpt lat="45.9411083" lon="8.7620533"><ele>347.0</ele><time>2026-04-12T08:42:14.807Z</time></trkpt><trkpt lat="45.9411867" lon="8.7620183"><ele>349.0</ele><time>2026-04-12T08:42:17.807Z</time></trkpt><trkpt lat="45.94128" lon="8.7620267"><ele>351.0</ele><time>2026-04-12T08:44:49.807Z</time></trkpt><trkpt lat="45.9413183" lon="8.76211"><ele>351.0</ele><time>2026-04-12T08:44:52.807Z</time></trkpt><trkpt lat="45.9413733" lon="8.76216"><ele>351.0</ele><time>2026-04-12T08:44:54.807Z</time></trkpt><trkpt lat="45.94145" lon="8.762175"><ele>351.0</ele><time>2026-04-12T08:44:56.807Z</time></trkpt><trkpt lat="45.94152" lon="8.7621633"><ele>351.0</ele><time>2026-04-12T08:44:58.807Z</time></trkpt><trkpt lat="45.94159" lon="8.7621267"><ele>351.0</ele><time>2026-04-12T08:45:00.807Z</time></trkpt><trkpt lat="45.9416633" lon="8.762025"><ele>351.0</ele><time>2026-04-12T08:45:02.807Z</time></trkpt><trkpt lat="45.9417367" lon="8.76187"><ele>348.20000000000005</ele><time>2026-04-12T08:45:04.807Z</time></trkpt><trkpt lat="45.9417667" lon="8.7617783"><ele>345.40000000000003</ele><time>2026-04-12T08:45:05.807Z</time></trkpt><trkpt lat="45.941795" lon="8.7616583"><ele>342.6</ele><time>2026-04-12T08:45:06.807Z</time></trkpt><trkpt lat="45.9418117" lon="8.761535"><ele>339.8</ele><time>2026-04-12T08:45:07.807Z</time></trkpt><trkpt lat="45.94181" lon="8.76141"><ele>337.0</ele><time>2026-04-12T08:45:08.807Z</time></trkpt><trkpt lat="45.941815" lon="8.7612217"><ele>337.0</ele><time>2026-04-12T08:45:09.807Z</time></trkpt><trkpt lat="45.9417983" lon="8.761075"><ele>337.0</ele><time>2026-04-12T08:45:10.807Z</time></trkpt><trkpt lat="45.9417917" lon="8.7609333"><ele>337.0</ele><time>2026-04-12T08:45:11.807Z</time></trkpt><trkpt lat="45.9417917" lon="8.760805"><ele>337.0</ele><time>2026-04-12T08:45:12.807Z</time></trkpt><trkpt lat="45.9418" lon="8.7606867"><ele>337.0</ele><time>2026-04-12T08:45:13.807Z</time></trkpt><trkpt lat="45.941815" lon="8.7605667"><ele>338.5</ele><time>2026-04-12T08:45:14.806Z</time></trkpt><trkpt lat="45.9418333" lon="8.760435"><ele>340.0</ele><time>2026-04-12T08:45:15.807Z</time></trkpt><trkpt lat="45.9418533" lon="8.76033"><ele>341.5</ele><time>2026-04-12T08:45:16.807Z</time></trkpt><trkpt lat="45.9418783" lon="8.7602217"><ele>343.0</ele><time>2026-04-12T08:45:17.807Z</time></trkpt><trkpt lat="45.9419083" lon="8.7601067"><ele>344.5</ele><time>2026-04-12T08:45:18.807Z</time></trkpt><trkpt lat="45.9419467" lon="8.75999"><ele>346.0</ele><time>2026-04-12T08:45:19.807Z</time></trkpt><trkpt lat="45.9419817" lon="8.7598817"><ele>347.0</ele><time>2026-04-12T08:45:20.807Z</time></trkpt><trkpt lat="45.9420083" lon="8.7597883"><ele>348.0</ele><time>2026-04-12T08:45:21.807Z</time></trkpt><trkpt lat="45.9420167" lon="8.7596367"><ele>349.0</ele><time>2026-04-12T08:45:23.806Z</time></trkpt><trkpt lat="45.9420067" lon="8.7594767"><ele>350.0</ele><time>2026-04-12T08:45:25.807Z</time></trkpt><trkpt lat="45.9419883" lon="8.7593467"><ele>351.0</ele><time>2026-04-12T08:45:27.807Z</time></trkpt><trkpt lat="45.9419667" lon="8.7592467"><ele>352.3333333333333</ele><time>2026-04-12T08:45:30.806Z</time></trkpt><trkpt lat="45.9420433" lon="8.759215"><ele>353.6666666666667</ele><time>2026-04-12T08:45:34.807Z</time></trkpt><trkpt lat="45.9421167" lon="8.7592283"><ele>355.0</ele><time>2026-04-12T08:45:36.807Z</time></trkpt><trkpt lat="45.9422233" lon="8.7592567"><ele>356.33333333333337</ele><time>2026-04-12T08:45:38.807Z</time></trkpt><trkpt lat="45.9423017" lon="8.7592567"><ele>357.6666666666667</ele><time>2026-04-12T08:45:39.807Z</time></trkpt><trkpt lat="45.9423867" lon="8.7592817"><ele>359.0</ele><time>2026-04-12T08:45:40.807Z</time></trkpt><trkpt lat="45.9424683" lon="8.7593267"><ele>357.75</ele><time>2026-04-12T08:45:41.807Z</time></trkpt><trkpt lat="45.9425467" lon="8.759435"><ele>356.5</ele><time>2026-04-12T08:45:42.807Z</time></trkpt><trkpt lat="45.9426133" lon="8.759585"><ele>355.25</ele><time>2026-04-12T08:45:43.807Z</time></trkpt><trkpt lat="45.94266" lon="8.7597483"><ele>354.0</ele><time>2026-04-12T08:45:44.807Z</time></trkpt><trkpt lat="45.94269" lon="8.7599217"><ele>354.0</ele><time>2026-04-12T08:45:45.806Z</time></trkpt><trkpt lat="45.9426967" lon="8.760095"><ele>354.0</ele><time>2026-04-12T08:45:46.807Z</time></trkpt><trkpt lat="45.9426917" lon="8.76025"><ele>354.0</ele><time>2026-04-12T08:45:47.807Z</time></trkpt><trkpt lat="45.9426767" lon="8.760385"><ele>354.0</ele><time>2026-04-12T08:45:48.807Z</time></trkpt><trkpt lat="45.9426733" lon="8.760505"><ele>354.0</ele><time>2026-04-12T08:45:49.806Z</time></trkpt><trkpt lat="45.9426783" lon="8.760625"><ele>352.79999999999995</ele><time>2026-04-12T08:45:50.807Z</time></trkpt><trkpt lat="45.9427067" lon="8.7607367"><ele>351.59999999999997</ele><time>2026-04-12T08:45:51.807Z</time></trkpt><trkpt lat="45.9427767" lon="8.760815"><ele>350.4</ele><time>2026-04-12T08:45:52.807Z</time></trkpt><trkpt lat="45.94287" lon="8.760885"><ele>349.2</ele><time>2026-04-12T08:45:53.807Z</time></trkpt><trkpt lat="45.9429567" lon="8.76096"><ele>348.0</ele><time>2026-04-12T08:45:54.807Z</time></trkpt><trkpt lat="45.943035" lon="8.7610383"><ele>346.4</ele><time>2026-04-12T08:45:55.807Z</time></trkpt><trkpt lat="45.9431" lon="8.7611533"><ele>344.79999999999995</ele><time>2026-04-12T08:45:56.807Z</time></trkpt><trkpt lat="45.943155" lon="8.7612767"><ele>343.2</ele><time>2026-04-12T08:45:57.807Z</time></trkpt><trkpt lat="45.9432" lon="8.7614067"><ele>341.6</ele><time>2026-04-12T08:45:58.807Z</time></trkpt><trkpt lat="45.9432483" lon="8.7615283"><ele>340.0</ele><time>2026-04-12T08:45:59.807Z</time></trkpt><trkpt lat="45.9433" lon="8.7616317"><ele>340.0</ele><time>2026-04-12T08:46:00.807Z</time></trkpt><trkpt lat="45.943355" lon="8.761725"><ele>340.0</ele><time>2026-04-12T08:46:01.807Z</time></trkpt><trkpt lat="45.9434233" lon="8.7617817"><ele>340.0</ele><time>2026-04-12T08:46:02.807Z</time></trkpt><trkpt lat="45.9435317" lon="8.761795"><ele>340.0</ele><time>2026-04-12T08:46:03.807Z</time></trkpt><trkpt lat="45.9436417" lon="8.761795"><ele>340.0</ele><time>2026-04-12T08:46:04.807Z</time></trkpt><trkpt lat="45.9437467" lon="8.7618033"><ele>336.8</ele><time>2026-04-12T08:46:05.807Z</time></trkpt><trkpt lat="45.94384" lon="8.7618"><ele>333.6</ele><time>2026-04-12T08:46:06.807Z</time></trkpt><trkpt lat="45.943915" lon="8.7617667"><ele>330.4</ele><time>2026-04-12T08:46:07.807Z</time></trkpt><trkpt lat="45.9439933" lon="8.7616633"><ele>327.2</ele><time>2026-04-12T08:46:08.807Z</time></trkpt><trkpt lat="45.9440617" lon="8.7615217"><ele>324.0</ele><time>2026-04-12T08:46:09.807Z</time></trkpt><trkpt lat="45.9441183" lon="8.7613567"><ele>324.0</ele><time>2026-04-12T08:46:10.807Z</time></trkpt><trkpt lat="45.944175" lon="8.761195"><ele>324.0</ele><time>2026-04-12T08:46:11.807Z</time></trkpt><trkpt lat="45.9442317" lon="8.7610317"><ele>324.0</ele><time>2026-04-12T08:46:12.807Z</time></trkpt><trkpt lat="45.9443017" lon="8.7609"><ele>324.0</ele><time>2026-04-12T08:46:13.807Z</time></trkpt><trkpt lat="45.9443917" lon="8.7607917"><ele>319.59999999999997</ele><time>2026-04-12T08:46:14.807Z</time></trkpt><trkpt lat="45.944475" lon="8.7606817"><ele>315.2</ele><time>2026-04-12T08:46:15.807Z</time></trkpt><trkpt lat="45.9445433" lon="8.7605717"><ele>310.79999999999995</ele><time>2026-04-12T08:46:16.807Z</time></trkpt><trkpt lat="45.9445867" lon="8.7604433"><ele>306.4</ele><time>2026-04-12T08:46:17.807Z</time></trkpt><trkpt lat="45.9446117" lon="8.760295"><ele>302.0</ele><time>2026-04-12T08:46:18.807Z</time></trkpt><trkpt lat="45.9446167" lon="8.7601317"><ele>302.0</ele><time>2026-04-12T08:46:19.807Z</time></trkpt><trkpt lat="45.9446217" lon="8.759975"><ele>302.0</ele><time>2026-04-12T08:46:20.806Z</time></trkpt><trkpt lat="45.9446367" lon="8.7598383"><ele>302.0</ele><time>2026-04-12T08:46:21.807Z</time></trkpt><trkpt lat="45.9446717" lon="8.7597133"><ele>302.0</ele><time>2026-04-12T08:46:22.807Z</time></trkpt><trkpt lat="45.9447167" lon="8.7595783"><ele>302.0</ele><time>2026-04-12T08:46:23.807Z</time></trkpt><trkpt lat="45.9447683" lon="8.7594467"><ele>302.0</ele><time>2026-04-12T08:46:24.807Z</time></trkpt><trkpt lat="45.9448083" lon="8.7593067"><ele>302.0</ele><time>2026-04-12T08:46:25.807Z</time></trkpt><trkpt lat="45.9448317" lon="8.759165"><ele>302.0</ele><time>2026-04-12T08:46:26.807Z</time></trkpt><trkpt lat="45.94484" lon="8.75902"><ele>302.0</ele><time>2026-04-12T08:46:27.806Z</time></trkpt><trkpt lat="45.9448433" lon="8.7588817"><ele>302.0</ele><time>2026-04-12T08:46:28.807Z</time></trkpt><trkpt lat="45.9448617" lon="8.7587467"><ele>302.0</ele><time>2026-04-12T08:46:29.807Z</time></trkpt><trkpt lat="45.944885" lon="8.7586233"><ele>302.0</ele><time>2026-04-12T08:46:30.807Z</time></trkpt><trkpt lat="45.944905" lon="8.75853"><ele>302.0</ele><time>2026-04-12T08:46:31.807Z</time></trkpt><trkpt lat="45.9449717" lon="8.7584317"><ele>302.0</ele><time>2026-04-12T08:46:33.807Z</time></trkpt><trkpt lat="45.9450783" lon="8.7585083"><ele>302.0</ele><time>2026-04-12T08:46:35.807Z</time></trkpt><trkpt lat="45.9451467" lon="8.7585967"><ele>300.4</ele><time>2026-04-12T08:46:36.807Z</time></trkpt><trkpt lat="45.9452367" lon="8.7587033"><ele>298.79999999999995</ele><time>2026-04-12T08:46:37.807Z</time></trkpt><trkpt lat="45.94533" lon="8.7587933"><ele>297.2</ele><time>2026-04-12T08:46:38.807Z</time></trkpt><trkpt lat="45.9454233" lon="8.7588533"><ele>295.59999999999997</ele><time>2026-04-12T08:46:39.807Z</time></trkpt><trkpt lat="45.9455167" lon="8.7589067"><ele>294.0</ele><time>2026-04-12T08:46:40.807Z</time></trkpt><trkpt lat="45.9456017" lon="8.7589467"><ele>294.0</ele><time>2026-04-12T08:46:41.807Z</time></trkpt><trkpt lat="45.945675" lon="8.7589717"><ele>294.0</ele><time>2026-04-12T08:46:42.807Z</time></trkpt><trkpt lat="45.945745" lon="8.75899"><ele>294.0</ele><time>2026-04-12T08:46:43.807Z</time></trkpt><trkpt lat="45.9458683" lon="8.75896"><ele>294.0</ele><time>2026-04-12T08:46:45.807Z</time></trkpt><trkpt lat="45.94593" lon="8.7589333"><ele>294.0</ele><time>2026-04-12T08:46:46.807Z</time></trkpt><trkpt lat="45.94599" lon="8.7588967"><ele>294.0</ele><time>2026-04-12T08:46:47.807Z</time></trkpt><trkpt lat="45.9460517" lon="8.7588583"><ele>291.3333333333333</ele><time>2026-04-12T08:46:48.807Z</time></trkpt><trkpt lat="45.9461167" lon="8.7587933"><ele>288.6666666666667</ele><time>2026-04-12T08:46:49.807Z</time></trkpt><trkpt lat="45.946175" lon="8.7587317"><ele>286.0</ele><time>2026-04-12T08:46:50.807Z</time></trkpt><trkpt lat="45.94623" lon="8.7586567"><ele>283.33333333333337</ele><time>2026-04-12T08:46:51.806Z</time></trkpt><trkpt lat="45.9462683" lon="8.7585833"><ele>280.6666666666667</ele><time>2026-04-12T08:46:52.806Z</time></trkpt><trkpt lat="45.94632" lon="8.7584367"><ele>278.0</ele><time>2026-04-12T08:46:54.807Z</time></trkpt><trkpt lat="45.9464233" lon="8.75833"><ele>278.0</ele><time>2026-04-12T08:46:56.807Z</time></trkpt><trkpt lat="45.94651" lon="8.7583017"><ele>278.0</ele><time>2026-04-12T08:46:57.807Z</time></trkpt><trkpt lat="45.9466083" lon="8.7582733"><ele>278.0</ele><time>2026-04-12T08:46:58.807Z</time></trkpt><trkpt lat="45.946715" lon="8.75825"><ele>278.0</ele><time>2026-04-12T08:46:59.806Z</time></trkpt><trkpt lat="45.9467817" lon="8.7582067"><ele>278.0</ele><time>2026-04-12T08:47:00.807Z</time></trkpt><trkpt lat="45.9468667" lon="8.7582117"><ele>276.8</ele><time>2026-04-12T08:47:01.807Z</time></trkpt><trkpt lat="45.94694" lon="8.758215"><ele>275.6</ele><time>2026-04-12T08:47:02.807Z</time></trkpt><trkpt lat="45.9470367" lon="8.7582933"><ele>274.4</ele><time>2026-04-12T08:47:04.807Z</time></trkpt><trkpt lat="45.9471" lon="8.7584017"><ele>273.2</ele><time>2026-04-12T08:47:05.807Z</time></trkpt><trkpt lat="45.9471617" lon="8.758535"><ele>272.0</ele><time>2026-04-12T08:47:06.807Z</time></trkpt><trkpt lat="45.9472333" lon="8.7586483"><ele>271.6666666666667</ele><time>2026-04-12T08:47:07.807Z</time></trkpt><trkpt lat="45.9472933" lon="8.7587483"><ele>271.33333333333337</ele><time>2026-04-12T08:47:08.806Z</time></trkpt><trkpt lat="45.9473567" lon="8.7588433"><ele>271.0</ele><time>2026-04-12T08:47:09.807Z</time></trkpt><trkpt lat="45.947415" lon="8.7589183"><ele>270.6666666666667</ele><time>2026-04-12T08:47:10.807Z</time></trkpt><trkpt lat="45.9474783" lon="8.7589617"><ele>270.3333333333333</ele><time>2026-04-12T08:47:11.807Z</time></trkpt><trkpt lat="45.9475817" lon="8.7589633"><ele>270.0</ele><time>2026-04-12T08:47:13.807Z</time></trkpt><trkpt lat="45.9476733" lon="8.7589117"><ele>270.0</ele><time>2026-04-12T08:47:15.807Z</time></trkpt><trkpt lat="45.9477317" lon="8.7588233"><ele>270.0</ele><time>2026-04-12T08:47:18.806Z</time></trkpt><trkpt lat="45.9477433" lon="8.758725"><ele>270.0</ele><time>2026-04-12T08:47:21.807Z</time></trkpt><trkpt lat="45.9477233" lon="8.7585883"><ele>270.0</ele><time>2026-04-12T08:47:23.807Z</time></trkpt><trkpt lat="45.9476883" lon="8.7584917"><ele>270.0</ele><time>2026-04-12T08:47:25.807Z</time></trkpt><trkpt lat="45.9476917" lon="8.7586"><ele>270.0</ele><time>2026-04-12T08:47:30.806Z</time></trkpt><trkpt lat="45.9477733" lon="8.7587683"><ele>270.0</ele><time>2026-04-12T08:49:16.807Z</time></trkpt><trkpt lat="45.94783" lon="8.7586883"><ele>270.0</ele><time>2026-04-12T08:55:28.807Z</time></trkpt><trkpt lat="45.9477867" lon="8.7587767"><ele>270.0</ele><time>2026-04-12T08:59:40.807Z</time></trkpt><trkpt lat="45.9477467" lon="8.7587"><ele>270.0</ele><time>2026-04-12T09:07:58.807Z</time></trkpt><trkpt lat="45.9477" lon="8.7588167"><ele>270.0</ele><time>2026-04-12T09:11:17.807Z</time></trkpt><trkpt lat="45.9476267" lon="8.7588683"><ele>270.0</ele><time>2026-04-12T09:11:19.807Z</time></trkpt><trkpt lat="45.94755" lon="8.7589267"><ele>269.8</ele><time>2026-04-12T09:11:21.807Z</time></trkpt><trkpt lat="45.94749" lon="8.7590083"><ele>269.6</ele><time>2026-04-12T09:11:23.807Z</time></trkpt><trkpt lat="45.94748" lon="8.7591967"><ele>269.4</ele><time>2026-04-12T09:11:25.807Z</time></trkpt><trkpt lat="45.9474883" lon="8.7593383"><ele>269.2</ele><time>2026-04-12T09:11:26.807Z</time></trkpt><trkpt lat="45.9475" lon="8.7595017"><ele>269.0</ele><time>2026-04-12T09:11:27.807Z</time></trkpt><trkpt lat="45.9475067" lon="8.7596933"><ele>268.25</ele><time>2026-04-12T09:11:28.807Z</time></trkpt><trkpt lat="45.9475117" lon="8.759885"><ele>267.5</ele><time>2026-04-12T09:11:29.807Z</time></trkpt><trkpt lat="45.9475217" lon="8.7600633"><ele>266.75</ele><time>2026-04-12T09:11:30.807Z</time></trkpt><trkpt lat="45.947525" lon="8.7602433"><ele>266.0</ele><time>2026-04-12T09:11:31.807Z</time></trkpt><trkpt lat="45.9475117" lon="8.7604117"><ele>265.5</ele><time>2026-04-12T09:11:32.807Z</time></trkpt><trkpt lat="45.9474767" lon="8.7605683"><ele>265.0</ele><time>2026-04-12T09:11:33.807Z</time></trkpt><trkpt lat="45.94742" lon="8.7607133"><ele>264.5</ele><time>2026-04-12T09:11:34.807Z</time></trkpt><trkpt lat="45.9473483" lon="8.7608733"><ele>264.0</ele><time>2026-04-12T09:11:35.806Z</time></trkpt><trkpt lat="45.9472667" lon="8.7610383"><ele>263.0</ele><time>2026-04-12T09:11:36.807Z</time></trkpt><trkpt lat="45.947195" lon="8.7611833"><ele>262.0</ele><time>2026-04-12T09:11:37.807Z</time></trkpt><trkpt lat="45.9471333" lon="8.7613117"><ele>261.0</ele><time>2026-04-12T09:11:38.807Z</time></trkpt><trkpt lat="45.9470617" lon="8.76144"><ele>260.0</ele><time>2026-04-12T09:11:39.807Z</time></trkpt><trkpt lat="45.9469833" lon="8.76157"><ele>260.0</ele><time>2026-04-12T09:11:40.807Z</time></trkpt><trkpt lat="45.946915" lon="8.7616967"><ele>260.0</ele><time>2026-04-12T09:11:41.807Z</time></trkpt><trkpt lat="45.9468717" lon="8.7618267"><ele>260.0</ele><time>2026-04-12T09:11:42.807Z</time></trkpt><trkpt lat="45.9468633" lon="8.7619733"><ele>260.0</ele><time>2026-04-12T09:11:43.807Z</time></trkpt><trkpt lat="45.9468783" lon="8.7621433"><ele>260.0</ele><time>2026-04-12T09:11:44.807Z</time></trkpt><trkpt lat="45.9469083" lon="8.7623167"><ele>259.5</ele><time>2026-04-12T09:11:45.806Z</time></trkpt><trkpt lat="45.9469417" lon="8.7624967"><ele>259.0</ele><time>2026-04-12T09:11:46.807Z</time></trkpt><trkpt lat="45.9469733" lon="8.7626717"><ele>258.5</ele><time>2026-04-12T09:11:47.806Z</time></trkpt><trkpt lat="45.94701" lon="8.7628567"><ele>258.0</ele><time>2026-04-12T09:11:48.807Z</time></trkpt><trkpt lat="45.9470433" lon="8.763045"><ele>257.5</ele><time>2026-04-12T09:11:49.807Z</time></trkpt><trkpt lat="45.9470833" lon="8.7632283"><ele>257.0</ele><time>2026-04-12T09:11:50.807Z</time></trkpt><trkpt lat="45.9471217" lon="8.7634317"><ele>256.5</ele><time>2026-04-12T09:11:51.807Z</time></trkpt><trkpt lat="45.947155" lon="8.7636267"><ele>256.0</ele><time>2026-04-12T09:11:52.807Z</time></trkpt><trkpt lat="45.9471833" lon="8.7638167"><ele>255.0</ele><time>2026-04-12T09:11:53.807Z</time></trkpt><trkpt lat="45.947215" lon="8.7640133"><ele>254.0</ele><time>2026-04-12T09:11:54.807Z</time></trkpt><trkpt lat="45.9472483" lon="8.76421"><ele>253.0</ele><time>2026-04-12T09:11:55.807Z</time></trkpt><trkpt lat="45.94728" lon="8.764395"><ele>252.0</ele><time>2026-04-12T09:11:56.807Z</time></trkpt><trkpt lat="45.9473117" lon="8.7646017"><ele>251.25</ele><time>2026-04-12T09:11:57.807Z</time></trkpt><trkpt lat="45.9473417" lon="8.7647983"><ele>250.5</ele><time>2026-04-12T09:11:58.807Z</time></trkpt><trkpt lat="45.9473767" lon="8.7649817"><ele>249.75</ele><time>2026-04-12T09:11:59.807Z</time></trkpt><trkpt lat="45.9474083" lon="8.7651567"><ele>249.0</ele><time>2026-04-12T09:12:00.807Z</time></trkpt><trkpt lat="45.9474367" lon="8.7653233"><ele>249.0</ele><time>2026-04-12T09:12:01.807Z</time></trkpt><trkpt lat="45.94746" lon="8.7654833"><ele>249.0</ele><time>2026-04-12T09:12:02.807Z</time></trkpt><trkpt lat="45.9474883" lon="8.7656417"><ele>249.0</ele><time>2026-04-12T09:12:03.807Z</time></trkpt><trkpt lat="45.9475217" lon="8.7658017"><ele>249.0</ele><time>2026-04-12T09:12:04.807Z</time></trkpt><trkpt lat="45.9475567" lon="8.7659567"><ele>247.79999999999998</ele><time>2026-04-12T09:12:05.807Z</time></trkpt><trkpt lat="45.947585" lon="8.7661083"><ele>246.59999999999997</ele><time>2026-04-12T09:12:06.807Z</time></trkpt><trkpt lat="45.94761" lon="8.7662633"><ele>245.4</ele><time>2026-04-12T09:12:07.807Z</time></trkpt><trkpt lat="45.9476383" lon="8.7664117"><ele>244.2</ele><time>2026-04-12T09:12:08.807Z</time></trkpt><trkpt lat="45.9476633" lon="8.76654"><ele>243.0</ele><time>2026-04-12T09:12:09.807Z</time></trkpt><trkpt lat="45.9476883" lon="8.7666667"><ele>243.0</ele><time>2026-04-12T09:12:10.807Z</time></trkpt><trkpt lat="45.9477133" lon="8.7667817"><ele>243.0</ele><time>2026-04-12T09:12:11.807Z</time></trkpt><trkpt lat="45.9477283" lon="8.7668783"><ele>243.0</ele><time>2026-04-12T09:12:12.806Z</time></trkpt><trkpt lat="45.9477583" lon="8.7670217"><ele>243.0</ele><time>2026-04-12T09:12:14.807Z</time></trkpt><trkpt lat="45.9477817" lon="8.7671083"><ele>243.0</ele><time>2026-04-12T09:12:16.807Z</time></trkpt><trkpt lat="45.947795" lon="8.7671983"><ele>243.0</ele><time>2026-04-12T09:12:20.807Z</time></trkpt><trkpt lat="45.947805" lon="8.7673217"><ele>242.60000000000002</ele><time>2026-04-12T09:12:23.807Z</time></trkpt><trkpt lat="45.9478217" lon="8.76745"><ele>242.20000000000002</ele><time>2026-04-12T09:12:25.807Z</time></trkpt><trkpt lat="45.947895" lon="8.7675417"><ele>241.8</ele><time>2026-04-12T09:12:27.807Z</time></trkpt><trkpt lat="45.9480217" lon="8.7675883"><ele>241.4</ele><time>2026-04-12T09:12:29.806Z</time></trkpt><trkpt lat="45.9481133" lon="8.7676683"><ele>241.0</ele><time>2026-04-12T09:12:31.807Z</time></trkpt><trkpt lat="45.9481533" lon="8.76774"><ele>240.0</ele><time>2026-04-12T09:12:32.807Z</time></trkpt><trkpt lat="45.9481817" lon="8.76786"><ele>239.0</ele><time>2026-04-12T09:12:33.807Z</time></trkpt><trkpt lat="45.948205" lon="8.7680233"><ele>238.0</ele><time>2026-04-12T09:12:34.807Z</time></trkpt><trkpt lat="45.9482217" lon="8.7682083"><ele>237.0</ele><time>2026-04-12T09:12:35.807Z</time></trkpt><trkpt lat="45.9482417" lon="8.7684083"><ele>236.25</ele><time>2026-04-12T09:12:36.807Z</time></trkpt><trkpt lat="45.9482533" lon="8.7685883"><ele>235.5</ele><time>2026-04-12T09:12:37.806Z</time></trkpt><trkpt lat="45.948265" lon="8.76877"><ele>234.75</ele><time>2026-04-12T09:12:38.807Z</time></trkpt><trkpt lat="45.948275" lon="8.7689417"><ele>234.0</ele><time>2026-04-12T09:12:39.807Z</time></trkpt><trkpt lat="45.94828" lon="8.7691217"><ele>234.0</ele><time>2026-04-12T09:12:40.807Z</time></trkpt><trkpt lat="45.948285" lon="8.7692867"><ele>233.99999999999997</ele><time>2026-04-12T09:12:41.806Z</time></trkpt><trkpt lat="45.9482917" lon="8.7694517"><ele>233.99999999999997</ele><time>2026-04-12T09:12:42.807Z</time></trkpt><trkpt lat="45.9483" lon="8.7696033"><ele>234.0</ele><time>2026-04-12T09:12:43.807Z</time></trkpt><trkpt lat="45.94831" lon="8.7697333"><ele>234.0</ele><time>2026-04-12T09:12:44.807Z</time></trkpt><trkpt lat="45.9483167" lon="8.7698417"><ele>234.16666666666666</ele><time>2026-04-12T09:12:45.806Z</time></trkpt><trkpt lat="45.948325" lon="8.7699383"><ele>234.33333333333331</ele><time>2026-04-12T09:12:46.807Z</time></trkpt><trkpt lat="45.9483283" lon="8.7700817"><ele>234.5</ele><time>2026-04-12T09:12:48.807Z</time></trkpt><trkpt lat="45.94828" lon="8.77016"><ele>234.66666666666666</ele><time>2026-04-12T09:12:51.807Z</time></trkpt><trkpt lat="45.9482233" lon="8.7700383"><ele>234.83333333333331</ele><time>2026-04-12T09:12:54.806Z</time></trkpt><trkpt lat="45.9481967" lon="8.7699517"><ele>235.0</ele><time>2026-04-12T09:12:55.807Z</time></trkpt><trkpt lat="45.948125" lon="8.76983"><ele>235.0</ele><time>2026-04-12T09:12:57.807Z</time></trkpt><trkpt lat="45.948" lon="8.7697933"><ele>235.0</ele><time>2026-04-12T09:12:59.807Z</time></trkpt><trkpt lat="45.9479" lon="8.7698083"><ele>235.0</ele><time>2026-04-12T09:13:00.807Z</time></trkpt><trkpt lat="45.9477717" lon="8.76983"><ele>235.0</ele><time>2026-04-12T09:13:01.807Z</time></trkpt><trkpt lat="45.94764" lon="8.7698533"><ele>234.75</ele><time>2026-04-12T09:13:02.807Z</time></trkpt><trkpt lat="45.9475117" lon="8.76988"><ele>234.5</ele><time>2026-04-12T09:13:03.807Z</time></trkpt><trkpt lat="45.9473717" lon="8.7699167"><ele>234.25</ele><time>2026-04-12T09:13:04.807Z</time></trkpt><trkpt lat="45.9472383" lon="8.7699417"><ele>234.0</ele><time>2026-04-12T09:13:05.807Z</time></trkpt><trkpt lat="45.9471117" lon="8.7699617"><ele>234.0</ele><time>2026-04-12T09:13:06.807Z</time></trkpt><trkpt lat="45.9469833" lon="8.7699967"><ele>234.0</ele><time>2026-04-12T09:13:07.807Z</time></trkpt><trkpt lat="45.9468733" lon="8.7700217"><ele>234.0</ele><time>2026-04-12T09:13:08.807Z</time></trkpt><trkpt lat="45.9467617" lon="8.7700483"><ele>234.0</ele><time>2026-04-12T09:13:09.807Z</time></trkpt><trkpt lat="45.9466533" lon="8.770075"><ele>234.39999999999998</ele><time>2026-04-12T09:13:10.807Z</time></trkpt><trkpt lat="45.9465567" lon="8.770095"><ele>234.79999999999998</ele><time>2026-04-12T09:13:11.807Z</time></trkpt><trkpt lat="45.9464567" lon="8.770125"><ele>235.20000000000002</ele><time>2026-04-12T09:13:12.807Z</time></trkpt><trkpt lat="45.94637" lon="8.7701633"><ele>235.60000000000002</ele><time>2026-04-12T09:13:13.806Z</time></trkpt><trkpt lat="45.9462867" lon="8.7702283"><ele>236.0</ele><time>2026-04-12T09:13:14.807Z</time></trkpt><trkpt lat="45.9462" lon="8.770315"><ele>236.0</ele><time>2026-04-12T09:13:15.807Z</time></trkpt><trkpt lat="45.9461233" lon="8.7704183"><ele>236.0</ele><time>2026-04-12T09:13:16.807Z</time></trkpt><trkpt lat="45.9460367" lon="8.770545"><ele>236.0</ele><time>2026-04-12T09:13:17.807Z</time></trkpt><trkpt lat="45.9459517" lon="8.7706883"><ele>236.0</ele><time>2026-04-12T09:13:18.807Z</time></trkpt><trkpt lat="45.9458733" lon="8.7708167"><ele>236.20000000000002</ele><time>2026-04-12T09:13:19.807Z</time></trkpt><trkpt lat="45.945795" lon="8.770945"><ele>236.40000000000003</ele><time>2026-04-12T09:13:20.807Z</time></trkpt><trkpt lat="45.94573" lon="8.7710567"><ele>236.6</ele><time>2026-04-12T09:13:21.807Z</time></trkpt><trkpt lat="45.94566" lon="8.7711633"><ele>236.8</ele><time>2026-04-12T09:13:22.807Z</time></trkpt><trkpt lat="45.94558" lon="8.77128"><ele>237.0</ele><time>2026-04-12T09:13:23.807Z</time></trkpt><trkpt lat="45.9455117" lon="8.7714033"><ele>236.5</ele><time>2026-04-12T09:13:24.807Z</time></trkpt><trkpt lat="45.9454433" lon="8.7715367"><ele>236.0</ele><time>2026-04-12T09:13:25.807Z</time></trkpt><trkpt lat="45.9453667" lon="8.771675"><ele>235.5</ele><time>2026-04-12T09:13:26.807Z</time></trkpt><trkpt lat="45.9453" lon="8.7718183"><ele>235.0</ele><time>2026-04-12T09:13:27.807Z</time></trkpt><trkpt lat="45.9452367" lon="8.7719567"><ele>235.0</ele><time>2026-04-12T09:13:28.807Z</time></trkpt><trkpt lat="45.9451917" lon="8.7720733"><ele>235.0</ele><time>2026-04-12T09:13:29.807Z</time></trkpt><trkpt lat="45.9451583" lon="8.7721967"><ele>235.0</ele><time>2026-04-12T09:13:30.807Z</time></trkpt><trkpt lat="45.9451283" lon="8.7723133"><ele>235.0</ele><time>2026-04-12T09:13:31.807Z</time></trkpt><trkpt lat="45.9451083" lon="8.772465"><ele>235.0</ele><time>2026-04-12T09:13:33.807Z</time></trkpt><trkpt lat="45.945065" lon="8.772555"><ele>235.75</ele><time>2026-04-12T09:13:35.806Z</time></trkpt><trkpt lat="45.9449567" lon="8.7726367"><ele>236.5</ele><time>2026-04-12T09:13:37.807Z</time></trkpt><trkpt lat="45.9448733" lon="8.7726917"><ele>237.25</ele><time>2026-04-12T09:13:38.807Z</time></trkpt><trkpt lat="45.9447833" lon="8.7727917"><ele>238.0</ele><time>2026-04-12T09:13:39.807Z</time></trkpt><trkpt lat="45.94467" lon="8.7729467"><ele>238.33333333333331</ele><time>2026-04-12T09:13:40.807Z</time></trkpt><trkpt lat="45.9445467" lon="8.773095"><ele>238.66666666666669</ele><time>2026-04-12T09:13:41.807Z</time></trkpt><trkpt lat="45.9444183" lon="8.7732467"><ele>239.0</ele><time>2026-04-12T09:13:42.807Z</time></trkpt><trkpt lat="45.9442917" lon="8.773395"><ele>239.5</ele><time>2026-04-12T09:13:43.807Z</time></trkpt><trkpt lat="45.9441783" lon="8.7735167"><ele>240.0</ele><time>2026-04-12T09:13:44.807Z</time></trkpt><trkpt lat="45.944055" lon="8.77363"><ele>240.5</ele><time>2026-04-12T09:13:45.807Z</time></trkpt><trkpt lat="45.9439333" lon="8.7737417"><ele>241.0</ele><time>2026-04-12T09:13:46.807Z</time></trkpt><trkpt lat="45.9438183" lon="8.7738517"><ele>241.0</ele><time>2026-04-12T09:13:47.807Z</time></trkpt><trkpt lat="45.943705" lon="8.7739433"><ele>241.0</ele><time>2026-04-12T09:13:48.806Z</time></trkpt><trkpt lat="45.9435867" lon="8.77403"><ele>241.0</ele><time>2026-04-12T09:13:49.807Z</time></trkpt><trkpt lat="45.9434733" lon="8.774115"><ele>241.0</ele><time>2026-04-12T09:13:50.807Z</time></trkpt><trkpt lat="45.94337" lon="8.774175"><ele>239.75</ele><time>2026-04-12T09:13:51.807Z</time></trkpt><trkpt lat="45.9432617" lon="8.77423"><ele>238.5</ele><time>2026-04-12T09:13:52.807Z</time></trkpt><trkpt lat="45.9431483" lon="8.774265"><ele>237.25</ele><time>2026-04-12T09:13:53.807Z</time></trkpt><trkpt lat="45.94303" lon="8.7743"><ele>236.0</ele><time>2026-04-12T09:13:54.807Z</time></trkpt><trkpt lat="45.942895" lon="8.77434"><ele>236.0</ele><time>2026-04-12T09:13:55.807Z</time></trkpt><trkpt lat="45.9427683" lon="8.7743767"><ele>236.0</ele><time>2026-04-12T09:13:56.807Z</time></trkpt><trkpt lat="45.94265" lon="8.7744167"><ele>236.0</ele><time>2026-04-12T09:13:57.807Z</time></trkpt><trkpt lat="45.9425317" lon="8.7744583"><ele>236.0</ele><time>2026-04-12T09:13:58.807Z</time></trkpt><trkpt lat="45.9423967" lon="8.77451"><ele>236.75</ele><time>2026-04-12T09:13:59.807Z</time></trkpt><trkpt lat="45.9422583" lon="8.774555"><ele>237.5</ele><time>2026-04-12T09:14:00.806Z</time></trkpt><trkpt lat="45.942115" lon="8.7746033"><ele>238.25</ele><time>2026-04-12T09:14:01.807Z</time></trkpt><trkpt lat="45.9419667" lon="8.7746583"><ele>239.0</ele><time>2026-04-12T09:14:02.807Z</time></trkpt><trkpt lat="45.941815" lon="8.77472"><ele>238.75</ele><time>2026-04-12T09:14:03.806Z</time></trkpt><trkpt lat="45.9416717" lon="8.7747733"><ele>238.5</ele><time>2026-04-12T09:14:04.807Z</time></trkpt><trkpt lat="45.9415367" lon="8.7748217"><ele>238.25</ele><time>2026-04-12T09:14:05.807Z</time></trkpt><trkpt lat="45.9413983" lon="8.7748717"><ele>238.0</ele><time>2026-04-12T09:14:06.807Z</time></trkpt><trkpt lat="45.94125" lon="8.7749317"><ele>238.0</ele><time>2026-04-12T09:14:07.807Z</time></trkpt><trkpt lat="45.9411083" lon="8.7749767"><ele>238.0</ele><time>2026-04-12T09:14:08.807Z</time></trkpt><trkpt lat="45.940975" lon="8.7750317"><ele>238.0</ele><time>2026-04-12T09:14:09.807Z</time></trkpt><trkpt lat="45.9408483" lon="8.7750783"><ele>238.0</ele><time>2026-04-12T09:14:10.806Z</time></trkpt><trkpt lat="45.9407383" lon="8.7751117"><ele>237.75</ele><time>2026-04-12T09:14:11.807Z</time></trkpt><trkpt lat="45.940625" lon="8.775145"><ele>237.5</ele><time>2026-04-12T09:14:12.807Z</time></trkpt><trkpt lat="45.9405067" lon="8.7751883"><ele>237.25</ele><time>2026-04-12T09:14:13.807Z</time></trkpt><trkpt lat="45.9403833" lon="8.77524"><ele>237.0</ele><time>2026-04-12T09:14:14.807Z</time></trkpt><trkpt lat="45.94026" lon="8.7752767"><ele>237.0</ele><time>2026-04-12T09:14:15.807Z</time></trkpt><trkpt lat="45.94013" lon="8.7753183"><ele>237.0</ele><time>2026-04-12T09:14:16.807Z</time></trkpt><trkpt lat="45.9400017" lon="8.7753567"><ele>237.0</ele><time>2026-04-12T09:14:17.806Z</time></trkpt><trkpt lat="45.9398767" lon="8.7754"><ele>237.0</ele><time>2026-04-12T09:14:18.807Z</time></trkpt><trkpt lat="45.9397483" lon="8.7754483"><ele>237.75</ele><time>2026-04-12T09:14:19.807Z</time></trkpt><trkpt lat="45.9396083" lon="8.7754917"><ele>238.5</ele><time>2026-04-12T09:14:20.807Z</time></trkpt><trkpt lat="45.93946" lon="8.7755383"><ele>239.25</ele><time>2026-04-12T09:14:21.807Z</time></trkpt><trkpt lat="45.9393217" lon="8.7755767"><ele>240.0</ele><time>2026-04-12T09:14:22.807Z</time></trkpt><trkpt lat="45.93919" lon="8.7756183"><ele>241.0</ele><time>2026-04-12T09:14:23.807Z</time></trkpt><trkpt lat="45.9390683" lon="8.775655"><ele>242.0</ele><time>2026-04-12T09:14:24.807Z</time></trkpt><trkpt lat="45.93895" lon="8.7757067"><ele>243.0</ele><time>2026-04-12T09:14:25.806Z</time></trkpt><trkpt lat="45.9388217" lon="8.7757483"><ele>244.0</ele><time>2026-04-12T09:14:26.807Z</time></trkpt><trkpt lat="45.93869" lon="8.7757883"><ele>244.0</ele><time>2026-04-12T09:14:27.807Z</time></trkpt><trkpt lat="45.9385517" lon="8.7758467"><ele>244.0</ele><time>2026-04-12T09:14:28.807Z</time></trkpt><trkpt lat="45.9384017" lon="8.7759"><ele>244.0</ele><time>2026-04-12T09:14:29.806Z</time></trkpt><trkpt lat="45.93823" lon="8.7759733"><ele>244.0</ele><time>2026-04-12T09:14:30.807Z</time></trkpt><trkpt lat="45.93806" lon="8.7760317"><ele>244.0</ele><time>2026-04-12T09:14:31.807Z</time></trkpt><trkpt lat="45.9379" lon="8.7760833"><ele>244.0</ele><time>2026-04-12T09:14:32.807Z</time></trkpt><trkpt lat="45.9377383" lon="8.7761433"><ele>244.0</ele><time>2026-04-12T09:14:33.806Z</time></trkpt><trkpt lat="45.937575" lon="8.7762083"><ele>244.0</ele><time>2026-04-12T09:14:34.807Z</time></trkpt><trkpt lat="45.9374167" lon="8.7762617"><ele>244.0</ele><time>2026-04-12T09:14:35.807Z</time></trkpt><trkpt lat="45.93726" lon="8.7763067"><ele>243.0</ele><time>2026-04-12T09:14:36.807Z</time></trkpt><trkpt lat="45.9371133" lon="8.77635"><ele>242.0</ele><time>2026-04-12T09:14:37.807Z</time></trkpt><trkpt lat="45.9369633" lon="8.7763967"><ele>241.0</ele><time>2026-04-12T09:14:38.807Z</time></trkpt><trkpt lat="45.9368067" lon="8.77645"><ele>241.0</ele><time>2026-04-12T09:14:39.807Z</time></trkpt><trkpt lat="45.936655" lon="8.7765067"><ele>241.0</ele><time>2026-04-12T09:14:40.807Z</time></trkpt><trkpt lat="45.9365133" lon="8.776565"><ele>241.0</ele><time>2026-04-12T09:14:41.807Z</time></trkpt><trkpt lat="45.9363717" lon="8.776615"><ele>241.0</ele><time>2026-04-12T09:14:42.807Z</time></trkpt><trkpt lat="45.93623" lon="8.776655"><ele>241.0</ele><time>2026-04-12T09:14:43.807Z</time></trkpt><trkpt lat="45.93608" lon="8.7766967"><ele>241.0</ele><time>2026-04-12T09:14:44.807Z</time></trkpt><trkpt lat="45.93593" lon="8.7767517"><ele>241.33333333333331</ele><time>2026-04-12T09:14:45.807Z</time></trkpt><trkpt lat="45.9357833" lon="8.7768083"><ele>241.66666666666669</ele><time>2026-04-12T09:14:46.807Z</time></trkpt><trkpt lat="45.9356217" lon="8.7768617"><ele>242.0</ele><time>2026-04-12T09:14:47.807Z</time></trkpt><trkpt lat="45.9354617" lon="8.7769117"><ele>242.0</ele><time>2026-04-12T09:14:48.807Z</time></trkpt><trkpt lat="45.935295" lon="8.77696"><ele>242.0</ele><time>2026-04-12T09:14:49.807Z</time></trkpt><trkpt lat="45.9351333" lon="8.7770183"><ele>242.0</ele><time>2026-04-12T09:14:50.807Z</time></trkpt><trkpt lat="45.9349667" lon="8.7770767"><ele>242.0</ele><time>2026-04-12T09:14:51.807Z</time></trkpt><trkpt lat="45.9347967" lon="8.7771267"><ele>242.0</ele><time>2026-04-12T09:14:52.807Z</time></trkpt><trkpt lat="45.934635" lon="8.777175"><ele>242.0</ele><time>2026-04-12T09:14:53.806Z</time></trkpt><trkpt lat="45.9344867" lon="8.77723"><ele>242.0</ele><time>2026-04-12T09:14:54.807Z</time></trkpt><trkpt lat="45.9343417" lon="8.7772733"><ele>242.0</ele><time>2026-04-12T09:14:55.807Z</time></trkpt><trkpt lat="45.9341967" lon="8.7773183"><ele>242.0</ele><time>2026-04-12T09:14:56.807Z</time></trkpt><trkpt lat="45.9340583" lon="8.7773733"><ele>242.0</ele><time>2026-04-12T09:14:57.807Z</time></trkpt><trkpt lat="45.9339083" lon="8.7774233"><ele>242.0</ele><time>2026-04-12T09:14:58.807Z</time></trkpt><trkpt lat="45.9337633" lon="8.7774733"><ele>242.0</ele><time>2026-04-12T09:14:59.807Z</time></trkpt><trkpt lat="45.9336383" lon="8.7775167"><ele>242.0</ele><time>2026-04-12T09:15:00.807Z</time></trkpt><trkpt lat="45.9335267" lon="8.777555"><ele>242.0</ele><time>2026-04-12T09:15:01.807Z</time></trkpt><trkpt lat="45.9334233" lon="8.7775967"><ele>242.39999999999998</ele><time>2026-04-12T09:15:02.806Z</time></trkpt><trkpt lat="45.9333367" lon="8.777635"><ele>242.79999999999998</ele><time>2026-04-12T09:15:03.807Z</time></trkpt><trkpt lat="45.9332583" lon="8.7776717"><ele>243.2</ele><time>2026-04-12T09:15:04.807Z</time></trkpt><trkpt lat="45.9331933" lon="8.7777"><ele>243.6</ele><time>2026-04-12T09:15:05.807Z</time></trkpt><trkpt lat="45.9331033" lon="8.77776"><ele>244.0</ele><time>2026-04-12T09:15:07.807Z</time></trkpt><trkpt lat="45.933045" lon="8.777955"><ele>244.0</ele><time>2026-04-12T09:15:09.807Z</time></trkpt><trkpt lat="45.9330283" lon="8.7781233"><ele>244.0</ele><time>2026-04-12T09:15:10.807Z</time></trkpt><trkpt lat="45.9330167" lon="8.7783183"><ele>244.0</ele><time>2026-04-12T09:15:11.807Z</time></trkpt><trkpt lat="45.9330017" lon="8.77852"><ele>244.0</ele><time>2026-04-12T09:15:12.807Z</time></trkpt><trkpt lat="45.9329817" lon="8.7787483"><ele>244.33333333333331</ele><time>2026-04-12T09:15:13.807Z</time></trkpt><trkpt lat="45.9329617" lon="8.7790083"><ele>244.66666666666669</ele><time>2026-04-12T09:15:14.807Z</time></trkpt><trkpt lat="45.93295" lon="8.7792567"><ele>245.0</ele><time>2026-04-12T09:15:15.807Z</time></trkpt><trkpt lat="45.9329367" lon="8.7794733"><ele>246.2</ele><time>2026-04-12T09:15:16.807Z</time></trkpt><trkpt lat="45.932925" lon="8.77966"><ele>247.4</ele><time>2026-04-12T09:15:17.806Z</time></trkpt><trkpt lat="45.932905" lon="8.779815"><ele>248.60000000000002</ele><time>2026-04-12T09:15:18.807Z</time></trkpt><trkpt lat="45.932865" lon="8.7799267"><ele>249.8</ele><time>2026-04-12T09:15:19.807Z</time></trkpt><trkpt lat="45.9328083" lon="8.7800033"><ele>251.0</ele><time>2026-04-12T09:15:20.806Z</time></trkpt><trkpt lat="45.9327167" lon="8.78003"><ele>251.0</ele><time>2026-04-12T09:15:21.806Z</time></trkpt><trkpt lat="45.932605" lon="8.7800367"><ele>251.0</ele><time>2026-04-12T09:15:22.807Z</time></trkpt><trkpt lat="45.932485" lon="8.7800633"><ele>251.0</ele><time>2026-04-12T09:15:23.807Z</time></trkpt><trkpt lat="45.9323717" lon="8.780135"><ele>251.0</ele><time>2026-04-12T09:15:24.807Z</time></trkpt><trkpt lat="45.9322683" lon="8.7802633"><ele>251.0</ele><time>2026-04-12T09:15:25.806Z</time></trkpt><trkpt lat="45.9321817" lon="8.780425"><ele>251.0</ele><time>2026-04-12T09:15:26.807Z</time></trkpt><trkpt lat="45.9321133" lon="8.7806033"><ele>251.0</ele><time>2026-04-12T09:15:27.807Z</time></trkpt><trkpt lat="45.9320483" lon="8.7807883"><ele>251.0</ele><time>2026-04-12T09:15:28.807Z</time></trkpt><trkpt lat="45.9319817" lon="8.7809517"><ele>251.5</ele><time>2026-04-12T09:15:29.807Z</time></trkpt><trkpt lat="45.9319033" lon="8.7811"><ele>252.0</ele><time>2026-04-12T09:15:30.807Z</time></trkpt><trkpt lat="45.9318017" lon="8.7812183"><ele>252.5</ele><time>2026-04-12T09:15:31.806Z</time></trkpt><trkpt lat="45.9316783" lon="8.7813033"><ele>253.0</ele><time>2026-04-12T09:15:32.806Z</time></trkpt><trkpt lat="45.93155" lon="8.781355"><ele>253.4</ele><time>2026-04-12T09:15:33.806Z</time></trkpt><trkpt lat="45.93144" lon="8.7814"><ele>253.8</ele><time>2026-04-12T09:15:34.807Z</time></trkpt><trkpt lat="45.9313433" lon="8.7814467"><ele>254.2</ele><time>2026-04-12T09:15:35.807Z</time></trkpt><trkpt lat="45.9312567" lon="8.781485"><ele>254.6</ele><time>2026-04-12T09:15:36.807Z</time></trkpt><trkpt lat="45.93119" lon="8.7815233"><ele>255.0</ele><time>2026-04-12T09:15:37.807Z</time></trkpt><trkpt lat="45.93109" lon="8.7815683"><ele>255.0</ele><time>2026-04-12T09:15:39.807Z</time></trkpt><trkpt lat="45.9310067" lon="8.7814917"><ele>255.0</ele><time>2026-04-12T09:15:41.807Z</time></trkpt><trkpt lat="45.9309533" lon="8.78137"><ele>255.0</ele><time>2026-04-12T09:15:42.807Z</time></trkpt><trkpt lat="45.9308933" lon="8.7812433"><ele>255.0</ele><time>2026-04-12T09:15:43.807Z</time></trkpt><trkpt lat="45.9308417" lon="8.781095"><ele>255.0</ele><time>2026-04-12T09:15:44.807Z</time></trkpt><trkpt lat="45.9307783" lon="8.7809483"><ele>254.75</ele><time>2026-04-12T09:15:45.806Z</time></trkpt><trkpt lat="45.9307167" lon="8.7808067"><ele>254.5</ele><time>2026-04-12T09:15:46.806Z</time></trkpt><trkpt lat="45.9306633" lon="8.780665"><ele>254.25</ele><time>2026-04-12T09:15:47.806Z</time></trkpt><trkpt lat="45.9306133" lon="8.780515"><ele>254.0</ele><time>2026-04-12T09:15:48.807Z</time></trkpt><trkpt lat="45.9305583" lon="8.7803433"><ele>252.25</ele><time>2026-04-12T09:15:49.807Z</time></trkpt><trkpt lat="45.9305033" lon="8.7801617"><ele>250.5</ele><time>2026-04-12T09:15:50.807Z</time></trkpt><trkpt lat="45.9304567" lon="8.7799617"><ele>248.75</ele><time>2026-04-12T09:15:51.807Z</time></trkpt><trkpt lat="45.93041" lon="8.77975"><ele>247.0</ele><time>2026-04-12T09:15:52.807Z</time></trkpt><trkpt lat="45.9303667" lon="8.77953"><ele>246.25</ele><time>2026-04-12T09:15:53.807Z</time></trkpt><trkpt lat="45.9303317" lon="8.779315"><ele>245.5</ele><time>2026-04-12T09:15:54.807Z</time></trkpt><trkpt lat="45.930295" lon="8.77911"><ele>244.75</ele><time>2026-04-12T09:15:55.807Z</time></trkpt><trkpt lat="45.9302567" lon="8.778925"><ele>244.0</ele><time>2026-04-12T09:15:56.807Z</time></trkpt><trkpt lat="45.9302233" lon="8.7787567"><ele>243.99999999999997</ele><time>2026-04-12T09:15:57.807Z</time></trkpt><trkpt lat="45.93019" lon="8.778605"><ele>244.0</ele><time>2026-04-12T09:15:58.807Z</time></trkpt><trkpt lat="45.9301567" lon="8.7784767"><ele>244.0</ele><time>2026-04-12T09:15:59.807Z</time></trkpt><trkpt lat="45.9301383" lon="8.7783583"><ele>244.0</ele><time>2026-04-12T09:16:00.807Z</time></trkpt><trkpt lat="45.9301133" lon="8.7782633"><ele>243.99999999999997</ele><time>2026-04-12T09:16:01.807Z</time></trkpt><trkpt lat="45.9300833" lon="8.77818"><ele>244.0</ele><time>2026-04-12T09:16:02.807Z</time></trkpt><trkpt lat="45.9300233" lon="8.7781267"><ele>245.2</ele><time>2026-04-12T09:16:04.807Z</time></trkpt><trkpt lat="45.9299467" lon="8.7782017"><ele>246.39999999999998</ele><time>2026-04-12T09:16:06.806Z</time></trkpt><trkpt lat="45.9298883" lon="8.77829"><ele>247.6</ele><time>2026-04-12T09:16:07.807Z</time></trkpt><trkpt lat="45.92982" lon="8.7784"><ele>248.8</ele><time>2026-04-12T09:16:08.807Z</time></trkpt><trkpt lat="45.9297467" lon="8.7785283"><ele>250.0</ele><time>2026-04-12T09:16:09.807Z</time></trkpt><trkpt lat="45.9296667" lon="8.7786583"><ele>250.6</ele><time>2026-04-12T09:16:10.807Z</time></trkpt><trkpt lat="45.929605" lon="8.7787833"><ele>251.2</ele><time>2026-04-12T09:16:11.807Z</time></trkpt><trkpt lat="45.9295383" lon="8.77891"><ele>251.8</ele><time>2026-04-12T09:16:12.807Z</time></trkpt><trkpt lat="45.9294683" lon="8.779025"><ele>252.4</ele><time>2026-04-12T09:16:13.807Z</time></trkpt><trkpt lat="45.9293983" lon="8.779155"><ele>253.0</ele><time>2026-04-12T09:16:14.807Z</time></trkpt><trkpt lat="45.9293267" lon="8.7792917"><ele>254.0</ele><time>2026-04-12T09:16:15.807Z</time></trkpt><trkpt lat="45.92926" lon="8.7794267"><ele>255.0</ele><time>2026-04-12T09:16:16.806Z</time></trkpt><trkpt lat="45.9291933" lon="8.7795633"><ele>256.0</ele><time>2026-04-12T09:16:17.807Z</time></trkpt><trkpt lat="45.9291317" lon="8.7797117"><ele>257.0</ele><time>2026-04-12T09:16:18.807Z</time></trkpt><trkpt lat="45.9290733" lon="8.7798433"><ele>259.5</ele><time>2026-04-12T09:16:19.807Z</time></trkpt><trkpt lat="45.9290167" lon="8.779945"><ele>262.0</ele><time>2026-04-12T09:16:20.807Z</time></trkpt><trkpt lat="45.9289633" lon="8.780025"><ele>264.5</ele><time>2026-04-12T09:16:21.807Z</time></trkpt><trkpt lat="45.9289083" lon="8.7800867"><ele>267.0</ele><time>2026-04-12T09:16:22.807Z</time></trkpt><trkpt lat="45.928855" lon="8.7801367"><ele>269.5</ele><time>2026-04-12T09:16:23.807Z</time></trkpt><trkpt lat="45.9287517" lon="8.780125"><ele>272.0</ele><time>2026-04-12T09:16:25.807Z</time></trkpt><trkpt lat="45.9286933" lon="8.7800717"><ele>271.99999999999994</ele><time>2026-04-12T09:16:26.806Z</time></trkpt><trkpt lat="45.9286317" lon="8.7800317"><ele>272.0</ele><time>2026-04-12T09:16:27.807Z</time></trkpt><trkpt lat="45.9285683" lon="8.7800333"><ele>272.0</ele><time>2026-04-12T09:16:28.806Z</time></trkpt><trkpt lat="45.9284967" lon="8.7801183"><ele>272.0</ele><time>2026-04-12T09:16:29.807Z</time></trkpt><trkpt lat="45.9284383" lon="8.7802033"><ele>272.0</ele><time>2026-04-12T09:16:30.807Z</time></trkpt><trkpt lat="45.9283917" lon="8.7802767"><ele>271.99999999999994</ele><time>2026-04-12T09:16:31.807Z</time></trkpt><trkpt lat="45.9283517" lon="8.7803567"><ele>272.0</ele><time>2026-04-12T09:16:32.807Z</time></trkpt><trkpt lat="45.9283267" lon="8.7805133"><ele>273.6666666666667</ele><time>2026-04-12T09:16:34.806Z</time></trkpt><trkpt lat="45.9283617" lon="8.7806117"><ele>275.33333333333337</ele><time>2026-04-12T09:16:35.807Z</time></trkpt><trkpt lat="45.928405" lon="8.780735"><ele>277.0</ele><time>2026-04-12T09:16:36.807Z</time></trkpt><trkpt lat="45.9284467" lon="8.78084"><ele>278.6666666666667</ele><time>2026-04-12T09:16:37.807Z</time></trkpt><trkpt lat="45.9284817" lon="8.780935"><ele>280.3333333333333</ele><time>2026-04-12T09:16:38.807Z</time></trkpt><trkpt lat="45.9285217" lon="8.7810283"><ele>282.0</ele><time>2026-04-12T09:16:39.807Z</time></trkpt><trkpt lat="45.9285717" lon="8.78115"><ele>283.25</ele><time>2026-04-12T09:16:41.806Z</time></trkpt><trkpt lat="45.9285033" lon="8.781325"><ele>284.5</ele><time>2026-04-12T09:16:43.807Z</time></trkpt><trkpt lat="45.92843" lon="8.7814467"><ele>285.75</ele><time>2026-04-12T09:16:44.807Z</time></trkpt><trkpt lat="45.9283783" lon="8.781585"><ele>287.0</ele><time>2026-04-12T09:16:45.807Z</time></trkpt><trkpt lat="45.92832" lon="8.7817233"><ele>288.2</ele><time>2026-04-12T09:16:46.807Z</time></trkpt><trkpt lat="45.9282667" lon="8.7818633"><ele>289.4</ele><time>2026-04-12T09:16:47.807Z</time></trkpt><trkpt lat="45.9282233" lon="8.781995"><ele>290.6</ele><time>2026-04-12T09:16:48.807Z</time></trkpt><trkpt lat="45.928185" lon="8.78212"><ele>291.8</ele><time>2026-04-12T09:16:49.807Z</time></trkpt><trkpt lat="45.928155" lon="8.7822483"><ele>293.0</ele><time>2026-04-12T09:16:50.807Z</time></trkpt><trkpt lat="45.928135" lon="8.7823733"><ele>293.0</ele><time>2026-04-12T09:16:51.806Z</time></trkpt><trkpt lat="45.9281217" lon="8.7824783"><ele>293.0</ele><time>2026-04-12T09:16:52.807Z</time></trkpt><trkpt lat="45.9280867" lon="8.7826283"><ele>293.0</ele><time>2026-04-12T09:16:54.807Z</time></trkpt><trkpt lat="45.9279883" lon="8.7826617"><ele>293.0</ele><time>2026-04-12T09:16:56.807Z</time></trkpt><trkpt lat="45.9279033" lon="8.7826483"><ele>293.0</ele><time>2026-04-12T09:16:57.807Z</time></trkpt><trkpt lat="45.9278017" lon="8.7826183"><ele>293.0</ele><time>2026-04-12T09:16:58.807Z</time></trkpt><trkpt lat="45.9277033" lon="8.7825833"><ele>293.0</ele><time>2026-04-12T09:16:59.807Z</time></trkpt><trkpt lat="45.9276017" lon="8.7825517"><ele>293.0</ele><time>2026-04-12T09:17:00.807Z</time></trkpt><trkpt lat="45.9275083" lon="8.7825283"><ele>293.0</ele><time>2026-04-12T09:17:01.807Z</time></trkpt><trkpt lat="45.9274183" lon="8.7825267"><ele>293.0</ele><time>2026-04-12T09:17:02.807Z</time></trkpt><trkpt lat="45.9273333" lon="8.7825483"><ele>293.0</ele><time>2026-04-12T09:17:03.807Z</time></trkpt><trkpt lat="45.9272517" lon="8.7825917"><ele>293.0</ele><time>2026-04-12T09:17:04.807Z</time></trkpt><trkpt lat="45.927165" lon="8.782655"><ele>293.0</ele><time>2026-04-12T09:17:05.806Z</time></trkpt><trkpt lat="45.9270917" lon="8.7827233"><ele>293.0</ele><time>2026-04-12T09:17:06.807Z</time></trkpt><trkpt lat="45.9270233" lon="8.7828067"><ele>293.0</ele><time>2026-04-12T09:17:07.807Z</time></trkpt><trkpt lat="45.9269583" lon="8.7828983"><ele>293.0</ele><time>2026-04-12T09:17:08.807Z</time></trkpt><trkpt lat="45.926885" lon="8.783"><ele>293.0</ele><time>2026-04-12T09:17:09.807Z</time></trkpt><trkpt lat="45.9268217" lon="8.7831017"><ele>293.0</ele><time>2026-04-12T09:17:10.807Z</time></trkpt><trkpt lat="45.92677" lon="8.7832017"><ele>293.0</ele><time>2026-04-12T09:17:11.807Z</time></trkpt><trkpt lat="45.9267183" lon="8.7832983"><ele>293.0</ele><time>2026-04-12T09:17:12.807Z</time></trkpt><trkpt lat="45.92667" lon="8.783385"><ele>293.0</ele><time>2026-04-12T09:17:13.807Z</time></trkpt><trkpt lat="45.9266" lon="8.783465"><ele>294.4</ele><time>2026-04-12T09:17:15.807Z</time></trkpt><trkpt lat="45.9265267" lon="8.78341"><ele>295.8</ele><time>2026-04-12T09:17:17.807Z</time></trkpt><trkpt lat="45.9264567" lon="8.7833017"><ele>297.2</ele><time>2026-04-12T09:17:18.807Z</time></trkpt><trkpt lat="45.926375" lon="8.783195"><ele>298.6</ele><time>2026-04-12T09:17:19.807Z</time></trkpt><trkpt lat="45.92629" lon="8.78308"><ele>300.0</ele><time>2026-04-12T09:17:20.807Z</time></trkpt><trkpt lat="45.926195" lon="8.7829783"><ele>300.0</ele><time>2026-04-12T09:17:21.807Z</time></trkpt><trkpt lat="45.926095" lon="8.7828967"><ele>300.0</ele><time>2026-04-12T09:17:22.807Z</time></trkpt><trkpt lat="45.9259883" lon="8.78282"><ele>300.0</ele><time>2026-04-12T09:17:23.807Z</time></trkpt><trkpt lat="45.9258783" lon="8.782765"><ele>300.0</ele><time>2026-04-12T09:17:24.807Z</time></trkpt><trkpt lat="45.9257517" lon="8.7827133"><ele>299.25</ele><time>2026-04-12T09:17:25.807Z</time></trkpt><trkpt lat="45.9256233" lon="8.7826333"><ele>298.5</ele><time>2026-04-12T09:17:26.807Z</time></trkpt><trkpt lat="45.9255017" lon="8.7825233"><ele>297.75</ele><time>2026-04-12T09:17:27.807Z</time></trkpt><trkpt lat="45.92541" lon="8.7824317"><ele>297.0</ele><time>2026-04-12T09:17:28.807Z</time></trkpt><trkpt lat="45.9253367" lon="8.782355"><ele>297.0</ele><time>2026-04-12T09:17:29.806Z</time></trkpt><trkpt lat="45.9252767" lon="8.7822983"><ele>297.0</ele><time>2026-04-12T09:17:30.807Z</time></trkpt><trkpt lat="45.92515" lon="8.7822667"><ele>297.0</ele><time>2026-04-12T09:17:32.806Z</time></trkpt><trkpt lat="45.9250483" lon="8.782295"><ele>297.0</ele><time>2026-04-12T09:17:33.807Z</time></trkpt><trkpt lat="45.9249267" lon="8.7823267"><ele>297.0</ele><time>2026-04-12T09:17:34.807Z</time></trkpt><trkpt lat="45.924805" lon="8.782365"><ele>297.25</ele><time>2026-04-12T09:17:35.807Z</time></trkpt><trkpt lat="45.9246983" lon="8.7824"><ele>297.5</ele><time>2026-04-12T09:17:36.807Z</time></trkpt><trkpt lat="45.9246017" lon="8.7824683"><ele>297.75</ele><time>2026-04-12T09:17:37.807Z</time></trkpt><trkpt lat="45.92451" lon="8.7825783"><ele>298.0</ele><time>2026-04-12T09:17:38.807Z</time></trkpt><trkpt lat="45.924435" lon="8.782705"><ele>298.6</ele><time>2026-04-12T09:17:39.807Z</time></trkpt><trkpt lat="45.9243683" lon="8.7828333"><ele>299.20000000000005</ele><time>2026-04-12T09:17:40.807Z</time></trkpt><trkpt lat="45.92432" lon="8.7829467"><ele>299.8</ele><time>2026-04-12T09:17:41.807Z</time></trkpt><trkpt lat="45.924265" lon="8.78303"><ele>300.40000000000003</ele><time>2026-04-12T09:17:42.806Z</time></trkpt><trkpt lat="45.9241933" lon="8.7831017"><ele>301.0</ele><time>2026-04-12T09:17:43.807Z</time></trkpt><trkpt lat="45.9241033" lon="8.783145"><ele>301.0</ele><time>2026-04-12T09:17:44.807Z</time></trkpt><trkpt lat="45.9239867" lon="8.7831917"><ele>301.0</ele><time>2026-04-12T09:17:45.807Z</time></trkpt><trkpt lat="45.92385" lon="8.7832233"><ele>301.0</ele><time>2026-04-12T09:17:46.807Z</time></trkpt><trkpt lat="45.9237167" lon="8.783245"><ele>301.0</ele><time>2026-04-12T09:17:47.806Z</time></trkpt><trkpt lat="45.9235717" lon="8.7832583"><ele>301.0</ele><time>2026-04-12T09:17:48.807Z</time></trkpt><trkpt lat="45.92343" lon="8.7832633"><ele>301.0</ele><time>2026-04-12T09:17:49.806Z</time></trkpt><trkpt lat="45.9233067" lon="8.7832817"><ele>301.0</ele><time>2026-04-12T09:17:50.807Z</time></trkpt><trkpt lat="45.92319" lon="8.7832883"><ele>301.0</ele><time>2026-04-12T09:17:51.807Z</time></trkpt><trkpt lat="45.9230717" lon="8.7832917"><ele>300.6</ele><time>2026-04-12T09:17:52.806Z</time></trkpt><trkpt lat="45.9229567" lon="8.783305"><ele>300.20000000000005</ele><time>2026-04-12T09:17:53.807Z</time></trkpt><trkpt lat="45.922855" lon="8.7833133"><ele>299.79999999999995</ele><time>2026-04-12T09:17:54.807Z</time></trkpt><trkpt lat="45.9227583" lon="8.7833233"><ele>299.4</ele><time>2026-04-12T09:17:55.807Z</time></trkpt><trkpt lat="45.9226617" lon="8.7833267"><ele>299.0</ele><time>2026-04-12T09:17:56.807Z</time></trkpt><trkpt lat="45.9225683" lon="8.78329"><ele>299.25</ele><time>2026-04-12T09:17:57.807Z</time></trkpt><trkpt lat="45.9224633" lon="8.783225"><ele>299.5</ele><time>2026-04-12T09:17:58.807Z</time></trkpt><trkpt lat="45.922345" lon="8.7831533"><ele>299.75</ele><time>2026-04-12T09:17:59.807Z</time></trkpt><trkpt lat="45.9222333" lon="8.7830883"><ele>300.0</ele><time>2026-04-12T09:18:00.807Z</time></trkpt><trkpt lat="45.9221283" lon="8.7830283"><ele>300.0</ele><time>2026-04-12T09:18:01.807Z</time></trkpt><trkpt lat="45.9220433" lon="8.78296"><ele>300.0</ele><time>2026-04-12T09:18:02.807Z</time></trkpt><trkpt lat="45.9219667" lon="8.7828767"><ele>300.0</ele><time>2026-04-12T09:18:03.807Z</time></trkpt><trkpt lat="45.9218933" lon="8.7827567"><ele>300.0</ele><time>2026-04-12T09:18:04.807Z</time></trkpt><trkpt lat="45.921845" lon="8.78263"><ele>300.0</ele><time>2026-04-12T09:18:05.807Z</time></trkpt><trkpt lat="45.921815" lon="8.7824983"><ele>299.4</ele><time>2026-04-12T09:18:06.807Z</time></trkpt><trkpt lat="45.9217883" lon="8.7823667"><ele>298.8</ele><time>2026-04-12T09:18:07.807Z</time></trkpt><trkpt lat="45.92175" lon="8.7822417"><ele>298.2</ele><time>2026-04-12T09:18:08.807Z</time></trkpt><trkpt lat="45.9216967" lon="8.7821117"><ele>297.6</ele><time>2026-04-12T09:18:09.807Z</time></trkpt><trkpt lat="45.921625" lon="8.781975"><ele>297.0</ele><time>2026-04-12T09:18:10.807Z</time></trkpt><trkpt lat="45.9215467" lon="8.7818533"><ele>298.0</ele><time>2026-04-12T09:18:11.807Z</time></trkpt><trkpt lat="45.9214733" lon="8.7817583"><ele>299.0</ele><time>2026-04-12T09:18:12.807Z</time></trkpt><trkpt lat="45.9214033" lon="8.7816917"><ele>300.0</ele><time>2026-04-12T09:18:13.807Z</time></trkpt><trkpt lat="45.9213333" lon="8.7816483"><ele>301.0</ele><time>2026-04-12T09:18:14.807Z</time></trkpt><trkpt lat="45.9212533" lon="8.7816267"><ele>302.0</ele><time>2026-04-12T09:18:15.807Z</time></trkpt><trkpt lat="45.9211883" lon="8.7816133"><ele>303.0</ele><time>2026-04-12T09:18:16.807Z</time></trkpt><trkpt lat="45.9211283" lon="8.7815017"><ele>303.0</ele><time>2026-04-12T09:18:18.807Z</time></trkpt><trkpt lat="45.92113" lon="8.7814017"><ele>303.0</ele><time>2026-04-12T09:18:19.807Z</time></trkpt><trkpt lat="45.9211283" lon="8.7813083"><ele>303.0</ele><time>2026-04-12T09:18:20.807Z</time></trkpt><trkpt lat="45.9211517" lon="8.7812"><ele>303.0</ele><time>2026-04-12T09:18:21.807Z</time></trkpt><trkpt lat="45.921175" lon="8.78111"><ele>303.0</ele><time>2026-04-12T09:18:22.806Z</time></trkpt><trkpt lat="45.9211917" lon="8.7809833"><ele>303.0</ele><time>2026-04-12T09:18:24.807Z</time></trkpt><trkpt lat="45.9211333" lon="8.7809483"><ele>303.0</ele><time>2026-04-12T09:18:34.807Z</time></trkpt><trkpt lat="45.921065" lon="8.7810117"><ele>303.8</ele><time>2026-04-12T09:18:36.807Z</time></trkpt><trkpt lat="45.9210033" lon="8.7809733"><ele>304.6</ele><time>2026-04-12T09:18:38.806Z</time></trkpt><trkpt lat="45.92096" lon="8.7808417"><ele>305.4</ele><time>2026-04-12T09:18:40.807Z</time></trkpt><trkpt lat="45.920965" lon="8.780645"><ele>306.2</ele><time>2026-04-12T09:18:42.806Z</time></trkpt><trkpt lat="45.92096" lon="8.7804917"><ele>307.0</ele><time>2026-04-12T09:18:43.807Z</time></trkpt><trkpt lat="45.92095" lon="8.780315"><ele>307.0</ele><time>2026-04-12T09:18:44.807Z</time></trkpt><trkpt lat="45.9209333" lon="8.7801467"><ele>307.0</ele><time>2026-04-12T09:18:45.806Z</time></trkpt><trkpt lat="45.9209117" lon="8.77998"><ele>307.0</ele><time>2026-04-12T09:18:46.807Z</time></trkpt><trkpt lat="45.9208933" lon="8.7798333"><ele>307.0</ele><time>2026-04-12T09:18:47.807Z</time></trkpt><trkpt lat="45.9208733" lon="8.77971"><ele>307.0</ele><time>2026-04-12T09:18:48.807Z</time></trkpt><trkpt lat="45.9208567" lon="8.779605"><ele>306.66666666666663</ele><time>2026-04-12T09:18:49.807Z</time></trkpt><trkpt lat="45.9208517" lon="8.7795133"><ele>306.3333333333333</ele><time>2026-04-12T09:18:50.807Z</time></trkpt><trkpt lat="45.92086" lon="8.7793667"><ele>306.0</ele><time>2026-04-12T09:18:52.807Z</time></trkpt><trkpt lat="45.9208717" lon="8.77926"><ele>305.6666666666667</ele><time>2026-04-12T09:18:54.807Z</time></trkpt><trkpt lat="45.920895" lon="8.7791683"><ele>305.33333333333337</ele><time>2026-04-12T09:18:56.806Z</time></trkpt><trkpt lat="45.9209167" lon="8.7790717"><ele>305.0</ele><time>2026-04-12T09:18:59.806Z</time></trkpt><trkpt lat="45.9209283" lon="8.7789433"><ele>305.0</ele><time>2026-04-12T09:19:06.807Z</time></trkpt><trkpt lat="45.920935" lon="8.7788333"><ele>305.0</ele><time>2026-04-12T09:19:11.807Z</time></trkpt><trkpt lat="45.92093" lon="8.7787167"><ele>305.0</ele><time>2026-04-12T09:19:14.807Z</time></trkpt><trkpt lat="45.920885" lon="8.7786483"><ele>305.0</ele><time>2026-04-12T09:19:16.807Z</time></trkpt><trkpt lat="45.920815" lon="8.7785683"><ele>305.0</ele><time>2026-04-12T09:19:18.807Z</time></trkpt><trkpt lat="45.920725" lon="8.7785417"><ele>305.0</ele><time>2026-04-12T09:19:20.807Z</time></trkpt><trkpt lat="45.92064" lon="8.7785233"><ele>307.8</ele><time>2026-04-12T09:19:22.807Z</time></trkpt><trkpt lat="45.9205467" lon="8.7785783"><ele>310.6</ele><time>2026-04-12T09:19:24.806Z</time></trkpt><trkpt lat="45.920465" lon="8.7786467"><ele>313.4</ele><time>2026-04-12T09:19:26.807Z</time></trkpt><trkpt lat="45.92041" lon="8.7787017"><ele>316.2</ele><time>2026-04-12T09:19:28.807Z</time></trkpt><trkpt lat="45.9203217" lon="8.7787233"><ele>319.0</ele><time>2026-04-12T09:19:31.806Z</time></trkpt><trkpt lat="45.9202183" lon="8.7787333"><ele>319.0</ele><time>2026-04-12T09:19:33.807Z</time></trkpt><trkpt lat="45.920155" lon="8.7787383"><ele>319.0</ele><time>2026-04-12T09:19:34.807Z</time></trkpt><trkpt lat="45.9200417" lon="8.7787067"><ele>319.0</ele><time>2026-04-12T09:19:36.807Z</time></trkpt><trkpt lat="45.9199717" lon="8.77865"><ele>319.0</ele><time>2026-04-12T09:19:37.807Z</time></trkpt><trkpt lat="45.919905" lon="8.77858"><ele>319.0</ele><time>2026-04-12T09:19:38.807Z</time></trkpt><trkpt lat="45.9198283" lon="8.7784917"><ele>319.0</ele><time>2026-04-12T09:19:39.807Z</time></trkpt><trkpt lat="45.9197617" lon="8.7783983"><ele>320.0</ele><time>2026-04-12T09:19:40.807Z</time></trkpt><trkpt lat="45.9196867" lon="8.7782917"><ele>321.0</ele><time>2026-04-12T09:19:41.807Z</time></trkpt><trkpt lat="45.9195983" lon="8.7782033"><ele>322.0</ele><time>2026-04-12T09:19:42.807Z</time></trkpt><trkpt lat="45.9195233" lon="8.7781267"><ele>323.0</ele><time>2026-04-12T09:19:43.807Z</time></trkpt><trkpt lat="45.91944" lon="8.778045"><ele>324.0</ele><time>2026-04-12T09:19:44.806Z</time></trkpt><trkpt lat="45.9193533" lon="8.7779717"><ele>324.0</ele><time>2026-04-12T09:19:45.806Z</time></trkpt><trkpt lat="45.9192883" lon="8.77791"><ele>324.0</ele><time>2026-04-12T09:19:46.806Z</time></trkpt><trkpt lat="45.91923" lon="8.777845"><ele>324.0</ele><time>2026-04-12T09:19:47.807Z</time></trkpt><trkpt lat="45.9191167" lon="8.7777767"><ele>324.0</ele><time>2026-04-12T09:19:49.806Z</time></trkpt><trkpt lat="45.9190333" lon="8.777745"><ele>324.0</ele><time>2026-04-12T09:19:50.807Z</time></trkpt><trkpt lat="45.918935" lon="8.7777333"><ele>323.6666666666667</ele><time>2026-04-12T09:19:51.807Z</time></trkpt><trkpt lat="45.9188433" lon="8.777715"><ele>323.3333333333333</ele><time>2026-04-12T09:19:52.807Z</time></trkpt><trkpt lat="45.9187617" lon="8.7776783"><ele>323.0</ele><time>2026-04-12T09:19:53.807Z</time></trkpt><trkpt lat="45.918695" lon="8.7776683"><ele>322.66666666666663</ele><time>2026-04-12T09:19:54.807Z</time></trkpt><trkpt lat="45.9186133" lon="8.7776517"><ele>322.3333333333333</ele><time>2026-04-12T09:19:55.807Z</time></trkpt><trkpt lat="45.9185133" lon="8.7776417"><ele>322.0</ele><time>2026-04-12T09:19:56.807Z</time></trkpt><trkpt lat="45.918415" lon="8.7776483"><ele>322.0</ele><time>2026-04-12T09:19:57.807Z</time></trkpt><trkpt lat="45.9183283" lon="8.7776733"><ele>322.0</ele><time>2026-04-12T09:19:58.807Z</time></trkpt><trkpt lat="45.918255" lon="8.7776967"><ele>322.0</ele><time>2026-04-12T09:19:59.806Z</time></trkpt><trkpt lat="45.918185" lon="8.7777283"><ele>322.0</ele><time>2026-04-12T09:20:00.807Z</time></trkpt><trkpt lat="45.9181083" lon="8.7777567"><ele>322.0</ele><time>2026-04-12T09:20:01.807Z</time></trkpt><trkpt lat="45.9180183" lon="8.777785"><ele>322.0</ele><time>2026-04-12T09:20:02.806Z</time></trkpt><trkpt lat="45.91792" lon="8.777815"><ele>322.66666666666663</ele><time>2026-04-12T09:20:03.807Z</time></trkpt><trkpt lat="45.917835" lon="8.7778483"><ele>323.3333333333333</ele><time>2026-04-12T09:20:04.806Z</time></trkpt><trkpt lat="45.917765" lon="8.77788"><ele>324.0</ele><time>2026-04-12T09:20:05.806Z</time></trkpt><trkpt lat="45.917655" lon="8.7779183"><ele>324.6666666666667</ele><time>2026-04-12T09:20:07.806Z</time></trkpt><trkpt lat="45.9175817" lon="8.777905"><ele>325.33333333333337</ele><time>2026-04-12T09:20:10.807Z</time></trkpt><trkpt lat="45.9175133" lon="8.7779067"><ele>326.0</ele><time>2026-04-12T09:20:15.807Z</time></trkpt><trkpt lat="45.9174233" lon="8.777905"><ele>326.0</ele><time>2026-04-12T09:20:20.807Z</time></trkpt><trkpt lat="45.917365" lon="8.7779417"><ele>326.0</ele><time>2026-04-12T09:20:22.807Z</time></trkpt><trkpt lat="45.917315" lon="8.778005"><ele>326.0</ele><time>2026-04-12T09:20:25.807Z</time></trkpt><trkpt lat="45.9172517" lon="8.77801"><ele>326.0</ele><time>2026-04-12T09:20:28.807Z</time></trkpt><trkpt lat="45.9171417" lon="8.7780167"><ele>326.0</ele><time>2026-04-12T09:20:36.807Z</time></trkpt><trkpt lat="45.91699" lon="8.777965"><ele>326.0</ele><time>2026-04-12T09:20:51.807Z</time></trkpt><trkpt lat="45.9169133" lon="8.7779683"><ele>326.0</ele><time>2026-04-12T09:20:54.807Z</time></trkpt><trkpt lat="45.9167783" lon="8.7780217"><ele>326.0</ele><time>2026-04-12T09:21:12.807Z</time></trkpt><trkpt lat="45.91668" lon="8.7780183"><ele>326.0</ele><time>2026-04-12T09:21:14.807Z</time></trkpt><trkpt lat="45.9166133" lon="8.7780217"><ele>326.0</ele><time>2026-04-12T09:21:16.807Z</time></trkpt><trkpt lat="45.9165533" lon="8.7780517"><ele>326.0</ele><time>2026-04-12T09:21:21.807Z</time></trkpt><trkpt lat="45.9164933" lon="8.7781"><ele>325.0</ele><time>2026-04-12T09:21:27.807Z</time></trkpt><trkpt lat="45.9164183" lon="8.778095"><ele>324.0</ele><time>2026-04-12T09:21:32.807Z</time></trkpt><trkpt lat="45.9163367" lon="8.7779883"><ele>323.0</ele><time>2026-04-12T09:21:41.807Z</time></trkpt><trkpt lat="45.9163" lon="8.7779067"><ele>322.0</ele><time>2026-04-12T09:21:44.807Z</time></trkpt><trkpt lat="45.9162833" lon="8.777805"><ele>321.0</ele><time>2026-04-12T09:21:49.807Z</time></trkpt><trkpt lat="45.9162317" lon="8.7776733"><ele>320.0</ele><time>2026-04-12T09:22:06.807Z</time></trkpt><trkpt lat="45.9161867" lon="8.7775033"><ele>318.0</ele><time>2026-04-12T09:22:27.807Z</time></trkpt><trkpt lat="45.9161233" lon="8.7774417"><ele>316.0</ele><time>2026-04-12T09:22:32.807Z</time></trkpt><trkpt lat="45.916065" lon="8.7773767"><ele>314.0</ele><time>2026-04-12T09:22:37.807Z</time></trkpt><trkpt lat="45.91601" lon="8.7773233"><ele>312.0</ele><time>2026-04-12T09:22:41.807Z</time></trkpt><trkpt lat="45.91593" lon="8.7772967"><ele>310.0</ele><time>2026-04-12T09:22:45.807Z</time></trkpt><trkpt lat="45.9158683" lon="8.7772767"><ele>308.0</ele><time>2026-04-12T09:22:47.807Z</time></trkpt><trkpt lat="45.9158017" lon="8.77724"><ele>306.0</ele><time>2026-04-12T09:22:49.807Z</time></trkpt><trkpt lat="45.9157617" lon="8.77717"><ele>304.8333333333333</ele><time>2026-04-12T09:22:51.807Z</time></trkpt><trkpt lat="45.9156983" lon="8.7770633"><ele>303.6666666666667</ele><time>2026-04-12T09:22:54.807Z</time></trkpt><trkpt lat="45.9156533" lon="8.7769833"><ele>302.5</ele><time>2026-04-12T09:22:56.807Z</time></trkpt><trkpt lat="45.9156067" lon="8.7768783"><ele>301.33333333333337</ele><time>2026-04-12T09:22:58.807Z</time></trkpt><trkpt lat="45.9155917" lon="8.77676"><ele>300.1666666666667</ele><time>2026-04-12T09:23:00.807Z</time></trkpt><trkpt lat="45.9155783" lon="8.7766467"><ele>299.0</ele><time>2026-04-12T09:23:02.807Z</time></trkpt><trkpt lat="45.9155583" lon="8.7765517"><ele>296.59999999999997</ele><time>2026-04-12T09:23:03.807Z</time></trkpt><trkpt lat="45.9155433" lon="8.7764517"><ele>294.2</ele><time>2026-04-12T09:23:04.807Z</time></trkpt><trkpt lat="45.9155417" lon="8.776335"><ele>291.79999999999995</ele><time>2026-04-12T09:23:05.807Z</time></trkpt><trkpt lat="45.915535" lon="8.77617"><ele>289.4</ele><time>2026-04-12T09:23:06.807Z</time></trkpt><trkpt lat="45.9155367" lon="8.7760517"><ele>287.0</ele><time>2026-04-12T09:23:07.807Z</time></trkpt><trkpt lat="45.9155767" lon="8.775915"><ele>285.85714285714283</ele><time>2026-04-12T09:23:09.807Z</time></trkpt><trkpt lat="45.915635" lon="8.7758567"><ele>284.7142857142857</ele><time>2026-04-12T09:23:11.807Z</time></trkpt><trkpt lat="45.91561" lon="8.7757667"><ele>283.57142857142856</ele><time>2026-04-12T09:23:17.807Z</time></trkpt><trkpt lat="45.9155383" lon="8.77575"><ele>282.42857142857144</ele><time>2026-04-12T09:23:20.807Z</time></trkpt><trkpt lat="45.9154667" lon="8.775735"><ele>281.2857142857143</ele><time>2026-04-12T09:23:23.807Z</time></trkpt><trkpt lat="45.915385" lon="8.775715"><ele>280.1428571428571</ele><time>2026-04-12T09:23:26.807Z</time></trkpt><trkpt lat="45.91532" lon="8.7756783"><ele>279.0</ele><time>2026-04-12T09:23:28.807Z</time></trkpt><trkpt lat="45.9152617" lon="8.775615"><ele>279.0</ele><time>2026-04-12T09:23:31.807Z</time></trkpt><trkpt lat="45.915185" lon="8.77559"><ele>279.0</ele><time>2026-04-12T09:23:35.807Z</time></trkpt><trkpt lat="45.9151317" lon="8.7755367"><ele>279.0</ele><time>2026-04-12T09:23:39.807Z</time></trkpt><trkpt lat="45.9150983" lon="8.7754217"><ele>279.0</ele><time>2026-04-12T09:23:42.807Z</time></trkpt><trkpt lat="45.9150683" lon="8.7753183"><ele>279.0</ele><time>2026-04-12T09:23:45.807Z</time></trkpt><trkpt lat="45.91503" lon="8.7752017"><ele>279.0</ele><time>2026-04-12T09:23:48.806Z</time></trkpt><trkpt lat="45.9149833" lon="8.7751217"><ele>279.8333333333333</ele><time>2026-04-12T09:23:52.806Z</time></trkpt><trkpt lat="45.9149883" lon="8.7750167"><ele>280.6666666666667</ele><time>2026-04-12T09:24:19.807Z</time></trkpt><trkpt lat="45.9148983" lon="8.775025"><ele>281.5</ele><time>2026-04-12T09:24:20.807Z</time></trkpt><trkpt lat="45.9148317" lon="8.775065"><ele>282.33333333333337</ele><time>2026-04-12T09:24:29.807Z</time></trkpt><trkpt lat="45.9147567" lon="8.7751233"><ele>283.1666666666667</ele><time>2026-04-12T09:24:44.807Z</time></trkpt><trkpt lat="45.9146967" lon="8.775165"><ele>284.0</ele><time>2026-04-12T09:24:47.807Z</time></trkpt><trkpt lat="45.9146217" lon="8.7751967"><ele>284.0</ele><time>2026-04-12T09:24:49.807Z</time></trkpt><trkpt lat="45.914555" lon="8.7752483"><ele>284.0</ele><time>2026-04-12T09:24:51.806Z</time></trkpt><trkpt lat="45.9145017" lon="8.7753117"><ele>284.0</ele><time>2026-04-12T09:24:53.806Z</time></trkpt><trkpt lat="45.914455" lon="8.7754"><ele>284.0</ele><time>2026-04-12T09:24:55.807Z</time></trkpt><trkpt lat="45.9143933" lon="8.7754483"><ele>284.0</ele><time>2026-04-12T09:24:57.807Z</time></trkpt><trkpt lat="45.9143383" lon="8.7755"><ele>284.0</ele><time>2026-04-12T09:24:59.807Z</time></trkpt><trkpt lat="45.914235" lon="8.775535"><ele>287.2</ele><time>2026-04-12T09:25:02.807Z</time></trkpt><trkpt lat="45.9141717" lon="8.77554"><ele>290.4</ele><time>2026-04-12T09:25:03.807Z</time></trkpt><trkpt lat="45.9140467" lon="8.7755283"><ele>293.6</ele><time>2026-04-12T09:25:05.807Z</time></trkpt><trkpt lat="45.91392" lon="8.7755133"><ele>296.8</ele><time>2026-04-12T09:25:07.807Z</time></trkpt><trkpt lat="45.9138483" lon="8.7755133"><ele>300.0</ele><time>2026-04-12T09:25:08.807Z</time></trkpt><trkpt lat="45.9137583" lon="8.7755267"><ele>300.0</ele><time>2026-04-12T09:25:09.807Z</time></trkpt><trkpt lat="45.9136267" lon="8.7755583"><ele>300.0</ele><time>2026-04-12T09:25:10.806Z</time></trkpt><trkpt lat="45.913515" lon="8.7755933"><ele>300.0</ele><time>2026-04-12T09:25:11.807Z</time></trkpt><trkpt lat="45.91343" lon="8.7756183"><ele>300.0</ele><time>2026-04-12T09:25:12.806Z</time></trkpt><trkpt lat="45.9133633" lon="8.77563"><ele>300.0</ele><time>2026-04-12T09:25:13.807Z</time></trkpt><trkpt lat="45.9132733" lon="8.77563"><ele>301.6</ele><time>2026-04-12T09:25:15.806Z</time></trkpt><trkpt lat="45.913195" lon="8.7755717"><ele>303.2</ele><time>2026-04-12T09:25:29.807Z</time></trkpt><trkpt lat="45.9131717" lon="8.7754367"><ele>304.8</ele><time>2026-04-12T09:25:31.807Z</time></trkpt><trkpt lat="45.913155" lon="8.7752667"><ele>306.4</ele><time>2026-04-12T09:25:33.807Z</time></trkpt><trkpt lat="45.91318" lon="8.7751083"><ele>308.0</ele><time>2026-04-12T09:25:35.807Z</time></trkpt><trkpt lat="45.9132133" lon="8.7750067"><ele>308.0</ele><time>2026-04-12T09:25:36.807Z</time></trkpt><trkpt lat="45.9132617" lon="8.7749067"><ele>308.0</ele><time>2026-04-12T09:25:37.807Z</time></trkpt><trkpt lat="45.913315" lon="8.774805"><ele>308.0</ele><time>2026-04-12T09:25:38.807Z</time></trkpt><trkpt lat="45.91336" lon="8.7747183"><ele>308.0</ele><time>2026-04-12T09:25:39.807Z</time></trkpt><trkpt lat="45.9134067" lon="8.77464"><ele>308.0</ele><time>2026-04-12T09:25:40.807Z</time></trkpt><trkpt lat="45.9134767" lon="8.7745433"><ele>308.0</ele><time>2026-04-12T09:25:41.806Z</time></trkpt><trkpt lat="45.9135567" lon="8.7744333"><ele>306.6</ele><time>2026-04-12T09:25:42.807Z</time></trkpt><trkpt lat="45.9136333" lon="8.774325"><ele>305.20000000000005</ele><time>2026-04-12T09:25:43.807Z</time></trkpt><trkpt lat="45.9137167" lon="8.7742117"><ele>303.8</ele><time>2026-04-12T09:25:44.807Z</time></trkpt><trkpt lat="45.913795" lon="8.7741067"><ele>302.40000000000003</ele><time>2026-04-12T09:25:45.807Z</time></trkpt><trkpt lat="45.91388" lon="8.774"><ele>301.0</ele><time>2026-04-12T09:25:46.807Z</time></trkpt><trkpt lat="45.9139583" lon="8.7739017"><ele>301.0</ele><time>2026-04-12T09:25:47.807Z</time></trkpt><trkpt lat="45.9140333" lon="8.7738033"><ele>301.0</ele><time>2026-04-12T09:25:48.806Z</time></trkpt><trkpt lat="45.914105" lon="8.7737183"><ele>301.0</ele><time>2026-04-12T09:25:49.807Z</time></trkpt><trkpt lat="45.9141717" lon="8.7736417"><ele>301.0</ele><time>2026-04-12T09:25:50.807Z</time></trkpt><trkpt lat="45.9142217" lon="8.77356"><ele>301.0</ele><time>2026-04-12T09:25:51.807Z</time></trkpt><trkpt lat="45.9142467" lon="8.7734117"><ele>301.0</ele><time>2026-04-12T09:25:53.807Z</time></trkpt><trkpt lat="45.9141433" lon="8.7732717"><ele>301.0</ele><time>2026-04-12T09:25:55.806Z</time></trkpt><trkpt lat="45.9140733" lon="8.7732"><ele>301.0</ele><time>2026-04-12T09:25:56.807Z</time></trkpt><trkpt lat="45.9140033" lon="8.7731283"><ele>301.0</ele><time>2026-04-12T09:25:57.807Z</time></trkpt><trkpt lat="45.913935" lon="8.7730683"><ele>301.0</ele><time>2026-04-12T09:25:58.807Z</time></trkpt><trkpt lat="45.91388" lon="8.77301"><ele>301.0</ele><time>2026-04-12T09:25:59.807Z</time></trkpt><trkpt lat="45.913835" lon="8.772875"><ele>301.0</ele><time>2026-04-12T09:26:01.807Z</time></trkpt><trkpt lat="45.9138567" lon="8.7727783"><ele>301.0</ele><time>2026-04-12T09:26:02.807Z</time></trkpt><trkpt lat="45.9138933" lon="8.772675"><ele>301.0</ele><time>2026-04-12T09:26:03.807Z</time></trkpt><trkpt lat="45.913945" lon="8.7725467"><ele>301.0</ele><time>2026-04-12T09:26:04.807Z</time></trkpt><trkpt lat="45.9140017" lon="8.7724233"><ele>301.0</ele><time>2026-04-12T09:26:05.807Z</time></trkpt><trkpt lat="45.914055" lon="8.7722933"><ele>301.0</ele><time>2026-04-12T09:26:06.806Z</time></trkpt><trkpt lat="45.9140917" lon="8.7721617"><ele>301.0</ele><time>2026-04-12T09:26:07.807Z</time></trkpt><trkpt lat="45.9141367" lon="8.7720317"><ele>301.0</ele><time>2026-04-12T09:26:08.806Z</time></trkpt><trkpt lat="45.914185" lon="8.77192"><ele>301.0</ele><time>2026-04-12T09:26:09.807Z</time></trkpt><trkpt lat="45.9142217" lon="8.7718133"><ele>300.66666666666663</ele><time>2026-04-12T09:26:10.807Z</time></trkpt><trkpt lat="45.914275" lon="8.771725"><ele>300.3333333333333</ele><time>2026-04-12T09:26:11.807Z</time></trkpt><trkpt lat="45.91434" lon="8.7716333"><ele>300.0</ele><time>2026-04-12T09:26:12.807Z</time></trkpt><trkpt lat="45.9144033" lon="8.7715517"><ele>299.6666666666667</ele><time>2026-04-12T09:26:13.806Z</time></trkpt><trkpt lat="45.9144633" lon="8.771475"><ele>299.33333333333337</ele><time>2026-04-12T09:26:14.807Z</time></trkpt><trkpt lat="45.91449" lon="8.7713883"><ele>299.0</ele><time>2026-04-12T09:26:15.807Z</time></trkpt><trkpt lat="45.914545" lon="8.7712783"><ele>299.0</ele><time>2026-04-12T09:26:17.806Z</time></trkpt><trkpt lat="45.9144933" lon="8.7711683"><ele>299.0</ele><time>2026-04-12T09:26:23.807Z</time></trkpt><trkpt lat="45.91438" lon="8.7711283"><ele>299.0</ele><time>2026-04-12T09:26:24.807Z</time></trkpt><trkpt lat="45.9142967" lon="8.771085"><ele>299.0</ele><time>2026-04-12T09:26:25.807Z</time></trkpt><trkpt lat="45.9142133" lon="8.771035"><ele>299.0</ele><time>2026-04-12T09:26:26.806Z</time></trkpt><trkpt lat="45.9141367" lon="8.770985"><ele>300.33333333333337</ele><time>2026-04-12T09:26:27.807Z</time></trkpt><trkpt lat="45.9140633" lon="8.7709417"><ele>301.6666666666667</ele><time>2026-04-12T09:26:28.807Z</time></trkpt><trkpt lat="45.9139783" lon="8.77091"><ele>303.0</ele><time>2026-04-12T09:26:29.807Z</time></trkpt><trkpt lat="45.9139117" lon="8.7709033"><ele>304.3333333333333</ele><time>2026-04-12T09:26:30.807Z</time></trkpt><trkpt lat="45.91383" lon="8.7709217"><ele>305.66666666666663</ele><time>2026-04-12T09:26:31.807Z</time></trkpt><trkpt lat="45.91374" lon="8.7709433"><ele>307.0</ele><time>2026-04-12T09:26:32.806Z</time></trkpt><trkpt lat="45.9136417" lon="8.7709633"><ele>307.0</ele><time>2026-04-12T09:26:33.807Z</time></trkpt><trkpt lat="45.913545" lon="8.770985"><ele>307.0</ele><time>2026-04-12T09:26:34.807Z</time></trkpt><trkpt lat="45.9134433" lon="8.770995"><ele>307.0</ele><time>2026-04-12T09:26:35.807Z</time></trkpt><trkpt lat="45.9133483" lon="8.7709933"><ele>307.0</ele><time>2026-04-12T09:26:36.807Z</time></trkpt><trkpt lat="45.91325" lon="8.7709783"><ele>307.0</ele><time>2026-04-12T09:26:37.807Z</time></trkpt><trkpt lat="45.913155" lon="8.7709633"><ele>306.3333333333333</ele><time>2026-04-12T09:26:38.807Z</time></trkpt><trkpt lat="45.91307" lon="8.77095"><ele>305.66666666666663</ele><time>2026-04-12T09:26:39.807Z</time></trkpt><trkpt lat="45.912995" lon="8.7709417"><ele>305.0</ele><time>2026-04-12T09:26:40.806Z</time></trkpt><trkpt lat="45.9128917" lon="8.7709433"><ele>304.3333333333333</ele><time>2026-04-12T09:26:42.807Z</time></trkpt><trkpt lat="45.9128233" lon="8.7709867"><ele>303.6666666666667</ele><time>2026-04-12T09:26:43.807Z</time></trkpt><trkpt lat="45.912745" lon="8.7710483"><ele>303.0</ele><time>2026-04-12T09:26:44.807Z</time></trkpt><trkpt lat="45.912685" lon="8.7711117"><ele>303.6</ele><time>2026-04-12T09:26:45.807Z</time></trkpt><trkpt lat="45.9126267" lon="8.77115"><ele>304.20000000000005</ele><time>2026-04-12T09:26:46.807Z</time></trkpt><trkpt lat="45.912505" lon="8.7711733"><ele>304.8</ele><time>2026-04-12T09:26:48.807Z</time></trkpt><trkpt lat="45.91242" lon="8.771185"><ele>305.40000000000003</ele><time>2026-04-12T09:26:49.807Z</time></trkpt><trkpt lat="45.9123267" lon="8.7711983"><ele>306.0</ele><time>2026-04-12T09:26:50.807Z</time></trkpt><trkpt lat="45.9122283" lon="8.7712083"><ele>306.0</ele><time>2026-04-12T09:26:51.807Z</time></trkpt><trkpt lat="45.9121367" lon="8.7712167"><ele>306.0</ele><time>2026-04-12T09:26:52.807Z</time></trkpt><trkpt lat="45.91205" lon="8.7712333"><ele>306.0</ele><time>2026-04-12T09:26:53.807Z</time></trkpt><trkpt lat="45.9119767" lon="8.7712583"><ele>306.0</ele><time>2026-04-12T09:26:54.806Z</time></trkpt><trkpt lat="45.9119083" lon="8.7712817"><ele>306.0</ele><time>2026-04-12T09:26:55.807Z</time></trkpt><trkpt lat="45.9118567" lon="8.7713517"><ele>306.0</ele><time>2026-04-12T09:26:58.807Z</time></trkpt><trkpt lat="45.9117683" lon="8.771395"><ele>309.25</ele><time>2026-04-12T09:27:04.806Z</time></trkpt><trkpt lat="45.9116367" lon="8.7713917"><ele>312.5</ele><time>2026-04-12T09:27:06.807Z</time></trkpt><trkpt lat="45.9115267" lon="8.7714067"><ele>315.75</ele><time>2026-04-12T09:27:07.806Z</time></trkpt><trkpt lat="45.9114233" lon="8.7714133"><ele>319.0</ele><time>2026-04-12T09:27:08.807Z</time></trkpt><trkpt lat="45.9113183" lon="8.7714117"><ele>319.0</ele><time>2026-04-12T09:27:09.807Z</time></trkpt><trkpt lat="45.9112267" lon="8.7713933"><ele>319.0</ele><time>2026-04-12T09:27:10.807Z</time></trkpt><trkpt lat="45.9111167" lon="8.7713633"><ele>319.0</ele><time>2026-04-12T09:27:11.807Z</time></trkpt><trkpt lat="45.9109967" lon="8.7713367"><ele>319.0</ele><time>2026-04-12T09:27:12.807Z</time></trkpt><trkpt lat="45.910885" lon="8.7713033"><ele>319.0</ele><time>2026-04-12T09:27:13.807Z</time></trkpt><trkpt lat="45.91078" lon="8.77131"><ele>321.0</ele><time>2026-04-12T09:27:14.807Z</time></trkpt><trkpt lat="45.910695" lon="8.7713417"><ele>323.0</ele><time>2026-04-12T09:27:15.807Z</time></trkpt><trkpt lat="45.91062" lon="8.7713867"><ele>325.0</ele><time>2026-04-12T09:27:16.807Z</time></trkpt><trkpt lat="45.910555" lon="8.7714283"><ele>327.0</ele><time>2026-04-12T09:27:17.807Z</time></trkpt><trkpt lat="45.9105033" lon="8.7715033"><ele>329.0</ele><time>2026-04-12T09:27:19.807Z</time></trkpt><trkpt lat="45.9104517" lon="8.7716283"><ele>331.0</ele><time>2026-04-12T09:27:22.807Z</time></trkpt><trkpt lat="45.9104117" lon="8.7717083"><ele>328.6</ele><time>2026-04-12T09:27:23.807Z</time></trkpt><trkpt lat="45.9103583" lon="8.7719017"><ele>326.20000000000005</ele><time>2026-04-12T09:27:25.807Z</time></trkpt><trkpt lat="45.9103183" lon="8.772015"><ele>323.79999999999995</ele><time>2026-04-12T09:27:26.807Z</time></trkpt><trkpt lat="45.91028" lon="8.7721083"><ele>321.4</ele><time>2026-04-12T09:27:27.807Z</time></trkpt><trkpt lat="45.9102217" lon="8.7722467"><ele>319.0</ele><time>2026-04-12T09:27:29.807Z</time></trkpt><trkpt lat="45.9101633" lon="8.7723217"><ele>319.0</ele><time>2026-04-12T09:27:30.807Z</time></trkpt><trkpt lat="45.9100933" lon="8.7723867"><ele>319.0</ele><time>2026-04-12T09:27:31.807Z</time></trkpt><trkpt lat="45.91001" lon="8.7724383"><ele>319.0</ele><time>2026-04-12T09:27:32.807Z</time></trkpt><trkpt lat="45.9099133" lon="8.7724717"><ele>319.0</ele><time>2026-04-12T09:27:33.807Z</time></trkpt><trkpt lat="45.9098283" lon="8.7725067"><ele>319.0</ele><time>2026-04-12T09:27:34.807Z</time></trkpt><trkpt lat="45.9097567" lon="8.772515"><ele>319.0</ele><time>2026-04-12T09:27:35.807Z</time></trkpt><trkpt lat="45.90963" lon="8.772475"><ele>322.3333333333333</ele><time>2026-04-12T09:27:37.807Z</time></trkpt><trkpt lat="45.9095617" lon="8.77244"><ele>325.66666666666663</ele><time>2026-04-12T09:27:38.807Z</time></trkpt><trkpt lat="45.909495" lon="8.7723833"><ele>329.0</ele><time>2026-04-12T09:27:39.807Z</time></trkpt><trkpt lat="45.90942" lon="8.7723267"><ele>332.3333333333333</ele><time>2026-04-12T09:27:40.807Z</time></trkpt><trkpt lat="45.9093583" lon="8.7722517"><ele>335.6666666666667</ele><time>2026-04-12T09:27:41.807Z</time></trkpt><trkpt lat="45.9093133" lon="8.7721783"><ele>339.0</ele><time>2026-04-12T09:27:42.807Z</time></trkpt><trkpt lat="45.909265" lon="8.7721083"><ele>340.3333333333333</ele><time>2026-04-12T09:27:43.807Z</time></trkpt><trkpt lat="45.90919" lon="8.7719733"><ele>341.6666666666667</ele><time>2026-04-12T09:27:45.807Z</time></trkpt><trkpt lat="45.9091417" lon="8.7718967"><ele>343.0</ele><time>2026-04-12T09:27:46.806Z</time></trkpt><trkpt lat="45.9090883" lon="8.7718083"><ele>344.33333333333337</ele><time>2026-04-12T09:27:47.807Z</time></trkpt><trkpt lat="45.9090383" lon="8.77171"><ele>345.6666666666667</ele><time>2026-04-12T09:27:48.807Z</time></trkpt><trkpt lat="45.9090033" lon="8.7716117"><ele>347.0</ele><time>2026-04-12T09:27:49.807Z</time></trkpt><trkpt lat="45.90898" lon="8.7715083"><ele>347.0</ele><time>2026-04-12T09:27:50.807Z</time></trkpt><trkpt lat="45.9089433" lon="8.771405"><ele>347.0</ele><time>2026-04-12T09:27:51.807Z</time></trkpt><trkpt lat="45.9089083" lon="8.7713017"><ele>347.0</ele><time>2026-04-12T09:27:52.807Z</time></trkpt><trkpt lat="45.9088717" lon="8.7712067"><ele>347.0</ele><time>2026-04-12T09:27:53.807Z</time></trkpt><trkpt lat="45.9088383" lon="8.7711267"><ele>347.0</ele><time>2026-04-12T09:27:54.806Z</time></trkpt><trkpt lat="45.9087983" lon="8.7710417"><ele>347.0</ele><time>2026-04-12T09:27:55.806Z</time></trkpt><trkpt lat="45.9087683" lon="8.7709583"><ele>347.0</ele><time>2026-04-12T09:27:56.807Z</time></trkpt><trkpt lat="45.9087383" lon="8.7708583"><ele>347.42857142857144</ele><time>2026-04-12T09:27:57.807Z</time></trkpt><trkpt lat="45.9087083" lon="8.7707567"><ele>347.85714285714283</ele><time>2026-04-12T09:27:58.807Z</time></trkpt><trkpt lat="45.90868" lon="8.77067"><ele>348.2857142857143</ele><time>2026-04-12T09:27:59.807Z</time></trkpt><trkpt lat="45.9086567" lon="8.770575"><ele>348.7142857142857</ele><time>2026-04-12T09:28:00.806Z</time></trkpt><trkpt lat="45.9086217" lon="8.7704883"><ele>349.1428571428571</ele><time>2026-04-12T09:28:01.807Z</time></trkpt><trkpt lat="45.9085917" lon="8.7704067"><ele>349.57142857142856</ele><time>2026-04-12T09:28:02.807Z</time></trkpt><trkpt lat="45.908565" lon="8.7703233"><ele>350.0</ele><time>2026-04-12T09:28:03.807Z</time></trkpt><trkpt lat="45.9085367" lon="8.7702233"><ele>350.6666666666667</ele><time>2026-04-12T09:28:04.807Z</time></trkpt><trkpt lat="45.9085033" lon="8.770125"><ele>351.33333333333337</ele><time>2026-04-12T09:28:05.807Z</time></trkpt><trkpt lat="45.90847" lon="8.7700317"><ele>352.0</ele><time>2026-04-12T09:28:06.807Z</time></trkpt><trkpt lat="45.9084317" lon="8.76992"><ele>352.6666666666667</ele><time>2026-04-12T09:28:07.807Z</time></trkpt><trkpt lat="45.9083933" lon="8.7697933"><ele>353.3333333333333</ele><time>2026-04-12T09:28:08.807Z</time></trkpt><trkpt lat="45.9083667" lon="8.7696617"><ele>354.0</ele><time>2026-04-12T09:28:09.806Z</time></trkpt><trkpt lat="45.9083417" lon="8.7695233"><ele>354.0</ele><time>2026-04-12T09:28:10.807Z</time></trkpt><trkpt lat="45.90831" lon="8.769395"><ele>354.0</ele><time>2026-04-12T09:28:11.807Z</time></trkpt><trkpt lat="45.908275" lon="8.7692783"><ele>354.0</ele><time>2026-04-12T09:28:12.807Z</time></trkpt><trkpt lat="45.90825" lon="8.7691517"><ele>354.0</ele><time>2026-04-12T09:28:13.807Z</time></trkpt><trkpt lat="45.9082317" lon="8.7690367"><ele>354.0</ele><time>2026-04-12T09:28:14.807Z</time></trkpt><trkpt lat="45.9082217" lon="8.7689417"><ele>354.0</ele><time>2026-04-12T09:28:15.807Z</time></trkpt><trkpt lat="45.9082" lon="8.7687767"><ele>353.6</ele><time>2026-04-12T09:28:17.807Z</time></trkpt><trkpt lat="45.9081933" lon="8.768635"><ele>353.2</ele><time>2026-04-12T09:28:19.807Z</time></trkpt><trkpt lat="45.9081817" lon="8.7684567"><ele>352.8</ele><time>2026-04-12T09:28:21.807Z</time></trkpt><trkpt lat="45.908175" lon="8.7682733"><ele>352.40000000000003</ele><time>2026-04-12T09:28:23.807Z</time></trkpt><trkpt lat="45.9081383" lon="8.7681517"><ele>352.0</ele><time>2026-04-12T09:28:24.807Z</time></trkpt><trkpt lat="45.9080967" lon="8.76803"><ele>352.16666666666663</ele><time>2026-04-12T09:28:25.807Z</time></trkpt><trkpt lat="45.9080467" lon="8.7679283"><ele>352.3333333333333</ele><time>2026-04-12T09:28:26.807Z</time></trkpt><trkpt lat="45.90801" lon="8.7678433"><ele>352.5</ele><time>2026-04-12T09:28:27.807Z</time></trkpt><trkpt lat="45.9079583" lon="8.7677067"><ele>352.6666666666667</ele><time>2026-04-12T09:28:29.807Z</time></trkpt><trkpt lat="45.9079233" lon="8.7676167"><ele>352.83333333333337</ele><time>2026-04-12T09:28:32.807Z</time></trkpt><trkpt lat="45.9078767" lon="8.7675417"><ele>353.0</ele><time>2026-04-12T09:28:35.807Z</time></trkpt><trkpt lat="45.9078517" lon="8.7674567"><ele>353.0</ele><time>2026-04-12T09:28:38.807Z</time></trkpt><trkpt lat="45.9077417" lon="8.7673733"><ele>353.0</ele><time>2026-04-12T09:29:24.807Z</time></trkpt><trkpt lat="45.9076967" lon="8.7672367"><ele>353.0</ele><time>2026-04-12T09:30:23.807Z</time></trkpt><trkpt lat="45.907635" lon="8.7671567"><ele>353.0</ele><time>2026-04-12T09:30:49.807Z</time></trkpt></trkseg><trkseg><trkpt lat="45.83853" lon="8.699295"><ele>296.1</ele><time>2026-04-12T10:29:17.796Z</time></trkpt></trkseg></trk></gpx>